<?xml version='1.0' encoding='UTF-8'?><gpx version="1.1" creator="JPX - https://github.com/jenetics/jpx" xmlns="http://www.topografix.com/GPX/1/1"><trk><trkseg><trkpt lat="44.1507234" lon="10.4124104"><ele>546.0</ele><time>2026-04-13T08:13:14.962Z</time></trkpt><trkpt lat="44.1507525" lon="10.4122691"><ele>546.0</ele><time>2026-04-13T08:13:19.971Z</time></trkpt><trkpt lat="44.1507808" lon="10.4121193"><ele>546.0</ele><time>2026-04-13T08:13:21.966Z</time></trkpt><trkpt lat="44.1508318" lon="10.4120336"><ele>546.0</ele><time>2026-04-13T08:13:23.959Z</time></trkpt><trkpt lat="44.1508972" lon="10.4120211"><ele>546.0</ele><time>2026-04-13T08:13:25.967Z</time></trkpt><trkpt lat="44.1509624" lon="10.4120361"><ele>546.0</ele><time>2026-04-13T08:13:27.961Z</time></trkpt><trkpt lat="44.1510349" lon="10.412015"><ele>543.5</ele><time>2026-04-13T08:13:30.968Z</time></trkpt><trkpt lat="44.1510519" lon="10.4119106"><ele>541.0</ele><time>2026-04-13T08:13:33.96Z</time></trkpt><trkpt lat="44.1509722" lon="10.4118358"><ele>538.5</ele><time>2026-04-13T08:13:35.97Z</time></trkpt><trkpt lat="44.1508997" lon="10.4117818"><ele>536.0</ele><time>2026-04-13T08:13:37.971Z</time></trkpt><trkpt lat="44.1508313" lon="10.4117412"><ele>533.5</ele><time>2026-04-13T08:13:39.974Z</time></trkpt><trkpt lat="44.1507478" lon="10.4117414"><ele>531.0</ele><time>2026-04-13T08:13:41.961Z</time></trkpt><trkpt lat="44.1506459" lon="10.4117516"><ele>530.8333333333334</ele><time>2026-04-13T08:13:43.96Z</time></trkpt><trkpt lat="44.1505272" lon="10.4117362"><ele>530.6666666666666</ele><time>2026-04-13T08:13:45.961Z</time></trkpt><trkpt lat="44.1504658" lon="10.4117164"><ele>530.5</ele><time>2026-04-13T08:13:46.964Z</time></trkpt><trkpt lat="44.1503992" lon="10.4116857"><ele>530.3333333333333</ele><time>2026-04-13T08:13:47.958Z</time></trkpt><trkpt lat="44.150331" lon="10.4116492"><ele>530.1666666666666</ele><time>2026-04-13T08:13:48.96Z</time></trkpt><trkpt lat="44.1502656" lon="10.4116095"><ele>530.0</ele><time>2026-04-13T08:13:49.969Z</time></trkpt><trkpt lat="44.1501948" lon="10.4115807"><ele>530.0</ele><time>2026-04-13T08:13:50.957Z</time></trkpt><trkpt lat="44.1501212" lon="10.4115411"><ele>530.0</ele><time>2026-04-13T08:13:51.959Z</time></trkpt><trkpt lat="44.1500468" lon="10.4115079"><ele>530.0</ele><time>2026-04-13T08:13:52.974Z</time></trkpt><trkpt lat="44.1499682" lon="10.4114719"><ele>530.0</ele><time>2026-04-13T08:13:53.957Z</time></trkpt><trkpt lat="44.1498943" lon="10.4114303"><ele>530.0</ele><time>2026-04-13T08:13:54.97Z</time></trkpt><trkpt lat="44.149816" lon="10.4113885"><ele>530.0</ele><time>2026-04-13T08:13:55.972Z</time></trkpt><trkpt lat="44.1497393" lon="10.4113474"><ele>531.0</ele><time>2026-04-13T08:13:56.979Z</time></trkpt><trkpt lat="44.1496631" lon="10.4113053"><ele>532.0</ele><time>2026-04-13T08:13:57.984Z</time></trkpt><trkpt lat="44.1495857" lon="10.4112589"><ele>533.0</ele><time>2026-04-13T08:13:58.969Z</time></trkpt><trkpt lat="44.149513" lon="10.4112118"><ele>534.0</ele><time>2026-04-13T08:13:59.977Z</time></trkpt><trkpt lat="44.1494424" lon="10.411169"><ele>535.0</ele><time>2026-04-13T08:14:00.961Z</time></trkpt><trkpt lat="44.1493742" lon="10.4111294"><ele>536.0</ele><time>2026-04-13T08:14:01.96Z</time></trkpt><trkpt lat="44.1492981" lon="10.4110996"><ele>536.0</ele><time>2026-04-13T08:14:02.96Z</time></trkpt><trkpt lat="44.1492213" lon="10.4110794"><ele>536.0</ele><time>2026-04-13T08:14:03.965Z</time></trkpt><trkpt lat="44.1491464" lon="10.411075"><ele>536.0</ele><time>2026-04-13T08:14:04.963Z</time></trkpt><trkpt lat="44.1490806" lon="10.4111138"><ele>536.0</ele><time>2026-04-13T08:14:05.963Z</time></trkpt><trkpt lat="44.1490172" lon="10.4111708"><ele>536.0</ele><time>2026-04-13T08:14:06.975Z</time></trkpt><trkpt lat="44.1489537" lon="10.4112195"><ele>536.0</ele><time>2026-04-13T08:14:07.965Z</time></trkpt><trkpt lat="44.1488604" lon="10.4113087"><ele>533.8</ele><time>2026-04-13T08:14:09.959Z</time></trkpt><trkpt lat="44.1487602" lon="10.4113708"><ele>531.6</ele><time>2026-04-13T08:14:11.96Z</time></trkpt><trkpt lat="44.148671" lon="10.4113318"><ele>529.4</ele><time>2026-04-13T08:14:13.96Z</time></trkpt><trkpt lat="44.1486039" lon="10.4112532"><ele>527.2</ele><time>2026-04-13T08:14:15.962Z</time></trkpt><trkpt lat="44.1485511" lon="10.4111518"><ele>525.0</ele><time>2026-04-13T08:14:17.968Z</time></trkpt><trkpt lat="44.1485095" lon="10.4110465"><ele>525.0</ele><time>2026-04-13T08:14:19.963Z</time></trkpt><trkpt lat="44.1484694" lon="10.4109326"><ele>525.0</ele><time>2026-04-13T08:14:21.961Z</time></trkpt><trkpt lat="44.1484359" lon="10.4108188"><ele>525.0</ele><time>2026-04-13T08:14:23.963Z</time></trkpt><trkpt lat="44.1483973" lon="10.410704"><ele>525.0</ele><time>2026-04-13T08:14:25.955Z</time></trkpt><trkpt lat="44.1483607" lon="10.4105832"><ele>525.0</ele><time>2026-04-13T08:14:27.958Z</time></trkpt><trkpt lat="44.1483259" lon="10.4104581"><ele>525.8</ele><time>2026-04-13T08:14:29.958Z</time></trkpt><trkpt lat="44.1482939" lon="10.4103265"><ele>526.6</ele><time>2026-04-13T08:14:31.963Z</time></trkpt><trkpt lat="44.1482631" lon="10.4101879"><ele>527.4</ele><time>2026-04-13T08:14:33.963Z</time></trkpt><trkpt lat="44.1482389" lon="10.4100476"><ele>528.2</ele><time>2026-04-13T08:14:35.957Z</time></trkpt><trkpt lat="44.1482109" lon="10.4099095"><ele>529.0</ele><time>2026-04-13T08:14:37.966Z</time></trkpt><trkpt lat="44.1481853" lon="10.4097686"><ele>524.0</ele><time>2026-04-13T08:14:39.958Z</time></trkpt><trkpt lat="44.1481623" lon="10.4096085"><ele>519.0</ele><time>2026-04-13T08:14:41.962Z</time></trkpt><trkpt lat="44.1481486" lon="10.4094512"><ele>514.0</ele><time>2026-04-13T08:14:43.97Z</time></trkpt><trkpt lat="44.1481341" lon="10.4092874"><ele>509.0</ele><time>2026-04-13T08:14:45.973Z</time></trkpt><trkpt lat="44.1481149" lon="10.4091316"><ele>509.0</ele><time>2026-04-13T08:14:47.967Z</time></trkpt><trkpt lat="44.148104" lon="10.4089796"><ele>509.0</ele><time>2026-04-13T08:14:49.966Z</time></trkpt><trkpt lat="44.1480899" lon="10.4088224"><ele>509.0</ele><time>2026-04-13T08:14:51.967Z</time></trkpt><trkpt lat="44.1480764" lon="10.4086594"><ele>509.0</ele><time>2026-04-13T08:14:53.968Z</time></trkpt><trkpt lat="44.1480656" lon="10.4084921"><ele>508.8571428571428</ele><time>2026-04-13T08:14:55.963Z</time></trkpt><trkpt lat="44.1480591" lon="10.4084037"><ele>508.71428571428567</ele><time>2026-04-13T08:14:56.962Z</time></trkpt><trkpt lat="44.1480508" lon="10.4083112"><ele>508.57142857142856</ele><time>2026-04-13T08:14:57.967Z</time></trkpt><trkpt lat="44.1480455" lon="10.4082216"><ele>508.4285714285714</ele><time>2026-04-13T08:14:58.965Z</time></trkpt><trkpt lat="44.1480363" lon="10.4081263"><ele>508.2857142857142</ele><time>2026-04-13T08:14:59.979Z</time></trkpt><trkpt lat="44.1480245" lon="10.4080293"><ele>508.14285714285717</ele><time>2026-04-13T08:15:00.969Z</time></trkpt><trkpt lat="44.1480003" lon="10.40793"><ele>508.0</ele><time>2026-04-13T08:15:01.978Z</time></trkpt><trkpt lat="44.1479554" lon="10.4078442"><ele>508.00000000000006</ele><time>2026-04-13T08:15:02.976Z</time></trkpt><trkpt lat="44.1478903" lon="10.4077844"><ele>508.0</ele><time>2026-04-13T08:15:03.975Z</time></trkpt><trkpt lat="44.14781" lon="10.40775"><ele>508.0</ele><time>2026-04-13T08:15:04.968Z</time></trkpt><trkpt lat="44.1477254" lon="10.4077277"><ele>508.0</ele><time>2026-04-13T08:15:05.964Z</time></trkpt><trkpt lat="44.1476383" lon="10.4077068"><ele>508.00000000000006</ele><time>2026-04-13T08:15:06.98Z</time></trkpt><trkpt lat="44.1475469" lon="10.4076882"><ele>508.0</ele><time>2026-04-13T08:15:07.97Z</time></trkpt><trkpt lat="44.1474581" lon="10.4076917"><ele>506.6666666666667</ele><time>2026-04-13T08:15:08.988Z</time></trkpt><trkpt lat="44.1473764" lon="10.4077108"><ele>505.33333333333337</ele><time>2026-04-13T08:15:09.974Z</time></trkpt><trkpt lat="44.1473025" lon="10.4077452"><ele>504.0</ele><time>2026-04-13T08:15:10.978Z</time></trkpt><trkpt lat="44.147243" lon="10.4077915"><ele>502.66666666666663</ele><time>2026-04-13T08:15:11.967Z</time></trkpt><trkpt lat="44.147171" lon="10.4079141"><ele>501.3333333333333</ele><time>2026-04-13T08:15:13.961Z</time></trkpt><trkpt lat="44.147175" lon="10.4080551"><ele>500.0</ele><time>2026-04-13T08:15:15.961Z</time></trkpt><trkpt lat="44.1472252" lon="10.4081189"><ele>499.99999999999994</ele><time>2026-04-13T08:15:16.978Z</time></trkpt><trkpt lat="44.147277" lon="10.4081807"><ele>500.0</ele><time>2026-04-13T08:15:17.961Z</time></trkpt><trkpt lat="44.1473245" lon="10.4082518"><ele>500.0</ele><time>2026-04-13T08:15:18.981Z</time></trkpt><trkpt lat="44.1473643" lon="10.4083324"><ele>500.0</ele><time>2026-04-13T08:15:19.975Z</time></trkpt><trkpt lat="44.1474025" lon="10.4084276"><ele>499.99999999999994</ele><time>2026-04-13T08:15:20.969Z</time></trkpt><trkpt lat="44.1474344" lon="10.4085293"><ele>500.0</ele><time>2026-04-13T08:15:21.979Z</time></trkpt><trkpt lat="44.1474628" lon="10.4086402"><ele>501.49999999999994</ele><time>2026-04-13T08:15:22.967Z</time></trkpt><trkpt lat="44.1474844" lon="10.4087544"><ele>503.0</ele><time>2026-04-13T08:15:23.967Z</time></trkpt><trkpt lat="44.1475018" lon="10.4088707"><ele>504.5</ele><time>2026-04-13T08:15:24.958Z</time></trkpt><trkpt lat="44.1475218" lon="10.408982"><ele>506.0</ele><time>2026-04-13T08:15:25.968Z</time></trkpt><trkpt lat="44.1475355" lon="10.4091032"><ele>507.49999999999994</ele><time>2026-04-13T08:15:26.969Z</time></trkpt><trkpt lat="44.1475539" lon="10.4092232"><ele>509.0</ele><time>2026-04-13T08:15:27.961Z</time></trkpt><trkpt lat="44.1475694" lon="10.4093447"><ele>509.0</ele><time>2026-04-13T08:15:28.972Z</time></trkpt><trkpt lat="44.1475891" lon="10.4094731"><ele>509.0</ele><time>2026-04-13T08:15:29.981Z</time></trkpt><trkpt lat="44.1476048" lon="10.409606"><ele>509.0</ele><time>2026-04-13T08:15:30.966Z</time></trkpt><trkpt lat="44.1476248" lon="10.4097406"><ele>509.0</ele><time>2026-04-13T08:15:31.98Z</time></trkpt><trkpt lat="44.1476457" lon="10.4098716"><ele>509.0</ele><time>2026-04-13T08:15:32.959Z</time></trkpt><trkpt lat="44.1476645" lon="10.4100092"><ele>507.0</ele><time>2026-04-13T08:15:33.973Z</time></trkpt><trkpt lat="44.1476822" lon="10.4101454"><ele>505.0</ele><time>2026-04-13T08:15:34.965Z</time></trkpt><trkpt lat="44.1477025" lon="10.4102817"><ele>503.0</ele><time>2026-04-13T08:15:35.967Z</time></trkpt><trkpt lat="44.1477248" lon="10.4104196"><ele>501.0</ele><time>2026-04-13T08:15:36.98Z</time></trkpt><trkpt lat="44.1477462" lon="10.410561"><ele>499.0</ele><time>2026-04-13T08:15:37.963Z</time></trkpt><trkpt lat="44.1477682" lon="10.4107004"><ele>498.0</ele><time>2026-04-13T08:15:38.964Z</time></trkpt><trkpt lat="44.1477933" lon="10.4108439"><ele>497.0</ele><time>2026-04-13T08:15:39.969Z</time></trkpt><trkpt lat="44.1478211" lon="10.4109868"><ele>496.0</ele><time>2026-04-13T08:15:40.963Z</time></trkpt><trkpt lat="44.1478511" lon="10.4111309"><ele>495.0</ele><time>2026-04-13T08:15:41.975Z</time></trkpt><trkpt lat="44.1478748" lon="10.4112728"><ele>494.0</ele><time>2026-04-13T08:15:42.968Z</time></trkpt><trkpt lat="44.1478953" lon="10.4114151"><ele>493.2</ele><time>2026-04-13T08:15:43.973Z</time></trkpt><trkpt lat="44.1479192" lon="10.4115581"><ele>492.4</ele><time>2026-04-13T08:15:44.975Z</time></trkpt><trkpt lat="44.1479442" lon="10.4116962"><ele>491.6</ele><time>2026-04-13T08:15:45.976Z</time></trkpt><trkpt lat="44.1479687" lon="10.4118349"><ele>490.8</ele><time>2026-04-13T08:15:46.968Z</time></trkpt><trkpt lat="44.1479939" lon="10.4119702"><ele>490.0</ele><time>2026-04-13T08:15:47.975Z</time></trkpt><trkpt lat="44.1480185" lon="10.4121056"><ele>490.1666666666667</ele><time>2026-04-13T08:15:48.971Z</time></trkpt><trkpt lat="44.1480425" lon="10.4122383"><ele>490.33333333333337</ele><time>2026-04-13T08:15:49.967Z</time></trkpt><trkpt lat="44.1480627" lon="10.412368"><ele>490.5</ele><time>2026-04-13T08:15:50.978Z</time></trkpt><trkpt lat="44.1480855" lon="10.4124935"><ele>490.66666666666663</ele><time>2026-04-13T08:15:51.973Z</time></trkpt><trkpt lat="44.1481123" lon="10.4126091"><ele>490.8333333333333</ele><time>2026-04-13T08:15:52.968Z</time></trkpt><trkpt lat="44.1481347" lon="10.4127087"><ele>491.0</ele><time>2026-04-13T08:15:53.971Z</time></trkpt><trkpt lat="44.1481619" lon="10.4127909"><ele>491.0</ele><time>2026-04-13T08:15:54.978Z</time></trkpt><trkpt lat="44.1481844" lon="10.4129383"><ele>491.0</ele><time>2026-04-13T08:15:56.97Z</time></trkpt><trkpt lat="44.1481771" lon="10.4130506"><ele>491.0</ele><time>2026-04-13T08:15:58.976Z</time></trkpt><trkpt lat="44.1480963" lon="10.4130722"><ele>491.0</ele><time>2026-04-13T08:16:00.987Z</time></trkpt><trkpt lat="44.1480097" lon="10.4129675"><ele>491.0</ele><time>2026-04-13T08:16:02.976Z</time></trkpt><trkpt lat="44.1479158" lon="10.4128361"><ele>490.99999999999994</ele><time>2026-04-13T08:16:04.982Z</time></trkpt><trkpt lat="44.1478674" lon="10.412758"><ele>491.0</ele><time>2026-04-13T08:16:05.961Z</time></trkpt><trkpt lat="44.1478179" lon="10.4126852"><ele>491.0</ele><time>2026-04-13T08:16:06.987Z</time></trkpt><trkpt lat="44.1477651" lon="10.4126077"><ele>491.0</ele><time>2026-04-13T08:16:07.981Z</time></trkpt><trkpt lat="44.1477113" lon="10.4125292"><ele>490.99999999999994</ele><time>2026-04-13T08:16:08.972Z</time></trkpt><trkpt lat="44.1476547" lon="10.4124474"><ele>491.0</ele><time>2026-04-13T08:16:09.981Z</time></trkpt><trkpt lat="44.1475926" lon="10.4123619"><ele>491.0</ele><time>2026-04-13T08:16:10.97Z</time></trkpt><trkpt lat="44.1475309" lon="10.4122716"><ele>491.0</ele><time>2026-04-13T08:16:11.979Z</time></trkpt><trkpt lat="44.1474706" lon="10.4121784"><ele>491.0</ele><time>2026-04-13T08:16:12.999Z</time></trkpt><trkpt lat="44.1474056" lon="10.4120808"><ele>491.0</ele><time>2026-04-13T08:16:13.975Z</time></trkpt><trkpt lat="44.1473379" lon="10.4119848"><ele>491.0</ele><time>2026-04-13T08:16:14.974Z</time></trkpt><trkpt lat="44.14727" lon="10.4118837"><ele>490.20000000000005</ele><time>2026-04-13T08:16:15.975Z</time></trkpt><trkpt lat="44.1471991" lon="10.411779"><ele>489.40000000000003</ele><time>2026-04-13T08:16:16.979Z</time></trkpt><trkpt lat="44.1471232" lon="10.4116712"><ele>488.6</ele><time>2026-04-13T08:16:17.977Z</time></trkpt><trkpt lat="44.1470441" lon="10.411563"><ele>487.8</ele><time>2026-04-13T08:16:18.977Z</time></trkpt><trkpt lat="44.1469647" lon="10.4114486"><ele>487.0</ele><time>2026-04-13T08:16:19.967Z</time></trkpt><trkpt lat="44.1468862" lon="10.4113326"><ele>485.25</ele><time>2026-04-13T08:16:20.981Z</time></trkpt><trkpt lat="44.146806" lon="10.411215"><ele>483.5</ele><time>2026-04-13T08:16:21.969Z</time></trkpt><trkpt lat="44.1467252" lon="10.4110964"><ele>481.75</ele><time>2026-04-13T08:16:22.978Z</time></trkpt><trkpt lat="44.1466379" lon="10.4109795"><ele>480.0</ele><time>2026-04-13T08:16:23.966Z</time></trkpt><trkpt lat="44.1465348" lon="10.4108874"><ele>478.75</ele><time>2026-04-13T08:16:24.98Z</time></trkpt><trkpt lat="44.1464165" lon="10.4108253"><ele>477.5</ele><time>2026-04-13T08:16:25.977Z</time></trkpt><trkpt lat="44.1462934" lon="10.4107776"><ele>476.25</ele><time>2026-04-13T08:16:26.98Z</time></trkpt><trkpt lat="44.1461698" lon="10.4107347"><ele>475.0</ele><time>2026-04-13T08:16:27.965Z</time></trkpt><trkpt lat="44.1460412" lon="10.4106864"><ele>475.0</ele><time>2026-04-13T08:16:28.966Z</time></trkpt><trkpt lat="44.1459142" lon="10.4106413"><ele>475.0</ele><time>2026-04-13T08:16:29.963Z</time></trkpt><trkpt lat="44.1457838" lon="10.4105973"><ele>475.0</ele><time>2026-04-13T08:16:30.967Z</time></trkpt><trkpt lat="44.1456532" lon="10.4105566"><ele>475.0</ele><time>2026-04-13T08:16:31.968Z</time></trkpt><trkpt lat="44.1455201" lon="10.410513"><ele>474.0</ele><time>2026-04-13T08:16:32.966Z</time></trkpt><trkpt lat="44.1453858" lon="10.4104663"><ele>473.0</ele><time>2026-04-13T08:16:33.971Z</time></trkpt><trkpt lat="44.1452519" lon="10.4104212"><ele>472.0</ele><time>2026-04-13T08:16:34.97Z</time></trkpt><trkpt lat="44.1451162" lon="10.4103751"><ele>471.0</ele><time>2026-04-13T08:16:35.97Z</time></trkpt><trkpt lat="44.1449796" lon="10.4103284"><ele>469.25</ele><time>2026-04-13T08:16:36.975Z</time></trkpt><trkpt lat="44.1448411" lon="10.4102839"><ele>467.5</ele><time>2026-04-13T08:16:37.975Z</time></trkpt><trkpt lat="44.1447013" lon="10.4102345"><ele>465.75</ele><time>2026-04-13T08:16:38.976Z</time></trkpt><trkpt lat="44.1445606" lon="10.4101852"><ele>464.0</ele><time>2026-04-13T08:16:39.982Z</time></trkpt><trkpt lat="44.1444199" lon="10.4101339"><ele>464.0</ele><time>2026-04-13T08:16:40.973Z</time></trkpt><trkpt lat="44.1442923" lon="10.410085"><ele>464.0</ele><time>2026-04-13T08:16:41.981Z</time></trkpt><trkpt lat="44.1441747" lon="10.4100391"><ele>464.0</ele><time>2026-04-13T08:16:42.974Z</time></trkpt><trkpt lat="44.1440627" lon="10.4100097"><ele>464.0</ele><time>2026-04-13T08:16:43.972Z</time></trkpt><trkpt lat="44.1439521" lon="10.4100205"><ele>461.2</ele><time>2026-04-13T08:16:44.977Z</time></trkpt><trkpt lat="44.1438424" lon="10.4100623"><ele>458.4</ele><time>2026-04-13T08:16:45.975Z</time></trkpt><trkpt lat="44.1437348" lon="10.4101161"><ele>455.6</ele><time>2026-04-13T08:16:46.976Z</time></trkpt><trkpt lat="44.1436313" lon="10.4101685"><ele>452.8</ele><time>2026-04-13T08:16:47.976Z</time></trkpt><trkpt lat="44.1435415" lon="10.4102134"><ele>450.0</ele><time>2026-04-13T08:16:48.974Z</time></trkpt><trkpt lat="44.1434644" lon="10.4102489"><ele>450.00000000000006</ele><time>2026-04-13T08:16:49.979Z</time></trkpt><trkpt lat="44.1434" lon="10.4103022"><ele>450.0</ele><time>2026-04-13T08:16:50.973Z</time></trkpt><trkpt lat="44.1433601" lon="10.4103829"><ele>450.00000000000006</ele><time>2026-04-13T08:16:51.971Z</time></trkpt><trkpt lat="44.143355" lon="10.4104787"><ele>450.00000000000006</ele><time>2026-04-13T08:16:52.968Z</time></trkpt><trkpt lat="44.1433791" lon="10.4105704"><ele>450.0</ele><time>2026-04-13T08:16:53.962Z</time></trkpt><trkpt lat="44.1434257" lon="10.410644"><ele>450.00000000000006</ele><time>2026-04-13T08:16:54.979Z</time></trkpt><trkpt lat="44.1434835" lon="10.4107069"><ele>450.00000000000006</ele><time>2026-04-13T08:16:55.978Z</time></trkpt><trkpt lat="44.1435488" lon="10.4107679"><ele>449.5</ele><time>2026-04-13T08:16:56.967Z</time></trkpt><trkpt lat="44.1436142" lon="10.4108328"><ele>449.0</ele><time>2026-04-13T08:16:57.965Z</time></trkpt><trkpt lat="44.1436815" lon="10.4108997"><ele>448.5</ele><time>2026-04-13T08:16:58.963Z</time></trkpt><trkpt lat="44.1437536" lon="10.410963"><ele>448.0</ele><time>2026-04-13T08:16:59.979Z</time></trkpt><trkpt lat="44.143825" lon="10.4110271"><ele>447.5</ele><time>2026-04-13T08:17:00.968Z</time></trkpt><trkpt lat="44.1438923" lon="10.4111024"><ele>447.0</ele><time>2026-04-13T08:17:01.968Z</time></trkpt><trkpt lat="44.1439519" lon="10.4111985"><ele>447.0</ele><time>2026-04-13T08:17:02.974Z</time></trkpt><trkpt lat="44.1439921" lon="10.4113142"><ele>447.00000000000006</ele><time>2026-04-13T08:17:03.964Z</time></trkpt><trkpt lat="44.1440061" lon="10.4114487"><ele>447.00000000000006</ele><time>2026-04-13T08:17:04.975Z</time></trkpt><trkpt lat="44.1439877" lon="10.4115797"><ele>447.0</ele><time>2026-04-13T08:17:05.965Z</time></trkpt><trkpt lat="44.1439418" lon="10.4117019"><ele>447.0</ele><time>2026-04-13T08:17:06.973Z</time></trkpt><trkpt lat="44.1438758" lon="10.4118079"><ele>445.6</ele><time>2026-04-13T08:17:07.962Z</time></trkpt><trkpt lat="44.1437987" lon="10.4119036"><ele>444.20000000000005</ele><time>2026-04-13T08:17:08.974Z</time></trkpt><trkpt lat="44.1437059" lon="10.4119767"><ele>442.8</ele><time>2026-04-13T08:17:09.978Z</time></trkpt><trkpt lat="44.1435993" lon="10.4120164"><ele>441.4</ele><time>2026-04-13T08:17:10.972Z</time></trkpt><trkpt lat="44.1434889" lon="10.4120308"><ele>440.0</ele><time>2026-04-13T08:17:11.974Z</time></trkpt><trkpt lat="44.1433814" lon="10.4120553"><ele>440.0</ele><time>2026-04-13T08:17:12.974Z</time></trkpt><trkpt lat="44.1432752" lon="10.4120934"><ele>440.0</ele><time>2026-04-13T08:17:13.999Z</time></trkpt><trkpt lat="44.1431716" lon="10.4121352"><ele>440.0</ele><time>2026-04-13T08:17:14.967Z</time></trkpt><trkpt lat="44.143063" lon="10.4121842"><ele>440.0</ele><time>2026-04-13T08:17:15.974Z</time></trkpt><trkpt lat="44.1429588" lon="10.4122305"><ele>440.0</ele><time>2026-04-13T08:17:16.975Z</time></trkpt><trkpt lat="44.1428657" lon="10.4122731"><ele>438.16666666666663</ele><time>2026-04-13T08:17:17.969Z</time></trkpt><trkpt lat="44.1427841" lon="10.4123268"><ele>436.3333333333333</ele><time>2026-04-13T08:17:18.977Z</time></trkpt><trkpt lat="44.1427241" lon="10.4124114"><ele>434.5</ele><time>2026-04-13T08:17:19.972Z</time></trkpt><trkpt lat="44.1426901" lon="10.4125134"><ele>432.66666666666663</ele><time>2026-04-13T08:17:20.972Z</time></trkpt><trkpt lat="44.142688" lon="10.4126193"><ele>430.8333333333333</ele><time>2026-04-13T08:17:21.961Z</time></trkpt><trkpt lat="44.1427121" lon="10.4127153"><ele>429.0</ele><time>2026-04-13T08:17:22.968Z</time></trkpt><trkpt lat="44.1427646" lon="10.4127921"><ele>429.0</ele><time>2026-04-13T08:17:23.974Z</time></trkpt><trkpt lat="44.1428231" lon="10.4128461"><ele>429.0</ele><time>2026-04-13T08:17:24.972Z</time></trkpt><trkpt lat="44.1429038" lon="10.4128524"><ele>429.0</ele><time>2026-04-13T08:17:25.965Z</time></trkpt><trkpt lat="44.1429908" lon="10.4128641"><ele>429.0</ele><time>2026-04-13T08:17:26.983Z</time></trkpt><trkpt lat="44.1430791" lon="10.4128965"><ele>429.0</ele><time>2026-04-13T08:17:27.961Z</time></trkpt><trkpt lat="44.1431584" lon="10.4129568"><ele>429.0</ele><time>2026-04-13T08:17:28.974Z</time></trkpt><trkpt lat="44.1432183" lon="10.4130491"><ele>429.4</ele><time>2026-04-13T08:17:29.978Z</time></trkpt><trkpt lat="44.1432532" lon="10.4131678"><ele>429.79999999999995</ele><time>2026-04-13T08:17:30.976Z</time></trkpt><trkpt lat="44.1432851" lon="10.4132896"><ele>430.20000000000005</ele><time>2026-04-13T08:17:31.986Z</time></trkpt><trkpt lat="44.1433107" lon="10.4134134"><ele>430.6</ele><time>2026-04-13T08:17:32.97Z</time></trkpt><trkpt lat="44.1433361" lon="10.4135293"><ele>431.0</ele><time>2026-04-13T08:17:33.97Z</time></trkpt><trkpt lat="44.1433582" lon="10.4136442"><ele>430.99999999999994</ele><time>2026-04-13T08:17:34.975Z</time></trkpt><trkpt lat="44.1433756" lon="10.4137628"><ele>431.0</ele><time>2026-04-13T08:17:35.987Z</time></trkpt><trkpt lat="44.1433849" lon="10.4138803"><ele>431.0</ele><time>2026-04-13T08:17:36.971Z</time></trkpt><trkpt lat="44.1433845" lon="10.4140008"><ele>431.0</ele><time>2026-04-13T08:17:37.979Z</time></trkpt><trkpt lat="44.1433796" lon="10.4141189"><ele>430.99999999999994</ele><time>2026-04-13T08:17:38.969Z</time></trkpt><trkpt lat="44.143377" lon="10.4142379"><ele>431.0</ele><time>2026-04-13T08:17:39.975Z</time></trkpt><trkpt lat="44.1433798" lon="10.4143548"><ele>429.99999999999994</ele><time>2026-04-13T08:17:40.967Z</time></trkpt><trkpt lat="44.1433993" lon="10.4144684"><ele>429.0</ele><time>2026-04-13T08:17:41.974Z</time></trkpt><trkpt lat="44.1434458" lon="10.4145753"><ele>428.0</ele><time>2026-04-13T08:17:42.977Z</time></trkpt><trkpt lat="44.1435145" lon="10.4146456"><ele>427.0</ele><time>2026-04-13T08:17:43.97Z</time></trkpt><trkpt lat="44.1435905" lon="10.414697"><ele>425.99999999999994</ele><time>2026-04-13T08:17:44.974Z</time></trkpt><trkpt lat="44.1436894" lon="10.4146937"><ele>425.0</ele><time>2026-04-13T08:17:45.971Z</time></trkpt><trkpt lat="44.1437816" lon="10.4147132"><ele>423.99999999999994</ele><time>2026-04-13T08:17:46.98Z</time></trkpt><trkpt lat="44.1438721" lon="10.4147451"><ele>423.0</ele><time>2026-04-13T08:17:47.974Z</time></trkpt><trkpt lat="44.1439635" lon="10.414786"><ele>422.0</ele><time>2026-04-13T08:17:48.963Z</time></trkpt><trkpt lat="44.1440385" lon="10.4148367"><ele>421.0</ele><time>2026-04-13T08:17:49.97Z</time></trkpt><trkpt lat="44.1440911" lon="10.4148959"><ele>419.99999999999994</ele><time>2026-04-13T08:17:50.966Z</time></trkpt><trkpt lat="44.144101" lon="10.4150394"><ele>419.0</ele><time>2026-04-13T08:17:52.981Z</time></trkpt><trkpt lat="44.1439967" lon="10.4150798"><ele>418.3333333333333</ele><time>2026-04-13T08:17:54.968Z</time></trkpt><trkpt lat="44.1439347" lon="10.4150521"><ele>417.66666666666663</ele><time>2026-04-13T08:17:55.975Z</time></trkpt><trkpt lat="44.1438694" lon="10.4150224"><ele>417.0</ele><time>2026-04-13T08:17:56.976Z</time></trkpt><trkpt lat="44.1437983" lon="10.4149974"><ele>416.33333333333337</ele><time>2026-04-13T08:17:57.971Z</time></trkpt><trkpt lat="44.1437221" lon="10.4149708"><ele>415.6666666666667</ele><time>2026-04-13T08:17:58.961Z</time></trkpt><trkpt lat="44.1436444" lon="10.4149454"><ele>415.0</ele><time>2026-04-13T08:17:59.98Z</time></trkpt><trkpt lat="44.1435604" lon="10.4149198"><ele>415.0</ele><time>2026-04-13T08:18:00.973Z</time></trkpt><trkpt lat="44.1434788" lon="10.4148978"><ele>415.0</ele><time>2026-04-13T08:18:01.973Z</time></trkpt><trkpt lat="44.143385" lon="10.4148682"><ele>415.0</ele><time>2026-04-13T08:18:02.983Z</time></trkpt><trkpt lat="44.1432912" lon="10.4148417"><ele>415.0</ele><time>2026-04-13T08:18:03.972Z</time></trkpt><trkpt lat="44.143185" lon="10.4148315"><ele>415.0</ele><time>2026-04-13T08:18:04.974Z</time></trkpt><trkpt lat="44.1430858" lon="10.4148451"><ele>412.6</ele><time>2026-04-13T08:18:05.968Z</time></trkpt><trkpt lat="44.1429848" lon="10.4148724"><ele>410.2</ele><time>2026-04-13T08:18:06.992Z</time></trkpt><trkpt lat="44.1428808" lon="10.4148986"><ele>407.79999999999995</ele><time>2026-04-13T08:18:07.974Z</time></trkpt><trkpt lat="44.1427699" lon="10.4149155"><ele>405.4</ele><time>2026-04-13T08:18:08.968Z</time></trkpt><trkpt lat="44.142653" lon="10.414914"><ele>403.0</ele><time>2026-04-13T08:18:09.956Z</time></trkpt><trkpt lat="44.1425305" lon="10.414905"><ele>403.0</ele><time>2026-04-13T08:18:10.959Z</time></trkpt><trkpt lat="44.1424126" lon="10.4148834"><ele>403.0</ele><time>2026-04-13T08:18:11.971Z</time></trkpt><trkpt lat="44.1422953" lon="10.4148454"><ele>403.0</ele><time>2026-04-13T08:18:12.976Z</time></trkpt><trkpt lat="44.142171" lon="10.4148255"><ele>403.0</ele><time>2026-04-13T08:18:13.975Z</time></trkpt><trkpt lat="44.1420495" lon="10.4147977"><ele>401.5</ele><time>2026-04-13T08:18:14.965Z</time></trkpt><trkpt lat="44.1419275" lon="10.4147777"><ele>400.0</ele><time>2026-04-13T08:18:15.976Z</time></trkpt><trkpt lat="44.1418029" lon="10.4147872"><ele>398.5</ele><time>2026-04-13T08:18:16.971Z</time></trkpt><trkpt lat="44.141676" lon="10.4148202"><ele>397.0</ele><time>2026-04-13T08:18:17.975Z</time></trkpt><trkpt lat="44.1415489" lon="10.414852"><ele>396.20000000000005</ele><time>2026-04-13T08:18:18.963Z</time></trkpt><trkpt lat="44.1414298" lon="10.4148779"><ele>395.4</ele><time>2026-04-13T08:18:19.977Z</time></trkpt><trkpt lat="44.1413215" lon="10.414882"><ele>394.6</ele><time>2026-04-13T08:18:20.978Z</time></trkpt><trkpt lat="44.141228" lon="10.4148432"><ele>393.79999999999995</ele><time>2026-04-13T08:18:21.964Z</time></trkpt><trkpt lat="44.1411507" lon="10.4147592"><ele>393.0</ele><time>2026-04-13T08:18:22.97Z</time></trkpt><trkpt lat="44.1411032" lon="10.4146364"><ele>393.0</ele><time>2026-04-13T08:18:23.973Z</time></trkpt><trkpt lat="44.1410878" lon="10.4144964"><ele>393.0</ele><time>2026-04-13T08:18:24.969Z</time></trkpt><trkpt lat="44.1410761" lon="10.4143607"><ele>393.0</ele><time>2026-04-13T08:18:25.973Z</time></trkpt><trkpt lat="44.1410337" lon="10.4142375"><ele>393.0</ele><time>2026-04-13T08:18:26.98Z</time></trkpt><trkpt lat="44.1409666" lon="10.4141544"><ele>393.0</ele><time>2026-04-13T08:18:27.976Z</time></trkpt><trkpt lat="44.1408948" lon="10.4140851"><ele>393.0</ele><time>2026-04-13T08:18:28.974Z</time></trkpt><trkpt lat="44.1407965" lon="10.4141337"><ele>393.0</ele><time>2026-04-13T08:18:29.973Z</time></trkpt><trkpt lat="44.1407227" lon="10.4141946"><ele>393.0</ele><time>2026-04-13T08:18:30.975Z</time></trkpt><trkpt lat="44.1406723" lon="10.4143008"><ele>393.0</ele><time>2026-04-13T08:18:31.972Z</time></trkpt><trkpt lat="44.140652" lon="10.4144264"><ele>393.0</ele><time>2026-04-13T08:18:32.971Z</time></trkpt><trkpt lat="44.1406541" lon="10.4145542"><ele>390.0</ele><time>2026-04-13T08:18:33.976Z</time></trkpt><trkpt lat="44.1406617" lon="10.4146832"><ele>387.0</ele><time>2026-04-13T08:18:34.98Z</time></trkpt><trkpt lat="44.1406658" lon="10.4148099"><ele>384.0</ele><time>2026-04-13T08:18:35.958Z</time></trkpt><trkpt lat="44.1406724" lon="10.4149408"><ele>381.0</ele><time>2026-04-13T08:18:36.969Z</time></trkpt><trkpt lat="44.1406795" lon="10.4150712"><ele>378.0</ele><time>2026-04-13T08:18:37.979Z</time></trkpt><trkpt lat="44.1406835" lon="10.415197"><ele>378.0</ele><time>2026-04-13T08:18:38.974Z</time></trkpt><trkpt lat="44.1406877" lon="10.4153235"><ele>378.0</ele><time>2026-04-13T08:18:39.981Z</time></trkpt><trkpt lat="44.1406898" lon="10.4154517"><ele>378.0</ele><time>2026-04-13T08:18:40.98Z</time></trkpt><trkpt lat="44.1406852" lon="10.4155814"><ele>378.0</ele><time>2026-04-13T08:18:41.975Z</time></trkpt><trkpt lat="44.1406732" lon="10.4157056"><ele>378.0</ele><time>2026-04-13T08:18:42.975Z</time></trkpt><trkpt lat="44.1406572" lon="10.4158255"><ele>378.0</ele><time>2026-04-13T08:18:43.974Z</time></trkpt><trkpt lat="44.1406414" lon="10.4159423"><ele>378.0</ele><time>2026-04-13T08:18:44.971Z</time></trkpt><trkpt lat="44.1406229" lon="10.4160552"><ele>378.0</ele><time>2026-04-13T08:18:45.968Z</time></trkpt><trkpt lat="44.1406066" lon="10.4161646"><ele>378.0</ele><time>2026-04-13T08:18:46.968Z</time></trkpt><trkpt lat="44.1405897" lon="10.4162713"><ele>378.0</ele><time>2026-04-13T08:18:47.984Z</time></trkpt><trkpt lat="44.1405759" lon="10.4163755"><ele>378.0</ele><time>2026-04-13T08:18:48.971Z</time></trkpt><trkpt lat="44.1405632" lon="10.4164766"><ele>378.0</ele><time>2026-04-13T08:18:49.957Z</time></trkpt><trkpt lat="44.1405496" lon="10.4165755"><ele>378.0</ele><time>2026-04-13T08:18:50.959Z</time></trkpt><trkpt lat="44.1405361" lon="10.4166721"><ele>378.0</ele><time>2026-04-13T08:18:51.961Z</time></trkpt><trkpt lat="44.140526" lon="10.4167654"><ele>378.0</ele><time>2026-04-13T08:18:52.959Z</time></trkpt><trkpt lat="44.1405166" lon="10.4168524"><ele>378.0</ele><time>2026-04-13T08:18:53.966Z</time></trkpt><trkpt lat="44.1404918" lon="10.4170192"><ele>378.0</ele><time>2026-04-13T08:18:55.955Z</time></trkpt><trkpt lat="44.1404685" lon="10.4171763"><ele>379.0</ele><time>2026-04-13T08:18:57.958Z</time></trkpt><trkpt lat="44.140448" lon="10.4173337"><ele>380.0</ele><time>2026-04-13T08:18:59.962Z</time></trkpt><trkpt lat="44.1404262" lon="10.4174774"><ele>381.0</ele><time>2026-04-13T08:19:01.962Z</time></trkpt><trkpt lat="44.1404126" lon="10.4176132"><ele>382.0</ele><time>2026-04-13T08:19:03.96Z</time></trkpt><trkpt lat="44.1403825" lon="10.4177452"><ele>383.0</ele><time>2026-04-13T08:19:05.965Z</time></trkpt><trkpt lat="44.1403478" lon="10.4178639"><ele>383.0</ele><time>2026-04-13T08:19:07.959Z</time></trkpt><trkpt lat="44.1403017" lon="10.4179573"><ele>383.0</ele><time>2026-04-13T08:19:09.955Z</time></trkpt><trkpt lat="44.1402452" lon="10.4180235"><ele>383.0</ele><time>2026-04-13T08:19:11.961Z</time></trkpt><trkpt lat="44.1401828" lon="10.4180668"><ele>383.0</ele><time>2026-04-13T08:19:13.964Z</time></trkpt><trkpt lat="44.1401137" lon="10.4180937"><ele>383.0</ele><time>2026-04-13T08:19:15.963Z</time></trkpt><trkpt lat="44.1400392" lon="10.4181108"><ele>383.0</ele><time>2026-04-13T08:19:17.96Z</time></trkpt><trkpt lat="44.1399605" lon="10.4181175"><ele>385.1666666666667</ele><time>2026-04-13T08:19:19.957Z</time></trkpt><trkpt lat="44.1398834" lon="10.4181255"><ele>387.33333333333337</ele><time>2026-04-13T08:19:21.975Z</time></trkpt><trkpt lat="44.1398052" lon="10.418132"><ele>389.5</ele><time>2026-04-13T08:19:23.966Z</time></trkpt><trkpt lat="44.1397281" lon="10.4181363"><ele>391.6666666666667</ele><time>2026-04-13T08:19:25.974Z</time></trkpt><trkpt lat="44.1396511" lon="10.4181432"><ele>393.8333333333333</ele><time>2026-04-13T08:19:27.973Z</time></trkpt><trkpt lat="44.1395782" lon="10.4181519"><ele>396.0</ele><time>2026-04-13T08:19:29.963Z</time></trkpt><trkpt lat="44.139508" lon="10.4181601"><ele>396.0</ele><time>2026-04-13T08:19:31.959Z</time></trkpt><trkpt lat="44.1394449" lon="10.4181686"><ele>396.0</ele><time>2026-04-13T08:19:33.97Z</time></trkpt><trkpt lat="44.1393569" lon="10.4181637"><ele>396.0</ele><time>2026-04-13T08:19:36.974Z</time></trkpt><trkpt lat="44.1392891" lon="10.4181545"><ele>396.0</ele><time>2026-04-13T08:19:38.969Z</time></trkpt><trkpt lat="44.1392225" lon="10.418143"><ele>396.0</ele><time>2026-04-13T08:19:40.98Z</time></trkpt><trkpt lat="44.1391543" lon="10.4181341"><ele>396.0</ele><time>2026-04-13T08:19:42.967Z</time></trkpt><trkpt lat="44.139085" lon="10.4181216"><ele>396.0</ele><time>2026-04-13T08:19:44.965Z</time></trkpt><trkpt lat="44.139014" lon="10.418115"><ele>397.0</ele><time>2026-04-13T08:19:46.979Z</time></trkpt><trkpt lat="44.1389452" lon="10.41812"><ele>398.0</ele><time>2026-04-13T08:19:48.979Z</time></trkpt><trkpt lat="44.1388746" lon="10.4181248"><ele>399.0</ele><time>2026-04-13T08:19:50.978Z</time></trkpt><trkpt lat="44.1388047" lon="10.4181316"><ele>400.0</ele><time>2026-04-13T08:19:52.969Z</time></trkpt><trkpt lat="44.1387352" lon="10.4181396"><ele>401.0</ele><time>2026-04-13T08:19:54.978Z</time></trkpt><trkpt lat="44.1386646" lon="10.4181404"><ele>402.0</ele><time>2026-04-13T08:19:56.981Z</time></trkpt><trkpt lat="44.1385936" lon="10.4181423"><ele>403.0</ele><time>2026-04-13T08:19:58.981Z</time></trkpt><trkpt lat="44.1385242" lon="10.4181388"><ele>403.0</ele><time>2026-04-13T08:20:00.974Z</time></trkpt><trkpt lat="44.138453" lon="10.4181253"><ele>403.0</ele><time>2026-04-13T08:20:02.973Z</time></trkpt><trkpt lat="44.1383805" lon="10.4181044"><ele>403.0</ele><time>2026-04-13T08:20:04.969Z</time></trkpt><trkpt lat="44.1383119" lon="10.4180776"><ele>403.0</ele><time>2026-04-13T08:20:06.994Z</time></trkpt><trkpt lat="44.1382463" lon="10.4180498"><ele>403.0</ele><time>2026-04-13T08:20:08.987Z</time></trkpt><trkpt lat="44.1381793" lon="10.4180176"><ele>403.0</ele><time>2026-04-13T08:20:10.976Z</time></trkpt><trkpt lat="44.1381142" lon="10.4179807"><ele>403.0</ele><time>2026-04-13T08:20:12.974Z</time></trkpt><trkpt lat="44.138054" lon="10.4179375"><ele>402.5714285714286</ele><time>2026-04-13T08:20:14.969Z</time></trkpt><trkpt lat="44.1379981" lon="10.4178849"><ele>402.1428571428571</ele><time>2026-04-13T08:20:16.973Z</time></trkpt><trkpt lat="44.1379404" lon="10.4178281"><ele>401.7142857142857</ele><time>2026-04-13T08:20:18.97Z</time></trkpt><trkpt lat="44.1378833" lon="10.4177683"><ele>401.28571428571433</ele><time>2026-04-13T08:20:20.976Z</time></trkpt><trkpt lat="44.1378256" lon="10.4177103"><ele>400.8571428571429</ele><time>2026-04-13T08:20:22.978Z</time></trkpt><trkpt lat="44.1377669" lon="10.4176525"><ele>400.42857142857144</ele><time>2026-04-13T08:20:24.966Z</time></trkpt><trkpt lat="44.1377112" lon="10.4175939"><ele>400.0</ele><time>2026-04-13T08:20:26.972Z</time></trkpt><trkpt lat="44.1376544" lon="10.4175359"><ele>400.00000000000006</ele><time>2026-04-13T08:20:28.962Z</time></trkpt><trkpt lat="44.1375986" lon="10.4174764"><ele>400.0</ele><time>2026-04-13T08:20:30.967Z</time></trkpt><trkpt lat="44.1375444" lon="10.4174185"><ele>400.0</ele><time>2026-04-13T08:20:32.966Z</time></trkpt><trkpt lat="44.1374897" lon="10.4173618"><ele>400.0</ele><time>2026-04-13T08:20:34.971Z</time></trkpt><trkpt lat="44.137437" lon="10.4173048"><ele>400.0</ele><time>2026-04-13T08:20:36.969Z</time></trkpt><trkpt lat="44.1373844" lon="10.4172534"><ele>400.00000000000006</ele><time>2026-04-13T08:20:38.974Z</time></trkpt><trkpt lat="44.1373319" lon="10.4171942"><ele>400.0</ele><time>2026-04-13T08:20:40.972Z</time></trkpt><trkpt lat="44.1372687" lon="10.4171227"><ele>398.8</ele><time>2026-04-13T08:20:42.976Z</time></trkpt><trkpt lat="44.137197" lon="10.4170369"><ele>397.6</ele><time>2026-04-13T08:20:44.971Z</time></trkpt><trkpt lat="44.137113" lon="10.4169422"><ele>396.4</ele><time>2026-04-13T08:20:46.978Z</time></trkpt><trkpt lat="44.1370221" lon="10.416837"><ele>395.2</ele><time>2026-04-13T08:20:48.971Z</time></trkpt><trkpt lat="44.1369224" lon="10.4167278"><ele>394.0</ele><time>2026-04-13T08:20:50.966Z</time></trkpt><trkpt lat="44.1368672" lon="10.4166709"><ele>394.0</ele><time>2026-04-13T08:20:51.965Z</time></trkpt><trkpt lat="44.1368138" lon="10.4166184"><ele>394.0</ele><time>2026-04-13T08:20:52.962Z</time></trkpt><trkpt lat="44.1367561" lon="10.4165578"><ele>394.0</ele><time>2026-04-13T08:20:53.96Z</time></trkpt><trkpt lat="44.1366983" lon="10.4164973"><ele>394.0</ele><time>2026-04-13T08:20:54.965Z</time></trkpt><trkpt lat="44.1366369" lon="10.416441"><ele>394.0</ele><time>2026-04-13T08:20:55.966Z</time></trkpt><trkpt lat="44.136573" lon="10.4163803"><ele>394.0</ele><time>2026-04-13T08:20:56.971Z</time></trkpt><trkpt lat="44.1365089" lon="10.4163191"><ele>394.0</ele><time>2026-04-13T08:20:57.971Z</time></trkpt><trkpt lat="44.1364486" lon="10.4162629"><ele>393.00000000000006</ele><time>2026-04-13T08:20:58.96Z</time></trkpt><trkpt lat="44.1363849" lon="10.4162072"><ele>392.0</ele><time>2026-04-13T08:20:59.967Z</time></trkpt><trkpt lat="44.1363169" lon="10.416149"><ele>391.0</ele><time>2026-04-13T08:21:00.975Z</time></trkpt><trkpt lat="44.1362484" lon="10.4160977"><ele>390.0</ele><time>2026-04-13T08:21:01.973Z</time></trkpt><trkpt lat="44.1361846" lon="10.4160443"><ele>389.00000000000006</ele><time>2026-04-13T08:21:02.969Z</time></trkpt><trkpt lat="44.1361075" lon="10.4160001"><ele>388.0</ele><time>2026-04-13T08:21:03.98Z</time></trkpt><trkpt lat="44.1360302" lon="10.4159637"><ele>388.00000000000006</ele><time>2026-04-13T08:21:04.971Z</time></trkpt><trkpt lat="44.1359469" lon="10.415926"><ele>388.0</ele><time>2026-04-13T08:21:05.975Z</time></trkpt><trkpt lat="44.1358651" lon="10.415894"><ele>388.0</ele><time>2026-04-13T08:21:06.978Z</time></trkpt><trkpt lat="44.1357826" lon="10.4158563"><ele>388.0</ele><time>2026-04-13T08:21:07.961Z</time></trkpt><trkpt lat="44.1356994" lon="10.415822"><ele>388.00000000000006</ele><time>2026-04-13T08:21:08.982Z</time></trkpt><trkpt lat="44.1356182" lon="10.4157873"><ele>388.0</ele><time>2026-04-13T08:21:09.972Z</time></trkpt><trkpt lat="44.1355322" lon="10.4157493"><ele>387.2</ele><time>2026-04-13T08:21:10.975Z</time></trkpt><trkpt lat="44.1354405" lon="10.4157101"><ele>386.4</ele><time>2026-04-13T08:21:11.974Z</time></trkpt><trkpt lat="44.1353531" lon="10.4156731"><ele>385.59999999999997</ele><time>2026-04-13T08:21:12.978Z</time></trkpt><trkpt lat="44.1352699" lon="10.4156381"><ele>384.79999999999995</ele><time>2026-04-13T08:21:13.969Z</time></trkpt><trkpt lat="44.135184" lon="10.4155949"><ele>384.0</ele><time>2026-04-13T08:21:14.976Z</time></trkpt><trkpt lat="44.1351006" lon="10.4155499"><ele>384.0</ele><time>2026-04-13T08:21:15.971Z</time></trkpt><trkpt lat="44.1350183" lon="10.4155028"><ele>384.0</ele><time>2026-04-13T08:21:16.973Z</time></trkpt><trkpt lat="44.1349282" lon="10.4154538"><ele>384.0</ele><time>2026-04-13T08:21:17.977Z</time></trkpt><trkpt lat="44.1348397" lon="10.4153969"><ele>384.0</ele><time>2026-04-13T08:21:18.971Z</time></trkpt><trkpt lat="44.1347599" lon="10.4153207"><ele>384.0</ele><time>2026-04-13T08:21:19.963Z</time></trkpt><trkpt lat="44.134683" lon="10.4152308"><ele>383.6</ele><time>2026-04-13T08:21:20.972Z</time></trkpt><trkpt lat="44.1346085" lon="10.4151468"><ele>383.2</ele><time>2026-04-13T08:21:21.972Z</time></trkpt><trkpt lat="44.1345303" lon="10.4150626"><ele>382.8</ele><time>2026-04-13T08:21:22.981Z</time></trkpt><trkpt lat="44.1344537" lon="10.4149768"><ele>382.40000000000003</ele><time>2026-04-13T08:21:23.977Z</time></trkpt><trkpt lat="44.1343754" lon="10.414892"><ele>382.0</ele><time>2026-04-13T08:21:24.974Z</time></trkpt><trkpt lat="44.1342962" lon="10.414805"><ele>382.0</ele><time>2026-04-13T08:21:25.967Z</time></trkpt><trkpt lat="44.134221" lon="10.4147157"><ele>382.0</ele><time>2026-04-13T08:21:26.974Z</time></trkpt><trkpt lat="44.1341452" lon="10.4146292"><ele>382.0</ele><time>2026-04-13T08:21:27.971Z</time></trkpt><trkpt lat="44.1340656" lon="10.4145445"><ele>382.0</ele><time>2026-04-13T08:21:28.971Z</time></trkpt><trkpt lat="44.1339857" lon="10.4144559"><ele>382.0</ele><time>2026-04-13T08:21:29.971Z</time></trkpt><trkpt lat="44.1339052" lon="10.4143722"><ele>381.20000000000005</ele><time>2026-04-13T08:21:30.966Z</time></trkpt><trkpt lat="44.1338297" lon="10.4142831"><ele>380.4</ele><time>2026-04-13T08:21:31.98Z</time></trkpt><trkpt lat="44.1337499" lon="10.4141922"><ele>379.6</ele><time>2026-04-13T08:21:32.975Z</time></trkpt><trkpt lat="44.1336678" lon="10.4141094"><ele>378.79999999999995</ele><time>2026-04-13T08:21:33.975Z</time></trkpt><trkpt lat="44.1335885" lon="10.4140313"><ele>378.0</ele><time>2026-04-13T08:21:34.968Z</time></trkpt><trkpt lat="44.1334968" lon="10.4139492"><ele>378.0</ele><time>2026-04-13T08:21:35.971Z</time></trkpt><trkpt lat="44.1334143" lon="10.4138765"><ele>378.0</ele><time>2026-04-13T08:21:36.97Z</time></trkpt><trkpt lat="44.1333353" lon="10.4138231"><ele>378.0</ele><time>2026-04-13T08:21:37.973Z</time></trkpt><trkpt lat="44.1332461" lon="10.4137748"><ele>378.0</ele><time>2026-04-13T08:21:38.973Z</time></trkpt><trkpt lat="44.1331538" lon="10.4137332"><ele>378.0</ele><time>2026-04-13T08:21:39.975Z</time></trkpt><trkpt lat="44.1330636" lon="10.4136965"><ele>377.0</ele><time>2026-04-13T08:21:40.972Z</time></trkpt><trkpt lat="44.1329744" lon="10.4136556"><ele>376.0</ele><time>2026-04-13T08:21:41.974Z</time></trkpt><trkpt lat="44.1328846" lon="10.4136184"><ele>375.0</ele><time>2026-04-13T08:21:42.974Z</time></trkpt><trkpt lat="44.1327897" lon="10.4135766"><ele>374.0</ele><time>2026-04-13T08:21:43.975Z</time></trkpt><trkpt lat="44.1326915" lon="10.4135353"><ele>373.0</ele><time>2026-04-13T08:21:44.976Z</time></trkpt><trkpt lat="44.132593" lon="10.4134979"><ele>373.0</ele><time>2026-04-13T08:21:45.981Z</time></trkpt><trkpt lat="44.1324952" lon="10.4134667"><ele>373.0</ele><time>2026-04-13T08:21:46.975Z</time></trkpt><trkpt lat="44.1323931" lon="10.4134266"><ele>373.0</ele><time>2026-04-13T08:21:47.978Z</time></trkpt><trkpt lat="44.132286" lon="10.4133854"><ele>373.0</ele><time>2026-04-13T08:21:48.973Z</time></trkpt><trkpt lat="44.1321831" lon="10.4133443"><ele>373.0</ele><time>2026-04-13T08:21:49.981Z</time></trkpt><trkpt lat="44.1320788" lon="10.4133029"><ele>372.0</ele><time>2026-04-13T08:21:50.966Z</time></trkpt><trkpt lat="44.1319743" lon="10.4132577"><ele>371.0</ele><time>2026-04-13T08:21:51.974Z</time></trkpt><trkpt lat="44.1318701" lon="10.4132093"><ele>370.0</ele><time>2026-04-13T08:21:52.963Z</time></trkpt><trkpt lat="44.1317661" lon="10.4131622"><ele>369.0</ele><time>2026-04-13T08:21:53.979Z</time></trkpt><trkpt lat="44.131665" lon="10.4131109"><ele>368.0</ele><time>2026-04-13T08:21:54.969Z</time></trkpt><trkpt lat="44.131564" lon="10.4130504"><ele>367.2</ele><time>2026-04-13T08:21:55.972Z</time></trkpt><trkpt lat="44.131467" lon="10.4129843"><ele>366.4</ele><time>2026-04-13T08:21:56.976Z</time></trkpt><trkpt lat="44.1313675" lon="10.4129196"><ele>365.59999999999997</ele><time>2026-04-13T08:21:57.971Z</time></trkpt><trkpt lat="44.1312719" lon="10.4128504"><ele>364.79999999999995</ele><time>2026-04-13T08:21:58.969Z</time></trkpt><trkpt lat="44.1311768" lon="10.4127803"><ele>364.0</ele><time>2026-04-13T08:21:59.963Z</time></trkpt><trkpt lat="44.1310916" lon="10.4127247"><ele>364.0</ele><time>2026-04-13T08:22:00.976Z</time></trkpt><trkpt lat="44.1310137" lon="10.4126684"><ele>364.0</ele><time>2026-04-13T08:22:01.961Z</time></trkpt><trkpt lat="44.1309331" lon="10.412613"><ele>364.0</ele><time>2026-04-13T08:22:02.968Z</time></trkpt><trkpt lat="44.1308539" lon="10.4125591"><ele>364.0</ele><time>2026-04-13T08:22:03.971Z</time></trkpt><trkpt lat="44.130779" lon="10.412506"><ele>364.0</ele><time>2026-04-13T08:22:04.973Z</time></trkpt><trkpt lat="44.1307048" lon="10.4124538"><ele>364.0</ele><time>2026-04-13T08:22:05.959Z</time></trkpt><trkpt lat="44.1306374" lon="10.4124115"><ele>363.8333333333333</ele><time>2026-04-13T08:22:06.977Z</time></trkpt><trkpt lat="44.1305685" lon="10.4123666"><ele>363.66666666666663</ele><time>2026-04-13T08:22:07.965Z</time></trkpt><trkpt lat="44.1305042" lon="10.4123237"><ele>363.5</ele><time>2026-04-13T08:22:08.969Z</time></trkpt><trkpt lat="44.1304376" lon="10.4122852"><ele>363.3333333333333</ele><time>2026-04-13T08:22:09.972Z</time></trkpt><trkpt lat="44.13037" lon="10.4122481"><ele>363.1666666666667</ele><time>2026-04-13T08:22:10.975Z</time></trkpt><trkpt lat="44.1303077" lon="10.4122177"><ele>363.0</ele><time>2026-04-13T08:22:11.979Z</time></trkpt><trkpt lat="44.130202" lon="10.4121399"><ele>362.59999999999997</ele><time>2026-04-13T08:22:13.969Z</time></trkpt><trkpt lat="44.1301027" lon="10.4120446"><ele>362.2</ele><time>2026-04-13T08:22:15.968Z</time></trkpt><trkpt lat="44.1299889" lon="10.4119557"><ele>361.8</ele><time>2026-04-13T08:22:17.979Z</time></trkpt><trkpt lat="44.1299236" lon="10.4119207"><ele>361.4</ele><time>2026-04-13T08:22:18.978Z</time></trkpt><trkpt lat="44.1298644" lon="10.4118855"><ele>361.0</ele><time>2026-04-13T08:22:19.977Z</time></trkpt><trkpt lat="44.129797" lon="10.4118493"><ele>360.14285714285717</ele><time>2026-04-13T08:22:20.973Z</time></trkpt><trkpt lat="44.1297305" lon="10.4118168"><ele>359.2857142857143</ele><time>2026-04-13T08:22:21.98Z</time></trkpt><trkpt lat="44.1296646" lon="10.4117924"><ele>358.42857142857144</ele><time>2026-04-13T08:22:22.975Z</time></trkpt><trkpt lat="44.1295914" lon="10.4117657"><ele>357.57142857142856</ele><time>2026-04-13T08:22:23.974Z</time></trkpt><trkpt lat="44.1295197" lon="10.411737"><ele>356.7142857142857</ele><time>2026-04-13T08:22:24.973Z</time></trkpt><trkpt lat="44.1294471" lon="10.4117086"><ele>355.85714285714283</ele><time>2026-04-13T08:22:25.976Z</time></trkpt><trkpt lat="44.1293853" lon="10.4116887"><ele>355.0</ele><time>2026-04-13T08:22:26.974Z</time></trkpt><trkpt lat="44.129323" lon="10.4116658"><ele>355.0</ele><time>2026-04-13T08:22:27.973Z</time></trkpt><trkpt lat="44.12921" lon="10.4116235"><ele>355.0</ele><time>2026-04-13T08:22:29.976Z</time></trkpt><trkpt lat="44.1291061" lon="10.4115899"><ele>355.0</ele><time>2026-04-13T08:22:31.973Z</time></trkpt><trkpt lat="44.1290509" lon="10.4115418"><ele>355.0</ele><time>2026-04-13T08:22:33.956Z</time></trkpt><trkpt lat="44.1290173" lon="10.4114317"><ele>355.0</ele><time>2026-04-13T08:22:36.974Z</time></trkpt><trkpt lat="44.1289787" lon="10.4113506"><ele>355.0</ele><time>2026-04-13T08:22:38.972Z</time></trkpt><trkpt lat="44.1289112" lon="10.4113202"><ele>354.66666666666663</ele><time>2026-04-13T08:22:40.961Z</time></trkpt><trkpt lat="44.1288408" lon="10.4113436"><ele>354.3333333333333</ele><time>2026-04-13T08:22:42.974Z</time></trkpt><trkpt lat="44.1287659" lon="10.4113646"><ele>354.0</ele><time>2026-04-13T08:22:44.974Z</time></trkpt><trkpt lat="44.1286831" lon="10.4113504"><ele>353.6666666666667</ele><time>2026-04-13T08:22:46.97Z</time></trkpt><trkpt lat="44.1285886" lon="10.4113421"><ele>353.33333333333337</ele><time>2026-04-13T08:22:48.966Z</time></trkpt><trkpt lat="44.1284844" lon="10.4113411"><ele>353.0</ele><time>2026-04-13T08:22:50.962Z</time></trkpt><trkpt lat="44.1283721" lon="10.4113289"><ele>352.5</ele><time>2026-04-13T08:22:52.968Z</time></trkpt><trkpt lat="44.1282617" lon="10.4112965"><ele>352.0</ele><time>2026-04-13T08:22:54.973Z</time></trkpt><trkpt lat="44.1281472" lon="10.411248"><ele>351.5</ele><time>2026-04-13T08:22:56.977Z</time></trkpt><trkpt lat="44.1280329" lon="10.411208"><ele>351.0</ele><time>2026-04-13T08:22:58.972Z</time></trkpt><trkpt lat="44.1279265" lon="10.411167"><ele>350.8333333333333</ele><time>2026-04-13T08:23:00.958Z</time></trkpt><trkpt lat="44.127809" lon="10.4111313"><ele>350.6666666666667</ele><time>2026-04-13T08:23:02.971Z</time></trkpt><trkpt lat="44.1277452" lon="10.4111125"><ele>350.5</ele><time>2026-04-13T08:23:03.974Z</time></trkpt><trkpt lat="44.1276818" lon="10.4110863"><ele>350.33333333333337</ele><time>2026-04-13T08:23:04.974Z</time></trkpt><trkpt lat="44.1276196" lon="10.4110661"><ele>350.1666666666667</ele><time>2026-04-13T08:23:05.975Z</time></trkpt><trkpt lat="44.1275576" lon="10.411049"><ele>350.0</ele><time>2026-04-13T08:23:06.974Z</time></trkpt><trkpt lat="44.1274351" lon="10.4110134"><ele>349.83333333333337</ele><time>2026-04-13T08:23:08.978Z</time></trkpt><trkpt lat="44.1273124" lon="10.4109734"><ele>349.6666666666667</ele><time>2026-04-13T08:23:10.974Z</time></trkpt><trkpt lat="44.1271878" lon="10.4109412"><ele>349.5</ele><time>2026-04-13T08:23:12.983Z</time></trkpt><trkpt lat="44.1271231" lon="10.4109283"><ele>349.3333333333333</ele><time>2026-04-13T08:23:13.98Z</time></trkpt><trkpt lat="44.1270598" lon="10.4109097"><ele>349.16666666666663</ele><time>2026-04-13T08:23:14.978Z</time></trkpt><trkpt lat="44.1269964" lon="10.4108928"><ele>349.0</ele><time>2026-04-13T08:23:15.969Z</time></trkpt><trkpt lat="44.1269266" lon="10.4108749"><ele>348.99999999999994</ele><time>2026-04-13T08:23:16.976Z</time></trkpt><trkpt lat="44.1268631" lon="10.4108582"><ele>349.0</ele><time>2026-04-13T08:23:17.971Z</time></trkpt><trkpt lat="44.1267923" lon="10.4108401"><ele>349.0</ele><time>2026-04-13T08:23:18.978Z</time></trkpt><trkpt lat="44.1267232" lon="10.4108172"><ele>349.0</ele><time>2026-04-13T08:23:19.971Z</time></trkpt><trkpt lat="44.1266462" lon="10.4107973"><ele>349.0</ele><time>2026-04-13T08:23:20.972Z</time></trkpt><trkpt lat="44.1265723" lon="10.4107836"><ele>348.99999999999994</ele><time>2026-04-13T08:23:21.976Z</time></trkpt><trkpt lat="44.1265001" lon="10.4107591"><ele>349.0</ele><time>2026-04-13T08:23:22.974Z</time></trkpt><trkpt lat="44.1264229" lon="10.4107421"><ele>348.8333333333333</ele><time>2026-04-13T08:23:23.977Z</time></trkpt><trkpt lat="44.1263494" lon="10.4107217"><ele>348.66666666666663</ele><time>2026-04-13T08:23:24.974Z</time></trkpt><trkpt lat="44.1262713" lon="10.4107028"><ele>348.5</ele><time>2026-04-13T08:23:25.971Z</time></trkpt><trkpt lat="44.1261927" lon="10.410682"><ele>348.3333333333333</ele><time>2026-04-13T08:23:26.972Z</time></trkpt><trkpt lat="44.1261159" lon="10.4106569"><ele>348.1666666666667</ele><time>2026-04-13T08:23:27.971Z</time></trkpt><trkpt lat="44.1260391" lon="10.4106305"><ele>348.0</ele><time>2026-04-13T08:23:28.976Z</time></trkpt><trkpt lat="44.1259604" lon="10.4106034"><ele>348.0</ele><time>2026-04-13T08:23:29.973Z</time></trkpt><trkpt lat="44.1258782" lon="10.4105805"><ele>348.0</ele><time>2026-04-13T08:23:30.968Z</time></trkpt><trkpt lat="44.1258007" lon="10.4105519"><ele>348.0</ele><time>2026-04-13T08:23:31.973Z</time></trkpt><trkpt lat="44.12572" lon="10.4105204"><ele>348.0</ele><time>2026-04-13T08:23:32.974Z</time></trkpt><trkpt lat="44.1256374" lon="10.4104889"><ele>348.0</ele><time>2026-04-13T08:23:33.966Z</time></trkpt><trkpt lat="44.1255572" lon="10.4104503"><ele>348.0</ele><time>2026-04-13T08:23:34.976Z</time></trkpt><trkpt lat="44.1254775" lon="10.4104078"><ele>347.3333333333333</ele><time>2026-04-13T08:23:35.967Z</time></trkpt><trkpt lat="44.1254071" lon="10.4103697"><ele>346.6666666666667</ele><time>2026-04-13T08:23:36.972Z</time></trkpt><trkpt lat="44.1253453" lon="10.4103355"><ele>346.0</ele><time>2026-04-13T08:23:37.973Z</time></trkpt><trkpt lat="44.12525" lon="10.4102671"><ele>345.33333333333337</ele><time>2026-04-13T08:23:39.967Z</time></trkpt><trkpt lat="44.1251981" lon="10.4102067"><ele>344.6666666666667</ele><time>2026-04-13T08:23:41.964Z</time></trkpt><trkpt lat="44.1251411" lon="10.4101"><ele>344.0</ele><time>2026-04-13T08:23:44.973Z</time></trkpt><trkpt lat="44.1251107" lon="10.4100056"><ele>344.0</ele><time>2026-04-13T08:23:46.986Z</time></trkpt><trkpt lat="44.1250506" lon="10.4099203"><ele>344.0</ele><time>2026-04-13T08:23:48.968Z</time></trkpt><trkpt lat="44.1249625" lon="10.4098733"><ele>344.0</ele><time>2026-04-13T08:23:50.973Z</time></trkpt><trkpt lat="44.1248663" lon="10.4098645"><ele>344.0</ele><time>2026-04-13T08:23:52.975Z</time></trkpt><trkpt lat="44.1247685" lon="10.4098906"><ele>344.0</ele><time>2026-04-13T08:23:54.976Z</time></trkpt><trkpt lat="44.1246732" lon="10.4099319"><ele>343.2</ele><time>2026-04-13T08:23:56.974Z</time></trkpt><trkpt lat="44.1245657" lon="10.4099312"><ele>342.4</ele><time>2026-04-13T08:23:58.966Z</time></trkpt><trkpt lat="44.1244545" lon="10.409887"><ele>341.6</ele><time>2026-04-13T08:24:00.967Z</time></trkpt><trkpt lat="44.1243368" lon="10.4098319"><ele>340.8</ele><time>2026-04-13T08:24:02.973Z</time></trkpt><trkpt lat="44.1242767" lon="10.4098031"><ele>340.0</ele><time>2026-04-13T08:24:03.974Z</time></trkpt><trkpt lat="44.1242167" lon="10.4097701"><ele>340.0</ele><time>2026-04-13T08:24:04.958Z</time></trkpt><trkpt lat="44.1241548" lon="10.4097378"><ele>340.0</ele><time>2026-04-13T08:24:05.981Z</time></trkpt><trkpt lat="44.1240898" lon="10.4097071"><ele>340.0</ele><time>2026-04-13T08:24:06.963Z</time></trkpt><trkpt lat="44.1240225" lon="10.4096772"><ele>340.0</ele><time>2026-04-13T08:24:07.962Z</time></trkpt><trkpt lat="44.1239562" lon="10.4096509"><ele>340.0</ele><time>2026-04-13T08:24:08.987Z</time></trkpt><trkpt lat="44.1238889" lon="10.4096283"><ele>340.0</ele><time>2026-04-13T08:24:09.966Z</time></trkpt><trkpt lat="44.1238199" lon="10.409606"><ele>340.0</ele><time>2026-04-13T08:24:10.974Z</time></trkpt><trkpt lat="44.1237529" lon="10.4095835"><ele>339.2857142857143</ele><time>2026-04-13T08:24:11.97Z</time></trkpt><trkpt lat="44.1236822" lon="10.4095654"><ele>338.57142857142856</ele><time>2026-04-13T08:24:12.975Z</time></trkpt><trkpt lat="44.1236159" lon="10.4095429"><ele>337.85714285714283</ele><time>2026-04-13T08:24:13.97Z</time></trkpt><trkpt lat="44.1235453" lon="10.4095209"><ele>337.1428571428571</ele><time>2026-04-13T08:24:14.978Z</time></trkpt><trkpt lat="44.1234721" lon="10.4094919"><ele>336.42857142857144</ele><time>2026-04-13T08:24:15.977Z</time></trkpt><trkpt lat="44.123408" lon="10.4094621"><ele>335.71428571428567</ele><time>2026-04-13T08:24:16.991Z</time></trkpt><trkpt lat="44.1233387" lon="10.4094319"><ele>335.0</ele><time>2026-04-13T08:24:17.974Z</time></trkpt><trkpt lat="44.123268" lon="10.4094055"><ele>334.71428571428567</ele><time>2026-04-13T08:24:18.977Z</time></trkpt><trkpt lat="44.1231959" lon="10.4093787"><ele>334.42857142857144</ele><time>2026-04-13T08:24:19.971Z</time></trkpt><trkpt lat="44.1231255" lon="10.4093523"><ele>334.1428571428571</ele><time>2026-04-13T08:24:20.98Z</time></trkpt><trkpt lat="44.1230543" lon="10.409329"><ele>333.85714285714283</ele><time>2026-04-13T08:24:21.984Z</time></trkpt><trkpt lat="44.1229821" lon="10.409305"><ele>333.57142857142856</ele><time>2026-04-13T08:24:22.97Z</time></trkpt><trkpt lat="44.1229089" lon="10.4092862"><ele>333.2857142857143</ele><time>2026-04-13T08:24:23.975Z</time></trkpt><trkpt lat="44.1228306" lon="10.4092724"><ele>333.0</ele><time>2026-04-13T08:24:24.984Z</time></trkpt><trkpt lat="44.1227513" lon="10.4092591"><ele>333.0</ele><time>2026-04-13T08:24:25.995Z</time></trkpt><trkpt lat="44.1226738" lon="10.4092489"><ele>333.0</ele><time>2026-04-13T08:24:26.977Z</time></trkpt><trkpt lat="44.1225943" lon="10.4092393"><ele>333.0</ele><time>2026-04-13T08:24:27.981Z</time></trkpt><trkpt lat="44.1225128" lon="10.4092275"><ele>333.0</ele><time>2026-04-13T08:24:28.977Z</time></trkpt><trkpt lat="44.1224322" lon="10.4092132"><ele>333.0</ele><time>2026-04-13T08:24:29.97Z</time></trkpt><trkpt lat="44.122351" lon="10.4092003"><ele>333.0</ele><time>2026-04-13T08:24:30.971Z</time></trkpt><trkpt lat="44.1222692" lon="10.4091859"><ele>332.5</ele><time>2026-04-13T08:24:31.971Z</time></trkpt><trkpt lat="44.1221866" lon="10.4091638"><ele>332.0</ele><time>2026-04-13T08:24:32.971Z</time></trkpt><trkpt lat="44.1221025" lon="10.4091453"><ele>331.5</ele><time>2026-04-13T08:24:33.978Z</time></trkpt><trkpt lat="44.1220156" lon="10.409126"><ele>331.0</ele><time>2026-04-13T08:24:34.982Z</time></trkpt><trkpt lat="44.1219305" lon="10.4091114"><ele>330.5</ele><time>2026-04-13T08:24:35.964Z</time></trkpt><trkpt lat="44.1218427" lon="10.4090981"><ele>330.0</ele><time>2026-04-13T08:24:36.978Z</time></trkpt><trkpt lat="44.1217547" lon="10.4090852"><ele>330.0</ele><time>2026-04-13T08:24:37.976Z</time></trkpt><trkpt lat="44.121667" lon="10.4090698"><ele>330.0</ele><time>2026-04-13T08:24:38.974Z</time></trkpt><trkpt lat="44.1215768" lon="10.4090607"><ele>330.0</ele><time>2026-04-13T08:24:39.96Z</time></trkpt><trkpt lat="44.1214878" lon="10.4090479"><ele>330.0</ele><time>2026-04-13T08:24:40.969Z</time></trkpt><trkpt lat="44.1213958" lon="10.4090368"><ele>330.0</ele><time>2026-04-13T08:24:41.978Z</time></trkpt><trkpt lat="44.1213049" lon="10.4090246"><ele>329.4</ele><time>2026-04-13T08:24:42.99Z</time></trkpt><trkpt lat="44.1212112" lon="10.4090138"><ele>328.8</ele><time>2026-04-13T08:24:43.972Z</time></trkpt><trkpt lat="44.1211185" lon="10.4090031"><ele>328.20000000000005</ele><time>2026-04-13T08:24:44.991Z</time></trkpt><trkpt lat="44.121023" lon="10.4089962"><ele>327.6</ele><time>2026-04-13T08:24:45.978Z</time></trkpt><trkpt lat="44.1209329" lon="10.4089886"><ele>327.0</ele><time>2026-04-13T08:24:46.983Z</time></trkpt><trkpt lat="44.1208472" lon="10.4089784"><ele>327.0</ele><time>2026-04-13T08:24:47.978Z</time></trkpt><trkpt lat="44.1207679" lon="10.4089717"><ele>327.0</ele><time>2026-04-13T08:24:48.979Z</time></trkpt><trkpt lat="44.1206995" lon="10.4089668"><ele>327.0</ele><time>2026-04-13T08:24:49.969Z</time></trkpt><trkpt lat="44.1205821" lon="10.408939"><ele>327.0</ele><time>2026-04-13T08:24:51.972Z</time></trkpt><trkpt lat="44.120575" lon="10.4088256"><ele>327.0</ele><time>2026-04-13T08:24:53.968Z</time></trkpt><trkpt lat="44.1206062" lon="10.4087271"><ele>327.0</ele><time>2026-04-13T08:24:55.968Z</time></trkpt><trkpt lat="44.1206605" lon="10.4086438"><ele>326.6666666666667</ele><time>2026-04-13T08:24:57.977Z</time></trkpt><trkpt lat="44.1207121" lon="10.4085615"><ele>326.3333333333333</ele><time>2026-04-13T08:24:59.967Z</time></trkpt><trkpt lat="44.1207699" lon="10.40848"><ele>326.0</ele><time>2026-04-13T08:25:01.965Z</time></trkpt><trkpt lat="44.1208248" lon="10.4083942"><ele>325.66666666666663</ele><time>2026-04-13T08:25:03.981Z</time></trkpt><trkpt lat="44.1208794" lon="10.4083092"><ele>325.3333333333333</ele><time>2026-04-13T08:25:05.971Z</time></trkpt><trkpt lat="44.120934" lon="10.4082202"><ele>325.0</ele><time>2026-04-13T08:25:07.957Z</time></trkpt><trkpt lat="44.1209905" lon="10.4081291"><ele>325.0</ele><time>2026-04-13T08:25:09.97Z</time></trkpt><trkpt lat="44.1210463" lon="10.4080365"><ele>325.0</ele><time>2026-04-13T08:25:11.972Z</time></trkpt><trkpt lat="44.1211012" lon="10.4079456"><ele>325.0</ele><time>2026-04-13T08:25:13.968Z</time></trkpt><trkpt lat="44.121158" lon="10.4078573"><ele>325.0</ele><time>2026-04-13T08:25:15.976Z</time></trkpt><trkpt lat="44.1212144" lon="10.407766"><ele>325.0</ele><time>2026-04-13T08:25:17.976Z</time></trkpt><trkpt lat="44.121272" lon="10.4076772"><ele>325.0</ele><time>2026-04-13T08:25:19.97Z</time></trkpt><trkpt lat="44.121328" lon="10.4075897"><ele>324.3333333333333</ele><time>2026-04-13T08:25:21.975Z</time></trkpt><trkpt lat="44.1213817" lon="10.4074931"><ele>323.66666666666663</ele><time>2026-04-13T08:25:23.977Z</time></trkpt><trkpt lat="44.1214354" lon="10.4073996"><ele>323.0</ele><time>2026-04-13T08:25:25.97Z</time></trkpt><trkpt lat="44.1214961" lon="10.4073101"><ele>322.3333333333333</ele><time>2026-04-13T08:25:27.972Z</time></trkpt><trkpt lat="44.1215536" lon="10.4072178"><ele>321.6666666666667</ele><time>2026-04-13T08:25:29.969Z</time></trkpt><trkpt lat="44.1216093" lon="10.4071267"><ele>321.0</ele><time>2026-04-13T08:25:31.967Z</time></trkpt><trkpt lat="44.1216631" lon="10.4070355"><ele>321.0</ele><time>2026-04-13T08:25:33.974Z</time></trkpt><trkpt lat="44.1217173" lon="10.4069435"><ele>321.0</ele><time>2026-04-13T08:25:35.969Z</time></trkpt><trkpt lat="44.1217724" lon="10.4068503"><ele>321.0</ele><time>2026-04-13T08:25:37.965Z</time></trkpt><trkpt lat="44.1218287" lon="10.4067561"><ele>321.0</ele><time>2026-04-13T08:25:39.972Z</time></trkpt><trkpt lat="44.1218817" lon="10.4066604"><ele>321.0</ele><time>2026-04-13T08:25:41.963Z</time></trkpt><trkpt lat="44.1219359" lon="10.4065678"><ele>321.0</ele><time>2026-04-13T08:25:43.971Z</time></trkpt><trkpt lat="44.121995" lon="10.4064769"><ele>321.0</ele><time>2026-04-13T08:25:45.972Z</time></trkpt><trkpt lat="44.1220529" lon="10.4063853"><ele>321.0</ele><time>2026-04-13T08:25:47.98Z</time></trkpt><trkpt lat="44.1221088" lon="10.4062952"><ele>321.0</ele><time>2026-04-13T08:25:49.972Z</time></trkpt><trkpt lat="44.1221664" lon="10.4062017"><ele>321.0</ele><time>2026-04-13T08:25:51.973Z</time></trkpt><trkpt lat="44.1222281" lon="10.4061139"><ele>321.0</ele><time>2026-04-13T08:25:53.974Z</time></trkpt><trkpt lat="44.1222912" lon="10.4060164"><ele>321.0</ele><time>2026-04-13T08:25:55.966Z</time></trkpt><trkpt lat="44.122347" lon="10.4059183"><ele>321.3333333333333</ele><time>2026-04-13T08:25:57.964Z</time></trkpt><trkpt lat="44.1224006" lon="10.4058223"><ele>321.6666666666667</ele><time>2026-04-13T08:25:59.97Z</time></trkpt><trkpt lat="44.122454" lon="10.405725"><ele>322.0</ele><time>2026-04-13T08:26:01.96Z</time></trkpt><trkpt lat="44.1225139" lon="10.4056274"><ele>322.33333333333337</ele><time>2026-04-13T08:26:03.957Z</time></trkpt><trkpt lat="44.1225768" lon="10.4055357"><ele>322.6666666666667</ele><time>2026-04-13T08:26:05.97Z</time></trkpt><trkpt lat="44.1226344" lon="10.4054422"><ele>323.0</ele><time>2026-04-13T08:26:07.965Z</time></trkpt><trkpt lat="44.1226909" lon="10.4053427"><ele>323.0</ele><time>2026-04-13T08:26:09.965Z</time></trkpt><trkpt lat="44.1227443" lon="10.4052448"><ele>323.0</ele><time>2026-04-13T08:26:11.97Z</time></trkpt><trkpt lat="44.1228022" lon="10.405145"><ele>323.0</ele><time>2026-04-13T08:26:13.967Z</time></trkpt><trkpt lat="44.1228566" lon="10.4050534"><ele>323.0</ele><time>2026-04-13T08:26:15.985Z</time></trkpt><trkpt lat="44.1229153" lon="10.404959"><ele>323.0</ele><time>2026-04-13T08:26:17.965Z</time></trkpt><trkpt lat="44.1229739" lon="10.4048595"><ele>323.0</ele><time>2026-04-13T08:26:19.971Z</time></trkpt><trkpt lat="44.1230357" lon="10.404764"><ele>323.2</ele><time>2026-04-13T08:26:21.981Z</time></trkpt><trkpt lat="44.1230918" lon="10.4046626"><ele>323.4</ele><time>2026-04-13T08:26:23.976Z</time></trkpt><trkpt lat="44.1231523" lon="10.4045696"><ele>323.59999999999997</ele><time>2026-04-13T08:26:25.965Z</time></trkpt><trkpt lat="44.1232098" lon="10.4044743"><ele>323.79999999999995</ele><time>2026-04-13T08:26:27.958Z</time></trkpt><trkpt lat="44.1232676" lon="10.404373"><ele>324.0</ele><time>2026-04-13T08:26:29.966Z</time></trkpt><trkpt lat="44.1233213" lon="10.4042694"><ele>324.0</ele><time>2026-04-13T08:26:31.966Z</time></trkpt><trkpt lat="44.1233786" lon="10.4041627"><ele>324.0</ele><time>2026-04-13T08:26:33.976Z</time></trkpt><trkpt lat="44.1234382" lon="10.4040657"><ele>324.0</ele><time>2026-04-13T08:26:35.966Z</time></trkpt><trkpt lat="44.123503" lon="10.4039795"><ele>324.0</ele><time>2026-04-13T08:26:37.971Z</time></trkpt><trkpt lat="44.1235663" lon="10.403888"><ele>324.0</ele><time>2026-04-13T08:26:39.973Z</time></trkpt><trkpt lat="44.1236236" lon="10.4037927"><ele>323.5</ele><time>2026-04-13T08:26:41.965Z</time></trkpt><trkpt lat="44.1236799" lon="10.4037042"><ele>323.0</ele><time>2026-04-13T08:26:43.975Z</time></trkpt><trkpt lat="44.1237332" lon="10.4036074"><ele>322.5</ele><time>2026-04-13T08:26:45.963Z</time></trkpt><trkpt lat="44.1237846" lon="10.4035179"><ele>322.0</ele><time>2026-04-13T08:26:47.961Z</time></trkpt><trkpt lat="44.1238383" lon="10.4034265"><ele>321.5</ele><time>2026-04-13T08:26:49.975Z</time></trkpt><trkpt lat="44.1238931" lon="10.4033358"><ele>321.0</ele><time>2026-04-13T08:26:51.97Z</time></trkpt><trkpt lat="44.1239559" lon="10.4032453"><ele>321.0</ele><time>2026-04-13T08:26:53.97Z</time></trkpt><trkpt lat="44.1240154" lon="10.4031553"><ele>321.0</ele><time>2026-04-13T08:26:55.972Z</time></trkpt><trkpt lat="44.124073" lon="10.4030581"><ele>321.0</ele><time>2026-04-13T08:26:57.97Z</time></trkpt><trkpt lat="44.1241275" lon="10.4029628"><ele>321.0</ele><time>2026-04-13T08:26:59.965Z</time></trkpt><trkpt lat="44.1241806" lon="10.4028693"><ele>321.0</ele><time>2026-04-13T08:27:01.963Z</time></trkpt><trkpt lat="44.1242409" lon="10.4027688"><ele>321.0</ele><time>2026-04-13T08:27:03.974Z</time></trkpt><trkpt lat="44.1242994" lon="10.40267"><ele>321.1666666666667</ele><time>2026-04-13T08:27:05.976Z</time></trkpt><trkpt lat="44.1243515" lon="10.4025759"><ele>321.3333333333333</ele><time>2026-04-13T08:27:07.967Z</time></trkpt><trkpt lat="44.124409" lon="10.4024847"><ele>321.5</ele><time>2026-04-13T08:27:09.967Z</time></trkpt><trkpt lat="44.1244652" lon="10.4023919"><ele>321.66666666666663</ele><time>2026-04-13T08:27:11.968Z</time></trkpt><trkpt lat="44.1245228" lon="10.4022999"><ele>321.8333333333333</ele><time>2026-04-13T08:27:13.978Z</time></trkpt><trkpt lat="44.1245775" lon="10.4022163"><ele>322.0</ele><time>2026-04-13T08:27:15.975Z</time></trkpt><trkpt lat="44.1246269" lon="10.4021364"><ele>322.2857142857143</ele><time>2026-04-13T08:27:21.973Z</time></trkpt><trkpt lat="44.1246735" lon="10.4020581"><ele>322.57142857142856</ele><time>2026-04-13T08:27:24.972Z</time></trkpt><trkpt lat="44.1247403" lon="10.4019666"><ele>322.8571428571429</ele><time>2026-04-13T08:27:27.985Z</time></trkpt><trkpt lat="44.1247802" lon="10.4018949"><ele>323.1428571428571</ele><time>2026-04-13T08:27:29.984Z</time></trkpt><trkpt lat="44.1248274" lon="10.4018241"><ele>323.42857142857144</ele><time>2026-04-13T08:27:31.973Z</time></trkpt><trkpt lat="44.1248735" lon="10.4017464"><ele>323.7142857142857</ele><time>2026-04-13T08:27:33.964Z</time></trkpt><trkpt lat="44.1249238" lon="10.4016691"><ele>324.0</ele><time>2026-04-13T08:27:35.964Z</time></trkpt><trkpt lat="44.1249763" lon="10.4015896"><ele>324.0</ele><time>2026-04-13T08:27:37.974Z</time></trkpt><trkpt lat="44.1250299" lon="10.4015052"><ele>324.0</ele><time>2026-04-13T08:27:39.964Z</time></trkpt><trkpt lat="44.1250793" lon="10.4014187"><ele>324.0</ele><time>2026-04-13T08:27:41.978Z</time></trkpt><trkpt lat="44.1251279" lon="10.401336"><ele>324.0</ele><time>2026-04-13T08:27:43.97Z</time></trkpt><trkpt lat="44.1251762" lon="10.4012544"><ele>324.0</ele><time>2026-04-13T08:27:45.97Z</time></trkpt><trkpt lat="44.1252246" lon="10.4011712"><ele>324.0</ele><time>2026-04-13T08:27:47.978Z</time></trkpt><trkpt lat="44.1252739" lon="10.4010925"><ele>323.42857142857144</ele><time>2026-04-13T08:27:49.97Z</time></trkpt><trkpt lat="44.1253214" lon="10.4010203"><ele>322.85714285714283</ele><time>2026-04-13T08:27:51.96Z</time></trkpt><trkpt lat="44.1253671" lon="10.4009593"><ele>322.2857142857143</ele><time>2026-04-13T08:27:54.971Z</time></trkpt><trkpt lat="44.1254208" lon="10.4009003"><ele>321.7142857142857</ele><time>2026-04-13T08:27:58.978Z</time></trkpt><trkpt lat="44.1254653" lon="10.4008148"><ele>321.14285714285717</ele><time>2026-04-13T08:28:01.969Z</time></trkpt><trkpt lat="44.1255162" lon="10.4007345"><ele>320.57142857142856</ele><time>2026-04-13T08:28:04.973Z</time></trkpt><trkpt lat="44.1255705" lon="10.4006453"><ele>320.0</ele><time>2026-04-13T08:28:07.96Z</time></trkpt><trkpt lat="44.1256211" lon="10.4005639"><ele>320.0</ele><time>2026-04-13T08:28:10.978Z</time></trkpt><trkpt lat="44.1256565" lon="10.4004849"><ele>320.0</ele><time>2026-04-13T08:28:13.965Z</time></trkpt><trkpt lat="44.1256389" lon="10.4003835"><ele>320.0</ele><time>2026-04-13T08:28:17.965Z</time></trkpt><trkpt lat="44.1257049" lon="10.4003333"><ele>320.0</ele><time>2026-04-13T08:28:23.969Z</time></trkpt><trkpt lat="44.1257703" lon="10.4003267"><ele>320.0</ele><time>2026-04-13T08:28:27.973Z</time></trkpt><trkpt lat="44.1257633" lon="10.400229"><ele>320.0</ele><time>2026-04-13T08:28:31.984Z</time></trkpt><trkpt lat="44.1257459" lon="10.4001322"><ele>320.0</ele><time>2026-04-13T08:28:33.981Z</time></trkpt><trkpt lat="44.1257281" lon="10.4000401"><ele>320.0</ele><time>2026-04-13T08:28:35.964Z</time></trkpt><trkpt lat="44.1257776" lon="10.4001073"><ele>320.0</ele><time>2026-04-13T08:28:40.964Z</time></trkpt><trkpt lat="44.1257926" lon="10.4002004"><ele>320.0</ele><time>2026-04-13T08:28:42.966Z</time></trkpt><trkpt lat="44.1258138" lon="10.4003214"><ele>320.0</ele><time>2026-04-13T08:28:44.981Z</time></trkpt><trkpt lat="44.1258311" lon="10.4004209"><ele>320.0</ele><time>2026-04-13T08:28:46.976Z</time></trkpt><trkpt lat="44.1259069" lon="10.400419"><ele>320.0</ele><time>2026-04-13T08:28:49.978Z</time></trkpt><trkpt lat="44.1259587" lon="10.4003638"><ele>320.0</ele><time>2026-04-13T08:28:52.981Z</time></trkpt><trkpt lat="44.1259195" lon="10.4002646"><ele>320.0</ele><time>2026-04-13T08:28:55.977Z</time></trkpt><trkpt lat="44.1258814" lon="10.4001623"><ele>320.0</ele><time>2026-04-13T08:28:57.965Z</time></trkpt><trkpt lat="44.1259159" lon="10.4000522"><ele>320.0</ele><time>2026-04-13T08:28:59.964Z</time></trkpt><trkpt lat="44.1259966" lon="10.3999436"><ele>320.0</ele><time>2026-04-13T08:29:01.975Z</time></trkpt><trkpt lat="44.1260644" lon="10.3999177"><ele>320.0</ele><time>2026-04-13T08:29:02.976Z</time></trkpt><trkpt lat="44.1261227" lon="10.3998826"><ele>320.0</ele><time>2026-04-13T08:29:03.976Z</time></trkpt><trkpt lat="44.1261887" lon="10.3998557"><ele>320.0</ele><time>2026-04-13T08:29:04.971Z</time></trkpt><trkpt lat="44.1262537" lon="10.3998252"><ele>320.0</ele><time>2026-04-13T08:29:05.966Z</time></trkpt><trkpt lat="44.1263146" lon="10.3997896"><ele>320.0</ele><time>2026-04-13T08:29:06.96Z</time></trkpt><trkpt lat="44.1263806" lon="10.3997591"><ele>320.0</ele><time>2026-04-13T08:29:07.975Z</time></trkpt><trkpt lat="44.1264498" lon="10.3997304"><ele>320.0</ele><time>2026-04-13T08:29:08.96Z</time></trkpt><trkpt lat="44.1265193" lon="10.3996898"><ele>320.0</ele><time>2026-04-13T08:29:09.971Z</time></trkpt><trkpt lat="44.1265893" lon="10.3996552"><ele>320.0</ele><time>2026-04-13T08:29:10.973Z</time></trkpt><trkpt lat="44.1266604" lon="10.3996287"><ele>319.1428571428571</ele><time>2026-04-13T08:29:11.965Z</time></trkpt><trkpt lat="44.1267355" lon="10.3996016"><ele>318.2857142857143</ele><time>2026-04-13T08:29:12.966Z</time></trkpt><trkpt lat="44.1268094" lon="10.3995723"><ele>317.42857142857144</ele><time>2026-04-13T08:29:13.975Z</time></trkpt><trkpt lat="44.1268823" lon="10.3995351"><ele>316.57142857142856</ele><time>2026-04-13T08:29:14.975Z</time></trkpt><trkpt lat="44.1269513" lon="10.3994888"><ele>315.7142857142857</ele><time>2026-04-13T08:29:15.976Z</time></trkpt><trkpt lat="44.1270084" lon="10.3994262"><ele>314.85714285714283</ele><time>2026-04-13T08:29:16.983Z</time></trkpt><trkpt lat="44.1270426" lon="10.399346"><ele>314.0</ele><time>2026-04-13T08:29:17.973Z</time></trkpt><trkpt lat="44.1270546" lon="10.3992566"><ele>314.0</ele><time>2026-04-13T08:29:18.975Z</time></trkpt><trkpt lat="44.1270211" lon="10.3990955"><ele>314.0</ele><time>2026-04-13T08:29:20.966Z</time></trkpt><trkpt lat="44.1269891" lon="10.3989776"><ele>314.0</ele><time>2026-04-13T08:29:22.978Z</time></trkpt><trkpt lat="44.1269597" lon="10.3988849"><ele>314.0</ele><time>2026-04-13T08:29:24.967Z</time></trkpt><trkpt lat="44.1269107" lon="10.3987877"><ele>314.0</ele><time>2026-04-13T08:29:27.968Z</time></trkpt><trkpt lat="44.126879" lon="10.3986815"><ele>315.33333333333337</ele><time>2026-04-13T08:29:30.959Z</time></trkpt><trkpt lat="44.1268392" lon="10.3985809"><ele>316.6666666666667</ele><time>2026-04-13T08:29:33.966Z</time></trkpt><trkpt lat="44.126809" lon="10.3984938"><ele>318.0</ele><time>2026-04-13T08:29:36.958Z</time></trkpt><trkpt lat="44.1267675" lon="10.3984004"><ele>319.3333333333333</ele><time>2026-04-13T08:29:39.958Z</time></trkpt><trkpt lat="44.1267301" lon="10.3983113"><ele>320.66666666666663</ele><time>2026-04-13T08:29:42.959Z</time></trkpt><trkpt lat="44.1266907" lon="10.3982245"><ele>322.0</ele><time>2026-04-13T08:29:45.959Z</time></trkpt><trkpt lat="44.1266517" lon="10.3981265"><ele>322.0</ele><time>2026-04-13T08:29:48.967Z</time></trkpt><trkpt lat="44.1266128" lon="10.3980312"><ele>322.0</ele><time>2026-04-13T08:29:51.966Z</time></trkpt><trkpt lat="44.1265873" lon="10.3979352"><ele>322.0</ele><time>2026-04-13T08:29:54.966Z</time></trkpt><trkpt lat="44.1265892" lon="10.3978265"><ele>322.0</ele><time>2026-04-13T08:29:57.967Z</time></trkpt><trkpt lat="44.1266099" lon="10.3977205"><ele>322.0</ele><time>2026-04-13T08:30:00.956Z</time></trkpt><trkpt lat="44.1266468" lon="10.3976228"><ele>322.0</ele><time>2026-04-13T08:30:03.964Z</time></trkpt><trkpt lat="44.1267022" lon="10.3975338"><ele>322.5</ele><time>2026-04-13T08:30:06.959Z</time></trkpt><trkpt lat="44.1267566" lon="10.3974488"><ele>323.0</ele><time>2026-04-13T08:30:09.963Z</time></trkpt><trkpt lat="44.126808" lon="10.3973577"><ele>323.5</ele><time>2026-04-13T08:30:12.969Z</time></trkpt><trkpt lat="44.1268543" lon="10.3972669"><ele>324.0</ele><time>2026-04-13T08:30:15.973Z</time></trkpt><trkpt lat="44.1268971" lon="10.3971761"><ele>324.5</ele><time>2026-04-13T08:30:18.965Z</time></trkpt><trkpt lat="44.1269358" lon="10.3970831"><ele>325.0</ele><time>2026-04-13T08:30:21.967Z</time></trkpt><trkpt lat="44.1269746" lon="10.3969831"><ele>323.8333333333333</ele><time>2026-04-13T08:30:24.963Z</time></trkpt><trkpt lat="44.1270069" lon="10.3968773"><ele>322.66666666666663</ele><time>2026-04-13T08:30:27.967Z</time></trkpt><trkpt lat="44.1270446" lon="10.3967759"><ele>321.5</ele><time>2026-04-13T08:30:30.958Z</time></trkpt><trkpt lat="44.1270934" lon="10.3966878"><ele>320.3333333333333</ele><time>2026-04-13T08:30:33.967Z</time></trkpt><trkpt lat="44.1271409" lon="10.3966028"><ele>319.1666666666667</ele><time>2026-04-13T08:30:36.967Z</time></trkpt><trkpt lat="44.1271881" lon="10.3965135"><ele>318.0</ele><time>2026-04-13T08:30:39.968Z</time></trkpt><trkpt lat="44.1272365" lon="10.396422"><ele>317.6666666666667</ele><time>2026-04-13T08:30:42.971Z</time></trkpt><trkpt lat="44.1272911" lon="10.3963345"><ele>317.3333333333333</ele><time>2026-04-13T08:30:45.966Z</time></trkpt><trkpt lat="44.1273413" lon="10.3962443"><ele>317.0</ele><time>2026-04-13T08:30:48.975Z</time></trkpt><trkpt lat="44.1273918" lon="10.3961528"><ele>316.66666666666663</ele><time>2026-04-13T08:30:51.965Z</time></trkpt><trkpt lat="44.1274373" lon="10.3960533"><ele>316.3333333333333</ele><time>2026-04-13T08:30:54.971Z</time></trkpt><trkpt lat="44.1274728" lon="10.3959487"><ele>316.0</ele><time>2026-04-13T08:30:57.979Z</time></trkpt><trkpt lat="44.1275066" lon="10.3958426"><ele>317.5</ele><time>2026-04-13T08:31:00.963Z</time></trkpt><trkpt lat="44.1275306" lon="10.3957399"><ele>319.0</ele><time>2026-04-13T08:31:03.975Z</time></trkpt><trkpt lat="44.1275541" lon="10.3956355"><ele>320.5</ele><time>2026-04-13T08:31:06.97Z</time></trkpt><trkpt lat="44.1275721" lon="10.3955269"><ele>322.0</ele><time>2026-04-13T08:31:09.958Z</time></trkpt><trkpt lat="44.1275836" lon="10.3954153"><ele>323.5</ele><time>2026-04-13T08:31:12.964Z</time></trkpt><trkpt lat="44.1275984" lon="10.3953024"><ele>325.0</ele><time>2026-04-13T08:31:15.975Z</time></trkpt><trkpt lat="44.1276141" lon="10.39519"><ele>325.0</ele><time>2026-04-13T08:31:18.964Z</time></trkpt><trkpt lat="44.1276281" lon="10.3950736"><ele>325.0</ele><time>2026-04-13T08:31:21.975Z</time></trkpt><trkpt lat="44.1276417" lon="10.394955"><ele>325.0</ele><time>2026-04-13T08:31:24.969Z</time></trkpt><trkpt lat="44.1276507" lon="10.3948433"><ele>325.0</ele><time>2026-04-13T08:31:27.974Z</time></trkpt><trkpt lat="44.1276586" lon="10.3947266"><ele>325.0</ele><time>2026-04-13T08:31:30.964Z</time></trkpt><trkpt lat="44.1276698" lon="10.3946137"><ele>325.0</ele><time>2026-04-13T08:31:33.957Z</time></trkpt><trkpt lat="44.1276794" lon="10.3945001"><ele>324.8333333333333</ele><time>2026-04-13T08:31:36.975Z</time></trkpt><trkpt lat="44.1276967" lon="10.3943909"><ele>324.66666666666663</ele><time>2026-04-13T08:31:39.973Z</time></trkpt><trkpt lat="44.1277196" lon="10.3942752"><ele>324.5</ele><time>2026-04-13T08:31:42.977Z</time></trkpt><trkpt lat="44.1277474" lon="10.3941606"><ele>324.3333333333333</ele><time>2026-04-13T08:31:45.975Z</time></trkpt><trkpt lat="44.1277855" lon="10.3940528"><ele>324.1666666666667</ele><time>2026-04-13T08:31:48.968Z</time></trkpt><trkpt lat="44.1278353" lon="10.3939522"><ele>324.0</ele><time>2026-04-13T08:31:51.974Z</time></trkpt><trkpt lat="44.1278971" lon="10.3938631"><ele>323.8333333333333</ele><time>2026-04-13T08:31:54.975Z</time></trkpt><trkpt lat="44.1279688" lon="10.3937927"><ele>323.6666666666667</ele><time>2026-04-13T08:31:57.987Z</time></trkpt><trkpt lat="44.1280443" lon="10.3937416"><ele>323.5</ele><time>2026-04-13T08:32:00.968Z</time></trkpt><trkpt lat="44.1281239" lon="10.3937086"><ele>323.33333333333337</ele><time>2026-04-13T08:32:03.969Z</time></trkpt><trkpt lat="44.1282069" lon="10.3936766"><ele>323.1666666666667</ele><time>2026-04-13T08:32:06.965Z</time></trkpt><trkpt lat="44.1282874" lon="10.3936451"><ele>323.0</ele><time>2026-04-13T08:32:09.974Z</time></trkpt><trkpt lat="44.1283698" lon="10.3936113"><ele>324.6666666666667</ele><time>2026-04-13T08:32:12.968Z</time></trkpt><trkpt lat="44.1284496" lon="10.3935752"><ele>326.33333333333337</ele><time>2026-04-13T08:32:15.975Z</time></trkpt><trkpt lat="44.1285298" lon="10.3935434"><ele>328.0</ele><time>2026-04-13T08:32:18.975Z</time></trkpt><trkpt lat="44.1286064" lon="10.3935139"><ele>329.6666666666667</ele><time>2026-04-13T08:32:21.969Z</time></trkpt><trkpt lat="44.1286797" lon="10.393475"><ele>331.3333333333333</ele><time>2026-04-13T08:32:24.969Z</time></trkpt><trkpt lat="44.1287542" lon="10.3934334"><ele>333.0</ele><time>2026-04-13T08:32:27.977Z</time></trkpt><trkpt lat="44.1288247" lon="10.3933728"><ele>333.0</ele><time>2026-04-13T08:32:30.967Z</time></trkpt><trkpt lat="44.1288975" lon="10.3933147"><ele>333.0</ele><time>2026-04-13T08:32:33.968Z</time></trkpt><trkpt lat="44.1289729" lon="10.3932631"><ele>333.0</ele><time>2026-04-13T08:32:36.976Z</time></trkpt><trkpt lat="44.1290424" lon="10.3931959"><ele>333.0</ele><time>2026-04-13T08:32:39.969Z</time></trkpt><trkpt lat="44.1291097" lon="10.3931308"><ele>333.0</ele><time>2026-04-13T08:32:42.967Z</time></trkpt><trkpt lat="44.1291746" lon="10.3930576"><ele>333.0</ele><time>2026-04-13T08:32:45.968Z</time></trkpt><trkpt lat="44.1292313" lon="10.3929746"><ele>333.3333333333333</ele><time>2026-04-13T08:32:48.968Z</time></trkpt><trkpt lat="44.1292873" lon="10.3928926"><ele>333.6666666666667</ele><time>2026-04-13T08:32:51.975Z</time></trkpt><trkpt lat="44.1293437" lon="10.3928082"><ele>334.0</ele><time>2026-04-13T08:32:54.97Z</time></trkpt><trkpt lat="44.1293978" lon="10.3927203"><ele>334.33333333333337</ele><time>2026-04-13T08:32:57.981Z</time></trkpt><trkpt lat="44.1294552" lon="10.3926303"><ele>334.6666666666667</ele><time>2026-04-13T08:33:00.986Z</time></trkpt><trkpt lat="44.1295101" lon="10.3925405"><ele>335.0</ele><time>2026-04-13T08:33:03.967Z</time></trkpt><trkpt lat="44.1295631" lon="10.3924488"><ele>335.0</ele><time>2026-04-13T08:33:06.966Z</time></trkpt><trkpt lat="44.1296243" lon="10.3923657"><ele>335.0</ele><time>2026-04-13T08:33:09.975Z</time></trkpt><trkpt lat="44.1296898" lon="10.3922914"><ele>335.0</ele><time>2026-04-13T08:33:12.959Z</time></trkpt><trkpt lat="44.1297656" lon="10.3922359"><ele>335.0</ele><time>2026-04-13T08:33:15.961Z</time></trkpt><trkpt lat="44.1298429" lon="10.3921899"><ele>335.0</ele><time>2026-04-13T08:33:18.971Z</time></trkpt><trkpt lat="44.1299175" lon="10.3921658"><ele>335.0</ele><time>2026-04-13T08:33:21.962Z</time></trkpt><trkpt lat="44.1300021" lon="10.3921481"><ele>335.5</ele><time>2026-04-13T08:33:24.967Z</time></trkpt><trkpt lat="44.1300822" lon="10.3921234"><ele>336.0</ele><time>2026-04-13T08:33:27.97Z</time></trkpt><trkpt lat="44.1301616" lon="10.3921"><ele>336.5</ele><time>2026-04-13T08:33:30.978Z</time></trkpt><trkpt lat="44.130241" lon="10.3920768"><ele>337.0</ele><time>2026-04-13T08:33:33.967Z</time></trkpt><trkpt lat="44.1303234" lon="10.3920609"><ele>337.5</ele><time>2026-04-13T08:33:36.961Z</time></trkpt><trkpt lat="44.1304081" lon="10.3920408"><ele>338.0</ele><time>2026-04-13T08:33:39.975Z</time></trkpt><trkpt lat="44.1304897" lon="10.3920194"><ele>338.0</ele><time>2026-04-13T08:33:42.979Z</time></trkpt><trkpt lat="44.130578" lon="10.3919989"><ele>338.0</ele><time>2026-04-13T08:33:45.965Z</time></trkpt><trkpt lat="44.1306408" lon="10.3919853"><ele>338.0</ele><time>2026-04-13T08:33:47.974Z</time></trkpt><trkpt lat="44.1307273" lon="10.391985"><ele>338.0</ele><time>2026-04-13T08:33:50.968Z</time></trkpt><trkpt lat="44.13081" lon="10.3919998"><ele>338.0</ele><time>2026-04-13T08:33:53.963Z</time></trkpt><trkpt lat="44.1308954" lon="10.3920242"><ele>338.0</ele><time>2026-04-13T08:33:56.976Z</time></trkpt><trkpt lat="44.1309817" lon="10.3920478"><ele>338.6666666666667</ele><time>2026-04-13T08:33:59.967Z</time></trkpt><trkpt lat="44.1310682" lon="10.3920729"><ele>339.33333333333337</ele><time>2026-04-13T08:34:02.994Z</time></trkpt><trkpt lat="44.131153" lon="10.3920948"><ele>340.0</ele><time>2026-04-13T08:34:05.981Z</time></trkpt><trkpt lat="44.1312343" lon="10.3921161"><ele>340.6666666666667</ele><time>2026-04-13T08:34:08.973Z</time></trkpt><trkpt lat="44.1313182" lon="10.3921428"><ele>341.3333333333333</ele><time>2026-04-13T08:34:11.965Z</time></trkpt><trkpt lat="44.1314037" lon="10.3921812"><ele>342.0</ele><time>2026-04-13T08:34:14.978Z</time></trkpt><trkpt lat="44.131485" lon="10.3922308"><ele>344.5</ele><time>2026-04-13T08:34:17.97Z</time></trkpt><trkpt lat="44.1315625" lon="10.3922857"><ele>347.0</ele><time>2026-04-13T08:34:20.971Z</time></trkpt><trkpt lat="44.1316398" lon="10.3923443"><ele>349.5</ele><time>2026-04-13T08:34:23.975Z</time></trkpt><trkpt lat="44.1317158" lon="10.3924041"><ele>352.0</ele><time>2026-04-13T08:34:26.969Z</time></trkpt><trkpt lat="44.1317874" lon="10.3924657"><ele>354.5</ele><time>2026-04-13T08:34:29.967Z</time></trkpt><trkpt lat="44.1318595" lon="10.3925251"><ele>357.0</ele><time>2026-04-13T08:34:32.973Z</time></trkpt><trkpt lat="44.1319325" lon="10.3925765"><ele>357.0</ele><time>2026-04-13T08:34:35.969Z</time></trkpt><trkpt lat="44.1320075" lon="10.3926234"><ele>357.0</ele><time>2026-04-13T08:34:38.98Z</time></trkpt><trkpt lat="44.1320825" lon="10.3926622"><ele>357.0</ele><time>2026-04-13T08:34:41.971Z</time></trkpt><trkpt lat="44.1321628" lon="10.3926924"><ele>357.0</ele><time>2026-04-13T08:34:44.968Z</time></trkpt><trkpt lat="44.1322464" lon="10.3927047"><ele>357.0</ele><time>2026-04-13T08:34:47.968Z</time></trkpt><trkpt lat="44.1323356" lon="10.392708"><ele>357.0</ele><time>2026-04-13T08:34:50.966Z</time></trkpt><trkpt lat="44.1324022" lon="10.3927018"><ele>355.7142857142857</ele><time>2026-04-13T08:34:52.967Z</time></trkpt><trkpt lat="44.1324672" lon="10.3926874"><ele>354.42857142857144</ele><time>2026-04-13T08:34:54.965Z</time></trkpt><trkpt lat="44.1325346" lon="10.392673"><ele>353.1428571428571</ele><time>2026-04-13T08:34:56.968Z</time></trkpt><trkpt lat="44.1326035" lon="10.3926583"><ele>351.8571428571429</ele><time>2026-04-13T08:34:58.972Z</time></trkpt><trkpt lat="44.1326738" lon="10.392645"><ele>350.57142857142856</ele><time>2026-04-13T08:35:00.967Z</time></trkpt><trkpt lat="44.132747" lon="10.3926272"><ele>349.2857142857143</ele><time>2026-04-13T08:35:02.979Z</time></trkpt><trkpt lat="44.1328244" lon="10.3926171"><ele>348.0</ele><time>2026-04-13T08:35:04.986Z</time></trkpt><trkpt lat="44.1329086" lon="10.3926231"><ele>348.0</ele><time>2026-04-13T08:35:06.965Z</time></trkpt><trkpt lat="44.1330042" lon="10.3926566"><ele>348.0</ele><time>2026-04-13T08:35:08.982Z</time></trkpt><trkpt lat="44.1331068" lon="10.3927165"><ele>348.0</ele><time>2026-04-13T08:35:10.981Z</time></trkpt><trkpt lat="44.1332183" lon="10.3927799"><ele>348.0</ele><time>2026-04-13T08:35:12.968Z</time></trkpt><trkpt lat="44.1333277" lon="10.3928425"><ele>348.0</ele><time>2026-04-13T08:35:14.967Z</time></trkpt><trkpt lat="44.1333862" lon="10.3928761"><ele>348.2</ele><time>2026-04-13T08:35:15.972Z</time></trkpt><trkpt lat="44.1334997" lon="10.3929413"><ele>348.4</ele><time>2026-04-13T08:35:17.963Z</time></trkpt><trkpt lat="44.1336183" lon="10.3930095"><ele>348.59999999999997</ele><time>2026-04-13T08:35:19.962Z</time></trkpt><trkpt lat="44.1337443" lon="10.3930536"><ele>348.79999999999995</ele><time>2026-04-13T08:35:21.976Z</time></trkpt><trkpt lat="44.1338122" lon="10.3930641"><ele>349.0</ele><time>2026-04-13T08:35:22.966Z</time></trkpt><trkpt lat="44.1338812" lon="10.3930746"><ele>349.0</ele><time>2026-04-13T08:35:23.971Z</time></trkpt><trkpt lat="44.1339486" lon="10.3930846"><ele>349.0</ele><time>2026-04-13T08:35:24.975Z</time></trkpt><trkpt lat="44.1340279" lon="10.3930841"><ele>349.0</ele><time>2026-04-13T08:35:25.978Z</time></trkpt><trkpt lat="44.1341017" lon="10.3930879"><ele>349.0</ele><time>2026-04-13T08:35:26.972Z</time></trkpt><trkpt lat="44.1341731" lon="10.3930786"><ele>349.0</ele><time>2026-04-13T08:35:27.973Z</time></trkpt><trkpt lat="44.1342487" lon="10.3930525"><ele>349.0</ele><time>2026-04-13T08:35:28.975Z</time></trkpt><trkpt lat="44.1343232" lon="10.3930066"><ele>346.6</ele><time>2026-04-13T08:35:29.962Z</time></trkpt><trkpt lat="44.134391" lon="10.3929422"><ele>344.2</ele><time>2026-04-13T08:35:30.976Z</time></trkpt><trkpt lat="44.1344644" lon="10.3928739"><ele>341.8</ele><time>2026-04-13T08:35:31.98Z</time></trkpt><trkpt lat="44.1345511" lon="10.3928212"><ele>339.40000000000003</ele><time>2026-04-13T08:35:32.977Z</time></trkpt><trkpt lat="44.1346414" lon="10.3928034"><ele>337.0</ele><time>2026-04-13T08:35:33.976Z</time></trkpt><trkpt lat="44.1347388" lon="10.3928043"><ele>337.0</ele><time>2026-04-13T08:35:34.978Z</time></trkpt><trkpt lat="44.1348385" lon="10.392808"><ele>337.0</ele><time>2026-04-13T08:35:35.979Z</time></trkpt><trkpt lat="44.1349315" lon="10.3928076"><ele>337.0</ele><time>2026-04-13T08:35:36.975Z</time></trkpt><trkpt lat="44.1350277" lon="10.3927625"><ele>337.0</ele><time>2026-04-13T08:35:37.982Z</time></trkpt><trkpt lat="44.1351168" lon="10.3926912"><ele>337.0</ele><time>2026-04-13T08:35:38.969Z</time></trkpt><trkpt lat="44.135196" lon="10.3926233"><ele>336.5</ele><time>2026-04-13T08:35:39.979Z</time></trkpt><trkpt lat="44.1352715" lon="10.3925445"><ele>336.0</ele><time>2026-04-13T08:35:40.979Z</time></trkpt><trkpt lat="44.1353485" lon="10.3924717"><ele>335.5</ele><time>2026-04-13T08:35:41.97Z</time></trkpt><trkpt lat="44.1354161" lon="10.392398"><ele>335.0</ele><time>2026-04-13T08:35:42.967Z</time></trkpt><trkpt lat="44.1354716" lon="10.3923144"><ele>334.5</ele><time>2026-04-13T08:35:43.972Z</time></trkpt><trkpt lat="44.1355063" lon="10.3922296"><ele>334.0</ele><time>2026-04-13T08:35:44.968Z</time></trkpt><trkpt lat="44.1355287" lon="10.3921454"><ele>333.85714285714283</ele><time>2026-04-13T08:35:45.969Z</time></trkpt><trkpt lat="44.1355227" lon="10.3920114"><ele>333.7142857142857</ele><time>2026-04-13T08:35:47.975Z</time></trkpt><trkpt lat="44.135507" lon="10.3919206"><ele>333.57142857142856</ele><time>2026-04-13T08:35:49.967Z</time></trkpt><trkpt lat="44.135459" lon="10.3918309"><ele>333.42857142857144</ele><time>2026-04-13T08:35:52.974Z</time></trkpt><trkpt lat="44.1354235" lon="10.3917582"><ele>333.2857142857143</ele><time>2026-04-13T08:35:55.957Z</time></trkpt><trkpt lat="44.1353797" lon="10.3916914"><ele>333.14285714285717</ele><time>2026-04-13T08:35:58.983Z</time></trkpt><trkpt lat="44.13533" lon="10.3916189"><ele>333.0</ele><time>2026-04-13T08:36:02.981Z</time></trkpt><trkpt lat="44.1352915" lon="10.3915493"><ele>333.0</ele><time>2026-04-13T08:36:05.975Z</time></trkpt><trkpt lat="44.1352445" lon="10.3914653"><ele>333.0</ele><time>2026-04-13T08:36:08.964Z</time></trkpt><trkpt lat="44.135204" lon="10.3913886"><ele>333.0</ele><time>2026-04-13T08:36:11.962Z</time></trkpt><trkpt lat="44.1351673" lon="10.3913071"><ele>333.0</ele><time>2026-04-13T08:36:14.969Z</time></trkpt><trkpt lat="44.1351299" lon="10.3912324"><ele>333.0</ele><time>2026-04-13T08:36:17.975Z</time></trkpt><trkpt lat="44.1350904" lon="10.391152"><ele>333.0</ele><time>2026-04-13T08:36:20.966Z</time></trkpt><trkpt lat="44.1350498" lon="10.3910736"><ele>333.0</ele><time>2026-04-13T08:36:23.96Z</time></trkpt><trkpt lat="44.1350091" lon="10.3909952"><ele>332.5714285714286</ele><time>2026-04-13T08:36:26.981Z</time></trkpt><trkpt lat="44.1349696" lon="10.390907"><ele>332.1428571428571</ele><time>2026-04-13T08:36:29.981Z</time></trkpt><trkpt lat="44.1349341" lon="10.3908235"><ele>331.7142857142857</ele><time>2026-04-13T08:36:32.983Z</time></trkpt><trkpt lat="44.1349039" lon="10.3907438"><ele>331.28571428571433</ele><time>2026-04-13T08:36:35.982Z</time></trkpt><trkpt lat="44.1348768" lon="10.3906573"><ele>330.8571428571429</ele><time>2026-04-13T08:36:38.966Z</time></trkpt><trkpt lat="44.1348384" lon="10.3905579"><ele>330.42857142857144</ele><time>2026-04-13T08:36:42.989Z</time></trkpt><trkpt lat="44.1348051" lon="10.3904708"><ele>330.0</ele><time>2026-04-13T08:36:45.966Z</time></trkpt><trkpt lat="44.134774" lon="10.3903828"><ele>330.00000000000006</ele><time>2026-04-13T08:36:48.967Z</time></trkpt><trkpt lat="44.1347431" lon="10.3902987"><ele>330.0</ele><time>2026-04-13T08:36:51.959Z</time></trkpt><trkpt lat="44.1347112" lon="10.3902125"><ele>330.0</ele><time>2026-04-13T08:36:54.966Z</time></trkpt><trkpt lat="44.1346754" lon="10.3901297"><ele>330.0</ele><time>2026-04-13T08:36:57.969Z</time></trkpt><trkpt lat="44.1346478" lon="10.3900416"><ele>330.0</ele><time>2026-04-13T08:37:00.97Z</time></trkpt><trkpt lat="44.1346267" lon="10.3899525"><ele>330.00000000000006</ele><time>2026-04-13T08:37:03.966Z</time></trkpt><trkpt lat="44.1346137" lon="10.3898635"><ele>330.0</ele><time>2026-04-13T08:37:06.971Z</time></trkpt><trkpt lat="44.1346134" lon="10.3897689"><ele>330.00000000000006</ele><time>2026-04-13T08:37:09.963Z</time></trkpt><trkpt lat="44.1346347" lon="10.389681"><ele>330.0</ele><time>2026-04-13T08:37:12.975Z</time></trkpt><trkpt lat="44.1346591" lon="10.3895877"><ele>330.0</ele><time>2026-04-13T08:37:15.975Z</time></trkpt><trkpt lat="44.1346877" lon="10.3895022"><ele>330.0</ele><time>2026-04-13T08:37:18.978Z</time></trkpt><trkpt lat="44.1347164" lon="10.3894124"><ele>330.0</ele><time>2026-04-13T08:37:21.968Z</time></trkpt><trkpt lat="44.1347446" lon="10.3893239"><ele>330.00000000000006</ele><time>2026-04-13T08:37:24.978Z</time></trkpt><trkpt lat="44.1347743" lon="10.389236"><ele>330.0</ele><time>2026-04-13T08:37:27.971Z</time></trkpt><trkpt lat="44.1347986" lon="10.3891463"><ele>331.5714285714286</ele><time>2026-04-13T08:37:30.965Z</time></trkpt><trkpt lat="44.1348149" lon="10.3890522"><ele>333.14285714285717</ele><time>2026-04-13T08:37:33.965Z</time></trkpt><trkpt lat="44.1348267" lon="10.3889611"><ele>334.7142857142857</ele><time>2026-04-13T08:37:36.972Z</time></trkpt><trkpt lat="44.1348372" lon="10.3888618"><ele>336.28571428571433</ele><time>2026-04-13T08:37:39.976Z</time></trkpt><trkpt lat="44.1348423" lon="10.3887657"><ele>337.8571428571429</ele><time>2026-04-13T08:37:42.966Z</time></trkpt><trkpt lat="44.1348453" lon="10.3886692"><ele>339.42857142857144</ele><time>2026-04-13T08:37:45.971Z</time></trkpt><trkpt lat="44.1348573" lon="10.3885754"><ele>341.0</ele><time>2026-04-13T08:37:48.964Z</time></trkpt><trkpt lat="44.1348755" lon="10.3884791"><ele>343.0</ele><time>2026-04-13T08:37:51.966Z</time></trkpt><trkpt lat="44.1348988" lon="10.3883828"><ele>345.0</ele><time>2026-04-13T08:37:54.973Z</time></trkpt><trkpt lat="44.134929" lon="10.3882986"><ele>347.0</ele><time>2026-04-13T08:37:57.97Z</time></trkpt><trkpt lat="44.1349569" lon="10.3882117"><ele>349.0</ele><time>2026-04-13T08:38:00.978Z</time></trkpt><trkpt lat="44.1349841" lon="10.3881205"><ele>351.0</ele><time>2026-04-13T08:38:03.979Z</time></trkpt><trkpt lat="44.1350127" lon="10.3880309"><ele>353.0</ele><time>2026-04-13T08:38:06.977Z</time></trkpt><trkpt lat="44.1350446" lon="10.3879397"><ele>355.0</ele><time>2026-04-13T08:38:09.981Z</time></trkpt><trkpt lat="44.1350764" lon="10.3878515"><ele>355.0</ele><time>2026-04-13T08:38:12.972Z</time></trkpt><trkpt lat="44.1351065" lon="10.3877637"><ele>355.0</ele><time>2026-04-13T08:38:15.966Z</time></trkpt><trkpt lat="44.1351381" lon="10.3876775"><ele>355.0</ele><time>2026-04-13T08:38:18.968Z</time></trkpt><trkpt lat="44.1351665" lon="10.3875894"><ele>355.0</ele><time>2026-04-13T08:38:21.977Z</time></trkpt><trkpt lat="44.1351951" lon="10.3874975"><ele>355.0</ele><time>2026-04-13T08:38:24.96Z</time></trkpt><trkpt lat="44.1352299" lon="10.3874076"><ele>355.0</ele><time>2026-04-13T08:38:27.971Z</time></trkpt><trkpt lat="44.1352619" lon="10.3873178"><ele>355.0</ele><time>2026-04-13T08:38:30.968Z</time></trkpt><trkpt lat="44.1352917" lon="10.3872326"><ele>354.42857142857144</ele><time>2026-04-13T08:38:33.974Z</time></trkpt><trkpt lat="44.1353249" lon="10.3871499"><ele>353.8571428571429</ele><time>2026-04-13T08:38:36.979Z</time></trkpt><trkpt lat="44.1353634" lon="10.3870693"><ele>353.28571428571433</ele><time>2026-04-13T08:38:39.968Z</time></trkpt><trkpt lat="44.1354191" lon="10.3870131"><ele>352.7142857142857</ele><time>2026-04-13T08:38:42.977Z</time></trkpt><trkpt lat="44.1354802" lon="10.3869683"><ele>352.14285714285717</ele><time>2026-04-13T08:38:45.973Z</time></trkpt><trkpt lat="44.1355445" lon="10.386916"><ele>351.5714285714286</ele><time>2026-04-13T08:38:48.969Z</time></trkpt><trkpt lat="44.1356129" lon="10.3868776"><ele>351.0</ele><time>2026-04-13T08:38:51.974Z</time></trkpt><trkpt lat="44.1356805" lon="10.3868426"><ele>352.14285714285717</ele><time>2026-04-13T08:38:54.968Z</time></trkpt><trkpt lat="44.1357503" lon="10.3868107"><ele>353.2857142857143</ele><time>2026-04-13T08:38:57.971Z</time></trkpt><trkpt lat="44.1358199" lon="10.386778"><ele>354.42857142857144</ele><time>2026-04-13T08:39:00.983Z</time></trkpt><trkpt lat="44.1358866" lon="10.3867461"><ele>355.57142857142856</ele><time>2026-04-13T08:39:03.973Z</time></trkpt><trkpt lat="44.1359523" lon="10.3867182"><ele>356.7142857142857</ele><time>2026-04-13T08:39:06.976Z</time></trkpt><trkpt lat="44.1360185" lon="10.3866851"><ele>357.8571428571429</ele><time>2026-04-13T08:39:09.974Z</time></trkpt><trkpt lat="44.1360853" lon="10.3866544"><ele>359.0</ele><time>2026-04-13T08:39:12.98Z</time></trkpt><trkpt lat="44.1361521" lon="10.3866269"><ele>359.0</ele><time>2026-04-13T08:39:15.971Z</time></trkpt><trkpt lat="44.1362229" lon="10.3865981"><ele>359.0</ele><time>2026-04-13T08:39:18.967Z</time></trkpt><trkpt lat="44.1362917" lon="10.3865736"><ele>359.0</ele><time>2026-04-13T08:39:21.969Z</time></trkpt><trkpt lat="44.1363581" lon="10.3865406"><ele>359.0</ele><time>2026-04-13T08:39:24.969Z</time></trkpt><trkpt lat="44.1364245" lon="10.3865129"><ele>359.0</ele><time>2026-04-13T08:39:27.96Z</time></trkpt><trkpt lat="44.1364929" lon="10.3864888"><ele>359.0</ele><time>2026-04-13T08:39:30.971Z</time></trkpt><trkpt lat="44.1365625" lon="10.3864584"><ele>359.0</ele><time>2026-04-13T08:39:33.963Z</time></trkpt><trkpt lat="44.1366264" lon="10.3864337"><ele>359.7142857142857</ele><time>2026-04-13T08:39:36.974Z</time></trkpt><trkpt lat="44.1366871" lon="10.3864064"><ele>360.42857142857144</ele><time>2026-04-13T08:39:39.977Z</time></trkpt><trkpt lat="44.1367647" lon="10.3863583"><ele>361.1428571428571</ele><time>2026-04-13T08:39:43.98Z</time></trkpt><trkpt lat="44.1368129" lon="10.3863013"><ele>361.8571428571429</ele><time>2026-04-13T08:39:46.975Z</time></trkpt><trkpt lat="44.1368624" lon="10.3862178"><ele>362.57142857142856</ele><time>2026-04-13T08:39:49.964Z</time></trkpt><trkpt lat="44.1368934" lon="10.3861328"><ele>363.2857142857143</ele><time>2026-04-13T08:39:52.971Z</time></trkpt><trkpt lat="44.1369116" lon="10.3860342"><ele>364.0</ele><time>2026-04-13T08:39:55.974Z</time></trkpt><trkpt lat="44.1369057" lon="10.3859383"><ele>364.0</ele><time>2026-04-13T08:39:58.96Z</time></trkpt><trkpt lat="44.1368856" lon="10.3858374"><ele>364.0</ele><time>2026-04-13T08:40:01.967Z</time></trkpt><trkpt lat="44.1368678" lon="10.3857288"><ele>364.0</ele><time>2026-04-13T08:40:04.972Z</time></trkpt><trkpt lat="44.1368523" lon="10.3856275"><ele>364.0</ele><time>2026-04-13T08:40:07.977Z</time></trkpt><trkpt lat="44.1368376" lon="10.3855269"><ele>364.0</ele><time>2026-04-13T08:40:10.973Z</time></trkpt><trkpt lat="44.1368228" lon="10.3854278"><ele>364.0</ele><time>2026-04-13T08:40:13.98Z</time></trkpt><trkpt lat="44.1368053" lon="10.3853296"><ele>364.0</ele><time>2026-04-13T08:40:16.975Z</time></trkpt><trkpt lat="44.1367861" lon="10.3852314"><ele>364.57142857142856</ele><time>2026-04-13T08:40:19.968Z</time></trkpt><trkpt lat="44.1367746" lon="10.3851273"><ele>365.1428571428571</ele><time>2026-04-13T08:40:22.967Z</time></trkpt><trkpt lat="44.1367689" lon="10.3850246"><ele>365.7142857142857</ele><time>2026-04-13T08:40:25.96Z</time></trkpt><trkpt lat="44.1367586" lon="10.3849232"><ele>366.2857142857143</ele><time>2026-04-13T08:40:28.965Z</time></trkpt><trkpt lat="44.1367453" lon="10.3848271"><ele>366.85714285714283</ele><time>2026-04-13T08:40:31.972Z</time></trkpt><trkpt lat="44.1367362" lon="10.3847337"><ele>367.42857142857144</ele><time>2026-04-13T08:40:34.974Z</time></trkpt><trkpt lat="44.1367211" lon="10.3846377"><ele>368.0</ele><time>2026-04-13T08:40:37.965Z</time></trkpt><trkpt lat="44.1367114" lon="10.3845424"><ele>368.8571428571429</ele><time>2026-04-13T08:40:40.978Z</time></trkpt><trkpt lat="44.1366986" lon="10.3844443"><ele>369.71428571428567</ele><time>2026-04-13T08:40:43.978Z</time></trkpt><trkpt lat="44.1366826" lon="10.3843459"><ele>370.57142857142856</ele><time>2026-04-13T08:40:46.96Z</time></trkpt><trkpt lat="44.1366716" lon="10.3842483"><ele>371.42857142857144</ele><time>2026-04-13T08:40:49.961Z</time></trkpt><trkpt lat="44.1366597" lon="10.3841502"><ele>372.28571428571433</ele><time>2026-04-13T08:40:52.965Z</time></trkpt><trkpt lat="44.1366456" lon="10.3840516"><ele>373.1428571428571</ele><time>2026-04-13T08:40:55.97Z</time></trkpt><trkpt lat="44.1366289" lon="10.3839525"><ele>374.0</ele><time>2026-04-13T08:40:58.975Z</time></trkpt><trkpt lat="44.1366146" lon="10.3838576"><ele>374.0</ele><time>2026-04-13T08:41:01.976Z</time></trkpt><trkpt lat="44.1366076" lon="10.3837606"><ele>374.0</ele><time>2026-04-13T08:41:04.976Z</time></trkpt><trkpt lat="44.1365988" lon="10.3836667"><ele>374.0</ele><time>2026-04-13T08:41:07.974Z</time></trkpt><trkpt lat="44.1365896" lon="10.3835789"><ele>374.0</ele><time>2026-04-13T08:41:10.97Z</time></trkpt><trkpt lat="44.1365926" lon="10.3834711"><ele>374.0</ele><time>2026-04-13T08:41:13.966Z</time></trkpt><trkpt lat="44.1366204" lon="10.3833723"><ele>374.0</ele><time>2026-04-13T08:41:16.974Z</time></trkpt><trkpt lat="44.1366476" lon="10.3832779"><ele>374.0</ele><time>2026-04-13T08:41:19.96Z</time></trkpt><trkpt lat="44.1366791" lon="10.3831889"><ele>374.0</ele><time>2026-04-13T08:41:22.971Z</time></trkpt><trkpt lat="44.1367264" lon="10.3831063"><ele>374.0</ele><time>2026-04-13T08:41:25.967Z</time></trkpt><trkpt lat="44.1367775" lon="10.3830335"><ele>374.0</ele><time>2026-04-13T08:41:28.967Z</time></trkpt><trkpt lat="44.136833" lon="10.3829658"><ele>374.0</ele><time>2026-04-13T08:41:31.97Z</time></trkpt><trkpt lat="44.1368881" lon="10.3829024"><ele>374.0</ele><time>2026-04-13T08:41:34.965Z</time></trkpt><trkpt lat="44.1369539" lon="10.3828573"><ele>374.0</ele><time>2026-04-13T08:41:37.964Z</time></trkpt><trkpt lat="44.1370194" lon="10.3828148"><ele>374.0</ele><time>2026-04-13T08:41:40.96Z</time></trkpt><trkpt lat="44.1370827" lon="10.382776"><ele>373.0</ele><time>2026-04-13T08:41:43.98Z</time></trkpt><trkpt lat="44.1371454" lon="10.382737"><ele>372.0</ele><time>2026-04-13T08:41:46.971Z</time></trkpt><trkpt lat="44.1372103" lon="10.382696"><ele>371.0</ele><time>2026-04-13T08:41:49.966Z</time></trkpt><trkpt lat="44.13727" lon="10.3826519"><ele>370.0</ele><time>2026-04-13T08:41:52.979Z</time></trkpt><trkpt lat="44.1373365" lon="10.382623"><ele>369.0</ele><time>2026-04-13T08:41:55.969Z</time></trkpt><trkpt lat="44.1373998" lon="10.3825785"><ele>368.0</ele><time>2026-04-13T08:41:58.978Z</time></trkpt><trkpt lat="44.137464" lon="10.3825352"><ele>367.0</ele><time>2026-04-13T08:42:01.963Z</time></trkpt><trkpt lat="44.1375246" lon="10.3824887"><ele>367.4285714285714</ele><time>2026-04-13T08:42:04.96Z</time></trkpt><trkpt lat="44.1375817" lon="10.3824255"><ele>367.8571428571429</ele><time>2026-04-13T08:42:07.973Z</time></trkpt><trkpt lat="44.137636" lon="10.3823608"><ele>368.2857142857143</ele><time>2026-04-13T08:42:10.985Z</time></trkpt><trkpt lat="44.1376874" lon="10.3822866"><ele>368.71428571428567</ele><time>2026-04-13T08:42:13.968Z</time></trkpt><trkpt lat="44.1377267" lon="10.382209"><ele>369.1428571428571</ele><time>2026-04-13T08:42:16.98Z</time></trkpt><trkpt lat="44.1377681" lon="10.3821256"><ele>369.57142857142856</ele><time>2026-04-13T08:42:19.972Z</time></trkpt><trkpt lat="44.1378105" lon="10.3820492"><ele>370.0</ele><time>2026-04-13T08:42:22.975Z</time></trkpt><trkpt lat="44.1378458" lon="10.3819657"><ele>369.99999999999994</ele><time>2026-04-13T08:42:25.966Z</time></trkpt><trkpt lat="44.1378788" lon="10.3818853"><ele>370.0</ele><time>2026-04-13T08:42:28.972Z</time></trkpt><trkpt lat="44.1379153" lon="10.3818096"><ele>370.0</ele><time>2026-04-13T08:42:31.98Z</time></trkpt><trkpt lat="44.1379799" lon="10.381736"><ele>370.0</ele><time>2026-04-13T08:42:35.979Z</time></trkpt><trkpt lat="44.1380363" lon="10.3816866"><ele>370.0</ele><time>2026-04-13T08:42:38.974Z</time></trkpt><trkpt lat="44.1380978" lon="10.381643"><ele>369.99999999999994</ele><time>2026-04-13T08:42:41.98Z</time></trkpt><trkpt lat="44.1381534" lon="10.3815918"><ele>370.0</ele><time>2026-04-13T08:42:44.962Z</time></trkpt><trkpt lat="44.1382097" lon="10.3815324"><ele>371.2857142857143</ele><time>2026-04-13T08:42:47.971Z</time></trkpt><trkpt lat="44.1382573" lon="10.3814551"><ele>372.57142857142856</ele><time>2026-04-13T08:42:50.974Z</time></trkpt><trkpt lat="44.1383056" lon="10.3813731"><ele>373.8571428571429</ele><time>2026-04-13T08:42:53.982Z</time></trkpt><trkpt lat="44.1383544" lon="10.3812966"><ele>375.1428571428571</ele><time>2026-04-13T08:42:56.976Z</time></trkpt><trkpt lat="44.1384033" lon="10.3812241"><ele>376.42857142857144</ele><time>2026-04-13T08:42:59.979Z</time></trkpt><trkpt lat="44.1384528" lon="10.3811567"><ele>377.7142857142857</ele><time>2026-04-13T08:43:02.973Z</time></trkpt><trkpt lat="44.1385043" lon="10.381099"><ele>379.0</ele><time>2026-04-13T08:43:05.963Z</time></trkpt><trkpt lat="44.1385717" lon="10.3810279"><ele>379.00000000000006</ele><time>2026-04-13T08:43:09.962Z</time></trkpt><trkpt lat="44.1386324" lon="10.3809761"><ele>379.0</ele><time>2026-04-13T08:43:12.973Z</time></trkpt><trkpt lat="44.1386868" lon="10.3809253"><ele>379.0</ele><time>2026-04-13T08:43:15.975Z</time></trkpt><trkpt lat="44.1387433" lon="10.3808753"><ele>379.0</ele><time>2026-04-13T08:43:18.976Z</time></trkpt><trkpt lat="44.1388073" lon="10.3808225"><ele>379.0</ele><time>2026-04-13T08:43:21.967Z</time></trkpt><trkpt lat="44.1388628" lon="10.3807726"><ele>379.00000000000006</ele><time>2026-04-13T08:43:24.964Z</time></trkpt><trkpt lat="44.1389232" lon="10.3807103"><ele>379.0</ele><time>2026-04-13T08:43:27.967Z</time></trkpt><trkpt lat="44.1389834" lon="10.3806463"><ele>379.00000000000006</ele><time>2026-04-13T08:43:30.965Z</time></trkpt><trkpt lat="44.1390428" lon="10.3805905"><ele>379.0</ele><time>2026-04-13T08:43:33.962Z</time></trkpt><trkpt lat="44.1391" lon="10.3805285"><ele>379.0</ele><time>2026-04-13T08:43:36.968Z</time></trkpt><trkpt lat="44.1391445" lon="10.3804515"><ele>379.0</ele><time>2026-04-13T08:43:39.973Z</time></trkpt><trkpt lat="44.139182" lon="10.3803614"><ele>379.0</ele><time>2026-04-13T08:43:42.975Z</time></trkpt><trkpt lat="44.1392135" lon="10.3802717"><ele>379.00000000000006</ele><time>2026-04-13T08:43:45.981Z</time></trkpt><trkpt lat="44.1392477" lon="10.3801866"><ele>379.0</ele><time>2026-04-13T08:43:48.973Z</time></trkpt><trkpt lat="44.1392796" lon="10.3800983"><ele>379.5714285714286</ele><time>2026-04-13T08:43:51.971Z</time></trkpt><trkpt lat="44.139315" lon="10.3800073"><ele>380.14285714285717</ele><time>2026-04-13T08:43:54.966Z</time></trkpt><trkpt lat="44.1393499" lon="10.3799277"><ele>380.7142857142857</ele><time>2026-04-13T08:43:57.97Z</time></trkpt><trkpt lat="44.1393874" lon="10.3798427"><ele>381.28571428571433</ele><time>2026-04-13T08:44:00.963Z</time></trkpt><trkpt lat="44.1394273" lon="10.3797623"><ele>381.85714285714283</ele><time>2026-04-13T08:44:03.979Z</time></trkpt><trkpt lat="44.1394735" lon="10.3796817"><ele>382.42857142857144</ele><time>2026-04-13T08:44:06.982Z</time></trkpt><trkpt lat="44.1395213" lon="10.3796022"><ele>383.0</ele><time>2026-04-13T08:44:09.97Z</time></trkpt><trkpt lat="44.1395749" lon="10.3795319"><ele>383.0</ele><time>2026-04-13T08:44:12.976Z</time></trkpt><trkpt lat="44.1396284" lon="10.3794678"><ele>383.0</ele><time>2026-04-13T08:44:15.977Z</time></trkpt><trkpt lat="44.1396829" lon="10.3793991"><ele>383.0</ele><time>2026-04-13T08:44:18.975Z</time></trkpt><trkpt lat="44.1397384" lon="10.3793336"><ele>383.0</ele><time>2026-04-13T08:44:21.983Z</time></trkpt><trkpt lat="44.1397922" lon="10.3792671"><ele>383.0</ele><time>2026-04-13T08:44:24.973Z</time></trkpt><trkpt lat="44.1398427" lon="10.3791993"><ele>383.0</ele><time>2026-04-13T08:44:27.962Z</time></trkpt><trkpt lat="44.1398921" lon="10.3791336"><ele>383.0</ele><time>2026-04-13T08:44:30.966Z</time></trkpt><trkpt lat="44.1399436" lon="10.3790674"><ele>385.0</ele><time>2026-04-13T08:44:33.979Z</time></trkpt><trkpt lat="44.1399856" lon="10.378997"><ele>387.0</ele><time>2026-04-13T08:44:36.975Z</time></trkpt><trkpt lat="44.1400209" lon="10.3789153"><ele>389.0</ele><time>2026-04-13T08:44:39.969Z</time></trkpt><trkpt lat="44.1400491" lon="10.3788304"><ele>391.0</ele><time>2026-04-13T08:44:42.962Z</time></trkpt><trkpt lat="44.1400754" lon="10.3787425"><ele>393.0</ele><time>2026-04-13T08:44:45.955Z</time></trkpt><trkpt lat="44.1401048" lon="10.3786524"><ele>395.0</ele><time>2026-04-13T08:44:48.954Z</time></trkpt><trkpt lat="44.140131" lon="10.3785647"><ele>397.0</ele><time>2026-04-13T08:44:51.97Z</time></trkpt><trkpt lat="44.1401651" lon="10.3784769"><ele>397.0</ele><time>2026-04-13T08:44:54.958Z</time></trkpt><trkpt lat="44.1402009" lon="10.3783942"><ele>397.0</ele><time>2026-04-13T08:44:57.967Z</time></trkpt><trkpt lat="44.1402435" lon="10.3783128"><ele>397.0</ele><time>2026-04-13T08:45:00.96Z</time></trkpt><trkpt lat="44.1402895" lon="10.3782331"><ele>397.0</ele><time>2026-04-13T08:45:03.955Z</time></trkpt><trkpt lat="44.1403434" lon="10.3781632"><ele>397.0</ele><time>2026-04-13T08:45:06.965Z</time></trkpt><trkpt lat="44.1404012" lon="10.3781067"><ele>397.0</ele><time>2026-04-13T08:45:09.96Z</time></trkpt><trkpt lat="44.1404692" lon="10.378064"><ele>397.0</ele><time>2026-04-13T08:45:12.974Z</time></trkpt><trkpt lat="44.1405376" lon="10.3780316"><ele>397.33333333333337</ele><time>2026-04-13T08:45:15.956Z</time></trkpt><trkpt lat="44.1406049" lon="10.3780157"><ele>397.6666666666667</ele><time>2026-04-13T08:45:18.965Z</time></trkpt><trkpt lat="44.14068" lon="10.3780085"><ele>398.0</ele><time>2026-04-13T08:45:21.959Z</time></trkpt><trkpt lat="44.1407548" lon="10.3780071"><ele>398.33333333333337</ele><time>2026-04-13T08:45:24.973Z</time></trkpt><trkpt lat="44.1408295" lon="10.3779994"><ele>398.6666666666667</ele><time>2026-04-13T08:45:27.969Z</time></trkpt><trkpt lat="44.1409141" lon="10.3779892"><ele>399.0</ele><time>2026-04-13T08:45:30.961Z</time></trkpt><trkpt lat="44.1409941" lon="10.3779692"><ele>399.0</ele><time>2026-04-13T08:45:33.967Z</time></trkpt><trkpt lat="44.1410652" lon="10.3779516"><ele>399.0</ele><time>2026-04-13T08:45:36.973Z</time></trkpt><trkpt lat="44.1411355" lon="10.3779078"><ele>399.0</ele><time>2026-04-13T08:45:39.979Z</time></trkpt><trkpt lat="44.1412092" lon="10.3778497"><ele>399.0</ele><time>2026-04-13T08:45:42.963Z</time></trkpt><trkpt lat="44.141278" lon="10.3777773"><ele>399.0</ele><time>2026-04-13T08:45:45.973Z</time></trkpt><trkpt lat="44.1413465" lon="10.3777084"><ele>399.0</ele><time>2026-04-13T08:45:48.969Z</time></trkpt><trkpt lat="44.1414157" lon="10.3776289"><ele>399.0</ele><time>2026-04-13T08:45:51.975Z</time></trkpt><trkpt lat="44.1414867" lon="10.377563"><ele>399.0</ele><time>2026-04-13T08:45:54.96Z</time></trkpt><trkpt lat="44.1415575" lon="10.3774979"><ele>399.0</ele><time>2026-04-13T08:45:57.971Z</time></trkpt><trkpt lat="44.1416248" lon="10.3774355"><ele>399.0</ele><time>2026-04-13T08:46:00.982Z</time></trkpt><trkpt lat="44.141695" lon="10.3773785"><ele>399.0</ele><time>2026-04-13T08:46:03.97Z</time></trkpt><trkpt lat="44.1417627" lon="10.3773234"><ele>399.0</ele><time>2026-04-13T08:46:06.968Z</time></trkpt><trkpt lat="44.1418259" lon="10.377256"><ele>399.0</ele><time>2026-04-13T08:46:09.97Z</time></trkpt><trkpt lat="44.1418842" lon="10.3771723"><ele>399.0</ele><time>2026-04-13T08:46:12.961Z</time></trkpt><trkpt lat="44.1419316" lon="10.3770786"><ele>399.0</ele><time>2026-04-13T08:46:15.965Z</time></trkpt><trkpt lat="44.1419717" lon="10.3769779"><ele>399.0</ele><time>2026-04-13T08:46:18.971Z</time></trkpt><trkpt lat="44.1420183" lon="10.3768795"><ele>399.0</ele><time>2026-04-13T08:46:21.976Z</time></trkpt><trkpt lat="44.142057" lon="10.3767807"><ele>399.0</ele><time>2026-04-13T08:46:24.972Z</time></trkpt><trkpt lat="44.1420986" lon="10.3766817"><ele>399.0</ele><time>2026-04-13T08:46:27.969Z</time></trkpt><trkpt lat="44.1421337" lon="10.3765762"><ele>399.0</ele><time>2026-04-13T08:46:30.96Z</time></trkpt><trkpt lat="44.1421711" lon="10.3764725"><ele>399.0</ele><time>2026-04-13T08:46:33.965Z</time></trkpt><trkpt lat="44.142202" lon="10.3763668"><ele>399.0</ele><time>2026-04-13T08:46:36.976Z</time></trkpt><trkpt lat="44.1422259" lon="10.376257"><ele>399.0</ele><time>2026-04-13T08:46:39.999Z</time></trkpt><trkpt lat="44.1422484" lon="10.3761486"><ele>399.0</ele><time>2026-04-13T08:46:42.968Z</time></trkpt><trkpt lat="44.1422684" lon="10.3760424"><ele>398.3333333333333</ele><time>2026-04-13T08:46:45.97Z</time></trkpt><trkpt lat="44.1422799" lon="10.375932"><ele>397.66666666666663</ele><time>2026-04-13T08:46:48.969Z</time></trkpt><trkpt lat="44.1422875" lon="10.3758156"><ele>397.0</ele><time>2026-04-13T08:46:51.963Z</time></trkpt><trkpt lat="44.1422904" lon="10.3757012"><ele>396.3333333333333</ele><time>2026-04-13T08:46:54.963Z</time></trkpt><trkpt lat="44.1422895" lon="10.3755921"><ele>395.66666666666663</ele><time>2026-04-13T08:46:57.969Z</time></trkpt><trkpt lat="44.1422967" lon="10.3754921"><ele>395.0</ele><time>2026-04-13T08:47:00.974Z</time></trkpt><trkpt lat="44.1423036" lon="10.3753823"><ele>394.8333333333333</ele><time>2026-04-13T08:47:03.967Z</time></trkpt><trkpt lat="44.1423171" lon="10.3752789"><ele>394.66666666666663</ele><time>2026-04-13T08:47:06.976Z</time></trkpt><trkpt lat="44.142329" lon="10.3751739"><ele>394.5</ele><time>2026-04-13T08:47:09.975Z</time></trkpt><trkpt lat="44.1423531" lon="10.375058"><ele>394.33333333333337</ele><time>2026-04-13T08:47:12.961Z</time></trkpt><trkpt lat="44.1423888" lon="10.3749549"><ele>394.1666666666667</ele><time>2026-04-13T08:47:15.975Z</time></trkpt><trkpt lat="44.1424238" lon="10.3748512"><ele>394.0</ele><time>2026-04-13T08:47:18.966Z</time></trkpt><trkpt lat="44.1424575" lon="10.3747495"><ele>396.6666666666667</ele><time>2026-04-13T08:47:21.975Z</time></trkpt><trkpt lat="44.1424892" lon="10.3746484"><ele>399.33333333333337</ele><time>2026-04-13T08:47:24.975Z</time></trkpt><trkpt lat="44.1425155" lon="10.3745381"><ele>402.0</ele><time>2026-04-13T08:47:27.976Z</time></trkpt><trkpt lat="44.1425425" lon="10.3744315"><ele>404.66666666666663</ele><time>2026-04-13T08:47:30.968Z</time></trkpt><trkpt lat="44.1425762" lon="10.3743316"><ele>407.3333333333333</ele><time>2026-04-13T08:47:33.964Z</time></trkpt><trkpt lat="44.14261" lon="10.3742318"><ele>410.0</ele><time>2026-04-13T08:47:36.974Z</time></trkpt><trkpt lat="44.1426382" lon="10.3741333"><ele>409.99999999999994</ele><time>2026-04-13T08:47:39.97Z</time></trkpt><trkpt lat="44.1426716" lon="10.374024"><ele>410.0</ele><time>2026-04-13T08:47:42.974Z</time></trkpt><trkpt lat="44.1427055" lon="10.3739228"><ele>410.0</ele><time>2026-04-13T08:47:45.981Z</time></trkpt><trkpt lat="44.1427431" lon="10.3738282"><ele>410.0</ele><time>2026-04-13T08:47:48.981Z</time></trkpt><trkpt lat="44.1427914" lon="10.3737362"><ele>409.99999999999994</ele><time>2026-04-13T08:47:51.971Z</time></trkpt><trkpt lat="44.1428544" lon="10.3736576"><ele>410.0</ele><time>2026-04-13T08:47:54.968Z</time></trkpt><trkpt lat="44.1429335" lon="10.3736103"><ele>410.3333333333333</ele><time>2026-04-13T08:47:57.967Z</time></trkpt><trkpt lat="44.1430109" lon="10.3736032"><ele>410.66666666666663</ele><time>2026-04-13T08:48:00.976Z</time></trkpt><trkpt lat="44.1430971" lon="10.3736378"><ele>411.0</ele><time>2026-04-13T08:48:03.976Z</time></trkpt><trkpt lat="44.1431656" lon="10.373695"><ele>411.33333333333337</ele><time>2026-04-13T08:48:06.979Z</time></trkpt><trkpt lat="44.1432426" lon="10.3737516"><ele>411.6666666666667</ele><time>2026-04-13T08:48:09.976Z</time></trkpt><trkpt lat="44.1433159" lon="10.3738048"><ele>412.0</ele><time>2026-04-13T08:48:12.974Z</time></trkpt><trkpt lat="44.143386" lon="10.373856"><ele>412.50000000000006</ele><time>2026-04-13T08:48:15.973Z</time></trkpt><trkpt lat="44.1434598" lon="10.3739116"><ele>413.0</ele><time>2026-04-13T08:48:18.977Z</time></trkpt><trkpt lat="44.1435365" lon="10.3739612"><ele>413.5</ele><time>2026-04-13T08:48:21.981Z</time></trkpt><trkpt lat="44.1436165" lon="10.374"><ele>414.0</ele><time>2026-04-13T08:48:24.972Z</time></trkpt><trkpt lat="44.1437028" lon="10.374027"><ele>414.50000000000006</ele><time>2026-04-13T08:48:27.983Z</time></trkpt><trkpt lat="44.143783" lon="10.3740538"><ele>415.0</ele><time>2026-04-13T08:48:30.977Z</time></trkpt><trkpt lat="44.1438654" lon="10.3740621"><ele>415.00000000000006</ele><time>2026-04-13T08:48:33.978Z</time></trkpt><trkpt lat="44.1439487" lon="10.3740543"><ele>415.0</ele><time>2026-04-13T08:48:36.971Z</time></trkpt><trkpt lat="44.1440294" lon="10.3740386"><ele>415.0</ele><time>2026-04-13T08:48:39.972Z</time></trkpt><trkpt lat="44.14411" lon="10.3740171"><ele>415.0</ele><time>2026-04-13T08:48:42.963Z</time></trkpt><trkpt lat="44.1441911" lon="10.3739843"><ele>415.00000000000006</ele><time>2026-04-13T08:48:45.971Z</time></trkpt><trkpt lat="44.1442723" lon="10.3739486"><ele>415.0</ele><time>2026-04-13T08:48:48.972Z</time></trkpt><trkpt lat="44.1443469" lon="10.3738994"><ele>414.00000000000006</ele><time>2026-04-13T08:48:51.958Z</time></trkpt><trkpt lat="44.1444184" lon="10.373844"><ele>413.0</ele><time>2026-04-13T08:48:54.972Z</time></trkpt><trkpt lat="44.144492" lon="10.3737894"><ele>412.0</ele><time>2026-04-13T08:48:57.973Z</time></trkpt><trkpt lat="44.1445636" lon="10.3737273"><ele>411.0</ele><time>2026-04-13T08:49:00.973Z</time></trkpt><trkpt lat="44.1446324" lon="10.373661"><ele>410.00000000000006</ele><time>2026-04-13T08:49:03.977Z</time></trkpt><trkpt lat="44.1447054" lon="10.3735999"><ele>409.0</ele><time>2026-04-13T08:49:06.977Z</time></trkpt><trkpt lat="44.1447757" lon="10.3735398"><ele>409.00000000000006</ele><time>2026-04-13T08:49:09.964Z</time></trkpt><trkpt lat="44.1448459" lon="10.3734782"><ele>409.0</ele><time>2026-04-13T08:49:12.965Z</time></trkpt><trkpt lat="44.1449212" lon="10.37341"><ele>409.0</ele><time>2026-04-13T08:49:15.978Z</time></trkpt><trkpt lat="44.1449754" lon="10.3733634"><ele>409.0</ele><time>2026-04-13T08:49:17.964Z</time></trkpt><trkpt lat="44.1450532" lon="10.3732961"><ele>409.00000000000006</ele><time>2026-04-13T08:49:20.98Z</time></trkpt><trkpt lat="44.1451056" lon="10.373247"><ele>409.0</ele><time>2026-04-13T08:49:22.976Z</time></trkpt><trkpt lat="44.1451834" lon="10.3731772"><ele>409.85714285714283</ele><time>2026-04-13T08:49:25.973Z</time></trkpt><trkpt lat="44.1452645" lon="10.3731118"><ele>410.7142857142857</ele><time>2026-04-13T08:49:28.972Z</time></trkpt><trkpt lat="44.1453437" lon="10.3730395"><ele>411.57142857142856</ele><time>2026-04-13T08:49:31.97Z</time></trkpt><trkpt lat="44.1453979" lon="10.3729916"><ele>412.42857142857144</ele><time>2026-04-13T08:49:33.963Z</time></trkpt><trkpt lat="44.1454525" lon="10.3729451"><ele>413.28571428571433</ele><time>2026-04-13T08:49:35.974Z</time></trkpt><trkpt lat="44.1455073" lon="10.3728939"><ele>414.14285714285717</ele><time>2026-04-13T08:49:37.966Z</time></trkpt><trkpt lat="44.1455621" lon="10.3728448"><ele>415.0</ele><time>2026-04-13T08:49:39.969Z</time></trkpt><trkpt lat="44.1456155" lon="10.3727937"><ele>414.7142857142857</ele><time>2026-04-13T08:49:41.974Z</time></trkpt><trkpt lat="44.1456698" lon="10.372747"><ele>414.42857142857144</ele><time>2026-04-13T08:49:43.973Z</time></trkpt><trkpt lat="44.1457526" lon="10.3726917"><ele>414.1428571428571</ele><time>2026-04-13T08:49:46.975Z</time></trkpt><trkpt lat="44.1458427" lon="10.3727104"><ele>413.8571428571429</ele><time>2026-04-13T08:49:49.976Z</time></trkpt><trkpt lat="44.1459054" lon="10.3727369"><ele>413.57142857142856</ele><time>2026-04-13T08:49:51.96Z</time></trkpt><trkpt lat="44.145969" lon="10.3727637"><ele>413.2857142857143</ele><time>2026-04-13T08:49:53.965Z</time></trkpt><trkpt lat="44.1460329" lon="10.3727865"><ele>413.0</ele><time>2026-04-13T08:49:55.963Z</time></trkpt><trkpt lat="44.1460975" lon="10.372802"><ele>412.99999999999994</ele><time>2026-04-13T08:49:57.966Z</time></trkpt><trkpt lat="44.1461642" lon="10.3728221"><ele>413.0</ele><time>2026-04-13T08:49:59.973Z</time></trkpt><trkpt lat="44.1462306" lon="10.3728471"><ele>413.0</ele><time>2026-04-13T08:50:01.97Z</time></trkpt><trkpt lat="44.1462963" lon="10.3728684"><ele>413.0</ele><time>2026-04-13T08:50:03.97Z</time></trkpt><trkpt lat="44.1463593" lon="10.3728904"><ele>412.99999999999994</ele><time>2026-04-13T08:50:05.974Z</time></trkpt><trkpt lat="44.146447" lon="10.3729223"><ele>413.0</ele><time>2026-04-13T08:50:08.958Z</time></trkpt><trkpt lat="44.1465416" lon="10.3729332"><ele>413.8333333333333</ele><time>2026-04-13T08:50:11.966Z</time></trkpt><trkpt lat="44.1466055" lon="10.3729296"><ele>414.66666666666663</ele><time>2026-04-13T08:50:13.967Z</time></trkpt><trkpt lat="44.1466696" lon="10.3729112"><ele>415.5</ele><time>2026-04-13T08:50:15.962Z</time></trkpt><trkpt lat="44.1467334" lon="10.3728769"><ele>416.33333333333337</ele><time>2026-04-13T08:50:17.967Z</time></trkpt><trkpt lat="44.1468091" lon="10.3727938"><ele>417.1666666666667</ele><time>2026-04-13T08:50:20.976Z</time></trkpt><trkpt lat="44.1468548" lon="10.3727277"><ele>418.0</ele><time>2026-04-13T08:50:22.973Z</time></trkpt><trkpt lat="44.1468994" lon="10.3726144"><ele>418.00000000000006</ele><time>2026-04-13T08:50:25.968Z</time></trkpt><trkpt lat="44.1469081" lon="10.3724865"><ele>418.0</ele><time>2026-04-13T08:50:28.973Z</time></trkpt><trkpt lat="44.1468955" lon="10.3723884"><ele>418.0</ele><time>2026-04-13T08:50:30.975Z</time></trkpt><trkpt lat="44.1468802" lon="10.37229"><ele>418.0</ele><time>2026-04-13T08:50:32.98Z</time></trkpt><trkpt lat="44.1468664" lon="10.3721962"><ele>418.00000000000006</ele><time>2026-04-13T08:50:34.971Z</time></trkpt><trkpt lat="44.1468536" lon="10.3720683"><ele>418.0</ele><time>2026-04-13T08:50:37.96Z</time></trkpt><trkpt lat="44.1468482" lon="10.3719392"><ele>418.00000000000006</ele><time>2026-04-13T08:50:40.977Z</time></trkpt><trkpt lat="44.1468562" lon="10.3718117"><ele>418.0</ele><time>2026-04-13T08:50:43.969Z</time></trkpt><trkpt lat="44.1468638" lon="10.3716831"><ele>418.0</ele><time>2026-04-13T08:50:46.971Z</time></trkpt><trkpt lat="44.1468735" lon="10.3715541"><ele>418.0</ele><time>2026-04-13T08:50:49.965Z</time></trkpt><trkpt lat="44.146895" lon="10.3714275"><ele>418.00000000000006</ele><time>2026-04-13T08:50:52.97Z</time></trkpt><trkpt lat="44.1469105" lon="10.3713413"><ele>418.0</ele><time>2026-04-13T08:50:54.988Z</time></trkpt><trkpt lat="44.1469274" lon="10.3712557"><ele>417.33333333333337</ele><time>2026-04-13T08:50:56.975Z</time></trkpt><trkpt lat="44.1469458" lon="10.3711693"><ele>416.6666666666667</ele><time>2026-04-13T08:50:58.971Z</time></trkpt><trkpt lat="44.146986" lon="10.3710507"><ele>416.0</ele><time>2026-04-13T08:51:01.966Z</time></trkpt><trkpt lat="44.1470267" lon="10.3709346"><ele>415.33333333333337</ele><time>2026-04-13T08:51:04.964Z</time></trkpt><trkpt lat="44.1470598" lon="10.3708583"><ele>414.6666666666667</ele><time>2026-04-13T08:51:06.974Z</time></trkpt><trkpt lat="44.1471145" lon="10.370755"><ele>414.0</ele><time>2026-04-13T08:51:09.971Z</time></trkpt><trkpt lat="44.1471741" lon="10.3706612"><ele>414.0</ele><time>2026-04-13T08:51:12.97Z</time></trkpt><trkpt lat="44.1472391" lon="10.3705737"><ele>414.0</ele><time>2026-04-13T08:51:15.966Z</time></trkpt><trkpt lat="44.147313" lon="10.3704972"><ele>414.0</ele><time>2026-04-13T08:51:18.973Z</time></trkpt><trkpt lat="44.1473852" lon="10.3704115"><ele>414.0</ele><time>2026-04-13T08:51:21.968Z</time></trkpt><trkpt lat="44.1474588" lon="10.370334"><ele>414.0</ele><time>2026-04-13T08:51:24.968Z</time></trkpt><trkpt lat="44.1475354" lon="10.3702631"><ele>414.8333333333333</ele><time>2026-04-13T08:51:27.976Z</time></trkpt><trkpt lat="44.1476159" lon="10.3701979"><ele>415.66666666666663</ele><time>2026-04-13T08:51:30.966Z</time></trkpt><trkpt lat="44.1476989" lon="10.3701478"><ele>416.5</ele><time>2026-04-13T08:51:33.969Z</time></trkpt><trkpt lat="44.1477806" lon="10.3701092"><ele>417.3333333333333</ele><time>2026-04-13T08:51:36.959Z</time></trkpt><trkpt lat="44.1478718" lon="10.3700726"><ele>418.16666666666663</ele><time>2026-04-13T08:51:39.968Z</time></trkpt><trkpt lat="44.1479363" lon="10.3700526"><ele>419.0</ele><time>2026-04-13T08:51:41.962Z</time></trkpt><trkpt lat="44.1480022" lon="10.3700324"><ele>418.99999999999994</ele><time>2026-04-13T08:51:43.977Z</time></trkpt><trkpt lat="44.1480921" lon="10.3700019"><ele>419.0</ele><time>2026-04-13T08:51:46.974Z</time></trkpt><trkpt lat="44.1481778" lon="10.3699697"><ele>419.0</ele><time>2026-04-13T08:51:49.97Z</time></trkpt><trkpt lat="44.1482387" lon="10.3699456"><ele>419.0</ele><time>2026-04-13T08:51:51.978Z</time></trkpt><trkpt lat="44.1483006" lon="10.369913"><ele>418.99999999999994</ele><time>2026-04-13T08:51:53.965Z</time></trkpt><trkpt lat="44.1483832" lon="10.3698558"><ele>419.0</ele><time>2026-04-13T08:51:56.978Z</time></trkpt><trkpt lat="44.1484618" lon="10.3697996"><ele>418.99999999999994</ele><time>2026-04-13T08:51:59.97Z</time></trkpt><trkpt lat="44.1485151" lon="10.3697513"><ele>419.0</ele><time>2026-04-13T08:52:01.955Z</time></trkpt><trkpt lat="44.1485656" lon="10.3696911"><ele>419.0</ele><time>2026-04-13T08:52:03.976Z</time></trkpt><trkpt lat="44.1486123" lon="10.3696233"><ele>419.0</ele><time>2026-04-13T08:52:05.975Z</time></trkpt><trkpt lat="44.1486563" lon="10.3695544"><ele>419.0</ele><time>2026-04-13T08:52:07.967Z</time></trkpt><trkpt lat="44.1486959" lon="10.3694813"><ele>418.99999999999994</ele><time>2026-04-13T08:52:09.962Z</time></trkpt><trkpt lat="44.1487263" lon="10.3694032"><ele>419.0</ele><time>2026-04-13T08:52:11.98Z</time></trkpt><trkpt lat="44.1487494" lon="10.3693215"><ele>418.99999999999994</ele><time>2026-04-13T08:52:13.965Z</time></trkpt><trkpt lat="44.1487699" lon="10.3692344"><ele>419.0</ele><time>2026-04-13T08:52:15.967Z</time></trkpt><trkpt lat="44.1487861" lon="10.3691461"><ele>419.0</ele><time>2026-04-13T08:52:17.963Z</time></trkpt><trkpt lat="44.1487974" lon="10.369054"><ele>419.0</ele><time>2026-04-13T08:52:19.978Z</time></trkpt><trkpt lat="44.1488021" lon="10.3689618"><ele>419.0</ele><time>2026-04-13T08:52:21.973Z</time></trkpt><trkpt lat="44.1487995" lon="10.3688695"><ele>418.99999999999994</ele><time>2026-04-13T08:52:23.972Z</time></trkpt><trkpt lat="44.1487958" lon="10.368778"><ele>419.0</ele><time>2026-04-13T08:52:25.977Z</time></trkpt><trkpt lat="44.1487915" lon="10.3686858"><ele>417.99999999999994</ele><time>2026-04-13T08:52:27.971Z</time></trkpt><trkpt lat="44.1487831" lon="10.3685908"><ele>417.0</ele><time>2026-04-13T08:52:29.97Z</time></trkpt><trkpt lat="44.1487803" lon="10.3684935"><ele>416.0</ele><time>2026-04-13T08:52:31.978Z</time></trkpt><trkpt lat="44.1487817" lon="10.3684012"><ele>415.0</ele><time>2026-04-13T08:52:33.963Z</time></trkpt><trkpt lat="44.1487852" lon="10.3683086"><ele>414.0</ele><time>2026-04-13T08:52:35.97Z</time></trkpt><trkpt lat="44.1487863" lon="10.3682192"><ele>412.99999999999994</ele><time>2026-04-13T08:52:37.982Z</time></trkpt><trkpt lat="44.1487886" lon="10.3681287"><ele>412.0</ele><time>2026-04-13T08:52:39.968Z</time></trkpt><trkpt lat="44.1488023" lon="10.3680391"><ele>411.4285714285714</ele><time>2026-04-13T08:52:41.972Z</time></trkpt><trkpt lat="44.1488313" lon="10.3679544"><ele>410.85714285714283</ele><time>2026-04-13T08:52:43.966Z</time></trkpt><trkpt lat="44.1488739" lon="10.3678799"><ele>410.2857142857143</ele><time>2026-04-13T08:52:45.972Z</time></trkpt><trkpt lat="44.1489281" lon="10.3678338"><ele>409.71428571428567</ele><time>2026-04-13T08:52:47.978Z</time></trkpt><trkpt lat="44.1489899" lon="10.3678059"><ele>409.14285714285717</ele><time>2026-04-13T08:52:49.969Z</time></trkpt><trkpt lat="44.1490802" lon="10.3677624"><ele>408.57142857142856</ele><time>2026-04-13T08:52:52.97Z</time></trkpt><trkpt lat="44.1491444" lon="10.3677279"><ele>408.0</ele><time>2026-04-13T08:52:54.975Z</time></trkpt><trkpt lat="44.1492051" lon="10.3676948"><ele>410.1666666666667</ele><time>2026-04-13T08:52:56.972Z</time></trkpt><trkpt lat="44.1492898" lon="10.367653"><ele>412.33333333333337</ele><time>2026-04-13T08:52:59.959Z</time></trkpt><trkpt lat="44.1493777" lon="10.3676128"><ele>414.5</ele><time>2026-04-13T08:53:02.974Z</time></trkpt><trkpt lat="44.1494655" lon="10.3675808"><ele>416.6666666666667</ele><time>2026-04-13T08:53:05.959Z</time></trkpt><trkpt lat="44.1495272" lon="10.3675533"><ele>418.83333333333337</ele><time>2026-04-13T08:53:07.97Z</time></trkpt><trkpt lat="44.1495891" lon="10.3675204"><ele>421.0</ele><time>2026-04-13T08:53:09.971Z</time></trkpt><trkpt lat="44.149653" lon="10.3674879"><ele>421.00000000000006</ele><time>2026-04-13T08:53:11.973Z</time></trkpt><trkpt lat="44.1497177" lon="10.3674613"><ele>421.0</ele><time>2026-04-13T08:53:13.961Z</time></trkpt><trkpt lat="44.1497798" lon="10.3674316"><ele>421.0</ele><time>2026-04-13T08:53:15.965Z</time></trkpt><trkpt lat="44.149842" lon="10.3674016"><ele>421.0</ele><time>2026-04-13T08:53:17.965Z</time></trkpt><trkpt lat="44.1499046" lon="10.3673729"><ele>421.0</ele><time>2026-04-13T08:53:19.97Z</time></trkpt><trkpt lat="44.149966" lon="10.3673404"><ele>421.00000000000006</ele><time>2026-04-13T08:53:21.98Z</time></trkpt><trkpt lat="44.1500279" lon="10.3673114"><ele>421.0</ele><time>2026-04-13T08:53:23.975Z</time></trkpt><trkpt lat="44.1500896" lon="10.3672861"><ele>422.42857142857144</ele><time>2026-04-13T08:53:25.975Z</time></trkpt><trkpt lat="44.1501719" lon="10.3672421"><ele>423.8571428571429</ele><time>2026-04-13T08:53:28.97Z</time></trkpt><trkpt lat="44.1502342" lon="10.3672193"><ele>425.28571428571433</ele><time>2026-04-13T08:53:30.975Z</time></trkpt><trkpt lat="44.1502991" lon="10.3672099"><ele>426.7142857142857</ele><time>2026-04-13T08:53:32.963Z</time></trkpt><trkpt lat="44.1503691" lon="10.3672077"><ele>428.1428571428571</ele><time>2026-04-13T08:53:34.958Z</time></trkpt><trkpt lat="44.1504364" lon="10.3672089"><ele>429.5714285714286</ele><time>2026-04-13T08:53:36.976Z</time></trkpt><trkpt lat="44.150501" lon="10.3672132"><ele>431.0</ele><time>2026-04-13T08:53:38.965Z</time></trkpt><trkpt lat="44.1505855" lon="10.3672312"><ele>431.0</ele><time>2026-04-13T08:53:41.968Z</time></trkpt><trkpt lat="44.1506652" lon="10.3672296"><ele>431.0</ele><time>2026-04-13T08:53:44.964Z</time></trkpt><trkpt lat="44.1507555" lon="10.3672056"><ele>431.0</ele><time>2026-04-13T08:53:47.989Z</time></trkpt><trkpt lat="44.1508218" lon="10.3671771"><ele>431.0</ele><time>2026-04-13T08:53:49.968Z</time></trkpt><trkpt lat="44.1508818" lon="10.3671425"><ele>431.0</ele><time>2026-04-13T08:53:51.974Z</time></trkpt><trkpt lat="44.1509418" lon="10.3671092"><ele>431.0</ele><time>2026-04-13T08:53:53.973Z</time></trkpt><trkpt lat="44.1510022" lon="10.3670694"><ele>431.0</ele><time>2026-04-13T08:53:55.974Z</time></trkpt><trkpt lat="44.151058" lon="10.3670264"><ele>428.99999999999994</ele><time>2026-04-13T08:53:57.977Z</time></trkpt><trkpt lat="44.1511402" lon="10.3669647"><ele>427.0</ele><time>2026-04-13T08:54:00.972Z</time></trkpt><trkpt lat="44.1512274" lon="10.3669276"><ele>425.0</ele><time>2026-04-13T08:54:03.97Z</time></trkpt><trkpt lat="44.1512887" lon="10.3669047"><ele>423.0</ele><time>2026-04-13T08:54:05.967Z</time></trkpt><trkpt lat="44.1513507" lon="10.3668829"><ele>420.99999999999994</ele><time>2026-04-13T08:54:07.966Z</time></trkpt><trkpt lat="44.1514413" lon="10.3668607"><ele>419.0</ele><time>2026-04-13T08:54:10.966Z</time></trkpt><trkpt lat="44.1515294" lon="10.3668424"><ele>421.16666666666663</ele><time>2026-04-13T08:54:13.971Z</time></trkpt><trkpt lat="44.1516142" lon="10.3668241"><ele>423.3333333333333</ele><time>2026-04-13T08:54:16.974Z</time></trkpt><trkpt lat="44.1516979" lon="10.3668098"><ele>425.5</ele><time>2026-04-13T08:54:19.972Z</time></trkpt><trkpt lat="44.1517826" lon="10.3668044"><ele>427.66666666666663</ele><time>2026-04-13T08:54:22.962Z</time></trkpt><trkpt lat="44.1518773" lon="10.3668011"><ele>429.8333333333333</ele><time>2026-04-13T08:54:25.974Z</time></trkpt><trkpt lat="44.151969" lon="10.3667689"><ele>432.0</ele><time>2026-04-13T08:54:28.975Z</time></trkpt><trkpt lat="44.1520497" lon="10.3667152"><ele>432.0</ele><time>2026-04-13T08:54:31.969Z</time></trkpt><trkpt lat="44.152121" lon="10.3666398"><ele>432.00000000000006</ele><time>2026-04-13T08:54:34.972Z</time></trkpt><trkpt lat="44.1521909" lon="10.3665582"><ele>432.00000000000006</ele><time>2026-04-13T08:54:37.971Z</time></trkpt><trkpt lat="44.1522586" lon="10.366478"><ele>432.0</ele><time>2026-04-13T08:54:40.968Z</time></trkpt><trkpt lat="44.1523371" lon="10.3664134"><ele>432.0</ele><time>2026-04-13T08:54:43.966Z</time></trkpt><trkpt lat="44.1524225" lon="10.3663644"><ele>429.1666666666667</ele><time>2026-04-13T08:54:46.96Z</time></trkpt><trkpt lat="44.1525113" lon="10.366336"><ele>426.33333333333337</ele><time>2026-04-13T08:54:49.968Z</time></trkpt><trkpt lat="44.1525978" lon="10.3663337"><ele>423.5</ele><time>2026-04-13T08:54:52.972Z</time></trkpt><trkpt lat="44.1526623" lon="10.3663385"><ele>420.6666666666667</ele><time>2026-04-13T08:54:54.975Z</time></trkpt><trkpt lat="44.1527533" lon="10.3663419"><ele>417.83333333333337</ele><time>2026-04-13T08:54:57.975Z</time></trkpt><trkpt lat="44.1528443" lon="10.3663496"><ele>415.0</ele><time>2026-04-13T08:55:00.969Z</time></trkpt><trkpt lat="44.1529092" lon="10.3663594"><ele>418.2857142857143</ele><time>2026-04-13T08:55:02.965Z</time></trkpt><trkpt lat="44.1529733" lon="10.3663645"><ele>421.57142857142856</ele><time>2026-04-13T08:55:04.97Z</time></trkpt><trkpt lat="44.1530384" lon="10.3663708"><ele>424.8571428571429</ele><time>2026-04-13T08:55:06.97Z</time></trkpt><trkpt lat="44.1531263" lon="10.3663775"><ele>428.1428571428571</ele><time>2026-04-13T08:55:09.98Z</time></trkpt><trkpt lat="44.15319" lon="10.3663801"><ele>431.4285714285714</ele><time>2026-04-13T08:55:11.973Z</time></trkpt><trkpt lat="44.1532561" lon="10.3663838"><ele>434.7142857142857</ele><time>2026-04-13T08:55:13.984Z</time></trkpt><trkpt lat="44.1533198" lon="10.3663852"><ele>438.0</ele><time>2026-04-13T08:55:15.971Z</time></trkpt><trkpt lat="44.1533834" lon="10.3663848"><ele>439.1666666666667</ele><time>2026-04-13T08:55:17.976Z</time></trkpt><trkpt lat="44.1534474" lon="10.3663857"><ele>440.33333333333337</ele><time>2026-04-13T08:55:19.971Z</time></trkpt><trkpt lat="44.153511" lon="10.3663919"><ele>441.5</ele><time>2026-04-13T08:55:21.972Z</time></trkpt><trkpt lat="44.1536018" lon="10.3663991"><ele>442.6666666666667</ele><time>2026-04-13T08:55:24.975Z</time></trkpt><trkpt lat="44.1536921" lon="10.3664071"><ele>443.83333333333337</ele><time>2026-04-13T08:55:27.974Z</time></trkpt><trkpt lat="44.1537807" lon="10.3664065"><ele>445.0</ele><time>2026-04-13T08:55:30.972Z</time></trkpt><trkpt lat="44.1538745" lon="10.3664103"><ele>445.0</ele><time>2026-04-13T08:55:33.978Z</time></trkpt><trkpt lat="44.1539383" lon="10.3664248"><ele>445.0</ele><time>2026-04-13T08:55:35.968Z</time></trkpt><trkpt lat="44.1540003" lon="10.3664424"><ele>445.0</ele><time>2026-04-13T08:55:37.965Z</time></trkpt><trkpt lat="44.1540653" lon="10.3664606"><ele>445.0</ele><time>2026-04-13T08:55:39.963Z</time></trkpt><trkpt lat="44.1541298" lon="10.3664807"><ele>445.0</ele><time>2026-04-13T08:55:41.965Z</time></trkpt><trkpt lat="44.1541957" lon="10.3665036"><ele>445.0</ele><time>2026-04-13T08:55:43.973Z</time></trkpt><trkpt lat="44.1542584" lon="10.3665282"><ele>445.0</ele><time>2026-04-13T08:55:45.965Z</time></trkpt><trkpt lat="44.1543213" lon="10.3665521"><ele>444.7142857142857</ele><time>2026-04-13T08:55:47.963Z</time></trkpt><trkpt lat="44.1543811" lon="10.3665836"><ele>444.4285714285714</ele><time>2026-04-13T08:55:49.969Z</time></trkpt><trkpt lat="44.1544405" lon="10.3666201"><ele>444.1428571428571</ele><time>2026-04-13T08:55:51.964Z</time></trkpt><trkpt lat="44.1545023" lon="10.3666566"><ele>443.8571428571429</ele><time>2026-04-13T08:55:53.965Z</time></trkpt><trkpt lat="44.1545608" lon="10.3666924"><ele>443.57142857142856</ele><time>2026-04-13T08:55:55.957Z</time></trkpt><trkpt lat="44.1546418" lon="10.3667392"><ele>443.2857142857143</ele><time>2026-04-13T08:55:58.973Z</time></trkpt><trkpt lat="44.1547006" lon="10.3667726"><ele>443.0</ele><time>2026-04-13T08:56:00.978Z</time></trkpt><trkpt lat="44.1547788" lon="10.3668158"><ele>442.99999999999994</ele><time>2026-04-13T08:56:03.975Z</time></trkpt><trkpt lat="44.1548598" lon="10.3668277"><ele>443.0</ele><time>2026-04-13T08:56:06.972Z</time></trkpt><trkpt lat="44.1549464" lon="10.3668095"><ele>443.0</ele><time>2026-04-13T08:56:09.971Z</time></trkpt><trkpt lat="44.1550078" lon="10.3667811"><ele>443.0</ele><time>2026-04-13T08:56:11.975Z</time></trkpt><trkpt lat="44.1550857" lon="10.366716"><ele>442.99999999999994</ele><time>2026-04-13T08:56:14.972Z</time></trkpt><trkpt lat="44.1551543" lon="10.366636"><ele>443.0</ele><time>2026-04-13T08:56:17.987Z</time></trkpt><trkpt lat="44.1552205" lon="10.366549"><ele>442.49999999999994</ele><time>2026-04-13T08:56:20.981Z</time></trkpt><trkpt lat="44.1552871" lon="10.3664616"><ele>442.0</ele><time>2026-04-13T08:56:23.974Z</time></trkpt><trkpt lat="44.1553299" lon="10.3663947"><ele>441.5</ele><time>2026-04-13T08:56:25.975Z</time></trkpt><trkpt lat="44.1553913" lon="10.3662993"><ele>441.0</ele><time>2026-04-13T08:56:28.97Z</time></trkpt><trkpt lat="44.1554584" lon="10.3662106"><ele>440.49999999999994</ele><time>2026-04-13T08:56:31.967Z</time></trkpt><trkpt lat="44.1555291" lon="10.3661325"><ele>440.0</ele><time>2026-04-13T08:56:34.98Z</time></trkpt><trkpt lat="44.1556079" lon="10.3660817"><ele>439.66666666666663</ele><time>2026-04-13T08:56:37.969Z</time></trkpt><trkpt lat="44.1556941" lon="10.3660464"><ele>439.3333333333333</ele><time>2026-04-13T08:56:40.967Z</time></trkpt><trkpt lat="44.1557788" lon="10.3660421"><ele>439.0</ele><time>2026-04-13T08:56:43.966Z</time></trkpt><trkpt lat="44.1558619" lon="10.3660525"><ele>438.66666666666663</ele><time>2026-04-13T08:56:46.974Z</time></trkpt><trkpt lat="44.1559497" lon="10.3660596"><ele>438.3333333333333</ele><time>2026-04-13T08:56:49.962Z</time></trkpt><trkpt lat="44.1560357" lon="10.3660436"><ele>438.0</ele><time>2026-04-13T08:56:52.972Z</time></trkpt><trkpt lat="44.1561128" lon="10.3660136"><ele>438.0</ele><time>2026-04-13T08:56:55.963Z</time></trkpt><trkpt lat="44.1561848" lon="10.3659641"><ele>438.0</ele><time>2026-04-13T08:56:58.962Z</time></trkpt><trkpt lat="44.1562496" lon="10.365887"><ele>438.0</ele><time>2026-04-13T08:57:01.963Z</time></trkpt><trkpt lat="44.1563068" lon="10.3657981"><ele>438.0</ele><time>2026-04-13T08:57:04.961Z</time></trkpt><trkpt lat="44.1563456" lon="10.3657206"><ele>438.0</ele><time>2026-04-13T08:57:06.974Z</time></trkpt><trkpt lat="44.1563886" lon="10.3656372"><ele>438.0</ele><time>2026-04-13T08:57:08.969Z</time></trkpt><trkpt lat="44.1564293" lon="10.365553"><ele>437.5</ele><time>2026-04-13T08:57:10.966Z</time></trkpt><trkpt lat="44.1564679" lon="10.3654788"><ele>437.0</ele><time>2026-04-13T08:57:12.971Z</time></trkpt><trkpt lat="44.1565083" lon="10.3653801"><ele>436.5</ele><time>2026-04-13T08:57:15.962Z</time></trkpt><trkpt lat="44.1565268" lon="10.3652873"><ele>436.0</ele><time>2026-04-13T08:57:18.967Z</time></trkpt><trkpt lat="44.1565112" lon="10.3651762"><ele>435.5</ele><time>2026-04-13T08:57:21.967Z</time></trkpt><trkpt lat="44.1564725" lon="10.3650651"><ele>435.0</ele><time>2026-04-13T08:57:24.97Z</time></trkpt><trkpt lat="44.1564164" lon="10.3649689"><ele>435.0</ele><time>2026-04-13T08:57:27.976Z</time></trkpt><trkpt lat="44.156362" lon="10.3648827"><ele>435.0</ele><time>2026-04-13T08:57:30.971Z</time></trkpt><trkpt lat="44.1563121" lon="10.3647973"><ele>435.0</ele><time>2026-04-13T08:57:33.97Z</time></trkpt><trkpt lat="44.1562726" lon="10.3647033"><ele>435.0</ele><time>2026-04-13T08:57:36.967Z</time></trkpt><trkpt lat="44.1562485" lon="10.364607"><ele>435.0</ele><time>2026-04-13T08:57:39.969Z</time></trkpt><trkpt lat="44.1562364" lon="10.3645039"><ele>435.0</ele><time>2026-04-13T08:57:42.975Z</time></trkpt><trkpt lat="44.1562378" lon="10.3643953"><ele>434.8333333333333</ele><time>2026-04-13T08:57:45.96Z</time></trkpt><trkpt lat="44.1562592" lon="10.3642911"><ele>434.66666666666663</ele><time>2026-04-13T08:57:48.97Z</time></trkpt><trkpt lat="44.1562799" lon="10.3641892"><ele>434.5</ele><time>2026-04-13T08:57:51.974Z</time></trkpt><trkpt lat="44.1563026" lon="10.3640826"><ele>434.3333333333333</ele><time>2026-04-13T08:57:54.971Z</time></trkpt><trkpt lat="44.1563272" lon="10.363976"><ele>434.16666666666663</ele><time>2026-04-13T08:57:57.963Z</time></trkpt><trkpt lat="44.1563455" lon="10.3638669"><ele>434.0</ele><time>2026-04-13T08:58:00.979Z</time></trkpt><trkpt lat="44.1563622" lon="10.363758"><ele>434.49999999999994</ele><time>2026-04-13T08:58:03.97Z</time></trkpt><trkpt lat="44.1563815" lon="10.3636581"><ele>435.0</ele><time>2026-04-13T08:58:06.966Z</time></trkpt><trkpt lat="44.1564011" lon="10.3635543"><ele>435.5</ele><time>2026-04-13T08:58:09.973Z</time></trkpt><trkpt lat="44.1564161" lon="10.3634532"><ele>436.0</ele><time>2026-04-13T08:58:12.975Z</time></trkpt><trkpt lat="44.1564399" lon="10.3633526"><ele>436.49999999999994</ele><time>2026-04-13T08:58:15.966Z</time></trkpt><trkpt lat="44.1564648" lon="10.3632529"><ele>437.0</ele><time>2026-04-13T08:58:18.967Z</time></trkpt><trkpt lat="44.1564848" lon="10.3631492"><ele>437.0</ele><time>2026-04-13T08:58:21.976Z</time></trkpt><trkpt lat="44.1565059" lon="10.3630467"><ele>437.0</ele><time>2026-04-13T08:58:24.976Z</time></trkpt><trkpt lat="44.1565292" lon="10.3629488"><ele>437.0</ele><time>2026-04-13T08:58:27.969Z</time></trkpt><trkpt lat="44.156554" lon="10.3628445"><ele>437.0</ele><time>2026-04-13T08:58:30.977Z</time></trkpt><trkpt lat="44.1565763" lon="10.3627453"><ele>437.0</ele><time>2026-04-13T08:58:33.967Z</time></trkpt><trkpt lat="44.1565986" lon="10.3626577"><ele>437.0</ele><time>2026-04-13T08:58:36.971Z</time></trkpt><trkpt lat="44.1566282" lon="10.3625632"><ele>437.0</ele><time>2026-04-13T08:58:39.973Z</time></trkpt><trkpt lat="44.1566586" lon="10.3624728"><ele>439.1428571428571</ele><time>2026-04-13T08:58:42.96Z</time></trkpt><trkpt lat="44.1567014" lon="10.3624032"><ele>441.28571428571433</ele><time>2026-04-13T08:58:45.963Z</time></trkpt><trkpt lat="44.1567645" lon="10.3623424"><ele>443.42857142857144</ele><time>2026-04-13T08:58:48.976Z</time></trkpt><trkpt lat="44.156841" lon="10.3623116"><ele>445.57142857142856</ele><time>2026-04-13T08:58:51.985Z</time></trkpt><trkpt lat="44.1569166" lon="10.3623104"><ele>447.71428571428567</ele><time>2026-04-13T08:58:54.97Z</time></trkpt><trkpt lat="44.1569881" lon="10.362309"><ele>449.8571428571429</ele><time>2026-04-13T08:58:57.967Z</time></trkpt><trkpt lat="44.1570607" lon="10.3623141"><ele>452.0</ele><time>2026-04-13T08:59:00.961Z</time></trkpt><trkpt lat="44.1571334" lon="10.36232"><ele>451.99999999999994</ele><time>2026-04-13T08:59:03.972Z</time></trkpt><trkpt lat="44.1572079" lon="10.3623086"><ele>452.0</ele><time>2026-04-13T08:59:06.975Z</time></trkpt><trkpt lat="44.1572812" lon="10.3622578"><ele>452.0</ele><time>2026-04-13T08:59:09.966Z</time></trkpt><trkpt lat="44.1573576" lon="10.3622038"><ele>452.0</ele><time>2026-04-13T08:59:12.974Z</time></trkpt><trkpt lat="44.1574274" lon="10.3621336"><ele>451.99999999999994</ele><time>2026-04-13T08:59:15.975Z</time></trkpt><trkpt lat="44.1574945" lon="10.3620563"><ele>452.0</ele><time>2026-04-13T08:59:18.972Z</time></trkpt><trkpt lat="44.1575549" lon="10.3619795"><ele>452.66666666666663</ele><time>2026-04-13T08:59:21.975Z</time></trkpt><trkpt lat="44.1576152" lon="10.3619019"><ele>453.3333333333333</ele><time>2026-04-13T08:59:24.978Z</time></trkpt><trkpt lat="44.1576747" lon="10.3618257"><ele>454.0</ele><time>2026-04-13T08:59:27.97Z</time></trkpt><trkpt lat="44.1577342" lon="10.3617598"><ele>454.66666666666663</ele><time>2026-04-13T08:59:30.976Z</time></trkpt><trkpt lat="44.1577949" lon="10.3616891"><ele>455.3333333333333</ele><time>2026-04-13T08:59:33.964Z</time></trkpt><trkpt lat="44.1578496" lon="10.3616156"><ele>456.0</ele><time>2026-04-13T08:59:36.974Z</time></trkpt><trkpt lat="44.1579096" lon="10.3615412"><ele>456.0</ele><time>2026-04-13T08:59:39.977Z</time></trkpt><trkpt lat="44.157964" lon="10.3614632"><ele>456.0</ele><time>2026-04-13T08:59:42.97Z</time></trkpt><trkpt lat="44.158017" lon="10.3613779"><ele>456.0</ele><time>2026-04-13T08:59:45.973Z</time></trkpt><trkpt lat="44.1580638" lon="10.3612808"><ele>456.0</ele><time>2026-04-13T08:59:48.974Z</time></trkpt><trkpt lat="44.1580968" lon="10.3611773"><ele>456.0</ele><time>2026-04-13T08:59:51.957Z</time></trkpt><trkpt lat="44.1581191" lon="10.3610754"><ele>456.0</ele><time>2026-04-13T08:59:54.973Z</time></trkpt><trkpt lat="44.1581379" lon="10.3609695"><ele>457.0</ele><time>2026-04-13T08:59:57.969Z</time></trkpt><trkpt lat="44.158161" lon="10.3608599"><ele>458.0</ele><time>2026-04-13T09:00:00.967Z</time></trkpt><trkpt lat="44.1581757" lon="10.3607534"><ele>459.0</ele><time>2026-04-13T09:00:03.97Z</time></trkpt><trkpt lat="44.1581967" lon="10.360647"><ele>460.0</ele><time>2026-04-13T09:00:06.964Z</time></trkpt><trkpt lat="44.1582257" lon="10.3605446"><ele>461.0</ele><time>2026-04-13T09:00:09.962Z</time></trkpt><trkpt lat="44.1582476" lon="10.360444"><ele>462.0</ele><time>2026-04-13T09:00:12.967Z</time></trkpt><trkpt lat="44.1582664" lon="10.3603485"><ele>462.0</ele><time>2026-04-13T09:00:15.966Z</time></trkpt><trkpt lat="44.1582948" lon="10.3602448"><ele>462.0</ele><time>2026-04-13T09:00:18.961Z</time></trkpt><trkpt lat="44.1583326" lon="10.3601418"><ele>462.0</ele><time>2026-04-13T09:00:21.957Z</time></trkpt><trkpt lat="44.1583846" lon="10.360058"><ele>462.0</ele><time>2026-04-13T09:00:24.969Z</time></trkpt><trkpt lat="44.1584496" lon="10.359992"><ele>462.0</ele><time>2026-04-13T09:00:27.954Z</time></trkpt><trkpt lat="44.158524" lon="10.3599467"><ele>462.0</ele><time>2026-04-13T09:00:30.961Z</time></trkpt><trkpt lat="44.1586011" lon="10.3599159"><ele>462.0</ele><time>2026-04-13T09:00:33.971Z</time></trkpt><trkpt lat="44.1586765" lon="10.3598794"><ele>462.0</ele><time>2026-04-13T09:00:36.965Z</time></trkpt><trkpt lat="44.1587545" lon="10.3598457"><ele>462.0</ele><time>2026-04-13T09:00:39.96Z</time></trkpt><trkpt lat="44.1588332" lon="10.3598202"><ele>462.0</ele><time>2026-04-13T09:00:42.966Z</time></trkpt><trkpt lat="44.1589103" lon="10.3597896"><ele>462.0</ele><time>2026-04-13T09:00:45.962Z</time></trkpt><trkpt lat="44.1589892" lon="10.3597589"><ele>462.0</ele><time>2026-04-13T09:00:48.974Z</time></trkpt><trkpt lat="44.1590666" lon="10.3597302"><ele>461.6666666666667</ele><time>2026-04-13T09:00:51.975Z</time></trkpt><trkpt lat="44.1591457" lon="10.3596975"><ele>461.33333333333337</ele><time>2026-04-13T09:00:54.974Z</time></trkpt><trkpt lat="44.159223" lon="10.3596753"><ele>461.0</ele><time>2026-04-13T09:00:57.964Z</time></trkpt><trkpt lat="44.1592987" lon="10.359645"><ele>460.6666666666667</ele><time>2026-04-13T09:01:00.972Z</time></trkpt><trkpt lat="44.1593753" lon="10.3596158"><ele>460.33333333333337</ele><time>2026-04-13T09:01:03.965Z</time></trkpt><trkpt lat="44.159454" lon="10.3595853"><ele>460.0</ele><time>2026-04-13T09:01:06.974Z</time></trkpt><trkpt lat="44.1595303" lon="10.3595537"><ele>460.00000000000006</ele><time>2026-04-13T09:01:09.956Z</time></trkpt><trkpt lat="44.1596076" lon="10.3595258"><ele>460.0</ele><time>2026-04-13T09:01:12.968Z</time></trkpt><trkpt lat="44.159685" lon="10.3594967"><ele>460.0</ele><time>2026-04-13T09:01:15.966Z</time></trkpt><trkpt lat="44.1597596" lon="10.3594592"><ele>460.0</ele><time>2026-04-13T09:01:18.975Z</time></trkpt><trkpt lat="44.1598311" lon="10.3594111"><ele>460.00000000000006</ele><time>2026-04-13T09:01:21.962Z</time></trkpt><trkpt lat="44.1599049" lon="10.3593693"><ele>460.0</ele><time>2026-04-13T09:01:24.966Z</time></trkpt><trkpt lat="44.1599734" lon="10.3593097"><ele>461.83333333333337</ele><time>2026-04-13T09:01:27.973Z</time></trkpt><trkpt lat="44.1600373" lon="10.3592451"><ele>463.6666666666667</ele><time>2026-04-13T09:01:30.973Z</time></trkpt><trkpt lat="44.1600968" lon="10.3591768"><ele>465.5</ele><time>2026-04-13T09:01:33.984Z</time></trkpt><trkpt lat="44.1601527" lon="10.3591031"><ele>467.33333333333337</ele><time>2026-04-13T09:01:36.991Z</time></trkpt><trkpt lat="44.1602043" lon="10.359022"><ele>469.1666666666667</ele><time>2026-04-13T09:01:39.976Z</time></trkpt><trkpt lat="44.1602572" lon="10.3589394"><ele>471.0</ele><time>2026-04-13T09:01:42.958Z</time></trkpt><trkpt lat="44.1603105" lon="10.3588587"><ele>471.0</ele><time>2026-04-13T09:01:45.974Z</time></trkpt><trkpt lat="44.1603635" lon="10.3587784"><ele>471.0</ele><time>2026-04-13T09:01:48.977Z</time></trkpt><trkpt lat="44.1604144" lon="10.3586942"><ele>471.0</ele><time>2026-04-13T09:01:51.962Z</time></trkpt><trkpt lat="44.160463" lon="10.3586067"><ele>471.0</ele><time>2026-04-13T09:01:54.983Z</time></trkpt><trkpt lat="44.1605221" lon="10.3585304"><ele>471.0</ele><time>2026-04-13T09:01:57.981Z</time></trkpt><trkpt lat="44.1605732" lon="10.3584491"><ele>471.0</ele><time>2026-04-13T09:02:00.964Z</time></trkpt><trkpt lat="44.1606234" lon="10.3583619"><ele>471.0</ele><time>2026-04-13T09:02:03.976Z</time></trkpt><trkpt lat="44.1606751" lon="10.3582793"><ele>471.0</ele><time>2026-04-13T09:02:06.976Z</time></trkpt><trkpt lat="44.1607258" lon="10.3581962"><ele>471.0</ele><time>2026-04-13T09:02:09.972Z</time></trkpt><trkpt lat="44.1607822" lon="10.3581112"><ele>471.0</ele><time>2026-04-13T09:02:12.96Z</time></trkpt><trkpt lat="44.1608317" lon="10.358022"><ele>471.0</ele><time>2026-04-13T09:02:15.966Z</time></trkpt><trkpt lat="44.1608779" lon="10.3579294"><ele>471.0</ele><time>2026-04-13T09:02:18.964Z</time></trkpt><trkpt lat="44.1609239" lon="10.3578347"><ele>473.0</ele><time>2026-04-13T09:02:21.979Z</time></trkpt><trkpt lat="44.1609665" lon="10.3577373"><ele>475.0</ele><time>2026-04-13T09:02:24.965Z</time></trkpt><trkpt lat="44.1610014" lon="10.3576332"><ele>477.0</ele><time>2026-04-13T09:02:27.966Z</time></trkpt><trkpt lat="44.1610309" lon="10.3575367"><ele>479.0</ele><time>2026-04-13T09:02:30.984Z</time></trkpt><trkpt lat="44.1610557" lon="10.3574414"><ele>481.0</ele><time>2026-04-13T09:02:33.974Z</time></trkpt><trkpt lat="44.1610775" lon="10.3573495"><ele>483.0</ele><time>2026-04-13T09:02:36.975Z</time></trkpt><trkpt lat="44.1611078" lon="10.3572547"><ele>482.2857142857143</ele><time>2026-04-13T09:02:39.963Z</time></trkpt><trkpt lat="44.1611396" lon="10.357163"><ele>481.57142857142856</ele><time>2026-04-13T09:02:42.978Z</time></trkpt><trkpt lat="44.1611662" lon="10.3570635"><ele>480.8571428571429</ele><time>2026-04-13T09:02:45.97Z</time></trkpt><trkpt lat="44.1611937" lon="10.3569643"><ele>480.14285714285717</ele><time>2026-04-13T09:02:48.979Z</time></trkpt><trkpt lat="44.1612247" lon="10.3568699"><ele>479.42857142857144</ele><time>2026-04-13T09:02:51.974Z</time></trkpt><trkpt lat="44.1612562" lon="10.3567816"><ele>478.7142857142858</ele><time>2026-04-13T09:02:54.982Z</time></trkpt><trkpt lat="44.1612856" lon="10.3566837"><ele>478.00000000000006</ele><time>2026-04-13T09:02:57.967Z</time></trkpt><trkpt lat="44.1613156" lon="10.3565827"><ele>478.00000000000006</ele><time>2026-04-13T09:03:00.969Z</time></trkpt><trkpt lat="44.1613404" lon="10.3564853"><ele>478.0</ele><time>2026-04-13T09:03:03.964Z</time></trkpt><trkpt lat="44.1613651" lon="10.3563795"><ele>478.00000000000006</ele><time>2026-04-13T09:03:07.972Z</time></trkpt><trkpt lat="44.1613931" lon="10.3562905"><ele>478.00000000000006</ele><time>2026-04-13T09:03:10.975Z</time></trkpt><trkpt lat="44.161422" lon="10.3562055"><ele>478.0</ele><time>2026-04-13T09:03:13.966Z</time></trkpt><trkpt lat="44.1614442" lon="10.356098"><ele>478.00000000000006</ele><time>2026-04-13T09:03:16.978Z</time></trkpt><trkpt lat="44.1614662" lon="10.3559987"><ele>478.00000000000006</ele><time>2026-04-13T09:03:19.976Z</time></trkpt><trkpt lat="44.1614791" lon="10.3558995"><ele>478.83333333333337</ele><time>2026-04-13T09:03:22.974Z</time></trkpt><trkpt lat="44.1614677" lon="10.3558028"><ele>479.6666666666667</ele><time>2026-04-13T09:03:25.972Z</time></trkpt><trkpt lat="44.1614245" lon="10.3557141"><ele>480.5</ele><time>2026-04-13T09:03:28.977Z</time></trkpt><trkpt lat="44.1613764" lon="10.3556284"><ele>481.33333333333337</ele><time>2026-04-13T09:03:31.984Z</time></trkpt><trkpt lat="44.1613169" lon="10.3555473"><ele>482.1666666666667</ele><time>2026-04-13T09:03:34.969Z</time></trkpt><trkpt lat="44.1612551" lon="10.355473"><ele>483.0</ele><time>2026-04-13T09:03:37.971Z</time></trkpt><trkpt lat="44.1611973" lon="10.3554011"><ele>484.5</ele><time>2026-04-13T09:03:40.979Z</time></trkpt><trkpt lat="44.1611397" lon="10.3553362"><ele>486.0</ele><time>2026-04-13T09:03:43.966Z</time></trkpt><trkpt lat="44.1610843" lon="10.3552662"><ele>487.5</ele><time>2026-04-13T09:03:46.974Z</time></trkpt><trkpt lat="44.161024" lon="10.355197"><ele>489.0</ele><time>2026-04-13T09:03:49.964Z</time></trkpt><trkpt lat="44.1609701" lon="10.3551158"><ele>490.5</ele><time>2026-04-13T09:03:52.961Z</time></trkpt><trkpt lat="44.1609092" lon="10.3550436"><ele>492.0</ele><time>2026-04-13T09:03:55.969Z</time></trkpt><trkpt lat="44.1608489" lon="10.3549752"><ele>492.00000000000006</ele><time>2026-04-13T09:03:58.961Z</time></trkpt><trkpt lat="44.1607952" lon="10.3549074"><ele>492.0</ele><time>2026-04-13T09:04:01.972Z</time></trkpt><trkpt lat="44.1607431" lon="10.3548258"><ele>492.00000000000006</ele><time>2026-04-13T09:04:04.965Z</time></trkpt><trkpt lat="44.1606952" lon="10.3547393"><ele>492.00000000000006</ele><time>2026-04-13T09:04:07.985Z</time></trkpt><trkpt lat="44.1606622" lon="10.3546571"><ele>492.0</ele><time>2026-04-13T09:04:10.977Z</time></trkpt><trkpt lat="44.1606489" lon="10.3545629"><ele>492.00000000000006</ele><time>2026-04-13T09:04:13.974Z</time></trkpt><trkpt lat="44.1606503" lon="10.3544596"><ele>492.00000000000006</ele><time>2026-04-13T09:04:16.959Z</time></trkpt><trkpt lat="44.160672" lon="10.3543518"><ele>491.3333333333333</ele><time>2026-04-13T09:04:19.969Z</time></trkpt><trkpt lat="44.1607104" lon="10.3542542"><ele>490.66666666666663</ele><time>2026-04-13T09:04:22.971Z</time></trkpt><trkpt lat="44.1607535" lon="10.3541606"><ele>490.0</ele><time>2026-04-13T09:04:25.974Z</time></trkpt><trkpt lat="44.1607953" lon="10.3540737"><ele>489.3333333333333</ele><time>2026-04-13T09:04:28.974Z</time></trkpt><trkpt lat="44.1608401" lon="10.353988"><ele>488.66666666666663</ele><time>2026-04-13T09:04:31.978Z</time></trkpt><trkpt lat="44.1608792" lon="10.3539031"><ele>488.0</ele><time>2026-04-13T09:04:34.975Z</time></trkpt><trkpt lat="44.1609234" lon="10.3538179"><ele>487.99999999999994</ele><time>2026-04-13T09:04:37.966Z</time></trkpt><trkpt lat="44.1609752" lon="10.3537276"><ele>488.0</ele><time>2026-04-13T09:04:40.973Z</time></trkpt><trkpt lat="44.1610332" lon="10.353653"><ele>488.0</ele><time>2026-04-13T09:04:43.97Z</time></trkpt><trkpt lat="44.1610934" lon="10.353583"><ele>488.0</ele><time>2026-04-13T09:04:46.964Z</time></trkpt><trkpt lat="44.1611623" lon="10.3535518"><ele>487.99999999999994</ele><time>2026-04-13T09:04:49.965Z</time></trkpt><trkpt lat="44.1612399" lon="10.3535639"><ele>488.0</ele><time>2026-04-13T09:04:52.961Z</time></trkpt><trkpt lat="44.1613086" lon="10.3535902"><ele>487.99999999999994</ele><time>2026-04-13T09:04:55.969Z</time></trkpt><trkpt lat="44.1613743" lon="10.3536488"><ele>488.0</ele><time>2026-04-13T09:04:58.964Z</time></trkpt><trkpt lat="44.1614363" lon="10.3537152"><ele>488.0</ele><time>2026-04-13T09:05:01.974Z</time></trkpt><trkpt lat="44.1614971" lon="10.3537697"><ele>488.0</ele><time>2026-04-13T09:05:04.976Z</time></trkpt><trkpt lat="44.1615585" lon="10.35383"><ele>487.99999999999994</ele><time>2026-04-13T09:05:07.959Z</time></trkpt><trkpt lat="44.1616201" lon="10.3538934"><ele>488.0</ele><time>2026-04-13T09:05:10.963Z</time></trkpt><trkpt lat="44.1616819" lon="10.3539609"><ele>490.49999999999994</ele><time>2026-04-13T09:05:13.963Z</time></trkpt><trkpt lat="44.1617427" lon="10.3540323"><ele>493.0</ele><time>2026-04-13T09:05:16.969Z</time></trkpt><trkpt lat="44.161806" lon="10.3541042"><ele>495.5</ele><time>2026-04-13T09:05:19.972Z</time></trkpt><trkpt lat="44.1618639" lon="10.3541773"><ele>498.0</ele><time>2026-04-13T09:05:22.961Z</time></trkpt><trkpt lat="44.1619236" lon="10.3542372"><ele>500.49999999999994</ele><time>2026-04-13T09:05:25.965Z</time></trkpt><trkpt lat="44.161984" lon="10.3543006"><ele>503.0</ele><time>2026-04-13T09:05:28.962Z</time></trkpt><trkpt lat="44.1620444" lon="10.354359"><ele>503.0</ele><time>2026-04-13T09:05:31.981Z</time></trkpt><trkpt lat="44.1621028" lon="10.3544065"><ele>503.00000000000006</ele><time>2026-04-13T09:05:34.971Z</time></trkpt><trkpt lat="44.1621639" lon="10.3544501"><ele>503.0</ele><time>2026-04-13T09:05:37.976Z</time></trkpt><trkpt lat="44.1622256" lon="10.3544807"><ele>503.0</ele><time>2026-04-13T09:05:40.96Z</time></trkpt><trkpt lat="44.1623102" lon="10.3545068"><ele>503.00000000000006</ele><time>2026-04-13T09:05:44.975Z</time></trkpt><trkpt lat="44.1623855" lon="10.3545189"><ele>503.0</ele><time>2026-04-13T09:05:47.98Z</time></trkpt><trkpt lat="44.1624609" lon="10.3545245"><ele>503.0</ele><time>2026-04-13T09:05:50.973Z</time></trkpt><trkpt lat="44.1625332" lon="10.3545261"><ele>501.8571428571429</ele><time>2026-04-13T09:05:53.971Z</time></trkpt><trkpt lat="44.1626068" lon="10.3545312"><ele>500.7142857142858</ele><time>2026-04-13T09:05:56.968Z</time></trkpt><trkpt lat="44.1626781" lon="10.3545288"><ele>499.57142857142856</ele><time>2026-04-13T09:05:59.966Z</time></trkpt><trkpt lat="44.1627499" lon="10.3545291"><ele>498.42857142857144</ele><time>2026-04-13T09:06:02.96Z</time></trkpt><trkpt lat="44.1628229" lon="10.3545224"><ele>497.2857142857143</ele><time>2026-04-13T09:06:05.976Z</time></trkpt><trkpt lat="44.1628976" lon="10.3545093"><ele>496.1428571428571</ele><time>2026-04-13T09:06:08.967Z</time></trkpt><trkpt lat="44.1629733" lon="10.3544964"><ele>494.99999999999994</ele><time>2026-04-13T09:06:11.977Z</time></trkpt><trkpt lat="44.1630503" lon="10.3544809"><ele>494.99999999999994</ele><time>2026-04-13T09:06:14.959Z</time></trkpt><trkpt lat="44.163123" lon="10.35446"><ele>495.0</ele><time>2026-04-13T09:06:17.966Z</time></trkpt><trkpt lat="44.1632009" lon="10.3544428"><ele>494.99999999999994</ele><time>2026-04-13T09:06:20.968Z</time></trkpt><trkpt lat="44.1632725" lon="10.3544307"><ele>494.99999999999994</ele><time>2026-04-13T09:06:23.968Z</time></trkpt><trkpt lat="44.1633571" lon="10.3544187"><ele>495.0</ele><time>2026-04-13T09:06:27.965Z</time></trkpt><trkpt lat="44.1634204" lon="10.354406"><ele>494.99999999999994</ele><time>2026-04-13T09:06:30.971Z</time></trkpt><trkpt lat="44.1634872" lon="10.3544001"><ele>494.99999999999994</ele><time>2026-04-13T09:06:33.969Z</time></trkpt><trkpt lat="44.1635595" lon="10.3543944"><ele>495.1428571428571</ele><time>2026-04-13T09:06:36.976Z</time></trkpt><trkpt lat="44.1636267" lon="10.35438"><ele>495.2857142857143</ele><time>2026-04-13T09:06:39.968Z</time></trkpt><trkpt lat="44.1637029" lon="10.354363"><ele>495.42857142857144</ele><time>2026-04-13T09:06:43.965Z</time></trkpt><trkpt lat="44.1637704" lon="10.3543578"><ele>495.57142857142856</ele><time>2026-04-13T09:06:47.972Z</time></trkpt><trkpt lat="44.1638431" lon="10.3543438"><ele>495.7142857142858</ele><time>2026-04-13T09:06:51.972Z</time></trkpt><trkpt lat="44.1639106" lon="10.3543288"><ele>495.8571428571429</ele><time>2026-04-13T09:06:54.962Z</time></trkpt><trkpt lat="44.1639822" lon="10.3543195"><ele>496.0</ele><time>2026-04-13T09:06:57.974Z</time></trkpt><trkpt lat="44.1640462" lon="10.3543028"><ele>496.14285714285717</ele><time>2026-04-13T09:07:00.966Z</time></trkpt><trkpt lat="44.1641053" lon="10.3542536"><ele>496.28571428571433</ele><time>2026-04-13T09:07:03.959Z</time></trkpt><trkpt lat="44.1641593" lon="10.3542064"><ele>496.42857142857144</ele><time>2026-04-13T09:07:06.975Z</time></trkpt><trkpt lat="44.1642254" lon="10.3541495"><ele>496.57142857142856</ele><time>2026-04-13T09:07:10.968Z</time></trkpt><trkpt lat="44.1642916" lon="10.354081"><ele>496.7142857142857</ele><time>2026-04-13T09:07:14.967Z</time></trkpt><trkpt lat="44.164347" lon="10.3540089"><ele>496.8571428571429</ele><time>2026-04-13T09:07:18.969Z</time></trkpt><trkpt lat="44.1643936" lon="10.3539476"><ele>497.0</ele><time>2026-04-13T09:07:22.973Z</time></trkpt><trkpt lat="44.1644458" lon="10.3538823"><ele>497.0</ele><time>2026-04-13T09:07:27.969Z</time></trkpt><trkpt lat="44.1645094" lon="10.3538568"><ele>497.0</ele><time>2026-04-13T09:07:31.956Z</time></trkpt><trkpt lat="44.1645746" lon="10.3538902"><ele>497.0</ele><time>2026-04-13T09:07:35.988Z</time></trkpt><trkpt lat="44.1646365" lon="10.353923"><ele>497.0</ele><time>2026-04-13T09:07:39.965Z</time></trkpt><trkpt lat="44.1646992" lon="10.3539822"><ele>497.0</ele><time>2026-04-13T09:07:44.967Z</time></trkpt><trkpt lat="44.164763" lon="10.3540207"><ele>497.0</ele><time>2026-04-13T09:07:48.978Z</time></trkpt><trkpt lat="44.1648207" lon="10.3540897"><ele>497.0</ele><time>2026-04-13T09:07:53.974Z</time></trkpt><trkpt lat="44.164841" lon="10.3541823"><ele>497.0</ele><time>2026-04-13T09:07:58.969Z</time></trkpt><trkpt lat="44.1648337" lon="10.3542699"><ele>497.0</ele><time>2026-04-13T09:08:02.97Z</time></trkpt><trkpt lat="44.1647965" lon="10.3543511"><ele>497.0</ele><time>2026-04-13T09:08:06.98Z</time></trkpt><trkpt lat="44.1647471" lon="10.3544171"><ele>497.0</ele><time>2026-04-13T09:08:10.999Z</time></trkpt><trkpt lat="44.1646887" lon="10.3544793"><ele>497.0</ele><time>2026-04-13T09:08:15.976Z</time></trkpt><trkpt lat="44.1646126" lon="10.3544988"><ele>497.0</ele><time>2026-04-13T09:08:20.959Z</time></trkpt><trkpt lat="44.1645459" lon="10.3545206"><ele>497.0</ele><time>2026-04-13T09:08:24.972Z</time></trkpt><trkpt lat="44.1644792" lon="10.3545459"><ele>497.0</ele><time>2026-04-13T09:08:28.973Z</time></trkpt><trkpt lat="44.1644177" lon="10.3545786"><ele>497.0</ele><time>2026-04-13T09:08:32.97Z</time></trkpt><trkpt lat="44.1643636" lon="10.3546403"><ele>497.0</ele><time>2026-04-13T09:08:36.975Z</time></trkpt><trkpt lat="44.1643297" lon="10.3547165"><ele>497.0</ele><time>2026-04-13T09:08:40.979Z</time></trkpt><trkpt lat="44.1643007" lon="10.3547992"><ele>497.0</ele><time>2026-04-13T09:08:44.97Z</time></trkpt><trkpt lat="44.1642673" lon="10.3548802"><ele>497.0</ele><time>2026-04-13T09:08:48.975Z</time></trkpt><trkpt lat="44.1642408" lon="10.3549624"><ele>497.0</ele><time>2026-04-13T09:08:52.97Z</time></trkpt><trkpt lat="44.1641938" lon="10.3550386"><ele>498.1428571428571</ele><time>2026-04-13T09:08:56.971Z</time></trkpt><trkpt lat="44.164161" lon="10.3551205"><ele>499.2857142857143</ele><time>2026-04-13T09:09:00.968Z</time></trkpt><trkpt lat="44.1641208" lon="10.3551939"><ele>500.42857142857144</ele><time>2026-04-13T09:09:04.974Z</time></trkpt><trkpt lat="44.164096" lon="10.3552747"><ele>501.57142857142856</ele><time>2026-04-13T09:09:08.978Z</time></trkpt><trkpt lat="44.1640536" lon="10.3553453"><ele>502.71428571428567</ele><time>2026-04-13T09:09:12.975Z</time></trkpt><trkpt lat="44.1640098" lon="10.3554169"><ele>503.85714285714283</ele><time>2026-04-13T09:09:16.97Z</time></trkpt><trkpt lat="44.1639503" lon="10.3554672"><ele>505.0</ele><time>2026-04-13T09:09:20.972Z</time></trkpt><trkpt lat="44.1638904" lon="10.3555194"><ele>507.1428571428571</ele><time>2026-04-13T09:09:24.97Z</time></trkpt><trkpt lat="44.163828" lon="10.3555554"><ele>509.2857142857142</ele><time>2026-04-13T09:09:28.974Z</time></trkpt><trkpt lat="44.1637602" lon="10.3555838"><ele>511.42857142857144</ele><time>2026-04-13T09:09:32.967Z</time></trkpt><trkpt lat="44.1636964" lon="10.3556106"><ele>513.5714285714286</ele><time>2026-04-13T09:09:36.979Z</time></trkpt><trkpt lat="44.1636284" lon="10.3556306"><ele>515.7142857142858</ele><time>2026-04-13T09:09:40.967Z</time></trkpt><trkpt lat="44.1635663" lon="10.3556624"><ele>517.8571428571429</ele><time>2026-04-13T09:09:44.968Z</time></trkpt><trkpt lat="44.163505" lon="10.3556903"><ele>520.0</ele><time>2026-04-13T09:09:48.973Z</time></trkpt><trkpt lat="44.16344" lon="10.355723"><ele>520.0000000000001</ele><time>2026-04-13T09:09:52.973Z</time></trkpt><trkpt lat="44.1633746" lon="10.3557406"><ele>520.0</ele><time>2026-04-13T09:09:56.976Z</time></trkpt><trkpt lat="44.1633097" lon="10.3557453"><ele>520.0</ele><time>2026-04-13T09:10:00.97Z</time></trkpt><trkpt lat="44.1632328" lon="10.3557648"><ele>520.0</ele><time>2026-04-13T09:10:05.979Z</time></trkpt><trkpt lat="44.1631693" lon="10.3557912"><ele>520.0</ele><time>2026-04-13T09:10:09.98Z</time></trkpt><trkpt lat="44.1630997" lon="10.3558281"><ele>520.0000000000001</ele><time>2026-04-13T09:10:14.974Z</time></trkpt><trkpt lat="44.1630372" lon="10.3558709"><ele>520.0</ele><time>2026-04-13T09:10:20.972Z</time></trkpt><trkpt lat="44.162977" lon="10.3559163"><ele>520.0000000000001</ele><time>2026-04-13T09:10:26.959Z</time></trkpt><trkpt lat="44.1630482" lon="10.3558893"><ele>520.0</ele><time>2026-04-13T09:10:34.974Z</time></trkpt><trkpt lat="44.1631207" lon="10.3558618"><ele>520.0</ele><time>2026-04-13T09:10:39.963Z</time></trkpt><trkpt lat="44.1631895" lon="10.3558276"><ele>520.0</ele><time>2026-04-13T09:10:43.965Z</time></trkpt><trkpt lat="44.1632696" lon="10.3558213"><ele>520.0</ele><time>2026-04-13T09:10:47.964Z</time></trkpt><trkpt lat="44.1633364" lon="10.3558298"><ele>520.0000000000001</ele><time>2026-04-13T09:10:51.973Z</time></trkpt><trkpt lat="44.1634096" lon="10.3558273"><ele>520.0</ele><time>2026-04-13T09:10:56.991Z</time></trkpt><trkpt lat="44.1634728" lon="10.3558165"><ele>520.0000000000001</ele><time>2026-04-13T09:11:00.964Z</time></trkpt><trkpt lat="44.1635422" lon="10.3557927"><ele>520.0</ele><time>2026-04-13T09:11:04.969Z</time></trkpt><trkpt lat="44.1636069" lon="10.3557581"><ele>520.0</ele><time>2026-04-13T09:11:08.964Z</time></trkpt><trkpt lat="44.1636761" lon="10.3557273"><ele>520.0</ele><time>2026-04-13T09:11:11.975Z</time></trkpt><trkpt lat="44.163744" lon="10.3557034"><ele>520.0</ele><time>2026-04-13T09:11:14.989Z</time></trkpt><trkpt lat="44.1638027" lon="10.3557605"><ele>520.0000000000001</ele><time>2026-04-13T09:11:18.975Z</time></trkpt><trkpt lat="44.1638166" lon="10.3558585"><ele>520.0</ele><time>2026-04-13T09:11:22.97Z</time></trkpt><trkpt lat="44.1638355" lon="10.3559491"><ele>520.0000000000001</ele><time>2026-04-13T09:11:26.967Z</time></trkpt><trkpt lat="44.1638629" lon="10.356046"><ele>520.0</ele><time>2026-04-13T09:11:31.97Z</time></trkpt><trkpt lat="44.1639" lon="10.3561407"><ele>520.0</ele><time>2026-04-13T09:11:36.976Z</time></trkpt><trkpt lat="44.1639495" lon="10.3562141"><ele>520.0</ele><time>2026-04-13T09:11:40.974Z</time></trkpt><trkpt lat="44.1640084" lon="10.3562569"><ele>520.0</ele><time>2026-04-13T09:11:44.978Z</time></trkpt><trkpt lat="44.1640749" lon="10.3562681"><ele>520.0000000000001</ele><time>2026-04-13T09:11:48.966Z</time></trkpt><trkpt lat="44.1641473" lon="10.3562575"><ele>520.0</ele><time>2026-04-13T09:11:52.964Z</time></trkpt><trkpt lat="44.1642103" lon="10.3562413"><ele>521.2857142857143</ele><time>2026-04-13T09:11:56.972Z</time></trkpt><trkpt lat="44.1642743" lon="10.3562067"><ele>522.5714285714286</ele><time>2026-04-13T09:12:00.966Z</time></trkpt><trkpt lat="44.1643396" lon="10.3561803"><ele>523.8571428571429</ele><time>2026-04-13T09:12:04.971Z</time></trkpt><trkpt lat="44.164405" lon="10.3561585"><ele>525.1428571428571</ele><time>2026-04-13T09:12:08.965Z</time></trkpt><trkpt lat="44.1644785" lon="10.356129"><ele>526.4285714285714</ele><time>2026-04-13T09:12:13.968Z</time></trkpt><trkpt lat="44.1645431" lon="10.3560924"><ele>527.7142857142858</ele><time>2026-04-13T09:12:18.975Z</time></trkpt><trkpt lat="44.1646022" lon="10.3560548"><ele>529.0</ele><time>2026-04-13T09:12:22.966Z</time></trkpt><trkpt lat="44.164679" lon="10.3560373"><ele>529.0</ele><time>2026-04-13T09:12:27.975Z</time></trkpt><trkpt lat="44.1647332" lon="10.3560821"><ele>529.0</ele><time>2026-04-13T09:12:31.956Z</time></trkpt><trkpt lat="44.1647159" lon="10.356187"><ele>529.0</ele><time>2026-04-13T09:12:36.961Z</time></trkpt><trkpt lat="44.1646699" lon="10.3562538"><ele>529.0</ele><time>2026-04-13T09:12:40.974Z</time></trkpt><trkpt lat="44.1646145" lon="10.3563133"><ele>529.0</ele><time>2026-04-13T09:12:44.977Z</time></trkpt><trkpt lat="44.1645585" lon="10.3563637"><ele>529.0</ele><time>2026-04-13T09:12:48.97Z</time></trkpt><trkpt lat="44.1645021" lon="10.3564027"><ele>529.0</ele><time>2026-04-13T09:12:52.971Z</time></trkpt><trkpt lat="44.1644417" lon="10.3564571"><ele>531.5714285714286</ele><time>2026-04-13T09:12:56.972Z</time></trkpt><trkpt lat="44.1643854" lon="10.3565139"><ele>534.1428571428571</ele><time>2026-04-13T09:13:00.969Z</time></trkpt><trkpt lat="44.1643236" lon="10.356561"><ele>536.7142857142857</ele><time>2026-04-13T09:13:04.965Z</time></trkpt><trkpt lat="44.1642675" lon="10.3566209"><ele>539.2857142857142</ele><time>2026-04-13T09:13:08.965Z</time></trkpt><trkpt lat="44.1642113" lon="10.3566813"><ele>541.8571428571428</ele><time>2026-04-13T09:13:12.968Z</time></trkpt><trkpt lat="44.1641579" lon="10.356732"><ele>544.4285714285714</ele><time>2026-04-13T09:13:16.974Z</time></trkpt><trkpt lat="44.1641009" lon="10.3567874"><ele>547.0</ele><time>2026-04-13T09:13:20.976Z</time></trkpt><trkpt lat="44.1640478" lon="10.3568441"><ele>547.0</ele><time>2026-04-13T09:13:24.972Z</time></trkpt><trkpt lat="44.1639921" lon="10.3568907"><ele>547.0</ele><time>2026-04-13T09:13:28.976Z</time></trkpt><trkpt lat="44.1639533" lon="10.3569804"><ele>547.0</ele><time>2026-04-13T09:13:33.962Z</time></trkpt><trkpt lat="44.1639779" lon="10.3570678"><ele>547.0</ele><time>2026-04-13T09:13:37.976Z</time></trkpt><trkpt lat="44.1640237" lon="10.3571303"><ele>547.0</ele><time>2026-04-13T09:13:41.971Z</time></trkpt><trkpt lat="44.1640856" lon="10.3571896"><ele>547.0</ele><time>2026-04-13T09:13:46.975Z</time></trkpt><trkpt lat="44.1641382" lon="10.3572633"><ele>547.0</ele><time>2026-04-13T09:13:51.96Z</time></trkpt><trkpt lat="44.1641846" lon="10.3573372"><ele>549.0</ele><time>2026-04-13T09:13:56.972Z</time></trkpt><trkpt lat="44.1642137" lon="10.3574304"><ele>551.0</ele><time>2026-04-13T09:14:01.976Z</time></trkpt><trkpt lat="44.1642325" lon="10.3575267"><ele>553.0</ele><time>2026-04-13T09:14:06.977Z</time></trkpt><trkpt lat="44.1642277" lon="10.3576342"><ele>555.0</ele><time>2026-04-13T09:14:11.972Z</time></trkpt><trkpt lat="44.164207" lon="10.3577253"><ele>557.0</ele><time>2026-04-13T09:14:16.961Z</time></trkpt><trkpt lat="44.1641878" lon="10.3578196"><ele>559.0</ele><time>2026-04-13T09:14:22.968Z</time></trkpt><trkpt lat="44.1641774" lon="10.3579081"><ele>561.0</ele><time>2026-04-13T09:14:27.972Z</time></trkpt><trkpt lat="44.1641618" lon="10.3579932"><ele>562.0</ele><time>2026-04-13T09:14:32.961Z</time></trkpt><trkpt lat="44.164153" lon="10.3580845"><ele>563.0</ele><time>2026-04-13T09:14:37.965Z</time></trkpt><trkpt lat="44.1641522" lon="10.3581895"><ele>564.0</ele><time>2026-04-13T09:14:43.968Z</time></trkpt><trkpt lat="44.1641663" lon="10.3582814"><ele>565.0</ele><time>2026-04-13T09:14:46.974Z</time></trkpt><trkpt lat="44.1641596" lon="10.3583707"><ele>566.0</ele><time>2026-04-13T09:14:50.977Z</time></trkpt><trkpt lat="44.1641308" lon="10.3584692"><ele>567.0</ele><time>2026-04-13T09:14:55.974Z</time></trkpt><trkpt lat="44.1641022" lon="10.358561"><ele>568.0</ele><time>2026-04-13T09:15:00.964Z</time></trkpt><trkpt lat="44.1640661" lon="10.3586545"><ele>568.0</ele><time>2026-04-13T09:15:05.97Z</time></trkpt><trkpt lat="44.1640398" lon="10.3587435"><ele>568.0</ele><time>2026-04-13T09:15:10.966Z</time></trkpt><trkpt lat="44.1640255" lon="10.3588438"><ele>568.0</ele><time>2026-04-13T09:15:15.979Z</time></trkpt><trkpt lat="44.1640152" lon="10.3589367"><ele>568.0</ele><time>2026-04-13T09:15:20.964Z</time></trkpt><trkpt lat="44.1640027" lon="10.3590301"><ele>568.0</ele><time>2026-04-13T09:15:25.962Z</time></trkpt><trkpt lat="44.1639871" lon="10.3591329"><ele>568.0</ele><time>2026-04-13T09:15:30.971Z</time></trkpt><trkpt lat="44.1639824" lon="10.3592341"><ele>568.0</ele><time>2026-04-13T09:15:35.967Z</time></trkpt><trkpt lat="44.1639741" lon="10.3593323"><ele>567.2857142857142</ele><time>2026-04-13T09:15:40.965Z</time></trkpt><trkpt lat="44.1639409" lon="10.3594278"><ele>566.5714285714286</ele><time>2026-04-13T09:15:45.972Z</time></trkpt><trkpt lat="44.1639178" lon="10.359519"><ele>565.8571428571429</ele><time>2026-04-13T09:15:50.962Z</time></trkpt><trkpt lat="44.1638848" lon="10.3596093"><ele>565.1428571428571</ele><time>2026-04-13T09:15:55.96Z</time></trkpt><trkpt lat="44.1638791" lon="10.359711"><ele>564.4285714285714</ele><time>2026-04-13T09:16:00.96Z</time></trkpt><trkpt lat="44.1638925" lon="10.3598064"><ele>563.7142857142857</ele><time>2026-04-13T09:16:05.974Z</time></trkpt><trkpt lat="44.1639277" lon="10.3598974"><ele>563.0</ele><time>2026-04-13T09:16:10.964Z</time></trkpt><trkpt lat="44.1639481" lon="10.3599994"><ele>563.0</ele><time>2026-04-13T09:16:15.969Z</time></trkpt><trkpt lat="44.1639434" lon="10.3600994"><ele>563.0</ele><time>2026-04-13T09:16:20.967Z</time></trkpt><trkpt lat="44.1639126" lon="10.3601923"><ele>563.0</ele><time>2026-04-13T09:16:25.954Z</time></trkpt><trkpt lat="44.1638755" lon="10.3602713"><ele>563.0</ele><time>2026-04-13T09:16:30.958Z</time></trkpt><trkpt lat="44.1638358" lon="10.3603499"><ele>563.0</ele><time>2026-04-13T09:16:35.96Z</time></trkpt><trkpt lat="44.1637893" lon="10.3604334"><ele>563.0</ele><time>2026-04-13T09:16:40.955Z</time></trkpt><trkpt lat="44.1637419" lon="10.3605065"><ele>563.0</ele><time>2026-04-13T09:16:45.982Z</time></trkpt><trkpt lat="44.1636894" lon="10.3605793"><ele>566.0</ele><time>2026-04-13T09:16:50.957Z</time></trkpt><trkpt lat="44.1636342" lon="10.3606401"><ele>569.0</ele><time>2026-04-13T09:16:55.961Z</time></trkpt><trkpt lat="44.1635834" lon="10.3606978"><ele>572.0</ele><time>2026-04-13T09:17:00.963Z</time></trkpt><trkpt lat="44.1635188" lon="10.3607557"><ele>575.0</ele><time>2026-04-13T09:17:05.954Z</time></trkpt><trkpt lat="44.1634587" lon="10.3607821"><ele>578.0</ele><time>2026-04-13T09:17:09.961Z</time></trkpt><trkpt lat="44.1633907" lon="10.3608284"><ele>581.0</ele><time>2026-04-13T09:17:14.967Z</time></trkpt><trkpt lat="44.163319" lon="10.3608619"><ele>584.0</ele><time>2026-04-13T09:17:19.978Z</time></trkpt><trkpt lat="44.1632572" lon="10.3608982"><ele>583.0</ele><time>2026-04-13T09:17:23.981Z</time></trkpt><trkpt lat="44.1631926" lon="10.3609611"><ele>582.0</ele><time>2026-04-13T09:17:28.973Z</time></trkpt><trkpt lat="44.1631504" lon="10.3610338"><ele>581.0</ele><time>2026-04-13T09:17:33.965Z</time></trkpt><trkpt lat="44.1631163" lon="10.3611135"><ele>580.0</ele><time>2026-04-13T09:17:38.988Z</time></trkpt><trkpt lat="44.1630748" lon="10.3611966"><ele>579.0</ele><time>2026-04-13T09:17:43.977Z</time></trkpt><trkpt lat="44.1630625" lon="10.3612936"><ele>578.0</ele><time>2026-04-13T09:17:48.979Z</time></trkpt><trkpt lat="44.1630976" lon="10.3613836"><ele>577.0</ele><time>2026-04-13T09:17:52.962Z</time></trkpt><trkpt lat="44.163134" lon="10.3614641"><ele>577.0</ele><time>2026-04-13T09:17:56.979Z</time></trkpt><trkpt lat="44.1631617" lon="10.3615597"><ele>577.0</ele><time>2026-04-13T09:18:01.971Z</time></trkpt><trkpt lat="44.1631723" lon="10.3616565"><ele>577.0</ele><time>2026-04-13T09:18:06.974Z</time></trkpt><trkpt lat="44.1631774" lon="10.3617569"><ele>577.0</ele><time>2026-04-13T09:18:10.965Z</time></trkpt><trkpt lat="44.1631834" lon="10.3618453"><ele>577.0</ele><time>2026-04-13T09:18:14.978Z</time></trkpt><trkpt lat="44.1632304" lon="10.3619107"><ele>577.0</ele><time>2026-04-13T09:18:19.968Z</time></trkpt><trkpt lat="44.163301" lon="10.3618605"><ele>577.0</ele><time>2026-04-13T09:18:25.965Z</time></trkpt><trkpt lat="44.1633253" lon="10.3617584"><ele>580.8571428571429</ele><time>2026-04-13T09:18:30.966Z</time></trkpt><trkpt lat="44.1633557" lon="10.3616756"><ele>584.7142857142858</ele><time>2026-04-13T09:18:35.967Z</time></trkpt><trkpt lat="44.1634115" lon="10.3616064"><ele>588.5714285714287</ele><time>2026-04-13T09:18:40.97Z</time></trkpt><trkpt lat="44.1634803" lon="10.3615966"><ele>592.4285714285714</ele><time>2026-04-13T09:18:45.983Z</time></trkpt><trkpt lat="44.1635174" lon="10.3616711"><ele>596.2857142857143</ele><time>2026-04-13T09:18:50.981Z</time></trkpt><trkpt lat="44.1634993" lon="10.3617574"><ele>600.1428571428572</ele><time>2026-04-13T09:18:54.978Z</time></trkpt><trkpt lat="44.1635115" lon="10.3618562"><ele>604.0</ele><time>2026-04-13T09:18:58.979Z</time></trkpt><trkpt lat="44.1635236" lon="10.3619515"><ele>604.0000000000001</ele><time>2026-04-13T09:19:03.975Z</time></trkpt><trkpt lat="44.1635592" lon="10.3620291"><ele>604.0</ele><time>2026-04-13T09:19:08.975Z</time></trkpt><trkpt lat="44.1636176" lon="10.3620808"><ele>604.0</ele><time>2026-04-13T09:19:13.975Z</time></trkpt><trkpt lat="44.1636565" lon="10.3621554"><ele>604.0</ele><time>2026-04-13T09:19:19.964Z</time></trkpt><trkpt lat="44.1636795" lon="10.3622475"><ele>604.0</ele><time>2026-04-13T09:19:24.966Z</time></trkpt><trkpt lat="44.1637065" lon="10.3623432"><ele>604.0000000000001</ele><time>2026-04-13T09:19:29.961Z</time></trkpt><trkpt lat="44.1637675" lon="10.3624036"><ele>604.0</ele><time>2026-04-13T09:19:34.976Z</time></trkpt><trkpt lat="44.1638309" lon="10.3623505"><ele>604.0000000000001</ele><time>2026-04-13T09:19:39.962Z</time></trkpt><trkpt lat="44.1638727" lon="10.3622622"><ele>604.0</ele><time>2026-04-13T09:19:44.978Z</time></trkpt><trkpt lat="44.1638992" lon="10.3621694"><ele>604.0</ele><time>2026-04-13T09:19:49.972Z</time></trkpt><trkpt lat="44.1639115" lon="10.3620793"><ele>604.0</ele><time>2026-04-13T09:19:53.967Z</time></trkpt><trkpt lat="44.1639201" lon="10.3619747"><ele>604.0</ele><time>2026-04-13T09:19:58.968Z</time></trkpt><trkpt lat="44.1639274" lon="10.3618714"><ele>604.0000000000001</ele><time>2026-04-13T09:20:03.973Z</time></trkpt><trkpt lat="44.1639291" lon="10.3617666"><ele>604.0</ele><time>2026-04-13T09:20:08.965Z</time></trkpt><trkpt lat="44.163935" lon="10.3616685"><ele>604.0000000000001</ele><time>2026-04-13T09:20:13.971Z</time></trkpt><trkpt lat="44.1639603" lon="10.3615841"><ele>604.0</ele><time>2026-04-13T09:20:18.966Z</time></trkpt><trkpt lat="44.1639848" lon="10.3614833"><ele>604.0</ele><time>2026-04-13T09:20:23.962Z</time></trkpt><trkpt lat="44.1640289" lon="10.3614083"><ele>604.0</ele><time>2026-04-13T09:20:28.962Z</time></trkpt><trkpt lat="44.1640878" lon="10.3613623"><ele>604.0</ele><time>2026-04-13T09:20:33.97Z</time></trkpt><trkpt lat="44.1641468" lon="10.3613311"><ele>604.0000000000001</ele><time>2026-04-13T09:20:38.967Z</time></trkpt><trkpt lat="44.1642144" lon="10.3612909"><ele>604.0</ele><time>2026-04-13T09:20:43.968Z</time></trkpt><trkpt lat="44.1642828" lon="10.3612456"><ele>605.2857142857143</ele><time>2026-04-13T09:20:48.967Z</time></trkpt><trkpt lat="44.164343" lon="10.3612092"><ele>606.5714285714286</ele><time>2026-04-13T09:20:52.967Z</time></trkpt><trkpt lat="44.1644053" lon="10.3611492"><ele>607.8571428571429</ele><time>2026-04-13T09:20:57.969Z</time></trkpt><trkpt lat="44.1644761" lon="10.361112"><ele>609.1428571428571</ele><time>2026-04-13T09:21:02.969Z</time></trkpt><trkpt lat="44.1645469" lon="10.3610705"><ele>610.4285714285714</ele><time>2026-04-13T09:21:07.96Z</time></trkpt><trkpt lat="44.164612" lon="10.3610209"><ele>611.7142857142858</ele><time>2026-04-13T09:21:12.978Z</time></trkpt><trkpt lat="44.1646768" lon="10.3609635"><ele>613.0</ele><time>2026-04-13T09:21:17.967Z</time></trkpt><trkpt lat="44.1647133" lon="10.3608752"><ele>613.0</ele><time>2026-04-13T09:21:21.976Z</time></trkpt><trkpt lat="44.1647577" lon="10.3607877"><ele>613.0</ele><time>2026-04-13T09:21:26.977Z</time></trkpt><trkpt lat="44.1647957" lon="10.3607086"><ele>613.0</ele><time>2026-04-13T09:21:30.977Z</time></trkpt><trkpt lat="44.164831" lon="10.3606345"><ele>613.0</ele><time>2026-04-13T09:21:34.969Z</time></trkpt><trkpt lat="44.1648777" lon="10.360571"><ele>613.0</ele><time>2026-04-13T09:21:38.965Z</time></trkpt><trkpt lat="44.1649426" lon="10.3605066"><ele>613.0</ele><time>2026-04-13T09:21:43.968Z</time></trkpt><trkpt lat="44.1649906" lon="10.3604414"><ele>613.0</ele><time>2026-04-13T09:21:47.961Z</time></trkpt><trkpt lat="44.1650421" lon="10.3603676"><ele>615.4285714285714</ele><time>2026-04-13T09:21:51.977Z</time></trkpt><trkpt lat="44.1650821" lon="10.3602786"><ele>617.8571428571429</ele><time>2026-04-13T09:21:55.964Z</time></trkpt><trkpt lat="44.1651293" lon="10.3601995"><ele>620.2857142857142</ele><time>2026-04-13T09:21:59.968Z</time></trkpt><trkpt lat="44.1651779" lon="10.3601362"><ele>622.7142857142858</ele><time>2026-04-13T09:22:03.978Z</time></trkpt><trkpt lat="44.1652258" lon="10.3600597"><ele>625.1428571428571</ele><time>2026-04-13T09:22:07.967Z</time></trkpt><trkpt lat="44.165256" lon="10.3599683"><ele>627.5714285714286</ele><time>2026-04-13T09:22:11.973Z</time></trkpt><trkpt lat="44.1652836" lon="10.3598781"><ele>630.0</ele><time>2026-04-13T09:22:15.964Z</time></trkpt><trkpt lat="44.165299" lon="10.3597836"><ele>628.7142857142857</ele><time>2026-04-13T09:22:19.967Z</time></trkpt><trkpt lat="44.1653186" lon="10.3596768"><ele>627.4285714285714</ele><time>2026-04-13T09:22:24.968Z</time></trkpt><trkpt lat="44.165336" lon="10.3595919"><ele>626.1428571428571</ele><time>2026-04-13T09:22:28.976Z</time></trkpt><trkpt lat="44.1653677" lon="10.3594993"><ele>624.8571428571429</ele><time>2026-04-13T09:22:33.975Z</time></trkpt><trkpt lat="44.1654123" lon="10.3594298"><ele>623.5714285714286</ele><time>2026-04-13T09:22:40.968Z</time></trkpt><trkpt lat="44.1654222" lon="10.3593275"><ele>622.2857142857142</ele><time>2026-04-13T09:22:46.959Z</time></trkpt><trkpt lat="44.1654603" lon="10.3592375"><ele>621.0</ele><time>2026-04-13T09:22:51.965Z</time></trkpt><trkpt lat="44.1654945" lon="10.3591532"><ele>621.0</ele><time>2026-04-13T09:22:57.977Z</time></trkpt><trkpt lat="44.1655307" lon="10.3590635"><ele>621.0</ele><time>2026-04-13T09:23:02.955Z</time></trkpt><trkpt lat="44.1655543" lon="10.3589781"><ele>621.0</ele><time>2026-04-13T09:23:06.966Z</time></trkpt><trkpt lat="44.1655139" lon="10.3590626"><ele>621.0</ele><time>2026-04-13T09:23:27.975Z</time></trkpt><trkpt lat="44.1654591" lon="10.3591606"><ele>621.0</ele><time>2026-04-13T09:23:30.967Z</time></trkpt><trkpt lat="44.1654142" lon="10.359238"><ele>621.0</ele><time>2026-04-13T09:23:32.976Z</time></trkpt><trkpt lat="44.1653849" lon="10.3593754"><ele>620.9999999999999</ele><time>2026-04-13T09:23:34.978Z</time></trkpt><trkpt lat="44.1654043" lon="10.3594704"><ele>621.0</ele><time>2026-04-13T09:23:36.971Z</time></trkpt><trkpt lat="44.1654444" lon="10.3595528"><ele>621.0</ele><time>2026-04-13T09:23:40.969Z</time></trkpt><trkpt lat="44.1654429" lon="10.3596437"><ele>621.0</ele><time>2026-04-13T09:23:45.97Z</time></trkpt><trkpt lat="44.1654284" lon="10.3597422"><ele>621.0</ele><time>2026-04-13T09:23:49.965Z</time></trkpt><trkpt lat="44.1654025" lon="10.3598343"><ele>620.9999999999999</ele><time>2026-04-13T09:23:54.974Z</time></trkpt><trkpt lat="44.1654094" lon="10.3599346"><ele>621.0</ele><time>2026-04-13T09:23:59.964Z</time></trkpt><trkpt lat="44.1654244" lon="10.3600227"><ele>622.2857142857142</ele><time>2026-04-13T09:24:03.963Z</time></trkpt><trkpt lat="44.1654204" lon="10.3601206"><ele>623.5714285714286</ele><time>2026-04-13T09:24:07.964Z</time></trkpt><trkpt lat="44.1654107" lon="10.3602093"><ele>624.8571428571429</ele><time>2026-04-13T09:24:11.972Z</time></trkpt><trkpt lat="44.1653925" lon="10.3603024"><ele>626.1428571428571</ele><time>2026-04-13T09:24:15.96Z</time></trkpt><trkpt lat="44.165357" lon="10.3603886"><ele>627.4285714285714</ele><time>2026-04-13T09:24:19.973Z</time></trkpt><trkpt lat="44.1653143" lon="10.3604702"><ele>628.7142857142857</ele><time>2026-04-13T09:24:24.965Z</time></trkpt><trkpt lat="44.1652608" lon="10.3605258"><ele>630.0</ele><time>2026-04-13T09:24:29.973Z</time></trkpt><trkpt lat="44.165191" lon="10.3605634"><ele>632.4285714285714</ele><time>2026-04-13T09:24:34.971Z</time></trkpt><trkpt lat="44.1651409" lon="10.3606294"><ele>634.8571428571429</ele><time>2026-04-13T09:24:39.969Z</time></trkpt><trkpt lat="44.1651057" lon="10.3607166"><ele>637.2857142857142</ele><time>2026-04-13T09:24:44.963Z</time></trkpt><trkpt lat="44.1650956" lon="10.3608191"><ele>639.7142857142858</ele><time>2026-04-13T09:24:49.975Z</time></trkpt><trkpt lat="44.1650968" lon="10.3609126"><ele>642.1428571428571</ele><time>2026-04-13T09:24:53.967Z</time></trkpt><trkpt lat="44.1650738" lon="10.3610021"><ele>644.5714285714286</ele><time>2026-04-13T09:24:57.971Z</time></trkpt><trkpt lat="44.1650296" lon="10.3610941"><ele>647.0</ele><time>2026-04-13T09:25:02.971Z</time></trkpt><trkpt lat="44.1649747" lon="10.3611686"><ele>647.0</ele><time>2026-04-13T09:25:07.97Z</time></trkpt><trkpt lat="44.1649371" lon="10.3612547"><ele>647.0</ele><time>2026-04-13T09:25:12.954Z</time></trkpt><trkpt lat="44.1649092" lon="10.3613335"><ele>647.0</ele><time>2026-04-13T09:25:16.958Z</time></trkpt><trkpt lat="44.1648843" lon="10.3614167"><ele>647.0</ele><time>2026-04-13T09:25:20.972Z</time></trkpt><trkpt lat="44.1648722" lon="10.3615139"><ele>647.0</ele><time>2026-04-13T09:25:24.977Z</time></trkpt><trkpt lat="44.1648604" lon="10.3616033"><ele>647.0</ele><time>2026-04-13T09:25:28.97Z</time></trkpt><trkpt lat="44.1648355" lon="10.3616853"><ele>647.0</ele><time>2026-04-13T09:25:32.968Z</time></trkpt><trkpt lat="44.164839" lon="10.3617751"><ele>645.4285714285714</ele><time>2026-04-13T09:25:36.974Z</time></trkpt><trkpt lat="44.1648472" lon="10.3618708"><ele>643.8571428571429</ele><time>2026-04-13T09:25:40.969Z</time></trkpt><trkpt lat="44.1648399" lon="10.3619725"><ele>642.2857142857142</ele><time>2026-04-13T09:25:45.968Z</time></trkpt><trkpt lat="44.1648485" lon="10.3620729"><ele>640.7142857142858</ele><time>2026-04-13T09:25:50.964Z</time></trkpt><trkpt lat="44.164859" lon="10.3621719"><ele>639.1428571428572</ele><time>2026-04-13T09:25:55.956Z</time></trkpt><trkpt lat="44.1648871" lon="10.3622665"><ele>637.5714285714286</ele><time>2026-04-13T09:26:00.966Z</time></trkpt><trkpt lat="44.1649541" lon="10.3623212"><ele>636.0</ele><time>2026-04-13T09:26:04.963Z</time></trkpt><trkpt lat="44.1650136" lon="10.3623655"><ele>640.8571428571428</ele><time>2026-04-13T09:26:08.977Z</time></trkpt><trkpt lat="44.1650739" lon="10.3623948"><ele>645.7142857142858</ele><time>2026-04-13T09:26:12.975Z</time></trkpt><trkpt lat="44.1651434" lon="10.3624236"><ele>650.5714285714286</ele><time>2026-04-13T09:26:16.969Z</time></trkpt><trkpt lat="44.1651962" lon="10.3624798"><ele>655.4285714285713</ele><time>2026-04-13T09:26:20.962Z</time></trkpt><trkpt lat="44.1652045" lon="10.3625684"><ele>660.2857142857142</ele><time>2026-04-13T09:26:24.972Z</time></trkpt><trkpt lat="44.1651887" lon="10.3626819"><ele>665.1428571428571</ele><time>2026-04-13T09:26:29.97Z</time></trkpt><trkpt lat="44.1651549" lon="10.3627793"><ele>670.0</ele><time>2026-04-13T09:26:33.871Z</time></trkpt><trkpt lat="44.1651043" lon="10.3628522"><ele>669.9999999999999</ele><time>2026-04-13T09:26:36.968Z</time></trkpt><trkpt lat="44.1650634" lon="10.3629363"><ele>670.0</ele><time>2026-04-13T09:26:40.975Z</time></trkpt><trkpt lat="44.1650325" lon="10.3630312"><ele>670.0</ele><time>2026-04-13T09:26:44.968Z</time></trkpt><trkpt lat="44.1650144" lon="10.3631288"><ele>670.0</ele><time>2026-04-13T09:26:48.975Z</time></trkpt><trkpt lat="44.1649921" lon="10.3632267"><ele>670.0</ele><time>2026-04-13T09:26:53.975Z</time></trkpt><trkpt lat="44.1649756" lon="10.3633133"><ele>669.9999999999999</ele><time>2026-04-13T09:26:57.96Z</time></trkpt><trkpt lat="44.1649691" lon="10.3634184"><ele>670.0</ele><time>2026-04-13T09:27:02.971Z</time></trkpt><trkpt lat="44.1649694" lon="10.363522"><ele>670.6666666666667</ele><time>2026-04-13T09:27:07.908Z</time></trkpt><trkpt lat="44.1649732" lon="10.363615"><ele>671.3333333333334</ele><time>2026-04-13T09:27:11.966Z</time></trkpt><trkpt lat="44.1649983" lon="10.3637135"><ele>672.0</ele><time>2026-04-13T09:27:15.962Z</time></trkpt><trkpt lat="44.165017" lon="10.3638179"><ele>672.6666666666666</ele><time>2026-04-13T09:27:20.96Z</time></trkpt><trkpt lat="44.1650389" lon="10.3639235"><ele>673.3333333333333</ele><time>2026-04-13T09:27:23.955Z</time></trkpt><trkpt lat="44.1650466" lon="10.364027"><ele>674.0</ele><time>2026-04-13T09:27:27.992Z</time></trkpt><trkpt lat="44.1650487" lon="10.3641473"><ele>674.4285714285714</ele><time>2026-04-13T09:27:31.971Z</time></trkpt><trkpt lat="44.1650377" lon="10.3642474"><ele>674.8571428571429</ele><time>2026-04-13T09:27:34.972Z</time></trkpt><trkpt lat="44.1650161" lon="10.3643476"><ele>675.2857142857142</ele><time>2026-04-13T09:27:38.966Z</time></trkpt><trkpt lat="44.1649884" lon="10.3644298"><ele>675.7142857142858</ele><time>2026-04-13T09:27:42.965Z</time></trkpt><trkpt lat="44.1649612" lon="10.3645206"><ele>676.1428571428571</ele><time>2026-04-13T09:27:46.981Z</time></trkpt><trkpt lat="44.1649243" lon="10.3646143"><ele>676.5714285714286</ele><time>2026-04-13T09:27:50.955Z</time></trkpt><trkpt lat="44.1648862" lon="10.3646849"><ele>677.0</ele><time>2026-04-13T09:27:53.965Z</time></trkpt><trkpt lat="44.1648716" lon="10.364779"><ele>676.9999999999999</ele><time>2026-04-13T09:27:57.979Z</time></trkpt><trkpt lat="44.1648795" lon="10.3648767"><ele>677.0</ele><time>2026-04-13T09:28:01.963Z</time></trkpt><trkpt lat="44.1649101" lon="10.3649645"><ele>677.0</ele><time>2026-04-13T09:28:05.982Z</time></trkpt><trkpt lat="44.1649573" lon="10.3650226"><ele>677.0</ele><time>2026-04-13T09:28:09.967Z</time></trkpt><trkpt lat="44.1650396" lon="10.3650393"><ele>677.0</ele><time>2026-04-13T09:28:13.975Z</time></trkpt><trkpt lat="44.1651071" lon="10.3650222"><ele>676.9999999999999</ele><time>2026-04-13T09:28:16.978Z</time></trkpt><trkpt lat="44.1651683" lon="10.3649975"><ele>677.0</ele><time>2026-04-13T09:28:19.973Z</time></trkpt><trkpt lat="44.1652351" lon="10.3649774"><ele>676.9999999999999</ele><time>2026-04-13T09:28:23.97Z</time></trkpt><trkpt lat="44.1653127" lon="10.364968"><ele>677.0</ele><time>2026-04-13T09:28:27.984Z</time></trkpt><trkpt lat="44.1653792" lon="10.3649625"><ele>677.0</ele><time>2026-04-13T09:28:30.971Z</time></trkpt><trkpt lat="44.165446" lon="10.3650069"><ele>677.0</ele><time>2026-04-13T09:28:35.969Z</time></trkpt><trkpt lat="44.165496" lon="10.365069"><ele>677.0</ele><time>2026-04-13T09:28:40.967Z</time></trkpt><trkpt lat="44.1655439" lon="10.365134"><ele>676.9999999999999</ele><time>2026-04-13T09:28:44.957Z</time></trkpt><trkpt lat="44.1655921" lon="10.3651941"><ele>677.0</ele><time>2026-04-13T09:28:48.79Z</time></trkpt><trkpt lat="44.1656459" lon="10.3652608"><ele>679.4285714285713</ele><time>2026-04-13T09:28:52.958Z</time></trkpt><trkpt lat="44.1657022" lon="10.3653395"><ele>681.8571428571429</ele><time>2026-04-13T09:28:56.961Z</time></trkpt><trkpt lat="44.165738" lon="10.3654273"><ele>684.2857142857142</ele><time>2026-04-13T09:29:00.966Z</time></trkpt><trkpt lat="44.1657663" lon="10.3655302"><ele>686.7142857142857</ele><time>2026-04-13T09:29:04.957Z</time></trkpt><trkpt lat="44.1657713" lon="10.3656296"><ele>689.1428571428571</ele><time>2026-04-13T09:29:08.967Z</time></trkpt><trkpt lat="44.1657636" lon="10.3657408"><ele>691.5714285714286</ele><time>2026-04-13T09:29:11.959Z</time></trkpt><trkpt lat="44.1657839" lon="10.3658245"><ele>694.0</ele><time>2026-04-13T09:29:14.975Z</time></trkpt><trkpt lat="44.1657922" lon="10.3659314"><ele>694.0</ele><time>2026-04-13T09:29:18.968Z</time></trkpt><trkpt lat="44.1657815" lon="10.3660436"><ele>694.0</ele><time>2026-04-13T09:29:23.961Z</time></trkpt><trkpt lat="44.1657696" lon="10.3661536"><ele>694.0</ele><time>2026-04-13T09:29:27.985Z</time></trkpt><trkpt lat="44.1657692" lon="10.3662515"><ele>694.0</ele><time>2026-04-13T09:29:31.959Z</time></trkpt><trkpt lat="44.1658027" lon="10.3663414"><ele>694.0</ele><time>2026-04-13T09:29:36.974Z</time></trkpt><trkpt lat="44.1658481" lon="10.3664218"><ele>694.0</ele><time>2026-04-13T09:29:42.983Z</time></trkpt><trkpt lat="44.1659147" lon="10.3664566"><ele>694.0</ele><time>2026-04-13T09:29:48.962Z</time></trkpt><trkpt lat="44.1659858" lon="10.3664629"><ele>694.0</ele><time>2026-04-13T09:29:53.971Z</time></trkpt><trkpt lat="44.166048" lon="10.3664273"><ele>694.0</ele><time>2026-04-13T09:29:58.963Z</time></trkpt><trkpt lat="44.1661098" lon="10.3663765"><ele>694.0</ele><time>2026-04-13T09:30:03.968Z</time></trkpt><trkpt lat="44.1661678" lon="10.3663296"><ele>694.0</ele><time>2026-04-13T09:30:07.957Z</time></trkpt><trkpt lat="44.166233" lon="10.3662798"><ele>694.0</ele><time>2026-04-13T09:30:13.965Z</time></trkpt><trkpt lat="44.1662913" lon="10.3662124"><ele>694.0</ele><time>2026-04-13T09:30:18.971Z</time></trkpt><trkpt lat="44.1663389" lon="10.3661482"><ele>694.0</ele><time>2026-04-13T09:30:23.963Z</time></trkpt><trkpt lat="44.1663858" lon="10.366077"><ele>694.0</ele><time>2026-04-13T09:30:28.974Z</time></trkpt><trkpt lat="44.1664169" lon="10.365991"><ele>694.0</ele><time>2026-04-13T09:30:34.983Z</time></trkpt><trkpt lat="44.1664345" lon="10.3658908"><ele>694.0</ele><time>2026-04-13T09:30:40.963Z</time></trkpt><trkpt lat="44.1664688" lon="10.3658089"><ele>694.0</ele><time>2026-04-13T09:30:45.968Z</time></trkpt><trkpt lat="44.1665034" lon="10.3657186"><ele>694.0</ele><time>2026-04-13T09:30:51.964Z</time></trkpt><trkpt lat="44.166509" lon="10.3656253"><ele>694.0</ele><time>2026-04-13T09:30:56.964Z</time></trkpt><trkpt lat="44.1664822" lon="10.3655291"><ele>694.0</ele><time>2026-04-13T09:31:02.968Z</time></trkpt><trkpt lat="44.1664737" lon="10.3654373"><ele>694.2857142857143</ele><time>2026-04-13T09:31:07.961Z</time></trkpt><trkpt lat="44.1664678" lon="10.3653396"><ele>694.5714285714286</ele><time>2026-04-13T09:31:12.96Z</time></trkpt><trkpt lat="44.166458" lon="10.3652445"><ele>694.8571428571429</ele><time>2026-04-13T09:31:17.964Z</time></trkpt><trkpt lat="44.1664434" lon="10.3651561"><ele>695.1428571428571</ele><time>2026-04-13T09:31:22.962Z</time></trkpt><trkpt lat="44.1664508" lon="10.3650514"><ele>695.4285714285714</ele><time>2026-04-13T09:31:28.974Z</time></trkpt><trkpt lat="44.1664808" lon="10.3649543"><ele>695.7142857142857</ele><time>2026-04-13T09:31:34.958Z</time></trkpt><trkpt lat="44.1665045" lon="10.3648634"><ele>696.0</ele><time>2026-04-13T09:31:39.968Z</time></trkpt><trkpt lat="44.1665274" lon="10.3647637"><ele>699.7142857142857</ele><time>2026-04-13T09:31:45.971Z</time></trkpt><trkpt lat="44.1665502" lon="10.3646691"><ele>703.4285714285714</ele><time>2026-04-13T09:31:51.968Z</time></trkpt><trkpt lat="44.1665673" lon="10.3645845"><ele>707.1428571428571</ele><time>2026-04-13T09:31:56.971Z</time></trkpt><trkpt lat="44.1665785" lon="10.3644952"><ele>710.8571428571429</ele><time>2026-04-13T09:32:01.956Z</time></trkpt><trkpt lat="44.1665888" lon="10.3644031"><ele>714.5714285714286</ele><time>2026-04-13T09:32:07.97Z</time></trkpt><trkpt lat="44.1666215" lon="10.3643119"><ele>718.2857142857143</ele><time>2026-04-13T09:32:14.973Z</time></trkpt><trkpt lat="44.1666576" lon="10.3642295"><ele>722.0</ele><time>2026-04-13T09:32:20.956Z</time></trkpt><trkpt lat="44.1667071" lon="10.3641675"><ele>722.0</ele><time>2026-04-13T09:32:26.961Z</time></trkpt><trkpt lat="44.1667713" lon="10.3641795"><ele>722.0</ele><time>2026-04-13T09:32:33.956Z</time></trkpt><trkpt lat="44.1668195" lon="10.3642465"><ele>722.0</ele><time>2026-04-13T09:32:39.979Z</time></trkpt><trkpt lat="44.1668772" lon="10.364318"><ele>722.0</ele><time>2026-04-13T09:32:45.966Z</time></trkpt><trkpt lat="44.1669299" lon="10.3643756"><ele>722.0</ele><time>2026-04-13T09:32:51.962Z</time></trkpt><trkpt lat="44.1669894" lon="10.3644324"><ele>722.0</ele><time>2026-04-13T09:32:57.972Z</time></trkpt><trkpt lat="44.1670315" lon="10.3645204"><ele>722.0</ele><time>2026-04-13T09:33:03.962Z</time></trkpt><trkpt lat="44.1670787" lon="10.3645964"><ele>722.0</ele><time>2026-04-13T09:33:09.963Z</time></trkpt><trkpt lat="44.1671424" lon="10.3646201"><ele>722.0</ele><time>2026-04-13T09:33:17.887Z</time></trkpt><trkpt lat="44.1672089" lon="10.3646"><ele>722.0</ele><time>2026-04-13T09:33:22.893Z</time></trkpt><trkpt lat="44.1672754" lon="10.3645957"><ele>722.0</ele><time>2026-04-13T09:33:28.974Z</time></trkpt><trkpt lat="44.1673444" lon="10.3645592"><ele>722.0</ele><time>2026-04-13T09:33:34.975Z</time></trkpt><trkpt lat="44.1674038" lon="10.3645235"><ele>722.0</ele><time>2026-04-13T09:33:39.975Z</time></trkpt><trkpt lat="44.1674695" lon="10.3644789"><ele>722.0</ele><time>2026-04-13T09:33:45.964Z</time></trkpt><trkpt lat="44.1675294" lon="10.364433"><ele>724.2857142857143</ele><time>2026-04-13T09:33:50.957Z</time></trkpt><trkpt lat="44.167584" lon="10.3643681"><ele>726.5714285714286</ele><time>2026-04-13T09:33:55.971Z</time></trkpt><trkpt lat="44.1676427" lon="10.3643145"><ele>728.8571428571429</ele><time>2026-04-13T09:34:00.966Z</time></trkpt><trkpt lat="44.1676981" lon="10.3642587"><ele>731.1428571428571</ele><time>2026-04-13T09:34:06.965Z</time></trkpt><trkpt lat="44.1677559" lon="10.3641976"><ele>733.4285714285713</ele><time>2026-04-13T09:34:12.97Z</time></trkpt><trkpt lat="44.1678108" lon="10.3641483"><ele>735.7142857142857</ele><time>2026-04-13T09:34:18.965Z</time></trkpt><trkpt lat="44.1678602" lon="10.3640828"><ele>738.0</ele><time>2026-04-13T09:34:24.967Z</time></trkpt><trkpt lat="44.1679168" lon="10.3640269"><ele>738.0</ele><time>2026-04-13T09:34:30.969Z</time></trkpt><trkpt lat="44.1679732" lon="10.3639749"><ele>738.0</ele><time>2026-04-13T09:34:36.967Z</time></trkpt><trkpt lat="44.1680362" lon="10.3639357"><ele>738.0</ele><time>2026-04-13T09:34:42.97Z</time></trkpt><trkpt lat="44.1681008" lon="10.3639198"><ele>738.0</ele><time>2026-04-13T09:34:48.968Z</time></trkpt><trkpt lat="44.1681711" lon="10.363917"><ele>738.0</ele><time>2026-04-13T09:34:54.961Z</time></trkpt><trkpt lat="44.1682384" lon="10.3639105"><ele>738.0</ele><time>2026-04-13T09:35:00.966Z</time></trkpt><trkpt lat="44.1683026" lon="10.3638804"><ele>738.0</ele><time>2026-04-13T09:35:05.961Z</time></trkpt><trkpt lat="44.1683547" lon="10.3638301"><ele>740.7142857142857</ele><time>2026-04-13T09:35:10.96Z</time></trkpt><trkpt lat="44.1683793" lon="10.3637408"><ele>743.4285714285713</ele><time>2026-04-13T09:35:17.972Z</time></trkpt><trkpt lat="44.1683989" lon="10.363653"><ele>746.1428571428571</ele><time>2026-04-13T09:35:23.965Z</time></trkpt><trkpt lat="44.1684267" lon="10.3635738"><ele>748.8571428571429</ele><time>2026-04-13T09:35:29.966Z</time></trkpt><trkpt lat="44.1684609" lon="10.3634943"><ele>751.5714285714286</ele><time>2026-04-13T09:35:35.975Z</time></trkpt><trkpt lat="44.1685085" lon="10.363426"><ele>754.2857142857143</ele><time>2026-04-13T09:35:42.966Z</time></trkpt><trkpt lat="44.168577" lon="10.3633892"><ele>757.0</ele><time>2026-04-13T09:35:48.962Z</time></trkpt><trkpt lat="44.1686285" lon="10.3633249"><ele>757.0</ele><time>2026-04-13T09:35:54.962Z</time></trkpt><trkpt lat="44.1686281" lon="10.3632246"><ele>757.0</ele><time>2026-04-13T09:36:00.971Z</time></trkpt><trkpt lat="44.1686609" lon="10.3631433"><ele>757.0</ele><time>2026-04-13T09:36:05.974Z</time></trkpt><trkpt lat="44.1687128" lon="10.36308"><ele>757.0</ele><time>2026-04-13T09:36:10.965Z</time></trkpt><trkpt lat="44.1687535" lon="10.3629894"><ele>757.0</ele><time>2026-04-13T09:36:16.976Z</time></trkpt><trkpt lat="44.1687784" lon="10.3629064"><ele>757.0</ele><time>2026-04-13T09:36:21.974Z</time></trkpt><trkpt lat="44.1688335" lon="10.3628551"><ele>757.0</ele><time>2026-04-13T09:36:26.974Z</time></trkpt><trkpt lat="44.1688985" lon="10.3628441"><ele>757.2857142857143</ele><time>2026-04-13T09:36:31.966Z</time></trkpt><trkpt lat="44.1689674" lon="10.3628702"><ele>757.5714285714286</ele><time>2026-04-13T09:36:37.962Z</time></trkpt><trkpt lat="44.16903" lon="10.3628953"><ele>757.8571428571429</ele><time>2026-04-13T09:36:42.977Z</time></trkpt><trkpt lat="44.1690956" lon="10.3628743"><ele>758.1428571428571</ele><time>2026-04-13T09:36:47.98Z</time></trkpt><trkpt lat="44.1691516" lon="10.3628323"><ele>758.4285714285713</ele><time>2026-04-13T09:36:51.971Z</time></trkpt><trkpt lat="44.1692156" lon="10.3627904"><ele>758.7142857142857</ele><time>2026-04-13T09:36:56.974Z</time></trkpt><trkpt lat="44.1692753" lon="10.3627327"><ele>759.0</ele><time>2026-04-13T09:37:01.957Z</time></trkpt><trkpt lat="44.1693322" lon="10.3626701"><ele>760.8571428571429</ele><time>2026-04-13T09:37:06.963Z</time></trkpt><trkpt lat="44.1693911" lon="10.3626216"><ele>762.7142857142857</ele><time>2026-04-13T09:37:11.962Z</time></trkpt><trkpt lat="44.1694514" lon="10.362575"><ele>764.5714285714287</ele><time>2026-04-13T09:37:16.987Z</time></trkpt><trkpt lat="44.1695122" lon="10.3625236"><ele>766.4285714285714</ele><time>2026-04-13T09:37:22.975Z</time></trkpt><trkpt lat="44.1695725" lon="10.3624907"><ele>768.2857142857143</ele><time>2026-04-13T09:37:29.966Z</time></trkpt><trkpt lat="44.1696341" lon="10.3624719"><ele>770.1428571428572</ele><time>2026-04-13T09:37:33.977Z</time></trkpt><trkpt lat="44.169701" lon="10.3624795"><ele>772.0</ele><time>2026-04-13T09:37:40.973Z</time></trkpt><trkpt lat="44.1697666" lon="10.3625058"><ele>772.0000000000001</ele><time>2026-04-13T09:37:45.963Z</time></trkpt><trkpt lat="44.1698434" lon="10.3625328"><ele>772.0</ele><time>2026-04-13T09:37:50.971Z</time></trkpt><trkpt lat="44.1699098" lon="10.3625491"><ele>772.0</ele><time>2026-04-13T09:37:54.966Z</time></trkpt><trkpt lat="44.1699794" lon="10.3625552"><ele>772.0</ele><time>2026-04-13T09:37:58.956Z</time></trkpt><trkpt lat="44.1700481" lon="10.3625445"><ele>772.0</ele><time>2026-04-13T09:38:02.963Z</time></trkpt><trkpt lat="44.1701153" lon="10.3625165"><ele>772.0000000000001</ele><time>2026-04-13T09:38:06.969Z</time></trkpt><trkpt lat="44.1701745" lon="10.3624836"><ele>772.0</ele><time>2026-04-13T09:38:10.962Z</time></trkpt><trkpt lat="44.1702397" lon="10.3624449"><ele>772.5714285714287</ele><time>2026-04-13T09:38:15.97Z</time></trkpt><trkpt lat="44.1702998" lon="10.3623804"><ele>773.1428571428571</ele><time>2026-04-13T09:38:20.96Z</time></trkpt><trkpt lat="44.17034" lon="10.3622919"><ele>773.7142857142858</ele><time>2026-04-13T09:38:25.964Z</time></trkpt><trkpt lat="44.1703708" lon="10.362205"><ele>774.2857142857143</ele><time>2026-04-13T09:38:30.963Z</time></trkpt><trkpt lat="44.1704143" lon="10.3621281"><ele>774.8571428571429</ele><time>2026-04-13T09:38:35.961Z</time></trkpt><trkpt lat="44.1704645" lon="10.3620487"><ele>775.4285714285714</ele><time>2026-04-13T09:38:41.981Z</time></trkpt><trkpt lat="44.1704834" lon="10.3619595"><ele>776.0</ele><time>2026-04-13T09:38:46.963Z</time></trkpt><trkpt lat="44.1704844" lon="10.3618617"><ele>777.0</ele><time>2026-04-13T09:38:51.975Z</time></trkpt><trkpt lat="44.1704874" lon="10.3617632"><ele>778.0</ele><time>2026-04-13T09:38:56.957Z</time></trkpt><trkpt lat="44.1704857" lon="10.3616715"><ele>779.0</ele><time>2026-04-13T09:39:01.962Z</time></trkpt><trkpt lat="44.170484" lon="10.3615767"><ele>780.0</ele><time>2026-04-13T09:39:06.964Z</time></trkpt><trkpt lat="44.1704938" lon="10.3614782"><ele>781.0</ele><time>2026-04-13T09:39:11.97Z</time></trkpt><trkpt lat="44.170498" lon="10.3613897"><ele>782.0</ele><time>2026-04-13T09:39:16.968Z</time></trkpt><trkpt lat="44.1704946" lon="10.3613015"><ele>783.0</ele><time>2026-04-13T09:39:21.967Z</time></trkpt><trkpt lat="44.1704834" lon="10.3612079"><ele>783.8571428571428</ele><time>2026-04-13T09:39:26.999Z</time></trkpt><trkpt lat="44.1704533" lon="10.3611297"><ele>784.7142857142858</ele><time>2026-04-13T09:39:31.967Z</time></trkpt><trkpt lat="44.1704287" lon="10.3610452"><ele>785.5714285714286</ele><time>2026-04-13T09:39:36.967Z</time></trkpt><trkpt lat="44.1704337" lon="10.3609538"><ele>786.4285714285713</ele><time>2026-04-13T09:39:41.959Z</time></trkpt><trkpt lat="44.1704575" lon="10.3608644"><ele>787.2857142857142</ele><time>2026-04-13T09:39:46.972Z</time></trkpt><trkpt lat="44.1705037" lon="10.3608034"><ele>788.1428571428571</ele><time>2026-04-13T09:39:52.886Z</time></trkpt><trkpt lat="44.1705715" lon="10.3607607"><ele>789.0</ele><time>2026-04-13T09:39:58.962Z</time></trkpt><trkpt lat="44.1706435" lon="10.3606941"><ele>788.9999999999999</ele><time>2026-04-13T09:40:03.966Z</time></trkpt><trkpt lat="44.1706866" lon="10.3606217"><ele>789.0</ele><time>2026-04-13T09:40:06.949Z</time></trkpt><trkpt lat="44.1707239" lon="10.3605303"><ele>789.0</ele><time>2026-04-13T09:40:09.971Z</time></trkpt><trkpt lat="44.1707736" lon="10.3604365"><ele>789.0</ele><time>2026-04-13T09:40:12.958Z</time></trkpt><trkpt lat="44.1708264" lon="10.3603636"><ele>789.0</ele><time>2026-04-13T09:40:16.966Z</time></trkpt><trkpt lat="44.1708788" lon="10.360308"><ele>788.9999999999999</ele><time>2026-04-13T09:40:20.961Z</time></trkpt><trkpt lat="44.1709298" lon="10.360241"><ele>789.0</ele><time>2026-04-13T09:40:24.961Z</time></trkpt><trkpt lat="44.170969" lon="10.3601643"><ele>789.5714285714286</ele><time>2026-04-13T09:40:29.97Z</time></trkpt><trkpt lat="44.1710023" lon="10.3600807"><ele>790.1428571428571</ele><time>2026-04-13T09:40:34.963Z</time></trkpt><trkpt lat="44.1710264" lon="10.3599946"><ele>790.7142857142858</ele><time>2026-04-13T09:40:39.963Z</time></trkpt><trkpt lat="44.1710758" lon="10.3599282"><ele>791.2857142857142</ele><time>2026-04-13T09:40:44.983Z</time></trkpt><trkpt lat="44.17114" lon="10.3599125"><ele>791.8571428571429</ele><time>2026-04-13T09:40:50.972Z</time></trkpt><trkpt lat="44.1712118" lon="10.359934"><ele>792.4285714285714</ele><time>2026-04-13T09:40:56.975Z</time></trkpt><trkpt lat="44.1712765" lon="10.3599474"><ele>793.0</ele><time>2026-04-13T09:41:01.972Z</time></trkpt><trkpt lat="44.1713413" lon="10.3599504"><ele>792.9999999999999</ele><time>2026-04-13T09:41:05.981Z</time></trkpt><trkpt lat="44.1714083" lon="10.3599681"><ele>793.0</ele><time>2026-04-13T09:41:09.985Z</time></trkpt><trkpt lat="44.1714802" lon="10.3599823"><ele>793.0</ele><time>2026-04-13T09:41:15.975Z</time></trkpt><trkpt lat="44.1715448" lon="10.3599968"><ele>793.0</ele><time>2026-04-13T09:41:19.972Z</time></trkpt><trkpt lat="44.1716371" lon="10.3600032"><ele>792.9999999999999</ele><time>2026-04-13T09:41:25.978Z</time></trkpt><trkpt lat="44.1717162" lon="10.3600018"><ele>793.0</ele><time>2026-04-13T09:41:29.967Z</time></trkpt><trkpt lat="44.171786" lon="10.3600278"><ele>794.6666666666666</ele><time>2026-04-13T09:41:32.916Z</time></trkpt><trkpt lat="44.1718577" lon="10.3600546"><ele>796.3333333333333</ele><time>2026-04-13T09:41:34.959Z</time></trkpt><trkpt lat="44.171935" lon="10.3601029"><ele>798.0</ele><time>2026-04-13T09:41:36.975Z</time></trkpt><trkpt lat="44.1719994" lon="10.3601857"><ele>799.6666666666667</ele><time>2026-04-13T09:41:38.971Z</time></trkpt><trkpt lat="44.1720598" lon="10.3602722"><ele>801.3333333333334</ele><time>2026-04-13T09:41:40.931Z</time></trkpt><trkpt lat="44.1721169" lon="10.3603294"><ele>803.0</ele><time>2026-04-13T09:41:41.968Z</time></trkpt><trkpt lat="44.172171" lon="10.3603787"><ele>803.0</ele><time>2026-04-13T09:41:42.975Z</time></trkpt><trkpt lat="44.1722621" lon="10.360466"><ele>803.0</ele><time>2026-04-13T09:41:44.977Z</time></trkpt><trkpt lat="44.1723409" lon="10.3605423"><ele>803.0</ele><time>2026-04-13T09:41:46.97Z</time></trkpt><trkpt lat="44.1724382" lon="10.3605967"><ele>803.0</ele><time>2026-04-13T09:41:48.96Z</time></trkpt><trkpt lat="44.172535" lon="10.3606222"><ele>803.0</ele><time>2026-04-13T09:41:50.977Z</time></trkpt><trkpt lat="44.1726077" lon="10.3606515"><ele>802.4285714285713</ele><time>2026-04-13T09:41:52.972Z</time></trkpt><trkpt lat="44.1726934" lon="10.3606408"><ele>801.8571428571429</ele><time>2026-04-13T09:41:54.974Z</time></trkpt><trkpt lat="44.1727564" lon="10.3606592"><ele>801.2857142857142</ele><time>2026-04-13T09:41:56.973Z</time></trkpt><trkpt lat="44.1728205" lon="10.3606831"><ele>800.7142857142857</ele><time>2026-04-13T09:41:59.973Z</time></trkpt><trkpt lat="44.1728938" lon="10.360664"><ele>800.1428571428571</ele><time>2026-04-13T09:42:04.968Z</time></trkpt><trkpt lat="44.1729387" lon="10.3605984"><ele>799.5714285714286</ele><time>2026-04-13T09:42:08.974Z</time></trkpt><trkpt lat="44.1729764" lon="10.360524"><ele>799.0</ele><time>2026-04-13T09:42:12.965Z</time></trkpt><trkpt lat="44.1730392" lon="10.3604949"><ele>799.0</ele><time>2026-04-13T09:42:18.978Z</time></trkpt><trkpt lat="44.1731075" lon="10.360495"><ele>799.0</ele><time>2026-04-13T09:42:22.962Z</time></trkpt><trkpt lat="44.1731847" lon="10.3604989"><ele>799.0</ele><time>2026-04-13T09:42:27.963Z</time></trkpt><trkpt lat="44.1732526" lon="10.3604892"><ele>799.0</ele><time>2026-04-13T09:42:33.957Z</time></trkpt><trkpt lat="44.1733157" lon="10.3604712"><ele>799.0</ele><time>2026-04-13T09:42:37.976Z</time></trkpt><trkpt lat="44.1733912" lon="10.3604643"><ele>799.0</ele><time>2026-04-13T09:42:41.963Z</time></trkpt><trkpt lat="44.1734543" lon="10.3604669"><ele>799.0</ele><time>2026-04-13T09:42:46.979Z</time></trkpt><trkpt lat="44.1735353" lon="10.3604654"><ele>799.0</ele><time>2026-04-13T09:42:50.984Z</time></trkpt><trkpt lat="44.1736066" lon="10.3604347"><ele>799.0</ele><time>2026-04-13T09:42:54.975Z</time></trkpt><trkpt lat="44.1736707" lon="10.3604193"><ele>799.0</ele><time>2026-04-13T09:42:58.973Z</time></trkpt><trkpt lat="44.1737396" lon="10.3604269"><ele>799.0</ele><time>2026-04-13T09:43:03.97Z</time></trkpt><trkpt lat="44.1738021" lon="10.360444"><ele>799.0</ele><time>2026-04-13T09:43:08.978Z</time></trkpt><trkpt lat="44.1738732" lon="10.3604459"><ele>799.0</ele><time>2026-04-13T09:43:13.979Z</time></trkpt><trkpt lat="44.1739472" lon="10.3604651"><ele>799.0</ele><time>2026-04-13T09:43:19.973Z</time></trkpt><trkpt lat="44.1740186" lon="10.3604936"><ele>799.7142857142858</ele><time>2026-04-13T09:43:24.995Z</time></trkpt><trkpt lat="44.1740875" lon="10.3605365"><ele>800.4285714285713</ele><time>2026-04-13T09:43:28.966Z</time></trkpt><trkpt lat="44.1741626" lon="10.3605565"><ele>801.1428571428571</ele><time>2026-04-13T09:43:32.995Z</time></trkpt><trkpt lat="44.1742423" lon="10.3605775"><ele>801.8571428571429</ele><time>2026-04-13T09:43:36.961Z</time></trkpt><trkpt lat="44.1743195" lon="10.3605726"><ele>802.5714285714287</ele><time>2026-04-13T09:43:40.984Z</time></trkpt><trkpt lat="44.1743902" lon="10.3605501"><ele>803.2857142857142</ele><time>2026-04-13T09:43:44.975Z</time></trkpt><trkpt lat="44.1744544" lon="10.3605458"><ele>804.0</ele><time>2026-04-13T09:43:48.968Z</time></trkpt><trkpt lat="44.1745301" lon="10.360528"><ele>804.2857142857142</ele><time>2026-04-13T09:43:53.998Z</time></trkpt><trkpt lat="44.1745989" lon="10.3604852"><ele>804.5714285714287</ele><time>2026-04-13T09:43:58.96Z</time></trkpt><trkpt lat="44.1746673" lon="10.3604677"><ele>804.8571428571429</ele><time>2026-04-13T09:44:03.961Z</time></trkpt><trkpt lat="44.174738" lon="10.360463"><ele>805.1428571428571</ele><time>2026-04-13T09:44:08.975Z</time></trkpt><trkpt lat="44.1748054" lon="10.360501"><ele>805.4285714285713</ele><time>2026-04-13T09:44:13.97Z</time></trkpt><trkpt lat="44.1748802" lon="10.3605326"><ele>805.7142857142858</ele><time>2026-04-13T09:44:19.977Z</time></trkpt><trkpt lat="44.1749436" lon="10.3605642"><ele>806.0</ele><time>2026-04-13T09:44:23.969Z</time></trkpt><trkpt lat="44.1750052" lon="10.3605951"><ele>806.1428571428572</ele><time>2026-04-13T09:44:27.983Z</time></trkpt><trkpt lat="44.1750692" lon="10.3606427"><ele>806.2857142857142</ele><time>2026-04-13T09:44:31.967Z</time></trkpt><trkpt lat="44.1751256" lon="10.3607163"><ele>806.4285714285714</ele><time>2026-04-13T09:44:35.974Z</time></trkpt><trkpt lat="44.1751824" lon="10.3607876"><ele>806.5714285714287</ele><time>2026-04-13T09:44:39.87Z</time></trkpt><trkpt lat="44.1752413" lon="10.3608422"><ele>806.7142857142858</ele><time>2026-04-13T09:44:43.83Z</time></trkpt><trkpt lat="44.1753009" lon="10.360884"><ele>806.8571428571429</ele><time>2026-04-13T09:44:47.974Z</time></trkpt><trkpt lat="44.1753614" lon="10.3609393"><ele>807.0</ele><time>2026-04-13T09:44:52.964Z</time></trkpt><trkpt lat="44.1754121" lon="10.3610157"><ele>807.0000000000001</ele><time>2026-04-13T09:44:57.972Z</time></trkpt><trkpt lat="44.175488" lon="10.3610712"><ele>807.0</ele><time>2026-04-13T09:45:01.959Z</time></trkpt><trkpt lat="44.1755535" lon="10.3610782"><ele>807.0</ele><time>2026-04-13T09:45:04.966Z</time></trkpt><trkpt lat="44.1756343" lon="10.361106"><ele>807.0</ele><time>2026-04-13T09:45:07.984Z</time></trkpt><trkpt lat="44.1756785" lon="10.3611927"><ele>807.0</ele><time>2026-04-13T09:45:11.97Z</time></trkpt><trkpt lat="44.1757007" lon="10.3612834"><ele>807.0000000000001</ele><time>2026-04-13T09:45:15.968Z</time></trkpt><trkpt lat="44.1757329" lon="10.3613693"><ele>807.0</ele><time>2026-04-13T09:45:19.98Z</time></trkpt><trkpt lat="44.175763" lon="10.361458"><ele>808.7142857142858</ele><time>2026-04-13T09:45:23.964Z</time></trkpt><trkpt lat="44.1758074" lon="10.3615358"><ele>810.4285714285714</ele><time>2026-04-13T09:45:27.98Z</time></trkpt><trkpt lat="44.1758469" lon="10.361625"><ele>812.1428571428571</ele><time>2026-04-13T09:45:32.953Z</time></trkpt><trkpt lat="44.1758616" lon="10.3617133"><ele>813.8571428571429</ele><time>2026-04-13T09:45:36.968Z</time></trkpt><trkpt lat="44.1758956" lon="10.3617991"><ele>815.5714285714286</ele><time>2026-04-13T09:45:40.956Z</time></trkpt><trkpt lat="44.1759395" lon="10.3618898"><ele>817.2857142857143</ele><time>2026-04-13T09:45:44.981Z</time></trkpt><trkpt lat="44.1759625" lon="10.3619844"><ele>819.0</ele><time>2026-04-13T09:45:48.977Z</time></trkpt><trkpt lat="44.17594" lon="10.3620874"><ele>819.0</ele><time>2026-04-13T09:45:51.987Z</time></trkpt><trkpt lat="44.1758769" lon="10.3621529"><ele>819.0</ele><time>2026-04-13T09:45:54.974Z</time></trkpt><trkpt lat="44.1758109" lon="10.3621452"><ele>819.0</ele><time>2026-04-13T09:46:35.969Z</time></trkpt><trkpt lat="44.1757477" lon="10.3621367"><ele>819.0</ele><time>2026-04-13T09:46:39.971Z</time></trkpt><trkpt lat="44.1756813" lon="10.3621421"><ele>819.0</ele><time>2026-04-13T09:46:41.98Z</time></trkpt><trkpt lat="44.1756132" lon="10.3621683"><ele>819.0</ele><time>2026-04-13T09:46:43.966Z</time></trkpt><trkpt lat="44.17555" lon="10.3621841"><ele>819.0</ele><time>2026-04-13T09:46:46.973Z</time></trkpt><trkpt lat="44.1754788" lon="10.3622364"><ele>816.8000000000001</ele><time>2026-04-13T09:46:50.983Z</time></trkpt><trkpt lat="44.1754249" lon="10.3623271"><ele>814.6</ele><time>2026-04-13T09:46:53.967Z</time></trkpt><trkpt lat="44.175336" lon="10.3623872"><ele>812.4</ele><time>2026-04-13T09:46:56.971Z</time></trkpt><trkpt lat="44.1752421" lon="10.3624356"><ele>810.2</ele><time>2026-04-13T09:46:59.975Z</time></trkpt><trkpt lat="44.1751647" lon="10.3624931"><ele>808.0</ele><time>2026-04-13T09:47:01.969Z</time></trkpt><trkpt lat="44.1750382" lon="10.3625619"><ele>808.0</ele><time>2026-04-13T09:47:03.981Z</time></trkpt><trkpt lat="44.1749176" lon="10.362609"><ele>808.0</ele><time>2026-04-13T09:47:05.96Z</time></trkpt><trkpt lat="44.17482" lon="10.3625849"><ele>808.0</ele><time>2026-04-13T09:47:07.957Z</time></trkpt><trkpt lat="44.1747174" lon="10.36258"><ele>808.0</ele><time>2026-04-13T09:47:09.971Z</time></trkpt><trkpt lat="44.1746539" lon="10.3625871"><ele>808.0</ele><time>2026-04-13T09:47:10.971Z</time></trkpt><trkpt lat="44.1745537" lon="10.3625921"><ele>805.5999999999999</ele><time>2026-04-13T09:47:13.975Z</time></trkpt><trkpt lat="44.1744656" lon="10.3626736"><ele>803.1999999999999</ele><time>2026-04-13T09:47:15.984Z</time></trkpt><trkpt lat="44.1743985" lon="10.3627689"><ele>800.8</ele><time>2026-04-13T09:47:17.955Z</time></trkpt><trkpt lat="44.1743493" lon="10.3628753"><ele>798.4</ele><time>2026-04-13T09:47:19.96Z</time></trkpt><trkpt lat="44.1742764" lon="10.362876"><ele>796.0</ele><time>2026-04-13T09:47:21.957Z</time></trkpt><trkpt lat="44.1741853" lon="10.3628162"><ele>795.9999999999999</ele><time>2026-04-13T09:47:24.959Z</time></trkpt><trkpt lat="44.1740981" lon="10.3627829"><ele>796.0</ele><time>2026-04-13T09:47:27.977Z</time></trkpt><trkpt lat="44.1740074" lon="10.3627538"><ele>796.0</ele><time>2026-04-13T09:47:30.956Z</time></trkpt><trkpt lat="44.1739421" lon="10.3627604"><ele>796.0</ele><time>2026-04-13T09:47:32.954Z</time></trkpt><trkpt lat="44.173866" lon="10.3628114"><ele>795.9999999999999</ele><time>2026-04-13T09:47:34.96Z</time></trkpt><trkpt lat="44.1737985" lon="10.3629103"><ele>796.0</ele><time>2026-04-13T09:47:36.956Z</time></trkpt><trkpt lat="44.173717" lon="10.3630162"><ele>795.1999999999999</ele><time>2026-04-13T09:47:38.969Z</time></trkpt><trkpt lat="44.1736606" lon="10.3631305"><ele>794.4</ele><time>2026-04-13T09:47:40.969Z</time></trkpt><trkpt lat="44.1736463" lon="10.3632787"><ele>793.6</ele><time>2026-04-13T09:47:42.96Z</time></trkpt><trkpt lat="44.1736098" lon="10.3634327"><ele>792.8</ele><time>2026-04-13T09:47:44.98Z</time></trkpt><trkpt lat="44.1735538" lon="10.36356"><ele>792.0</ele><time>2026-04-13T09:47:46.97Z</time></trkpt><trkpt lat="44.1734898" lon="10.3636178"><ele>792.0</ele><time>2026-04-13T09:47:48.968Z</time></trkpt><trkpt lat="44.1734128" lon="10.3636395"><ele>792.0</ele><time>2026-04-13T09:47:51.972Z</time></trkpt><trkpt lat="44.1733394" lon="10.3636467"><ele>792.0</ele><time>2026-04-13T09:47:55.987Z</time></trkpt><trkpt lat="44.1732816" lon="10.3637"><ele>792.0</ele><time>2026-04-13T09:47:58.968Z</time></trkpt><trkpt lat="44.1732282" lon="10.3637942"><ele>792.0</ele><time>2026-04-13T09:48:01.963Z</time></trkpt><trkpt lat="44.1732028" lon="10.3638879"><ele>792.0</ele><time>2026-04-13T09:48:03.966Z</time></trkpt><trkpt lat="44.1731817" lon="10.3640011"><ele>792.2857142857143</ele><time>2026-04-13T09:48:06.969Z</time></trkpt><trkpt lat="44.1731865" lon="10.3641009"><ele>792.5714285714286</ele><time>2026-04-13T09:48:09.962Z</time></trkpt><trkpt lat="44.173188" lon="10.3641922"><ele>792.8571428571429</ele><time>2026-04-13T09:48:12.96Z</time></trkpt><trkpt lat="44.1731909" lon="10.3642885"><ele>793.1428571428571</ele><time>2026-04-13T09:48:15.969Z</time></trkpt><trkpt lat="44.1732144" lon="10.3643786"><ele>793.4285714285713</ele><time>2026-04-13T09:48:18.962Z</time></trkpt><trkpt lat="44.1732549" lon="10.3644622"><ele>793.7142857142857</ele><time>2026-04-13T09:48:21.964Z</time></trkpt><trkpt lat="44.1733073" lon="10.3645331"><ele>794.0</ele><time>2026-04-13T09:48:25.964Z</time></trkpt><trkpt lat="44.1733591" lon="10.364591"><ele>794.0</ele><time>2026-04-13T09:48:29.971Z</time></trkpt><trkpt lat="44.173427" lon="10.3646525"><ele>794.0</ele><time>2026-04-13T09:48:33.982Z</time></trkpt><trkpt lat="44.1734886" lon="10.3647095"><ele>794.0</ele><time>2026-04-13T09:48:37.985Z</time></trkpt><trkpt lat="44.173555" lon="10.3647603"><ele>794.0</ele><time>2026-04-13T09:48:40.965Z</time></trkpt><trkpt lat="44.1736076" lon="10.3648107"><ele>794.0</ele><time>2026-04-13T09:48:43.961Z</time></trkpt><trkpt lat="44.1736699" lon="10.3648724"><ele>794.0</ele><time>2026-04-13T09:48:47.956Z</time></trkpt><trkpt lat="44.1737318" lon="10.3649049"><ele>794.0</ele><time>2026-04-13T09:48:51.979Z</time></trkpt><trkpt lat="44.1738098" lon="10.3649279"><ele>794.2857142857142</ele><time>2026-04-13T09:48:55.971Z</time></trkpt><trkpt lat="44.1738743" lon="10.364938"><ele>794.5714285714286</ele><time>2026-04-13T09:48:58.981Z</time></trkpt><trkpt lat="44.1739474" lon="10.3649448"><ele>794.8571428571429</ele><time>2026-04-13T09:49:01.972Z</time></trkpt><trkpt lat="44.1740309" lon="10.3649192"><ele>795.1428571428571</ele><time>2026-04-13T09:49:04.984Z</time></trkpt><trkpt lat="44.1741085" lon="10.3648889"><ele>795.4285714285714</ele><time>2026-04-13T09:49:07.969Z</time></trkpt><trkpt lat="44.1741806" lon="10.3648473"><ele>795.7142857142857</ele><time>2026-04-13T09:49:10.968Z</time></trkpt><trkpt lat="44.1742406" lon="10.3648055"><ele>796.0</ele><time>2026-04-13T09:49:13.96Z</time></trkpt><trkpt lat="44.1743126" lon="10.3647687"><ele>795.9999999999999</ele><time>2026-04-13T09:49:17.957Z</time></trkpt><trkpt lat="44.1743783" lon="10.3647366"><ele>796.0</ele><time>2026-04-13T09:49:21.962Z</time></trkpt><trkpt lat="44.1744455" lon="10.3647028"><ele>796.0</ele><time>2026-04-13T09:49:26.958Z</time></trkpt><trkpt lat="44.1745098" lon="10.3647357"><ele>796.0</ele><time>2026-04-13T09:49:30.965Z</time></trkpt><trkpt lat="44.1745262" lon="10.3648338"><ele>796.0</ele><time>2026-04-13T09:49:35.966Z</time></trkpt><trkpt lat="44.1745591" lon="10.3649276"><ele>795.9999999999999</ele><time>2026-04-13T09:49:40.962Z</time></trkpt><trkpt lat="44.1746091" lon="10.364995"><ele>796.0</ele><time>2026-04-13T09:49:44.96Z</time></trkpt><trkpt lat="44.1746632" lon="10.3650574"><ele>795.9999999999999</ele><time>2026-04-13T09:49:48.968Z</time></trkpt><trkpt lat="44.1747234" lon="10.3651201"><ele>796.0</ele><time>2026-04-13T09:49:53.962Z</time></trkpt><trkpt lat="44.1747811" lon="10.3651789"><ele>796.0</ele><time>2026-04-13T09:49:57.97Z</time></trkpt><trkpt lat="44.1748404" lon="10.3652133"><ele>796.0</ele><time>2026-04-13T09:50:01.971Z</time></trkpt><trkpt lat="44.174912" lon="10.365252"><ele>796.0</ele><time>2026-04-13T09:50:06.957Z</time></trkpt><trkpt lat="44.1749693" lon="10.3653133"><ele>795.9999999999999</ele><time>2026-04-13T09:50:10.972Z</time></trkpt><trkpt lat="44.1750188" lon="10.3653744"><ele>796.0</ele><time>2026-04-13T09:50:14.956Z</time></trkpt><trkpt lat="44.1750781" lon="10.3654193"><ele>796.7142857142857</ele><time>2026-04-13T09:50:18.959Z</time></trkpt><trkpt lat="44.1751499" lon="10.3654623"><ele>797.4285714285714</ele><time>2026-04-13T09:50:23.963Z</time></trkpt><trkpt lat="44.1752156" lon="10.3654929"><ele>798.1428571428571</ele><time>2026-04-13T09:50:27.977Z</time></trkpt><trkpt lat="44.1752746" lon="10.3655261"><ele>798.8571428571429</ele><time>2026-04-13T09:50:31.963Z</time></trkpt><trkpt lat="44.175336" lon="10.3655653"><ele>799.5714285714286</ele><time>2026-04-13T09:50:35.964Z</time></trkpt><trkpt lat="44.175407" lon="10.3656061"><ele>800.2857142857142</ele><time>2026-04-13T09:50:40.965Z</time></trkpt><trkpt lat="44.175477" lon="10.3656544"><ele>801.0</ele><time>2026-04-13T09:50:44.962Z</time></trkpt><trkpt lat="44.1755397" lon="10.3656883"><ele>801.0</ele><time>2026-04-13T09:50:48.976Z</time></trkpt><trkpt lat="44.1756153" lon="10.365698"><ele>801.0</ele><time>2026-04-13T09:50:54.965Z</time></trkpt><trkpt lat="44.1756864" lon="10.3656969"><ele>801.0</ele><time>2026-04-13T09:50:59.979Z</time></trkpt><trkpt lat="44.1757444" lon="10.3656517"><ele>801.0</ele><time>2026-04-13T09:51:03.979Z</time></trkpt><trkpt lat="44.1757926" lon="10.3655949"><ele>801.0</ele><time>2026-04-13T09:51:07.969Z</time></trkpt><trkpt lat="44.1758632" lon="10.3655929"><ele>801.0</ele><time>2026-04-13T09:51:11.967Z</time></trkpt><trkpt lat="44.1759261" lon="10.3656031"><ele>801.0</ele><time>2026-04-13T09:51:15.978Z</time></trkpt><trkpt lat="44.1759969" lon="10.3656101"><ele>803.5714285714286</ele><time>2026-04-13T09:51:20.977Z</time></trkpt><trkpt lat="44.1760681" lon="10.3656053"><ele>806.1428571428571</ele><time>2026-04-13T09:51:25.979Z</time></trkpt><trkpt lat="44.1761441" lon="10.3655931"><ele>808.7142857142858</ele><time>2026-04-13T09:51:30.987Z</time></trkpt><trkpt lat="44.1762165" lon="10.3655701"><ele>811.2857142857142</ele><time>2026-04-13T09:51:35.979Z</time></trkpt><trkpt lat="44.1762859" lon="10.3655639"><ele>813.8571428571429</ele><time>2026-04-13T09:51:39.969Z</time></trkpt><trkpt lat="44.176353" lon="10.3656165"><ele>816.4285714285714</ele><time>2026-04-13T09:51:44.961Z</time></trkpt><trkpt lat="44.1763535" lon="10.3657115"><ele>819.0</ele><time>2026-04-13T09:51:49.963Z</time></trkpt><trkpt lat="44.1763497" lon="10.3658045"><ele>819.0</ele><time>2026-04-13T09:51:54.97Z</time></trkpt><trkpt lat="44.1763518" lon="10.3658937"><ele>819.0</ele><time>2026-04-13T09:51:58.97Z</time></trkpt><trkpt lat="44.176347" lon="10.3659824"><ele>819.0</ele><time>2026-04-13T09:52:02.966Z</time></trkpt><trkpt lat="44.176336" lon="10.3660952"><ele>819.0</ele><time>2026-04-13T09:52:07.975Z</time></trkpt><trkpt lat="44.1763326" lon="10.3662043"><ele>819.0</ele><time>2026-04-13T09:52:12.958Z</time></trkpt><trkpt lat="44.1763509" lon="10.366314"><ele>819.0</ele><time>2026-04-13T09:52:16.979Z</time></trkpt><trkpt lat="44.1763888" lon="10.3663984"><ele>819.0</ele><time>2026-04-13T09:52:20.976Z</time></trkpt><trkpt lat="44.1764022" lon="10.3664908"><ele>819.0</ele><time>2026-04-13T09:52:25.966Z</time></trkpt><trkpt lat="44.1764364" lon="10.3665924"><ele>819.0</ele><time>2026-04-13T09:52:30.962Z</time></trkpt><trkpt lat="44.1764834" lon="10.3667078"><ele>819.0</ele><time>2026-04-13T09:52:33.974Z</time></trkpt><trkpt lat="44.1765155" lon="10.3667985"><ele>819.0</ele><time>2026-04-13T09:52:35.966Z</time></trkpt><trkpt lat="44.1765474" lon="10.3668911"><ele>819.0</ele><time>2026-04-13T09:52:37.976Z</time></trkpt><trkpt lat="44.1765673" lon="10.3670059"><ele>819.0</ele><time>2026-04-13T09:52:39.967Z</time></trkpt><trkpt lat="44.1765767" lon="10.3671068"><ele>819.3333333333334</ele><time>2026-04-13T09:52:41.971Z</time></trkpt><trkpt lat="44.1765776" lon="10.3672178"><ele>819.6666666666667</ele><time>2026-04-13T09:52:43.979Z</time></trkpt><trkpt lat="44.1765732" lon="10.3673162"><ele>820.0</ele><time>2026-04-13T09:52:45.983Z</time></trkpt><trkpt lat="44.176596" lon="10.367419"><ele>820.3333333333334</ele><time>2026-04-13T09:52:47.965Z</time></trkpt><trkpt lat="44.1766329" lon="10.3675261"><ele>820.6666666666667</ele><time>2026-04-13T09:52:49.995Z</time></trkpt><trkpt lat="44.1766661" lon="10.3676308"><ele>821.0</ele><time>2026-04-13T09:52:51.965Z</time></trkpt><trkpt lat="44.1767034" lon="10.3677209"><ele>821.0000000000001</ele><time>2026-04-13T09:52:54.966Z</time></trkpt><trkpt lat="44.1767801" lon="10.3677941"><ele>821.0</ele><time>2026-04-13T09:52:57.975Z</time></trkpt><trkpt lat="44.1768184" lon="10.3678689"><ele>821.0</ele><time>2026-04-13T09:52:59.976Z</time></trkpt><trkpt lat="44.1768568" lon="10.3679696"><ele>821.0</ele><time>2026-04-13T09:53:01.96Z</time></trkpt><trkpt lat="44.1769157" lon="10.3680433"><ele>821.0000000000001</ele><time>2026-04-13T09:53:03.97Z</time></trkpt><trkpt lat="44.1769974" lon="10.3680911"><ele>821.0</ele><time>2026-04-13T09:53:05.964Z</time></trkpt><trkpt lat="44.1770755" lon="10.3680764"><ele>820.4285714285714</ele><time>2026-04-13T09:53:06.961Z</time></trkpt><trkpt lat="44.1771349" lon="10.3681123"><ele>819.8571428571429</ele><time>2026-04-13T09:53:08.974Z</time></trkpt><trkpt lat="44.1771581" lon="10.3682138"><ele>819.2857142857142</ele><time>2026-04-13T09:53:11.964Z</time></trkpt><trkpt lat="44.1771002" lon="10.3682648"><ele>818.7142857142858</ele><time>2026-04-13T09:53:16.966Z</time></trkpt><trkpt lat="44.1770266" lon="10.3682874"><ele>818.1428571428571</ele><time>2026-04-13T09:53:21.971Z</time></trkpt><trkpt lat="44.1769545" lon="10.368317"><ele>817.5714285714286</ele><time>2026-04-13T09:53:26.967Z</time></trkpt><trkpt lat="44.1768902" lon="10.3683306"><ele>817.0</ele><time>2026-04-13T09:53:30.967Z</time></trkpt><trkpt lat="44.176817" lon="10.3683423"><ele>816.9999999999999</ele><time>2026-04-13T09:53:35.956Z</time></trkpt><trkpt lat="44.1767538" lon="10.3683708"><ele>817.0</ele><time>2026-04-13T09:53:39.959Z</time></trkpt><trkpt lat="44.1766932" lon="10.3683958"><ele>817.0</ele><time>2026-04-13T09:53:43.964Z</time></trkpt><trkpt lat="44.176626" lon="10.3684053"><ele>817.0</ele><time>2026-04-13T09:53:48.973Z</time></trkpt><trkpt lat="44.1765681" lon="10.3684466"><ele>817.0</ele><time>2026-04-13T09:53:52.977Z</time></trkpt><trkpt lat="44.1765117" lon="10.3684935"><ele>816.9999999999999</ele><time>2026-04-13T09:53:56.989Z</time></trkpt><trkpt lat="44.176454" lon="10.3685524"><ele>817.0</ele><time>2026-04-13T09:54:00.958Z</time></trkpt><trkpt lat="44.1764007" lon="10.3686168"><ele>816.1428571428571</ele><time>2026-04-13T09:54:04.977Z</time></trkpt><trkpt lat="44.1763755" lon="10.3687017"><ele>815.2857142857142</ele><time>2026-04-13T09:54:09.969Z</time></trkpt><trkpt lat="44.1763834" lon="10.3687888"><ele>814.4285714285713</ele><time>2026-04-13T09:54:14.966Z</time></trkpt><trkpt lat="44.1764038" lon="10.368876"><ele>813.5714285714286</ele><time>2026-04-13T09:54:20.959Z</time></trkpt><trkpt lat="44.1764485" lon="10.3689477"><ele>812.7142857142858</ele><time>2026-04-13T09:54:27.969Z</time></trkpt><trkpt lat="44.1765093" lon="10.3690031"><ele>811.8571428571428</ele><time>2026-04-13T09:54:33.972Z</time></trkpt><trkpt lat="44.1765772" lon="10.3690503"><ele>811.0</ele><time>2026-04-13T09:54:39.987Z</time></trkpt><trkpt lat="44.1766442" lon="10.3690581"><ele>812.8571428571428</ele><time>2026-04-13T09:54:45.965Z</time></trkpt><trkpt lat="44.1767106" lon="10.3690729"><ele>814.7142857142858</ele><time>2026-04-13T09:54:51.968Z</time></trkpt><trkpt lat="44.1767848" lon="10.3690824"><ele>816.5714285714286</ele><time>2026-04-13T09:54:57.978Z</time></trkpt><trkpt lat="44.1768547" lon="10.3690986"><ele>818.4285714285713</ele><time>2026-04-13T09:55:02.956Z</time></trkpt><trkpt lat="44.1769144" lon="10.3691471"><ele>820.2857142857142</ele><time>2026-04-13T09:55:07.961Z</time></trkpt><trkpt lat="44.1769453" lon="10.3692273"><ele>822.1428571428571</ele><time>2026-04-13T09:55:12.961Z</time></trkpt><trkpt lat="44.177011" lon="10.3692617"><ele>824.0</ele><time>2026-04-13T09:55:18.964Z</time></trkpt><trkpt lat="44.1770857" lon="10.3692676"><ele>823.9999999999999</ele><time>2026-04-13T09:55:24.972Z</time></trkpt><trkpt lat="44.1771516" lon="10.369284"><ele>824.0</ele><time>2026-04-13T09:55:30.969Z</time></trkpt><trkpt lat="44.17722" lon="10.3692927"><ele>824.0</ele><time>2026-04-13T09:55:35.975Z</time></trkpt><trkpt lat="44.1772941" lon="10.3692895"><ele>824.0</ele><time>2026-04-13T09:55:41.964Z</time></trkpt><trkpt lat="44.1773681" lon="10.3692851"><ele>824.0</ele><time>2026-04-13T09:55:46.967Z</time></trkpt><trkpt lat="44.1774408" lon="10.3693153"><ele>823.9999999999999</ele><time>2026-04-13T09:55:51.962Z</time></trkpt><trkpt lat="44.1775105" lon="10.3693559"><ele>824.0</ele><time>2026-04-13T09:55:56.966Z</time></trkpt><trkpt lat="44.1775707" lon="10.3694022"><ele>825.4285714285713</ele><time>2026-04-13T09:56:00.968Z</time></trkpt><trkpt lat="44.1776315" lon="10.3694464"><ele>826.8571428571429</ele><time>2026-04-13T09:56:04.957Z</time></trkpt><trkpt lat="44.1777" lon="10.3694603"><ele>828.2857142857142</ele><time>2026-04-13T09:56:08.974Z</time></trkpt><trkpt lat="44.17777" lon="10.3694495"><ele>829.7142857142857</ele><time>2026-04-13T09:56:12.975Z</time></trkpt><trkpt lat="44.1778371" lon="10.3694434"><ele>831.1428571428571</ele><time>2026-04-13T09:56:16.966Z</time></trkpt><trkpt lat="44.1779071" lon="10.3694367"><ele>832.5714285714286</ele><time>2026-04-13T09:56:21.974Z</time></trkpt><trkpt lat="44.1779748" lon="10.3694294"><ele>834.0</ele><time>2026-04-13T09:56:25.981Z</time></trkpt><trkpt lat="44.1780425" lon="10.3694221"><ele>834.0</ele><time>2026-04-13T09:56:29.969Z</time></trkpt><trkpt lat="44.1781141" lon="10.3694294"><ele>834.0</ele><time>2026-04-13T09:56:33.975Z</time></trkpt><trkpt lat="44.1781849" lon="10.3694299"><ele>834.0</ele><time>2026-04-13T09:56:37.988Z</time></trkpt><trkpt lat="44.1782643" lon="10.3694335"><ele>834.0</ele><time>2026-04-13T09:56:42.968Z</time></trkpt><trkpt lat="44.178331" lon="10.3694338"><ele>834.0</ele><time>2026-04-13T09:56:46.976Z</time></trkpt><trkpt lat="44.1783945" lon="10.3694416"><ele>834.0</ele><time>2026-04-13T09:56:50.963Z</time></trkpt><trkpt lat="44.1784726" lon="10.3694445"><ele>834.0</ele><time>2026-04-13T09:56:54.969Z</time></trkpt><trkpt lat="44.1785473" lon="10.369451"><ele>835.2857142857143</ele><time>2026-04-13T09:56:58.97Z</time></trkpt><trkpt lat="44.1786124" lon="10.3694646"><ele>836.5714285714286</ele><time>2026-04-13T09:57:02.987Z</time></trkpt><trkpt lat="44.178677" lon="10.3695209"><ele>837.8571428571429</ele><time>2026-04-13T09:57:06.978Z</time></trkpt><trkpt lat="44.1787328" lon="10.3695835"><ele>839.1428571428571</ele><time>2026-04-13T09:57:10.977Z</time></trkpt><trkpt lat="44.1787833" lon="10.3696489"><ele>840.4285714285713</ele><time>2026-04-13T09:57:14.975Z</time></trkpt><trkpt lat="44.1788396" lon="10.3697168"><ele>841.7142857142857</ele><time>2026-04-13T09:57:19.966Z</time></trkpt><trkpt lat="44.1789039" lon="10.3697748"><ele>843.0</ele><time>2026-04-13T09:57:23.969Z</time></trkpt><trkpt lat="44.1789662" lon="10.3698187"><ele>843.8333333333334</ele><time>2026-04-13T09:57:27.978Z</time></trkpt><trkpt lat="44.179041" lon="10.3698516"><ele>844.6666666666667</ele><time>2026-04-13T09:57:31.975Z</time></trkpt><trkpt lat="44.1791099" lon="10.3698691"><ele>845.5</ele><time>2026-04-13T09:57:35.968Z</time></trkpt><trkpt lat="44.1791715" lon="10.3699014"><ele>846.3333333333334</ele><time>2026-04-13T09:57:39.961Z</time></trkpt><trkpt lat="44.1792494" lon="10.3699241"><ele>847.1666666666667</ele><time>2026-04-13T09:57:43.979Z</time></trkpt><trkpt lat="44.1793358" lon="10.3699639"><ele>848.0</ele><time>2026-04-13T09:57:46.982Z</time></trkpt><trkpt lat="44.1794368" lon="10.3700108"><ele>848.0</ele><time>2026-04-13T09:57:48.972Z</time></trkpt><trkpt lat="44.1795005" lon="10.3700448"><ele>848.0</ele><time>2026-04-13T09:57:49.967Z</time></trkpt><trkpt lat="44.1795592" lon="10.3700955"><ele>848.0</ele><time>2026-04-13T09:57:50.985Z</time></trkpt><trkpt lat="44.1796636" lon="10.3701613"><ele>848.0</ele><time>2026-04-13T09:57:52.971Z</time></trkpt><trkpt lat="44.1798013" lon="10.3701795"><ele>848.0</ele><time>2026-04-13T09:57:54.966Z</time></trkpt><trkpt lat="44.1798911" lon="10.3701756"><ele>848.3333333333334</ele><time>2026-04-13T09:57:55.974Z</time></trkpt><trkpt lat="44.1799702" lon="10.3701791"><ele>848.6666666666667</ele><time>2026-04-13T09:57:56.97Z</time></trkpt><trkpt lat="44.1800408" lon="10.3702255"><ele>849.0</ele><time>2026-04-13T09:57:57.974Z</time></trkpt><trkpt lat="44.1801103" lon="10.3702569"><ele>849.3333333333333</ele><time>2026-04-13T09:57:58.963Z</time></trkpt><trkpt lat="44.1801832" lon="10.3702784"><ele>849.6666666666666</ele><time>2026-04-13T09:57:59.976Z</time></trkpt><trkpt lat="44.1802613" lon="10.3702741"><ele>850.0</ele><time>2026-04-13T09:58:00.979Z</time></trkpt><trkpt lat="44.180334" lon="10.370251"><ele>849.9999999999999</ele><time>2026-04-13T09:58:01.961Z</time></trkpt><trkpt lat="44.1804409" lon="10.3702405"><ele>850.0</ele><time>2026-04-13T09:58:03.976Z</time></trkpt><trkpt lat="44.1805269" lon="10.3702557"><ele>850.0</ele><time>2026-04-13T09:58:05.98Z</time></trkpt><trkpt lat="44.1805981" lon="10.3703204"><ele>850.0</ele><time>2026-04-13T09:58:07.958Z</time></trkpt><trkpt lat="44.180657" lon="10.3704074"><ele>849.9999999999999</ele><time>2026-04-13T09:58:09.962Z</time></trkpt><trkpt lat="44.1806956" lon="10.3704899"><ele>850.0</ele><time>2026-04-13T09:58:11.965Z</time></trkpt><trkpt lat="44.1807325" lon="10.370571"><ele>846.2</ele><time>2026-04-13T09:58:13.974Z</time></trkpt><trkpt lat="44.1807873" lon="10.3706592"><ele>842.4</ele><time>2026-04-13T09:58:15.979Z</time></trkpt><trkpt lat="44.1808583" lon="10.370778"><ele>838.5999999999999</ele><time>2026-04-13T09:58:17.975Z</time></trkpt><trkpt lat="44.1809521" lon="10.3708562"><ele>834.8</ele><time>2026-04-13T09:58:19.971Z</time></trkpt><trkpt lat="44.1810602" lon="10.3709136"><ele>831.0</ele><time>2026-04-13T09:58:21.971Z</time></trkpt><trkpt lat="44.1811689" lon="10.3709521"><ele>831.0</ele><time>2026-04-13T09:58:23.973Z</time></trkpt><trkpt lat="44.1812579" lon="10.3710352"><ele>831.0</ele><time>2026-04-13T09:58:25.976Z</time></trkpt><trkpt lat="44.1812955" lon="10.3711855"><ele>831.0</ele><time>2026-04-13T09:58:27.98Z</time></trkpt><trkpt lat="44.1813217" lon="10.3713133"><ele>831.0</ele><time>2026-04-13T09:58:29.982Z</time></trkpt><trkpt lat="44.1813396" lon="10.3714673"><ele>831.0</ele><time>2026-04-13T09:58:31.971Z</time></trkpt><trkpt lat="44.1813735" lon="10.3715893"><ele>831.7142857142857</ele><time>2026-04-13T09:58:33.961Z</time></trkpt><trkpt lat="44.1814096" lon="10.3716717"><ele>832.4285714285714</ele><time>2026-04-13T09:58:35.971Z</time></trkpt><trkpt lat="44.1814732" lon="10.3717365"><ele>833.1428571428571</ele><time>2026-04-13T09:58:38.963Z</time></trkpt><trkpt lat="44.1815158" lon="10.3718061"><ele>833.8571428571429</ele><time>2026-04-13T09:58:42.971Z</time></trkpt><trkpt lat="44.1815832" lon="10.3718504"><ele>834.5714285714286</ele><time>2026-04-13T09:58:47.979Z</time></trkpt><trkpt lat="44.1816438" lon="10.3718859"><ele>835.2857142857142</ele><time>2026-04-13T09:58:51.965Z</time></trkpt><trkpt lat="44.1817167" lon="10.3719265"><ele>836.0</ele><time>2026-04-13T09:58:55.977Z</time></trkpt><trkpt lat="44.1817902" lon="10.3719462"><ele>836.0</ele><time>2026-04-13T09:58:59.962Z</time></trkpt><trkpt lat="44.1818581" lon="10.3719573"><ele>836.0</ele><time>2026-04-13T09:59:03.975Z</time></trkpt><trkpt lat="44.1819316" lon="10.3719818"><ele>836.0</ele><time>2026-04-13T09:59:08.968Z</time></trkpt><trkpt lat="44.1820014" lon="10.3720356"><ele>836.0</ele><time>2026-04-13T09:59:13.969Z</time></trkpt><trkpt lat="44.1820597" lon="10.3720894"><ele>836.0</ele><time>2026-04-13T09:59:17.975Z</time></trkpt><trkpt lat="44.1821053" lon="10.3721509"><ele>836.0</ele><time>2026-04-13T09:59:21.971Z</time></trkpt><trkpt lat="44.1821542" lon="10.372207"><ele>836.0</ele><time>2026-04-13T09:59:28.956Z</time></trkpt><trkpt lat="44.1821507" lon="10.3721158"><ele>836.0</ele><time>2026-04-13T09:59:34.971Z</time></trkpt><trkpt lat="44.1821053" lon="10.3720491"><ele>836.0</ele><time>2026-04-13T09:59:38.968Z</time></trkpt><trkpt lat="44.1820514" lon="10.3719907"><ele>836.0</ele><time>2026-04-13T09:59:42.963Z</time></trkpt><trkpt lat="44.1820027" lon="10.3719217"><ele>836.0</ele><time>2026-04-13T09:59:46.974Z</time></trkpt><trkpt lat="44.181941" lon="10.3718548"><ele>836.0</ele><time>2026-04-13T09:59:51.977Z</time></trkpt><trkpt lat="44.1818936" lon="10.3717693"><ele>836.0</ele><time>2026-04-13T09:59:56.97Z</time></trkpt><trkpt lat="44.1818991" lon="10.3716739"><ele>836.0</ele><time>2026-04-13T10:00:01.96Z</time></trkpt><trkpt lat="44.1819574" lon="10.3716028"><ele>836.0</ele><time>2026-04-13T10:00:06.968Z</time></trkpt><trkpt lat="44.1820226" lon="10.3715592"><ele>836.0</ele><time>2026-04-13T10:00:11.966Z</time></trkpt><trkpt lat="44.1820777" lon="10.3715128"><ele>836.0</ele><time>2026-04-13T10:00:15.975Z</time></trkpt><trkpt lat="44.1821398" lon="10.3714715"><ele>836.0</ele><time>2026-04-13T10:00:19.978Z</time></trkpt><trkpt lat="44.1821965" lon="10.3714278"><ele>836.0</ele><time>2026-04-13T10:00:23.964Z</time></trkpt><trkpt lat="44.1822603" lon="10.3713896"><ele>836.0</ele><time>2026-04-13T10:00:27.975Z</time></trkpt><trkpt lat="44.18232" lon="10.371354"><ele>836.0</ele><time>2026-04-13T10:00:31.961Z</time></trkpt><trkpt lat="44.1823741" lon="10.3713032"><ele>838.4285714285714</ele><time>2026-04-13T10:00:35.979Z</time></trkpt><trkpt lat="44.1824392" lon="10.3712505"><ele>840.8571428571429</ele><time>2026-04-13T10:00:40.992Z</time></trkpt><trkpt lat="44.1825113" lon="10.3712043"><ele>843.2857142857142</ele><time>2026-04-13T10:00:45.972Z</time></trkpt><trkpt lat="44.1825652" lon="10.3711469"><ele>845.7142857142858</ele><time>2026-04-13T10:00:49.973Z</time></trkpt><trkpt lat="44.1826188" lon="10.3710962"><ele>848.1428571428572</ele><time>2026-04-13T10:00:53.979Z</time></trkpt><trkpt lat="44.182679" lon="10.3710481"><ele>850.5714285714286</ele><time>2026-04-13T10:00:57.959Z</time></trkpt><trkpt lat="44.1827475" lon="10.3710174"><ele>853.0</ele><time>2026-04-13T10:01:01.955Z</time></trkpt><trkpt lat="44.1828105" lon="10.3709786"><ele>853.0</ele><time>2026-04-13T10:01:05.96Z</time></trkpt><trkpt lat="44.1828715" lon="10.3709195"><ele>853.0</ele><time>2026-04-13T10:01:09.975Z</time></trkpt><trkpt lat="44.1829163" lon="10.3708512"><ele>853.0</ele><time>2026-04-13T10:01:13.97Z</time></trkpt><trkpt lat="44.1829769" lon="10.3708089"><ele>853.0</ele><time>2026-04-13T10:01:17.977Z</time></trkpt><trkpt lat="44.1830443" lon="10.3707986"><ele>853.0</ele><time>2026-04-13T10:01:21.962Z</time></trkpt><trkpt lat="44.1831086" lon="10.3708208"><ele>853.0</ele><time>2026-04-13T10:01:25.98Z</time></trkpt><trkpt lat="44.1831743" lon="10.3708625"><ele>853.0</ele><time>2026-04-13T10:01:30.974Z</time></trkpt><trkpt lat="44.1832299" lon="10.3709184"><ele>853.7142857142857</ele><time>2026-04-13T10:01:34.978Z</time></trkpt><trkpt lat="44.1832734" lon="10.3709964"><ele>854.4285714285714</ele><time>2026-04-13T10:01:38.968Z</time></trkpt><trkpt lat="44.1833082" lon="10.3710844"><ele>855.1428571428571</ele><time>2026-04-13T10:01:42.976Z</time></trkpt><trkpt lat="44.183321" lon="10.3711766"><ele>855.8571428571429</ele><time>2026-04-13T10:01:46.976Z</time></trkpt><trkpt lat="44.183313" lon="10.3712852"><ele>856.5714285714287</ele><time>2026-04-13T10:01:51.974Z</time></trkpt><trkpt lat="44.1833061" lon="10.3713751"><ele>857.2857142857143</ele><time>2026-04-13T10:01:55.967Z</time></trkpt><trkpt lat="44.1832926" lon="10.3714737"><ele>858.0</ele><time>2026-04-13T10:01:59.98Z</time></trkpt><trkpt lat="44.1832897" lon="10.3715745"><ele>858.0</ele><time>2026-04-13T10:02:03.969Z</time></trkpt><trkpt lat="44.1833063" lon="10.3716683"><ele>858.0</ele><time>2026-04-13T10:02:07.967Z</time></trkpt><trkpt lat="44.1833488" lon="10.3717425"><ele>858.0</ele><time>2026-04-13T10:02:11.973Z</time></trkpt><trkpt lat="44.1834013" lon="10.3718032"><ele>858.0</ele><time>2026-04-13T10:02:15.978Z</time></trkpt><trkpt lat="44.1834644" lon="10.3718432"><ele>858.0</ele><time>2026-04-13T10:02:19.975Z</time></trkpt><trkpt lat="44.1835358" lon="10.3718702"><ele>858.0</ele><time>2026-04-13T10:02:23.975Z</time></trkpt><trkpt lat="44.1836026" lon="10.371895"><ele>858.0</ele><time>2026-04-13T10:02:27.966Z</time></trkpt><trkpt lat="44.1836654" lon="10.3719152"><ele>858.0</ele><time>2026-04-13T10:02:31.968Z</time></trkpt><trkpt lat="44.1837265" lon="10.3719477"><ele>858.0</ele><time>2026-04-13T10:02:35.967Z</time></trkpt><trkpt lat="44.1837931" lon="10.3719805"><ele>858.0</ele><time>2026-04-13T10:02:39.955Z</time></trkpt><trkpt lat="44.1838625" lon="10.3720043"><ele>858.0</ele><time>2026-04-13T10:02:43.956Z</time></trkpt><trkpt lat="44.1839339" lon="10.3720219"><ele>858.0</ele><time>2026-04-13T10:02:48.966Z</time></trkpt><trkpt lat="44.1839972" lon="10.3720391"><ele>858.0</ele><time>2026-04-13T10:02:52.956Z</time></trkpt><trkpt lat="44.1840683" lon="10.3720637"><ele>858.0</ele><time>2026-04-13T10:02:57.956Z</time></trkpt><trkpt lat="44.1841432" lon="10.3720952"><ele>859.7142857142858</ele><time>2026-04-13T10:03:01.962Z</time></trkpt><trkpt lat="44.1842155" lon="10.3721258"><ele>861.4285714285714</ele><time>2026-04-13T10:03:05.954Z</time></trkpt><trkpt lat="44.1842796" lon="10.3721692"><ele>863.1428571428571</ele><time>2026-04-13T10:03:09.967Z</time></trkpt><trkpt lat="44.1843412" lon="10.3722138"><ele>864.8571428571429</ele><time>2026-04-13T10:03:13.964Z</time></trkpt><trkpt lat="44.1844074" lon="10.372244"><ele>866.5714285714286</ele><time>2026-04-13T10:03:17.988Z</time></trkpt><trkpt lat="44.1844744" lon="10.372271"><ele>868.2857142857143</ele><time>2026-04-13T10:03:21.973Z</time></trkpt><trkpt lat="44.1845498" lon="10.372298"><ele>870.0</ele><time>2026-04-13T10:03:26.977Z</time></trkpt><trkpt lat="44.1846184" lon="10.3723098"><ele>870.0000000000001</ele><time>2026-04-13T10:03:30.966Z</time></trkpt><trkpt lat="44.1846878" lon="10.3723076"><ele>870.0</ele><time>2026-04-13T10:03:34.965Z</time></trkpt><trkpt lat="44.1847564" lon="10.372294"><ele>870.0</ele><time>2026-04-13T10:03:38.967Z</time></trkpt><trkpt lat="44.184819" lon="10.3722814"><ele>870.0</ele><time>2026-04-13T10:03:42.964Z</time></trkpt><trkpt lat="44.184882" lon="10.37227"><ele>870.0</ele><time>2026-04-13T10:03:46.965Z</time></trkpt><trkpt lat="44.1849512" lon="10.3722301"><ele>870.0000000000001</ele><time>2026-04-13T10:03:50.964Z</time></trkpt><trkpt lat="44.1850147" lon="10.3722072"><ele>870.0</ele><time>2026-04-13T10:03:54.964Z</time></trkpt><trkpt lat="44.1850759" lon="10.3721662"><ele>871.0000000000001</ele><time>2026-04-13T10:03:58.966Z</time></trkpt><trkpt lat="44.1851419" lon="10.3721378"><ele>872.0</ele><time>2026-04-13T10:04:02.974Z</time></trkpt><trkpt lat="44.1852069" lon="10.3721188"><ele>873.0</ele><time>2026-04-13T10:04:06.973Z</time></trkpt><trkpt lat="44.1852702" lon="10.3720924"><ele>874.0</ele><time>2026-04-13T10:04:10.965Z</time></trkpt><trkpt lat="44.185332" lon="10.3720652"><ele>875.0</ele><time>2026-04-13T10:04:14.982Z</time></trkpt><trkpt lat="44.1854066" lon="10.372066"><ele>876.0000000000001</ele><time>2026-04-13T10:04:19.97Z</time></trkpt><trkpt lat="44.1854657" lon="10.3721165"><ele>877.0</ele><time>2026-04-13T10:04:25.973Z</time></trkpt><trkpt lat="44.1855077" lon="10.3721836"><ele>877.2857142857143</ele><time>2026-04-13T10:04:30.959Z</time></trkpt><trkpt lat="44.1855352" lon="10.3722694"><ele>877.5714285714286</ele><time>2026-04-13T10:04:36.974Z</time></trkpt><trkpt lat="44.1855559" lon="10.3723599"><ele>877.8571428571429</ele><time>2026-04-13T10:04:41.975Z</time></trkpt><trkpt lat="44.1855798" lon="10.3724499"><ele>878.1428571428571</ele><time>2026-04-13T10:04:46.965Z</time></trkpt><trkpt lat="44.1855996" lon="10.3725426"><ele>878.4285714285714</ele><time>2026-04-13T10:04:51.956Z</time></trkpt><trkpt lat="44.1856046" lon="10.3726394"><ele>878.7142857142858</ele><time>2026-04-13T10:04:56.977Z</time></trkpt><trkpt lat="44.1856133" lon="10.3727315"><ele>879.0</ele><time>2026-04-13T10:05:01.968Z</time></trkpt><trkpt lat="44.1856286" lon="10.3728224"><ele>879.0</ele><time>2026-04-13T10:05:06.977Z</time></trkpt><trkpt lat="44.1856424" lon="10.3729096"><ele>879.0</ele><time>2026-04-13T10:05:11.961Z</time></trkpt><trkpt lat="44.1856629" lon="10.3729966"><ele>879.0</ele><time>2026-04-13T10:05:16.97Z</time></trkpt><trkpt lat="44.1856644" lon="10.3730893"><ele>879.0</ele><time>2026-04-13T10:05:21.972Z</time></trkpt><trkpt lat="44.185681" lon="10.3731942"><ele>879.0</ele><time>2026-04-13T10:05:27.973Z</time></trkpt><trkpt lat="44.1857075" lon="10.3732798"><ele>879.0</ele><time>2026-04-13T10:05:32.976Z</time></trkpt><trkpt lat="44.1857338" lon="10.3733706"><ele>879.0</ele><time>2026-04-13T10:05:37.962Z</time></trkpt><trkpt lat="44.1857797" lon="10.3734351"><ele>880.7142857142858</ele><time>2026-04-13T10:05:43.968Z</time></trkpt><trkpt lat="44.1858319" lon="10.3735054"><ele>882.4285714285714</ele><time>2026-04-13T10:05:49.974Z</time></trkpt><trkpt lat="44.1858914" lon="10.3735649"><ele>884.1428571428571</ele><time>2026-04-13T10:05:54.967Z</time></trkpt><trkpt lat="44.1859448" lon="10.3736318"><ele>885.8571428571429</ele><time>2026-04-13T10:06:00.96Z</time></trkpt><trkpt lat="44.185993" lon="10.3736888"><ele>887.5714285714286</ele><time>2026-04-13T10:06:05.977Z</time></trkpt><trkpt lat="44.1860432" lon="10.3737652"><ele>889.2857142857143</ele><time>2026-04-13T10:06:11.958Z</time></trkpt><trkpt lat="44.186089" lon="10.3738277"><ele>891.0</ele><time>2026-04-13T10:06:16.978Z</time></trkpt><trkpt lat="44.1861324" lon="10.3738983"><ele>892.7142857142858</ele><time>2026-04-13T10:06:21.977Z</time></trkpt><trkpt lat="44.1861804" lon="10.3739606"><ele>894.4285714285714</ele><time>2026-04-13T10:06:26.966Z</time></trkpt><trkpt lat="44.1862369" lon="10.3740263"><ele>896.1428571428571</ele><time>2026-04-13T10:06:32.978Z</time></trkpt><trkpt lat="44.1862816" lon="10.3740941"><ele>897.8571428571429</ele><time>2026-04-13T10:06:37.972Z</time></trkpt><trkpt lat="44.1863149" lon="10.3741851"><ele>899.5714285714286</ele><time>2026-04-13T10:06:43.972Z</time></trkpt><trkpt lat="44.1863607" lon="10.3742537"><ele>901.2857142857143</ele><time>2026-04-13T10:06:49.98Z</time></trkpt><trkpt lat="44.186421" lon="10.3742918"><ele>903.0</ele><time>2026-04-13T10:06:55.956Z</time></trkpt><trkpt lat="44.1864767" lon="10.3743538"><ele>902.5714285714286</ele><time>2026-04-13T10:07:00.969Z</time></trkpt><trkpt lat="44.1865296" lon="10.3744076"><ele>902.1428571428571</ele><time>2026-04-13T10:07:05.97Z</time></trkpt><trkpt lat="44.186578" lon="10.3744665"><ele>901.7142857142858</ele><time>2026-04-13T10:07:10.971Z</time></trkpt><trkpt lat="44.1866276" lon="10.374532"><ele>901.2857142857143</ele><time>2026-04-13T10:07:16.987Z</time></trkpt><trkpt lat="44.186681" lon="10.3745801"><ele>900.8571428571429</ele><time>2026-04-13T10:07:21.969Z</time></trkpt><trkpt lat="44.186735" lon="10.3746371"><ele>900.4285714285716</ele><time>2026-04-13T10:07:26.959Z</time></trkpt><trkpt lat="44.1867909" lon="10.3746999"><ele>900.0000000000001</ele><time>2026-04-13T10:07:32.969Z</time></trkpt><trkpt lat="44.1868451" lon="10.3747545"><ele>902.4285714285716</ele><time>2026-04-13T10:07:37.97Z</time></trkpt><trkpt lat="44.186881" lon="10.3748331"><ele>904.8571428571429</ele><time>2026-04-13T10:07:42.976Z</time></trkpt><trkpt lat="44.1869262" lon="10.3748991"><ele>907.2857142857143</ele><time>2026-04-13T10:07:47.963Z</time></trkpt><trkpt lat="44.1869767" lon="10.3749634"><ele>909.7142857142858</ele><time>2026-04-13T10:07:52.977Z</time></trkpt><trkpt lat="44.187032" lon="10.3750173"><ele>912.1428571428571</ele><time>2026-04-13T10:07:57.971Z</time></trkpt><trkpt lat="44.1870919" lon="10.3750594"><ele>914.5714285714286</ele><time>2026-04-13T10:08:02.979Z</time></trkpt><trkpt lat="44.1871533" lon="10.3750892"><ele>917.0</ele><time>2026-04-13T10:08:08.974Z</time></trkpt><trkpt lat="44.1872209" lon="10.3751147"><ele>917.0</ele><time>2026-04-13T10:08:14.968Z</time></trkpt><trkpt lat="44.1872849" lon="10.3751249"><ele>917.0</ele><time>2026-04-13T10:08:19.971Z</time></trkpt><trkpt lat="44.187356" lon="10.3751342"><ele>917.0</ele><time>2026-04-13T10:08:25.956Z</time></trkpt><trkpt lat="44.1874235" lon="10.3751197"><ele>917.0</ele><time>2026-04-13T10:08:30.965Z</time></trkpt><trkpt lat="44.1874957" lon="10.3751058"><ele>917.0</ele><time>2026-04-13T10:08:35.97Z</time></trkpt><trkpt lat="44.1875669" lon="10.3751165"><ele>917.0</ele><time>2026-04-13T10:08:41.96Z</time></trkpt><trkpt lat="44.1876233" lon="10.3751734"><ele>917.0</ele><time>2026-04-13T10:08:46.964Z</time></trkpt><trkpt lat="44.1876559" lon="10.3752494"><ele>917.1428571428571</ele><time>2026-04-13T10:08:51.961Z</time></trkpt><trkpt lat="44.1876796" lon="10.3753326"><ele>917.2857142857142</ele><time>2026-04-13T10:08:55.973Z</time></trkpt><trkpt lat="44.1877017" lon="10.3754163"><ele>917.4285714285714</ele><time>2026-04-13T10:08:59.954Z</time></trkpt><trkpt lat="44.1877252" lon="10.3755026"><ele>917.5714285714286</ele><time>2026-04-13T10:09:03.98Z</time></trkpt><trkpt lat="44.1877576" lon="10.3755982"><ele>917.7142857142857</ele><time>2026-04-13T10:09:08.964Z</time></trkpt><trkpt lat="44.1878252" lon="10.3756397"><ele>917.8571428571429</ele><time>2026-04-13T10:09:13.971Z</time></trkpt><trkpt lat="44.1878923" lon="10.375658"><ele>918.0</ele><time>2026-04-13T10:09:18.968Z</time></trkpt><trkpt lat="44.1879639" lon="10.375684"><ele>920.1428571428571</ele><time>2026-04-13T10:09:22.969Z</time></trkpt><trkpt lat="44.1880252" lon="10.3757278"><ele>922.2857142857142</ele><time>2026-04-13T10:09:26.976Z</time></trkpt><trkpt lat="44.1880869" lon="10.3757734"><ele>924.4285714285713</ele><time>2026-04-13T10:09:30.976Z</time></trkpt><trkpt lat="44.1881429" lon="10.3758288"><ele>926.5714285714286</ele><time>2026-04-13T10:09:34.974Z</time></trkpt><trkpt lat="44.1881833" lon="10.3759144"><ele>928.7142857142856</ele><time>2026-04-13T10:09:38.968Z</time></trkpt><trkpt lat="44.1882103" lon="10.3760262"><ele>930.8571428571428</ele><time>2026-04-13T10:09:43.966Z</time></trkpt><trkpt lat="44.1882292" lon="10.3761304"><ele>933.0</ele><time>2026-04-13T10:09:48.96Z</time></trkpt><trkpt lat="44.1882704" lon="10.376215"><ele>933.0</ele><time>2026-04-13T10:09:53.969Z</time></trkpt><trkpt lat="44.1883234" lon="10.3762652"><ele>932.9999999999999</ele><time>2026-04-13T10:09:57.962Z</time></trkpt><trkpt lat="44.1883808" lon="10.3763149"><ele>933.0</ele><time>2026-04-13T10:10:01.96Z</time></trkpt><trkpt lat="44.1884526" lon="10.3763492"><ele>933.0</ele><time>2026-04-13T10:10:05.974Z</time></trkpt><trkpt lat="44.1883847" lon="10.3763981"><ele>932.9999999999999</ele><time>2026-04-13T10:10:16.971Z</time></trkpt><trkpt lat="44.1883159" lon="10.3764051"><ele>933.0</ele><time>2026-04-13T10:10:23.961Z</time></trkpt><trkpt lat="44.1882575" lon="10.3763574"><ele>933.0</ele><time>2026-04-13T10:10:28.968Z</time></trkpt><trkpt lat="44.188206" lon="10.3762966"><ele>933.2857142857142</ele><time>2026-04-13T10:10:33.976Z</time></trkpt><trkpt lat="44.1881612" lon="10.3762284"><ele>933.5714285714284</ele><time>2026-04-13T10:10:38.968Z</time></trkpt><trkpt lat="44.1881206" lon="10.3761607"><ele>933.8571428571429</ele><time>2026-04-13T10:10:44.982Z</time></trkpt><trkpt lat="44.1880604" lon="10.3761272"><ele>934.1428571428571</ele><time>2026-04-13T10:10:49.959Z</time></trkpt><trkpt lat="44.1879879" lon="10.3761247"><ele>934.4285714285714</ele><time>2026-04-13T10:10:55.971Z</time></trkpt><trkpt lat="44.187925" lon="10.3761532"><ele>934.7142857142858</ele><time>2026-04-13T10:11:00.976Z</time></trkpt><trkpt lat="44.1878638" lon="10.3762034"><ele>935.0000000000001</ele><time>2026-04-13T10:11:06.973Z</time></trkpt><trkpt lat="44.1878123" lon="10.376265"><ele>935.0000000000001</ele><time>2026-04-13T10:11:12.972Z</time></trkpt><trkpt lat="44.187775" lon="10.3763395"><ele>935.0</ele><time>2026-04-13T10:11:20.968Z</time></trkpt><trkpt lat="44.1877156" lon="10.3764324"><ele>935.0</ele><time>2026-04-13T10:11:25.98Z</time></trkpt><trkpt lat="44.1876944" lon="10.3765702"><ele>935.0</ele><time>2026-04-13T10:11:27.974Z</time></trkpt><trkpt lat="44.1876951" lon="10.3766626"><ele>935.0000000000001</ele><time>2026-04-13T10:11:28.984Z</time></trkpt><trkpt lat="44.1877107" lon="10.3767632"><ele>935.0</ele><time>2026-04-13T10:11:29.98Z</time></trkpt><trkpt lat="44.1877335" lon="10.3768796"><ele>935.2</ele><time>2026-04-13T10:11:31.973Z</time></trkpt><trkpt lat="44.1877746" lon="10.377001"><ele>935.4</ele><time>2026-04-13T10:11:34.978Z</time></trkpt><trkpt lat="44.1877953" lon="10.3771715"><ele>935.5999999999999</ele><time>2026-04-13T10:11:36.973Z</time></trkpt><trkpt lat="44.1878191" lon="10.3772966"><ele>935.8</ele><time>2026-04-13T10:11:38.968Z</time></trkpt><trkpt lat="44.1878035" lon="10.3774216"><ele>936.0</ele><time>2026-04-13T10:11:40.975Z</time></trkpt><trkpt lat="44.1877069" lon="10.3774927"><ele>936.6666666666666</ele><time>2026-04-13T10:11:42.98Z</time></trkpt><trkpt lat="44.1876144" lon="10.3775128"><ele>937.3333333333333</ele><time>2026-04-13T10:11:44.966Z</time></trkpt><trkpt lat="44.1875145" lon="10.3775615"><ele>938.0</ele><time>2026-04-13T10:11:46.975Z</time></trkpt><trkpt lat="44.1874627" lon="10.3776122"><ele>938.6666666666666</ele><time>2026-04-13T10:11:47.973Z</time></trkpt><trkpt lat="44.1873958" lon="10.3776319"><ele>939.3333333333333</ele><time>2026-04-13T10:11:48.982Z</time></trkpt><trkpt lat="44.1873335" lon="10.3776615"><ele>940.0</ele><time>2026-04-13T10:11:49.972Z</time></trkpt><trkpt lat="44.1872668" lon="10.3776918"><ele>935.6</ele><time>2026-04-13T10:11:50.971Z</time></trkpt><trkpt lat="44.1871416" lon="10.3777323"><ele>931.2</ele><time>2026-04-13T10:11:52.974Z</time></trkpt><trkpt lat="44.1870285" lon="10.3777803"><ele>926.8</ele><time>2026-04-13T10:11:54.972Z</time></trkpt><trkpt lat="44.1869255" lon="10.3778212"><ele>922.4</ele><time>2026-04-13T10:11:56.975Z</time></trkpt><trkpt lat="44.1868628" lon="10.3778663"><ele>918.0</ele><time>2026-04-13T10:11:58.965Z</time></trkpt><trkpt lat="44.1868161" lon="10.3779326"><ele>918.0</ele><time>2026-04-13T10:12:00.971Z</time></trkpt><trkpt lat="44.186767" lon="10.3779938"><ele>918.0</ele><time>2026-04-13T10:12:03.961Z</time></trkpt><trkpt lat="44.1866981" lon="10.3780419"><ele>918.0</ele><time>2026-04-13T10:12:06.977Z</time></trkpt><trkpt lat="44.1866721" lon="10.3781641"><ele>918.0</ele><time>2026-04-13T10:12:09.978Z</time></trkpt><trkpt lat="44.1867255" lon="10.378271"><ele>918.0</ele><time>2026-04-13T10:12:12.962Z</time></trkpt><trkpt lat="44.1867704" lon="10.3783347"><ele>918.0</ele><time>2026-04-13T10:12:14.972Z</time></trkpt><trkpt lat="44.1867978" lon="10.3784339"><ele>919.8333333333334</ele><time>2026-04-13T10:12:18.962Z</time></trkpt><trkpt lat="44.1868105" lon="10.3785354"><ele>921.6666666666667</ele><time>2026-04-13T10:12:23.977Z</time></trkpt><trkpt lat="44.1868103" lon="10.3786288"><ele>923.5</ele><time>2026-04-13T10:12:26.976Z</time></trkpt><trkpt lat="44.1867745" lon="10.3787094"><ele>925.3333333333334</ele><time>2026-04-13T10:12:29.963Z</time></trkpt><trkpt lat="44.1866982" lon="10.3787591"><ele>927.1666666666667</ele><time>2026-04-13T10:12:31.972Z</time></trkpt><trkpt lat="44.186618" lon="10.3787913"><ele>929.0</ele><time>2026-04-13T10:12:33.966Z</time></trkpt><trkpt lat="44.1865314" lon="10.3788286"><ele>925.0</ele><time>2026-04-13T10:12:35.964Z</time></trkpt><trkpt lat="44.1864676" lon="10.3788548"><ele>921.0000000000001</ele><time>2026-04-13T10:12:37.974Z</time></trkpt><trkpt lat="44.1864073" lon="10.3788859"><ele>917.0</ele><time>2026-04-13T10:12:40.967Z</time></trkpt><trkpt lat="44.1863645" lon="10.3789583"><ele>913.0</ele><time>2026-04-13T10:13:27.954Z</time></trkpt><trkpt lat="44.1862968" lon="10.3789857"><ele>909.0000000000001</ele><time>2026-04-13T10:13:31.969Z</time></trkpt><trkpt lat="44.1862245" lon="10.3790273"><ele>905.0</ele><time>2026-04-13T10:13:34.968Z</time></trkpt><trkpt lat="44.1861685" lon="10.3790722"><ele>901.0</ele><time>2026-04-13T10:13:36.965Z</time></trkpt><trkpt lat="44.1860956" lon="10.3791385"><ele>900.9999999999999</ele><time>2026-04-13T10:13:39.962Z</time></trkpt><trkpt lat="44.1860433" lon="10.3792189"><ele>901.0</ele><time>2026-04-13T10:13:41.968Z</time></trkpt><trkpt lat="44.185982" lon="10.3792824"><ele>901.0</ele><time>2026-04-13T10:13:43.962Z</time></trkpt><trkpt lat="44.185922" lon="10.3793354"><ele>901.0</ele><time>2026-04-13T10:13:45.967Z</time></trkpt><trkpt lat="44.1858596" lon="10.3794286"><ele>900.9999999999999</ele><time>2026-04-13T10:13:48.972Z</time></trkpt><trkpt lat="44.1858006" lon="10.3795128"><ele>901.0</ele><time>2026-04-13T10:13:50.976Z</time></trkpt><trkpt lat="44.1857433" lon="10.3795641"><ele>897.8333333333333</ele><time>2026-04-13T10:13:52.966Z</time></trkpt><trkpt lat="44.1856685" lon="10.3796002"><ele>894.6666666666666</ele><time>2026-04-13T10:13:54.976Z</time></trkpt><trkpt lat="44.1855588" lon="10.3796287"><ele>891.5</ele><time>2026-04-13T10:13:56.979Z</time></trkpt><trkpt lat="44.185475" lon="10.379653"><ele>888.3333333333333</ele><time>2026-04-13T10:13:58.966Z</time></trkpt><trkpt lat="44.1854067" lon="10.379682"><ele>885.1666666666666</ele><time>2026-04-13T10:14:00.966Z</time></trkpt><trkpt lat="44.1853313" lon="10.3796995"><ele>882.0</ele><time>2026-04-13T10:14:03.975Z</time></trkpt><trkpt lat="44.1852598" lon="10.3797462"><ele>881.6666666666666</ele><time>2026-04-13T10:14:39.977Z</time></trkpt><trkpt lat="44.1852056" lon="10.3796805"><ele>881.3333333333333</ele><time>2026-04-13T10:14:43.968Z</time></trkpt><trkpt lat="44.1851467" lon="10.3796165"><ele>881.0</ele><time>2026-04-13T10:14:46.976Z</time></trkpt><trkpt lat="44.1850894" lon="10.3795506"><ele>880.6666666666666</ele><time>2026-04-13T10:14:50.966Z</time></trkpt><trkpt lat="44.1850363" lon="10.3794975"><ele>880.3333333333333</ele><time>2026-04-13T10:14:53.962Z</time></trkpt><trkpt lat="44.1849846" lon="10.3793986"><ele>880.0</ele><time>2026-04-13T10:14:56.974Z</time></trkpt><trkpt lat="44.1849322" lon="10.3793182"><ele>879.9999999999999</ele><time>2026-04-13T10:14:58.977Z</time></trkpt><trkpt lat="44.1848603" lon="10.3792462"><ele>880.0</ele><time>2026-04-13T10:15:01.961Z</time></trkpt><trkpt lat="44.1847857" lon="10.3792164"><ele>880.0</ele><time>2026-04-13T10:15:04.967Z</time></trkpt><trkpt lat="44.1846952" lon="10.3792367"><ele>880.0</ele><time>2026-04-13T10:15:07.968Z</time></trkpt><trkpt lat="44.1846117" lon="10.3792418"><ele>879.9999999999999</ele><time>2026-04-13T10:15:10.959Z</time></trkpt><trkpt lat="44.1845469" lon="10.379257"><ele>880.0</ele><time>2026-04-13T10:15:24.967Z</time></trkpt><trkpt lat="44.1844645" lon="10.3793104"><ele>878.4285714285713</ele><time>2026-04-13T10:15:28.965Z</time></trkpt><trkpt lat="44.184415" lon="10.379367"><ele>876.8571428571429</ele><time>2026-04-13T10:15:30.973Z</time></trkpt><trkpt lat="44.1843505" lon="10.3794398"><ele>875.2857142857142</ele><time>2026-04-13T10:15:33.976Z</time></trkpt><trkpt lat="44.1843032" lon="10.3795074"><ele>873.7142857142857</ele><time>2026-04-13T10:15:35.969Z</time></trkpt><trkpt lat="44.1842598" lon="10.3795722"><ele>872.1428571428571</ele><time>2026-04-13T10:15:38.969Z</time></trkpt><trkpt lat="44.1842862" lon="10.3796645"><ele>870.5714285714286</ele><time>2026-04-13T10:15:42.966Z</time></trkpt><trkpt lat="44.1843046" lon="10.3797836"><ele>869.0</ele><time>2026-04-13T10:15:46.962Z</time></trkpt><trkpt lat="44.1842855" lon="10.3799004"><ele>868.5714285714286</ele><time>2026-04-13T10:15:49.962Z</time></trkpt><trkpt lat="44.1842204" lon="10.3799374"><ele>868.1428571428571</ele><time>2026-04-13T10:15:55.964Z</time></trkpt><trkpt lat="44.1841455" lon="10.3799161"><ele>867.7142857142857</ele><time>2026-04-13T10:15:59.974Z</time></trkpt><trkpt lat="44.1840661" lon="10.3799605"><ele>867.2857142857142</ele><time>2026-04-13T10:16:05.967Z</time></trkpt><trkpt lat="44.1840055" lon="10.3800163"><ele>866.8571428571429</ele><time>2026-04-13T10:16:08.977Z</time></trkpt><trkpt lat="44.1839385" lon="10.3800165"><ele>866.4285714285713</ele><time>2026-04-13T10:16:12.969Z</time></trkpt><trkpt lat="44.1838877" lon="10.3799484"><ele>866.0</ele><time>2026-04-13T10:16:17.962Z</time></trkpt><trkpt lat="44.1838362" lon="10.3798721"><ele>864.6666666666667</ele><time>2026-04-13T10:16:22.98Z</time></trkpt><trkpt lat="44.1837782" lon="10.3798021"><ele>863.3333333333334</ele><time>2026-04-13T10:16:24.973Z</time></trkpt><trkpt lat="44.1837096" lon="10.379738"><ele>862.0</ele><time>2026-04-13T10:16:26.962Z</time></trkpt><trkpt lat="44.1836369" lon="10.3796922"><ele>860.6666666666667</ele><time>2026-04-13T10:16:28.979Z</time></trkpt><trkpt lat="44.1835646" lon="10.3796614"><ele>859.3333333333334</ele><time>2026-04-13T10:16:30.98Z</time></trkpt><trkpt lat="44.1834726" lon="10.3796428"><ele>858.0</ele><time>2026-04-13T10:16:32.978Z</time></trkpt><trkpt lat="44.183395" lon="10.3796244"><ele>857.2857142857143</ele><time>2026-04-13T10:16:34.97Z</time></trkpt><trkpt lat="44.1833285" lon="10.3795866"><ele>856.5714285714287</ele><time>2026-04-13T10:16:36.98Z</time></trkpt><trkpt lat="44.1832636" lon="10.3795251"><ele>855.8571428571429</ele><time>2026-04-13T10:16:38.972Z</time></trkpt><trkpt lat="44.1832129" lon="10.3794632"><ele>855.1428571428571</ele><time>2026-04-13T10:16:40.964Z</time></trkpt><trkpt lat="44.1831494" lon="10.3793816"><ele>854.4285714285714</ele><time>2026-04-13T10:16:43.956Z</time></trkpt><trkpt lat="44.1831106" lon="10.3793112"><ele>853.7142857142857</ele><time>2026-04-13T10:16:45.956Z</time></trkpt><trkpt lat="44.1830706" lon="10.3792387"><ele>853.0</ele><time>2026-04-13T10:16:47.974Z</time></trkpt><trkpt lat="44.1830078" lon="10.3791556"><ele>851.8571428571428</ele><time>2026-04-13T10:16:50.97Z</time></trkpt><trkpt lat="44.1829617" lon="10.3790701"><ele>850.7142857142858</ele><time>2026-04-13T10:16:53.97Z</time></trkpt><trkpt lat="44.1829242" lon="10.378985"><ele>849.5714285714286</ele><time>2026-04-13T10:16:58.974Z</time></trkpt><trkpt lat="44.1828491" lon="10.3789341"><ele>848.4285714285713</ele><time>2026-04-13T10:17:01.972Z</time></trkpt><trkpt lat="44.1827906" lon="10.3788873"><ele>847.2857142857142</ele><time>2026-04-13T10:17:03.975Z</time></trkpt><trkpt lat="44.1827659" lon="10.3787968"><ele>846.1428571428571</ele><time>2026-04-13T10:17:11.962Z</time></trkpt><trkpt lat="44.1828119" lon="10.3787053"><ele>845.0</ele><time>2026-04-13T10:17:14.961Z</time></trkpt><trkpt lat="44.1828516" lon="10.3786213"><ele>843.3333333333334</ele><time>2026-04-13T10:17:16.959Z</time></trkpt><trkpt lat="44.1828959" lon="10.3785125"><ele>841.6666666666667</ele><time>2026-04-13T10:17:18.971Z</time></trkpt><trkpt lat="44.1829475" lon="10.3783843"><ele>840.0</ele><time>2026-04-13T10:17:20.964Z</time></trkpt><trkpt lat="44.1830164" lon="10.3782532"><ele>838.3333333333333</ele><time>2026-04-13T10:17:22.964Z</time></trkpt><trkpt lat="44.183054" lon="10.3781776"><ele>836.6666666666666</ele><time>2026-04-13T10:17:23.967Z</time></trkpt><trkpt lat="44.1830912" lon="10.3780944"><ele>835.0</ele><time>2026-04-13T10:17:24.973Z</time></trkpt><trkpt lat="44.1831262" lon="10.3780055"><ele>834.1666666666666</ele><time>2026-04-13T10:17:25.968Z</time></trkpt><trkpt lat="44.1831563" lon="10.37791"><ele>833.3333333333333</ele><time>2026-04-13T10:17:26.975Z</time></trkpt><trkpt lat="44.1831876" lon="10.3778231"><ele>832.5</ele><time>2026-04-13T10:17:27.982Z</time></trkpt><trkpt lat="44.1832156" lon="10.377732"><ele>831.6666666666667</ele><time>2026-04-13T10:17:28.98Z</time></trkpt><trkpt lat="44.1832514" lon="10.3775933"><ele>830.8333333333334</ele><time>2026-04-13T10:17:30.991Z</time></trkpt><trkpt lat="44.1832729" lon="10.3775095"><ele>830.0</ele><time>2026-04-13T10:17:31.963Z</time></trkpt><trkpt lat="44.1832919" lon="10.3774189"><ele>831.0</ele><time>2026-04-13T10:17:32.965Z</time></trkpt><trkpt lat="44.1833173" lon="10.3773335"><ele>832.0</ele><time>2026-04-13T10:17:33.974Z</time></trkpt><trkpt lat="44.1833474" lon="10.377247"><ele>833.0</ele><time>2026-04-13T10:17:34.979Z</time></trkpt><trkpt lat="44.1833867" lon="10.3771641"><ele>834.0</ele><time>2026-04-13T10:17:35.976Z</time></trkpt><trkpt lat="44.1834159" lon="10.3770804"><ele>835.0</ele><time>2026-04-13T10:17:36.967Z</time></trkpt><trkpt lat="44.1834406" lon="10.376989"><ele>836.0</ele><time>2026-04-13T10:17:37.967Z</time></trkpt><trkpt lat="44.1834639" lon="10.3768993"><ele>837.0</ele><time>2026-04-13T10:17:38.967Z</time></trkpt><trkpt lat="44.1834886" lon="10.3768126"><ele>837.0</ele><time>2026-04-13T10:17:39.978Z</time></trkpt><trkpt lat="44.1835178" lon="10.3766868"><ele>837.0</ele><time>2026-04-13T10:17:41.973Z</time></trkpt><trkpt lat="44.1835763" lon="10.3766201"><ele>837.0</ele><time>2026-04-13T10:17:44.982Z</time></trkpt><trkpt lat="44.1836353" lon="10.3767316"><ele>837.0</ele><time>2026-04-13T10:17:47.966Z</time></trkpt><trkpt lat="44.1836662" lon="10.3768343"><ele>837.0</ele><time>2026-04-13T10:17:49.996Z</time></trkpt><trkpt lat="44.1836713" lon="10.3769227"><ele>837.0</ele><time>2026-04-13T10:17:52.977Z</time></trkpt><trkpt lat="44.1836008" lon="10.3769587"><ele>837.0</ele><time>2026-04-13T10:17:55.96Z</time></trkpt><trkpt lat="44.183526" lon="10.376936"><ele>837.0</ele><time>2026-04-13T10:17:57.96Z</time></trkpt><trkpt lat="44.1834195" lon="10.3768788"><ele>837.0</ele><time>2026-04-13T10:17:59.973Z</time></trkpt><trkpt lat="44.1832985" lon="10.3768131"><ele>837.0</ele><time>2026-04-13T10:18:01.96Z</time></trkpt><trkpt lat="44.1832355" lon="10.3767799"><ele>837.0</ele><time>2026-04-13T10:18:02.956Z</time></trkpt><trkpt lat="44.1831661" lon="10.3767492"><ele>834.8333333333334</ele><time>2026-04-13T10:18:03.964Z</time></trkpt><trkpt lat="44.1830882" lon="10.3767211"><ele>832.6666666666667</ele><time>2026-04-13T10:18:04.956Z</time></trkpt><trkpt lat="44.183004" lon="10.3767"><ele>830.5</ele><time>2026-04-13T10:18:05.964Z</time></trkpt><trkpt lat="44.1829173" lon="10.3766853"><ele>828.3333333333334</ele><time>2026-04-13T10:18:06.983Z</time></trkpt><trkpt lat="44.1828254" lon="10.3766722"><ele>826.1666666666667</ele><time>2026-04-13T10:18:07.962Z</time></trkpt><trkpt lat="44.1827324" lon="10.3766692"><ele>824.0</ele><time>2026-04-13T10:18:08.963Z</time></trkpt><trkpt lat="44.1826354" lon="10.3766574"><ele>824.0</ele><time>2026-04-13T10:18:09.966Z</time></trkpt><trkpt lat="44.1825313" lon="10.3766533"><ele>824.0</ele><time>2026-04-13T10:18:10.965Z</time></trkpt><trkpt lat="44.1824276" lon="10.3766416"><ele>824.0</ele><time>2026-04-13T10:18:11.963Z</time></trkpt><trkpt lat="44.1823205" lon="10.3766243"><ele>824.0</ele><time>2026-04-13T10:18:12.961Z</time></trkpt><trkpt lat="44.1822231" lon="10.3766087"><ele>824.0</ele><time>2026-04-13T10:18:13.957Z</time></trkpt><trkpt lat="44.182136" lon="10.3765958"><ele>822.6666666666667</ele><time>2026-04-13T10:18:14.967Z</time></trkpt><trkpt lat="44.182059" lon="10.3765846"><ele>821.3333333333334</ele><time>2026-04-13T10:18:15.964Z</time></trkpt><trkpt lat="44.1819953" lon="10.3765714"><ele>820.0</ele><time>2026-04-13T10:18:16.968Z</time></trkpt><trkpt lat="44.1818949" lon="10.3765418"><ele>818.6666666666667</ele><time>2026-04-13T10:18:18.976Z</time></trkpt><trkpt lat="44.1818179" lon="10.3764765"><ele>817.3333333333334</ele><time>2026-04-13T10:18:20.968Z</time></trkpt><trkpt lat="44.1817679" lon="10.3763845"><ele>816.0</ele><time>2026-04-13T10:18:22.964Z</time></trkpt><trkpt lat="44.1817424" lon="10.3762797"><ele>816.0</ele><time>2026-04-13T10:18:24.967Z</time></trkpt><trkpt lat="44.1817324" lon="10.376168"><ele>816.0</ele><time>2026-04-13T10:18:27.957Z</time></trkpt><trkpt lat="44.1817244" lon="10.3760725"><ele>816.0</ele><time>2026-04-13T10:18:33.968Z</time></trkpt><trkpt lat="44.1817184" lon="10.376174"><ele>816.0</ele><time>2026-04-13T10:18:38.968Z</time></trkpt><trkpt lat="44.1817252" lon="10.3762813"><ele>816.0</ele><time>2026-04-13T10:18:40.977Z</time></trkpt><trkpt lat="44.1816985" lon="10.3764047"><ele>816.0</ele><time>2026-04-13T10:18:42.959Z</time></trkpt><trkpt lat="44.1816281" lon="10.3765211"><ele>813.3333333333334</ele><time>2026-04-13T10:18:44.96Z</time></trkpt><trkpt lat="44.1815145" lon="10.3765769"><ele>810.6666666666667</ele><time>2026-04-13T10:18:46.956Z</time></trkpt><trkpt lat="44.1813875" lon="10.3765897"><ele>808.0</ele><time>2026-04-13T10:18:48.968Z</time></trkpt><trkpt lat="44.1813234" lon="10.3765943"><ele>805.3333333333334</ele><time>2026-04-13T10:18:49.963Z</time></trkpt><trkpt lat="44.1812587" lon="10.3765979"><ele>802.6666666666667</ele><time>2026-04-13T10:18:50.968Z</time></trkpt><trkpt lat="44.1811937" lon="10.3766082"><ele>800.0</ele><time>2026-04-13T10:18:51.97Z</time></trkpt><trkpt lat="44.1811297" lon="10.3766156"><ele>800.0000000000001</ele><time>2026-04-13T10:18:52.961Z</time></trkpt><trkpt lat="44.1810668" lon="10.3766258"><ele>800.0</ele><time>2026-04-13T10:18:53.978Z</time></trkpt><trkpt lat="44.1810033" lon="10.3766359"><ele>800.0</ele><time>2026-04-13T10:18:54.968Z</time></trkpt><trkpt lat="44.1809421" lon="10.3766579"><ele>800.0</ele><time>2026-04-13T10:18:55.965Z</time></trkpt><trkpt lat="44.1808397" lon="10.3767576"><ele>800.0</ele><time>2026-04-13T10:18:57.967Z</time></trkpt><trkpt lat="44.1808033" lon="10.3768389"><ele>800.0000000000001</ele><time>2026-04-13T10:18:58.964Z</time></trkpt><trkpt lat="44.1807839" lon="10.3769248"><ele>800.0</ele><time>2026-04-13T10:18:59.973Z</time></trkpt><trkpt lat="44.1807803" lon="10.3770247"><ele>800.0000000000001</ele><time>2026-04-13T10:19:00.963Z</time></trkpt><trkpt lat="44.1807884" lon="10.3771282"><ele>800.0</ele><time>2026-04-13T10:19:01.971Z</time></trkpt><trkpt lat="44.1808001" lon="10.3772357"><ele>800.0</ele><time>2026-04-13T10:19:02.979Z</time></trkpt><trkpt lat="44.1808062" lon="10.3773491"><ele>800.0</ele><time>2026-04-13T10:19:03.966Z</time></trkpt><trkpt lat="44.1808119" lon="10.3774585"><ele>800.0000000000001</ele><time>2026-04-13T10:19:04.974Z</time></trkpt><trkpt lat="44.1808149" lon="10.3775743"><ele>800.0</ele><time>2026-04-13T10:19:05.963Z</time></trkpt><trkpt lat="44.1808135" lon="10.3776904"><ele>800.8333333333334</ele><time>2026-04-13T10:19:06.986Z</time></trkpt><trkpt lat="44.1808227" lon="10.3778145"><ele>801.6666666666667</ele><time>2026-04-13T10:19:07.963Z</time></trkpt><trkpt lat="44.1808361" lon="10.3779359"><ele>802.5</ele><time>2026-04-13T10:19:08.988Z</time></trkpt><trkpt lat="44.1808433" lon="10.3780598"><ele>803.3333333333333</ele><time>2026-04-13T10:19:09.965Z</time></trkpt><trkpt lat="44.1808448" lon="10.3781865"><ele>804.1666666666666</ele><time>2026-04-13T10:19:10.956Z</time></trkpt><trkpt lat="44.1808316" lon="10.3783103"><ele>805.0</ele><time>2026-04-13T10:19:11.961Z</time></trkpt><trkpt lat="44.1808107" lon="10.3784339"><ele>805.2</ele><time>2026-04-13T10:19:12.971Z</time></trkpt><trkpt lat="44.180786" lon="10.3785516"><ele>805.4</ele><time>2026-04-13T10:19:13.967Z</time></trkpt><trkpt lat="44.1807499" lon="10.3786789"><ele>805.5999999999999</ele><time>2026-04-13T10:19:14.973Z</time></trkpt><trkpt lat="44.1807158" lon="10.3788077"><ele>805.8</ele><time>2026-04-13T10:19:15.983Z</time></trkpt><trkpt lat="44.1806779" lon="10.3789371"><ele>806.0</ele><time>2026-04-13T10:19:16.974Z</time></trkpt><trkpt lat="44.1806433" lon="10.3790657"><ele>806.0</ele><time>2026-04-13T10:19:17.959Z</time></trkpt><trkpt lat="44.1806249" lon="10.3792045"><ele>806.0</ele><time>2026-04-13T10:19:18.958Z</time></trkpt><trkpt lat="44.1806313" lon="10.3793329"><ele>806.0</ele><time>2026-04-13T10:19:19.958Z</time></trkpt><trkpt lat="44.1806625" lon="10.3794627"><ele>806.0</ele><time>2026-04-13T10:19:20.972Z</time></trkpt><trkpt lat="44.1807115" lon="10.3795835"><ele>806.0</ele><time>2026-04-13T10:19:21.96Z</time></trkpt><trkpt lat="44.180777" lon="10.379702"><ele>804.0</ele><time>2026-04-13T10:19:22.972Z</time></trkpt><trkpt lat="44.1808421" lon="10.3798199"><ele>802.0</ele><time>2026-04-13T10:19:23.968Z</time></trkpt><trkpt lat="44.1808844" lon="10.3799661"><ele>800.0</ele><time>2026-04-13T10:19:24.954Z</time></trkpt><trkpt lat="44.1809134" lon="10.3801179"><ele>798.0</ele><time>2026-04-13T10:19:25.962Z</time></trkpt><trkpt lat="44.1809195" lon="10.3802775"><ele>796.0</ele><time>2026-04-13T10:19:26.97Z</time></trkpt><trkpt lat="44.1809154" lon="10.3804349"><ele>793.75</ele><time>2026-04-13T10:19:27.97Z</time></trkpt><trkpt lat="44.1809072" lon="10.3805898"><ele>791.5</ele><time>2026-04-13T10:19:28.961Z</time></trkpt><trkpt lat="44.1809131" lon="10.3807485"><ele>789.25</ele><time>2026-04-13T10:19:29.971Z</time></trkpt><trkpt lat="44.1809432" lon="10.3808986"><ele>787.0</ele><time>2026-04-13T10:19:30.967Z</time></trkpt><trkpt lat="44.1810002" lon="10.3810358"><ele>787.0</ele><time>2026-04-13T10:19:31.98Z</time></trkpt><trkpt lat="44.1810727" lon="10.3811666"><ele>787.0</ele><time>2026-04-13T10:19:32.994Z</time></trkpt><trkpt lat="44.1811614" lon="10.3812827"><ele>787.0</ele><time>2026-04-13T10:19:33.971Z</time></trkpt><trkpt lat="44.1812463" lon="10.3814011"><ele>787.0</ele><time>2026-04-13T10:19:34.976Z</time></trkpt><trkpt lat="44.1813327" lon="10.3815188"><ele>787.0</ele><time>2026-04-13T10:19:35.977Z</time></trkpt><trkpt lat="44.1814243" lon="10.381609"><ele>787.0</ele><time>2026-04-13T10:19:36.962Z</time></trkpt><trkpt lat="44.181524" lon="10.3816764"><ele>787.0</ele><time>2026-04-13T10:19:37.975Z</time></trkpt><trkpt lat="44.1816347" lon="10.3817131"><ele>787.0</ele><time>2026-04-13T10:19:38.971Z</time></trkpt><trkpt lat="44.1817423" lon="10.3817313"><ele>787.0</ele><time>2026-04-13T10:19:39.964Z</time></trkpt><trkpt lat="44.181851" lon="10.3817386"><ele>786.9999999999999</ele><time>2026-04-13T10:19:40.969Z</time></trkpt><trkpt lat="44.1819498" lon="10.3817453"><ele>787.0</ele><time>2026-04-13T10:19:41.962Z</time></trkpt><trkpt lat="44.1820369" lon="10.3817471"><ele>787.0</ele><time>2026-04-13T10:19:42.983Z</time></trkpt><trkpt lat="44.1821036" lon="10.3817621"><ele>787.0</ele><time>2026-04-13T10:19:43.976Z</time></trkpt><trkpt lat="44.1821683" lon="10.3817836"><ele>786.9999999999999</ele><time>2026-04-13T10:19:44.987Z</time></trkpt><trkpt lat="44.1821954" lon="10.3819197"><ele>787.0</ele><time>2026-04-13T10:19:46.981Z</time></trkpt><trkpt lat="44.1821043" lon="10.3820134"><ele>786.9999999999999</ele><time>2026-04-13T10:19:48.969Z</time></trkpt><trkpt lat="44.1820311" lon="10.3819999"><ele>787.0</ele><time>2026-04-13T10:19:49.976Z</time></trkpt><trkpt lat="44.1819635" lon="10.3819988"><ele>787.0</ele><time>2026-04-13T10:19:50.962Z</time></trkpt><trkpt lat="44.1818887" lon="10.3819972"><ele>787.0</ele><time>2026-04-13T10:19:51.962Z</time></trkpt><trkpt lat="44.1818094" lon="10.3819848"><ele>786.9999999999999</ele><time>2026-04-13T10:19:52.969Z</time></trkpt><trkpt lat="44.1817268" lon="10.3819779"><ele>787.0</ele><time>2026-04-13T10:19:53.965Z</time></trkpt><trkpt lat="44.181644" lon="10.3819616"><ele>787.0</ele><time>2026-04-13T10:19:54.971Z</time></trkpt><trkpt lat="44.1815566" lon="10.3819404"><ele>787.0</ele><time>2026-04-13T10:19:55.98Z</time></trkpt><trkpt lat="44.181469" lon="10.3819007"><ele>787.0</ele><time>2026-04-13T10:19:56.967Z</time></trkpt><trkpt lat="44.1813771" lon="10.3818686"><ele>787.0</ele><time>2026-04-13T10:19:57.957Z</time></trkpt><trkpt lat="44.1812829" lon="10.3818313"><ele>787.0</ele><time>2026-04-13T10:19:58.969Z</time></trkpt><trkpt lat="44.1811874" lon="10.3817965"><ele>783.8</ele><time>2026-04-13T10:19:59.973Z</time></trkpt><trkpt lat="44.1810896" lon="10.3817549"><ele>780.6</ele><time>2026-04-13T10:20:00.968Z</time></trkpt><trkpt lat="44.1809895" lon="10.381711"><ele>777.4</ele><time>2026-04-13T10:20:01.967Z</time></trkpt><trkpt lat="44.1808865" lon="10.3816761"><ele>774.1999999999999</ele><time>2026-04-13T10:20:02.982Z</time></trkpt><trkpt lat="44.1807821" lon="10.3816297"><ele>771.0</ele><time>2026-04-13T10:20:03.971Z</time></trkpt><trkpt lat="44.1806714" lon="10.3815884"><ele>768.8</ele><time>2026-04-13T10:20:04.957Z</time></trkpt><trkpt lat="44.1805655" lon="10.3815477"><ele>766.5999999999999</ele><time>2026-04-13T10:20:05.981Z</time></trkpt><trkpt lat="44.1804539" lon="10.3815045"><ele>764.4</ele><time>2026-04-13T10:20:06.979Z</time></trkpt><trkpt lat="44.1803656" lon="10.3814748"><ele>762.2</ele><time>2026-04-13T10:20:07.975Z</time></trkpt><trkpt lat="44.1802843" lon="10.3814176"><ele>760.0</ele><time>2026-04-13T10:20:08.978Z</time></trkpt><trkpt lat="44.1802176" lon="10.3813326"><ele>760.0</ele><time>2026-04-13T10:20:09.985Z</time></trkpt><trkpt lat="44.1801584" lon="10.3812172"><ele>760.0</ele><time>2026-04-13T10:20:10.974Z</time></trkpt><trkpt lat="44.1801072" lon="10.3810966"><ele>760.0</ele><time>2026-04-13T10:20:11.974Z</time></trkpt><trkpt lat="44.1800604" lon="10.3809632"><ele>760.0</ele><time>2026-04-13T10:20:12.978Z</time></trkpt><trkpt lat="44.1800092" lon="10.3808302"><ele>760.0</ele><time>2026-04-13T10:20:13.983Z</time></trkpt><trkpt lat="44.1799587" lon="10.3806921"><ele>760.0</ele><time>2026-04-13T10:20:14.977Z</time></trkpt><trkpt lat="44.1799025" lon="10.3805589"><ele>760.0</ele><time>2026-04-13T10:20:15.972Z</time></trkpt><trkpt lat="44.1798367" lon="10.3804287"><ele>760.0</ele><time>2026-04-13T10:20:16.963Z</time></trkpt><trkpt lat="44.1797522" lon="10.3803218"><ele>760.0</ele><time>2026-04-13T10:20:17.977Z</time></trkpt><trkpt lat="44.1796562" lon="10.3802362"><ele>757.25</ele><time>2026-04-13T10:20:18.957Z</time></trkpt><trkpt lat="44.1795512" lon="10.3801692"><ele>754.5</ele><time>2026-04-13T10:20:19.973Z</time></trkpt><trkpt lat="44.179445" lon="10.3801103"><ele>751.75</ele><time>2026-04-13T10:20:20.96Z</time></trkpt><trkpt lat="44.1793339" lon="10.3800525"><ele>749.0</ele><time>2026-04-13T10:20:21.977Z</time></trkpt><trkpt lat="44.1792216" lon="10.379993"><ele>749.0</ele><time>2026-04-13T10:20:22.973Z</time></trkpt><trkpt lat="44.1791126" lon="10.3799306"><ele>749.0</ele><time>2026-04-13T10:20:23.972Z</time></trkpt><trkpt lat="44.1789984" lon="10.3798682"><ele>749.0</ele><time>2026-04-13T10:20:24.98Z</time></trkpt><trkpt lat="44.1788861" lon="10.379804"><ele>749.0</ele><time>2026-04-13T10:20:25.968Z</time></trkpt><trkpt lat="44.178772" lon="10.3797368"><ele>747.5</ele><time>2026-04-13T10:20:26.969Z</time></trkpt><trkpt lat="44.1786581" lon="10.3796672"><ele>746.0</ele><time>2026-04-13T10:20:27.98Z</time></trkpt><trkpt lat="44.1785438" lon="10.3795939"><ele>744.5</ele><time>2026-04-13T10:20:28.964Z</time></trkpt><trkpt lat="44.1784302" lon="10.3795159"><ele>743.0</ele><time>2026-04-13T10:20:29.973Z</time></trkpt><trkpt lat="44.1783128" lon="10.3794396"><ele>743.0</ele><time>2026-04-13T10:20:30.967Z</time></trkpt><trkpt lat="44.1782064" lon="10.3793684"><ele>743.0</ele><time>2026-04-13T10:20:31.99Z</time></trkpt><trkpt lat="44.1781134" lon="10.3792987"><ele>743.0</ele><time>2026-04-13T10:20:32.973Z</time></trkpt><trkpt lat="44.1780218" lon="10.3792119"><ele>743.0</ele><time>2026-04-13T10:20:33.981Z</time></trkpt><trkpt lat="44.1779406" lon="10.3791021"><ele>743.0</ele><time>2026-04-13T10:20:34.966Z</time></trkpt><trkpt lat="44.1778653" lon="10.3789775"><ele>740.25</ele><time>2026-04-13T10:20:35.985Z</time></trkpt><trkpt lat="44.177793" lon="10.3788492"><ele>737.5</ele><time>2026-04-13T10:20:36.985Z</time></trkpt><trkpt lat="44.1777231" lon="10.3787123"><ele>734.75</ele><time>2026-04-13T10:20:37.972Z</time></trkpt><trkpt lat="44.1776524" lon="10.3785792"><ele>732.0</ele><time>2026-04-13T10:20:38.979Z</time></trkpt><trkpt lat="44.1775787" lon="10.3784453"><ele>732.0</ele><time>2026-04-13T10:20:39.967Z</time></trkpt><trkpt lat="44.1775058" lon="10.3783099"><ele>732.0</ele><time>2026-04-13T10:20:40.962Z</time></trkpt><trkpt lat="44.1774381" lon="10.3781808"><ele>732.0</ele><time>2026-04-13T10:20:41.971Z</time></trkpt><trkpt lat="44.1773662" lon="10.3780738"><ele>732.0</ele><time>2026-04-13T10:20:42.975Z</time></trkpt><trkpt lat="44.1772842" lon="10.3779879"><ele>732.0</ele><time>2026-04-13T10:20:43.97Z</time></trkpt><trkpt lat="44.1771937" lon="10.3779344"><ele>730.4000000000001</ele><time>2026-04-13T10:20:44.965Z</time></trkpt><trkpt lat="44.1770946" lon="10.3779173"><ele>728.8000000000001</ele><time>2026-04-13T10:20:45.965Z</time></trkpt><trkpt lat="44.1769897" lon="10.3779334"><ele>727.2</ele><time>2026-04-13T10:20:46.974Z</time></trkpt><trkpt lat="44.1768879" lon="10.3779718"><ele>725.6</ele><time>2026-04-13T10:20:47.967Z</time></trkpt><trkpt lat="44.1767769" lon="10.3780127"><ele>724.0</ele><time>2026-04-13T10:20:48.978Z</time></trkpt><trkpt lat="44.176671" lon="10.3780285"><ele>722.8000000000001</ele><time>2026-04-13T10:20:49.976Z</time></trkpt><trkpt lat="44.1765635" lon="10.3780215"><ele>721.6</ele><time>2026-04-13T10:20:50.961Z</time></trkpt><trkpt lat="44.1764603" lon="10.377984"><ele>720.4</ele><time>2026-04-13T10:20:51.973Z</time></trkpt><trkpt lat="44.1763617" lon="10.377923"><ele>719.2</ele><time>2026-04-13T10:20:52.968Z</time></trkpt><trkpt lat="44.176283" lon="10.3778196"><ele>718.0</ele><time>2026-04-13T10:20:53.967Z</time></trkpt><trkpt lat="44.1762173" lon="10.3777014"><ele>715.0</ele><time>2026-04-13T10:20:54.963Z</time></trkpt><trkpt lat="44.1761712" lon="10.3775652"><ele>712.0</ele><time>2026-04-13T10:20:55.974Z</time></trkpt><trkpt lat="44.1761468" lon="10.3774067"><ele>709.0</ele><time>2026-04-13T10:20:56.966Z</time></trkpt><trkpt lat="44.1761484" lon="10.3772659"><ele>706.0</ele><time>2026-04-13T10:20:57.98Z</time></trkpt><trkpt lat="44.1761614" lon="10.377146"><ele>703.0</ele><time>2026-04-13T10:20:58.974Z</time></trkpt><trkpt lat="44.1761616" lon="10.3770401"><ele>703.0</ele><time>2026-04-13T10:20:59.964Z</time></trkpt><trkpt lat="44.1761338" lon="10.3769486"><ele>703.0</ele><time>2026-04-13T10:21:00.97Z</time></trkpt><trkpt lat="44.176089" lon="10.3768759"><ele>703.0</ele><time>2026-04-13T10:21:01.979Z</time></trkpt><trkpt lat="44.1760219" lon="10.3768877"><ele>703.0</ele><time>2026-04-13T10:21:02.967Z</time></trkpt><trkpt lat="44.1759615" lon="10.3769173"><ele>703.0</ele><time>2026-04-13T10:21:03.987Z</time></trkpt><trkpt lat="44.1759144" lon="10.3770812"><ele>703.0</ele><time>2026-04-13T10:21:05.973Z</time></trkpt><trkpt lat="44.1759171" lon="10.3771925"><ele>703.0</ele><time>2026-04-13T10:21:06.97Z</time></trkpt><trkpt lat="44.1759251" lon="10.3773041"><ele>703.0</ele><time>2026-04-13T10:21:07.981Z</time></trkpt><trkpt lat="44.1759274" lon="10.3774224"><ele>703.0</ele><time>2026-04-13T10:21:08.974Z</time></trkpt><trkpt lat="44.1759468" lon="10.3775458"><ele>703.0</ele><time>2026-04-13T10:21:09.977Z</time></trkpt><trkpt lat="44.1759602" lon="10.3776729"><ele>703.0</ele><time>2026-04-13T10:21:10.967Z</time></trkpt><trkpt lat="44.175969" lon="10.3777956"><ele>703.0</ele><time>2026-04-13T10:21:11.976Z</time></trkpt><trkpt lat="44.1759868" lon="10.3779377"><ele>702.0</ele><time>2026-04-13T10:21:12.967Z</time></trkpt><trkpt lat="44.1759948" lon="10.3780837"><ele>701.0</ele><time>2026-04-13T10:21:13.956Z</time></trkpt><trkpt lat="44.1760021" lon="10.3782253"><ele>700.0</ele><time>2026-04-13T10:21:14.976Z</time></trkpt><trkpt lat="44.1760218" lon="10.3783673"><ele>699.0</ele><time>2026-04-13T10:21:15.979Z</time></trkpt><trkpt lat="44.1760517" lon="10.3785093"><ele>698.0</ele><time>2026-04-13T10:21:16.98Z</time></trkpt><trkpt lat="44.1761081" lon="10.3786364"><ele>698.0</ele><time>2026-04-13T10:21:17.97Z</time></trkpt><trkpt lat="44.1761756" lon="10.3787521"><ele>698.0</ele><time>2026-04-13T10:21:18.98Z</time></trkpt><trkpt lat="44.1762567" lon="10.3788625"><ele>698.0</ele><time>2026-04-13T10:21:19.979Z</time></trkpt><trkpt lat="44.1763507" lon="10.3789496"><ele>698.0</ele><time>2026-04-13T10:21:20.977Z</time></trkpt><trkpt lat="44.1764482" lon="10.3790345"><ele>698.0</ele><time>2026-04-13T10:21:21.98Z</time></trkpt><trkpt lat="44.176548" lon="10.3791253"><ele>697.75</ele><time>2026-04-13T10:21:22.969Z</time></trkpt><trkpt lat="44.176644" lon="10.3792279"><ele>697.5</ele><time>2026-04-13T10:21:23.979Z</time></trkpt><trkpt lat="44.1767287" lon="10.379355"><ele>697.25</ele><time>2026-04-13T10:21:24.97Z</time></trkpt><trkpt lat="44.1768002" lon="10.3795018"><ele>697.0</ele><time>2026-04-13T10:21:25.981Z</time></trkpt><trkpt lat="44.1768616" lon="10.379661"><ele>693.25</ele><time>2026-04-13T10:21:26.985Z</time></trkpt><trkpt lat="44.1769091" lon="10.3798227"><ele>689.5</ele><time>2026-04-13T10:21:27.982Z</time></trkpt><trkpt lat="44.1769467" lon="10.3799877"><ele>685.75</ele><time>2026-04-13T10:21:28.977Z</time></trkpt><trkpt lat="44.1769839" lon="10.3801453"><ele>682.0</ele><time>2026-04-13T10:21:29.981Z</time></trkpt><trkpt lat="44.1770137" lon="10.380315"><ele>682.0</ele><time>2026-04-13T10:21:30.969Z</time></trkpt><trkpt lat="44.1770206" lon="10.3804933"><ele>682.0</ele><time>2026-04-13T10:21:31.977Z</time></trkpt><trkpt lat="44.1770084" lon="10.3806785"><ele>682.0</ele><time>2026-04-13T10:21:32.97Z</time></trkpt><trkpt lat="44.1769783" lon="10.3808515"><ele>682.0</ele><time>2026-04-13T10:21:33.973Z</time></trkpt><trkpt lat="44.1769447" lon="10.3810276"><ele>680.5</ele><time>2026-04-13T10:21:34.987Z</time></trkpt><trkpt lat="44.1769077" lon="10.3812028"><ele>679.0</ele><time>2026-04-13T10:21:35.982Z</time></trkpt><trkpt lat="44.1768652" lon="10.3813835"><ele>677.5</ele><time>2026-04-13T10:21:36.971Z</time></trkpt><trkpt lat="44.1768043" lon="10.3815524"><ele>676.0</ele><time>2026-04-13T10:21:37.983Z</time></trkpt><trkpt lat="44.1767278" lon="10.3817009"><ele>676.0</ele><time>2026-04-13T10:21:38.973Z</time></trkpt><trkpt lat="44.1766538" lon="10.3818258"><ele>676.0</ele><time>2026-04-13T10:21:39.979Z</time></trkpt><trkpt lat="44.1765868" lon="10.3819356"><ele>676.0</ele><time>2026-04-13T10:21:40.987Z</time></trkpt><trkpt lat="44.1765385" lon="10.3820439"><ele>676.0</ele><time>2026-04-13T10:21:41.958Z</time></trkpt><trkpt lat="44.1765335" lon="10.3821532"><ele>676.0</ele><time>2026-04-13T10:21:42.983Z</time></trkpt><trkpt lat="44.1765541" lon="10.3822587"><ele>675.1428571428571</ele><time>2026-04-13T10:21:43.971Z</time></trkpt><trkpt lat="44.1765996" lon="10.3823459"><ele>674.2857142857142</ele><time>2026-04-13T10:21:44.961Z</time></trkpt><trkpt lat="44.1766635" lon="10.3824008"><ele>673.4285714285713</ele><time>2026-04-13T10:21:45.973Z</time></trkpt><trkpt lat="44.1767341" lon="10.3824284"><ele>672.5714285714286</ele><time>2026-04-13T10:21:46.977Z</time></trkpt><trkpt lat="44.1768032" lon="10.3824502"><ele>671.7142857142857</ele><time>2026-04-13T10:21:47.969Z</time></trkpt><trkpt lat="44.1768757" lon="10.3824755"><ele>670.8571428571428</ele><time>2026-04-13T10:21:48.984Z</time></trkpt><trkpt lat="44.1769418" lon="10.3825243"><ele>670.0</ele><time>2026-04-13T10:21:49.972Z</time></trkpt><trkpt lat="44.176994" lon="10.3826088"><ele>670.0</ele><time>2026-04-13T10:21:50.968Z</time></trkpt><trkpt lat="44.1770339" lon="10.382698"><ele>670.0</ele><time>2026-04-13T10:21:51.973Z</time></trkpt><trkpt lat="44.1770532" lon="10.3827942"><ele>670.0</ele><time>2026-04-13T10:21:52.965Z</time></trkpt><trkpt lat="44.1770589" lon="10.3828936"><ele>670.0</ele><time>2026-04-13T10:21:53.981Z</time></trkpt><trkpt lat="44.1770552" lon="10.3830073"><ele>670.0</ele><time>2026-04-13T10:21:54.976Z</time></trkpt><trkpt lat="44.1770367" lon="10.3831263"><ele>670.0</ele><time>2026-04-13T10:21:55.978Z</time></trkpt><trkpt lat="44.1770134" lon="10.383246"><ele>669.0</ele><time>2026-04-13T10:21:56.976Z</time></trkpt><trkpt lat="44.1769908" lon="10.3833697"><ele>668.0</ele><time>2026-04-13T10:21:57.964Z</time></trkpt><trkpt lat="44.1769646" lon="10.3834999"><ele>667.0</ele><time>2026-04-13T10:21:58.982Z</time></trkpt><trkpt lat="44.1769311" lon="10.3836293"><ele>666.0</ele><time>2026-04-13T10:21:59.959Z</time></trkpt><trkpt lat="44.1769035" lon="10.3837553"><ele>665.0</ele><time>2026-04-13T10:22:00.97Z</time></trkpt><trkpt lat="44.1768955" lon="10.3838759"><ele>663.6</ele><time>2026-04-13T10:22:01.962Z</time></trkpt><trkpt lat="44.1769199" lon="10.3839722"><ele>662.2</ele><time>2026-04-13T10:22:02.973Z</time></trkpt><trkpt lat="44.1769777" lon="10.3840582"><ele>660.8</ele><time>2026-04-13T10:22:03.981Z</time></trkpt><trkpt lat="44.1770505" lon="10.3841338"><ele>659.4</ele><time>2026-04-13T10:22:04.964Z</time></trkpt><trkpt lat="44.1771289" lon="10.3842182"><ele>658.0</ele><time>2026-04-13T10:22:05.973Z</time></trkpt><trkpt lat="44.1772127" lon="10.3843025"><ele>658.0</ele><time>2026-04-13T10:22:06.976Z</time></trkpt><trkpt lat="44.177297" lon="10.384393"><ele>658.0</ele><time>2026-04-13T10:22:07.989Z</time></trkpt><trkpt lat="44.1773823" lon="10.3844903"><ele>658.0</ele><time>2026-04-13T10:22:08.974Z</time></trkpt><trkpt lat="44.1774749" lon="10.3845831"><ele>658.0</ele><time>2026-04-13T10:22:09.956Z</time></trkpt><trkpt lat="44.177566" lon="10.3846804"><ele>658.0</ele><time>2026-04-13T10:22:10.987Z</time></trkpt><trkpt lat="44.177662" lon="10.3847807"><ele>654.5</ele><time>2026-04-13T10:22:11.967Z</time></trkpt><trkpt lat="44.1777519" lon="10.3848974"><ele>651.0</ele><time>2026-04-13T10:22:12.97Z</time></trkpt><trkpt lat="44.1778351" lon="10.3850266"><ele>647.5</ele><time>2026-04-13T10:22:13.98Z</time></trkpt><trkpt lat="44.1779047" lon="10.3851758"><ele>644.0</ele><time>2026-04-13T10:22:14.971Z</time></trkpt><trkpt lat="44.1779708" lon="10.3853295"><ele>644.0</ele><time>2026-04-13T10:22:15.973Z</time></trkpt><trkpt lat="44.1780376" lon="10.3854845"><ele>644.0</ele><time>2026-04-13T10:22:16.968Z</time></trkpt><trkpt lat="44.1781054" lon="10.3856404"><ele>644.0</ele><time>2026-04-13T10:22:17.975Z</time></trkpt><trkpt lat="44.1781666" lon="10.3858036"><ele>644.0</ele><time>2026-04-13T10:22:18.986Z</time></trkpt><trkpt lat="44.1782164" lon="10.3859728"><ele>638.75</ele><time>2026-04-13T10:22:19.971Z</time></trkpt><trkpt lat="44.1782482" lon="10.3861526"><ele>633.5</ele><time>2026-04-13T10:22:20.962Z</time></trkpt><trkpt lat="44.1782665" lon="10.386338"><ele>628.25</ele><time>2026-04-13T10:22:21.982Z</time></trkpt><trkpt lat="44.1782799" lon="10.3865281"><ele>623.0</ele><time>2026-04-13T10:22:22.98Z</time></trkpt><trkpt lat="44.1782971" lon="10.386705"><ele>623.0</ele><time>2026-04-13T10:22:23.98Z</time></trkpt><trkpt lat="44.1783106" lon="10.386862"><ele>623.0</ele><time>2026-04-13T10:22:24.974Z</time></trkpt><trkpt lat="44.178313" lon="10.3870057"><ele>623.0</ele><time>2026-04-13T10:22:25.975Z</time></trkpt><trkpt lat="44.1782926" lon="10.3871286"><ele>623.0</ele><time>2026-04-13T10:22:26.981Z</time></trkpt><trkpt lat="44.1782468" lon="10.3872369"><ele>623.0</ele><time>2026-04-13T10:22:27.97Z</time></trkpt><trkpt lat="44.1781783" lon="10.3873161"><ele>623.0</ele><time>2026-04-13T10:22:28.972Z</time></trkpt><trkpt lat="44.1780993" lon="10.3873744"><ele>623.0</ele><time>2026-04-13T10:22:29.972Z</time></trkpt><trkpt lat="44.1780128" lon="10.3874241"><ele>623.0</ele><time>2026-04-13T10:22:30.976Z</time></trkpt><trkpt lat="44.1779267" lon="10.3874846"><ele>623.0</ele><time>2026-04-13T10:22:31.961Z</time></trkpt><trkpt lat="44.1778356" lon="10.3875513"><ele>623.0</ele><time>2026-04-13T10:22:32.98Z</time></trkpt><trkpt lat="44.1777427" lon="10.3876204"><ele>623.0</ele><time>2026-04-13T10:22:33.991Z</time></trkpt><trkpt lat="44.1776446" lon="10.387685"><ele>623.0</ele><time>2026-04-13T10:22:34.981Z</time></trkpt><trkpt lat="44.1775485" lon="10.3877505"><ele>623.0</ele><time>2026-04-13T10:22:35.975Z</time></trkpt><trkpt lat="44.1774484" lon="10.38782"><ele>623.0</ele><time>2026-04-13T10:22:36.976Z</time></trkpt><trkpt lat="44.1773473" lon="10.3878923"><ele>623.0</ele><time>2026-04-13T10:22:37.958Z</time></trkpt><trkpt lat="44.1772484" lon="10.3879644"><ele>626.25</ele><time>2026-04-13T10:22:38.976Z</time></trkpt><trkpt lat="44.1771448" lon="10.3880364"><ele>629.5</ele><time>2026-04-13T10:22:39.969Z</time></trkpt><trkpt lat="44.1770414" lon="10.3881071"><ele>632.75</ele><time>2026-04-13T10:22:40.987Z</time></trkpt><trkpt lat="44.1769327" lon="10.3881701"><ele>636.0</ele><time>2026-04-13T10:22:41.974Z</time></trkpt><trkpt lat="44.1768188" lon="10.3882085"><ele>636.0</ele><time>2026-04-13T10:22:42.972Z</time></trkpt><trkpt lat="44.1766989" lon="10.3882354"><ele>636.0</ele><time>2026-04-13T10:22:43.989Z</time></trkpt><trkpt lat="44.1765829" lon="10.3882646"><ele>636.0</ele><time>2026-04-13T10:22:44.968Z</time></trkpt><trkpt lat="44.1764625" lon="10.3882986"><ele>636.0</ele><time>2026-04-13T10:22:45.975Z</time></trkpt><trkpt lat="44.1763479" lon="10.3883469"><ele>630.25</ele><time>2026-04-13T10:22:46.974Z</time></trkpt><trkpt lat="44.1762309" lon="10.3884057"><ele>624.5</ele><time>2026-04-13T10:22:47.973Z</time></trkpt><trkpt lat="44.1761112" lon="10.3884685"><ele>618.75</ele><time>2026-04-13T10:22:48.977Z</time></trkpt><trkpt lat="44.1759986" lon="10.3885248"><ele>613.0</ele><time>2026-04-13T10:22:49.972Z</time></trkpt><trkpt lat="44.1758786" lon="10.3885765"><ele>613.0</ele><time>2026-04-13T10:22:50.967Z</time></trkpt><trkpt lat="44.1757639" lon="10.3886339"><ele>613.0</ele><time>2026-04-13T10:22:51.991Z</time></trkpt><trkpt lat="44.1756508" lon="10.3886863"><ele>613.0</ele><time>2026-04-13T10:22:52.97Z</time></trkpt><trkpt lat="44.175537" lon="10.3887339"><ele>613.0</ele><time>2026-04-13T10:22:53.965Z</time></trkpt><trkpt lat="44.1754263" lon="10.3887795"><ele>611.0</ele><time>2026-04-13T10:22:54.975Z</time></trkpt><trkpt lat="44.175309" lon="10.3888212"><ele>609.0</ele><time>2026-04-13T10:22:55.974Z</time></trkpt><trkpt lat="44.1751975" lon="10.3888564"><ele>607.0</ele><time>2026-04-13T10:22:56.986Z</time></trkpt><trkpt lat="44.1750862" lon="10.3888879"><ele>605.0</ele><time>2026-04-13T10:22:57.963Z</time></trkpt><trkpt lat="44.1749774" lon="10.3889279"><ele>607.0</ele><time>2026-04-13T10:22:58.978Z</time></trkpt><trkpt lat="44.1748636" lon="10.3889635"><ele>609.0</ele><time>2026-04-13T10:22:59.966Z</time></trkpt><trkpt lat="44.174757" lon="10.3890023"><ele>611.0</ele><time>2026-04-13T10:23:00.977Z</time></trkpt><trkpt lat="44.1746522" lon="10.3890381"><ele>613.0</ele><time>2026-04-13T10:23:01.967Z</time></trkpt><trkpt lat="44.1745465" lon="10.389074"><ele>615.0</ele><time>2026-04-13T10:23:02.976Z</time></trkpt><trkpt lat="44.174445" lon="10.3891079"><ele>615.0</ele><time>2026-04-13T10:23:03.98Z</time></trkpt><trkpt lat="44.1743432" lon="10.3891441"><ele>615.0</ele><time>2026-04-13T10:23:04.967Z</time></trkpt><trkpt lat="44.1742453" lon="10.389185"><ele>615.0</ele><time>2026-04-13T10:23:05.967Z</time></trkpt><trkpt lat="44.1741427" lon="10.3892179"><ele>615.0</ele><time>2026-04-13T10:23:06.976Z</time></trkpt><trkpt lat="44.1740471" lon="10.3892591"><ele>615.0</ele><time>2026-04-13T10:23:07.982Z</time></trkpt><trkpt lat="44.1739483" lon="10.3892969"><ele>613.6</ele><time>2026-04-13T10:23:08.971Z</time></trkpt><trkpt lat="44.1738511" lon="10.3893341"><ele>612.2</ele><time>2026-04-13T10:23:09.989Z</time></trkpt><trkpt lat="44.1737465" lon="10.3893577"><ele>610.8</ele><time>2026-04-13T10:23:10.98Z</time></trkpt><trkpt lat="44.1736491" lon="10.3893816"><ele>609.4</ele><time>2026-04-13T10:23:11.977Z</time></trkpt><trkpt lat="44.1735499" lon="10.3894095"><ele>608.0</ele><time>2026-04-13T10:23:12.975Z</time></trkpt><trkpt lat="44.1734502" lon="10.3894384"><ele>608.0</ele><time>2026-04-13T10:23:13.98Z</time></trkpt><trkpt lat="44.1733522" lon="10.3894675"><ele>608.0</ele><time>2026-04-13T10:23:14.97Z</time></trkpt><trkpt lat="44.1732514" lon="10.389471"><ele>608.0</ele><time>2026-04-13T10:23:15.974Z</time></trkpt><trkpt lat="44.173157" lon="10.3894026"><ele>608.0</ele><time>2026-04-13T10:23:16.992Z</time></trkpt><trkpt lat="44.1730632" lon="10.3893188"><ele>608.0</ele><time>2026-04-13T10:23:17.969Z</time></trkpt><trkpt lat="44.1729649" lon="10.3892348"><ele>607.0</ele><time>2026-04-13T10:23:18.972Z</time></trkpt><trkpt lat="44.1728554" lon="10.3891736"><ele>606.0</ele><time>2026-04-13T10:23:19.972Z</time></trkpt><trkpt lat="44.1727392" lon="10.3891374"><ele>605.0</ele><time>2026-04-13T10:23:20.975Z</time></trkpt><trkpt lat="44.1726252" lon="10.3891341"><ele>604.0</ele><time>2026-04-13T10:23:21.99Z</time></trkpt><trkpt lat="44.1725064" lon="10.3891602"><ele>604.0</ele><time>2026-04-13T10:23:22.969Z</time></trkpt><trkpt lat="44.1723953" lon="10.3892236"><ele>604.0</ele><time>2026-04-13T10:23:23.974Z</time></trkpt><trkpt lat="44.1722828" lon="10.3892905"><ele>604.0</ele><time>2026-04-13T10:23:24.979Z</time></trkpt><trkpt lat="44.1721631" lon="10.3893223"><ele>604.0</ele><time>2026-04-13T10:23:25.983Z</time></trkpt><trkpt lat="44.1720435" lon="10.3893333"><ele>603.75</ele><time>2026-04-13T10:23:26.962Z</time></trkpt><trkpt lat="44.1719212" lon="10.3893074"><ele>603.5</ele><time>2026-04-13T10:23:27.965Z</time></trkpt><trkpt lat="44.1717989" lon="10.389277"><ele>603.25</ele><time>2026-04-13T10:23:28.97Z</time></trkpt><trkpt lat="44.1716814" lon="10.3892235"><ele>603.0</ele><time>2026-04-13T10:23:29.962Z</time></trkpt><trkpt lat="44.1715726" lon="10.3891482"><ele>604.75</ele><time>2026-04-13T10:23:30.974Z</time></trkpt><trkpt lat="44.1714804" lon="10.3890397"><ele>606.5</ele><time>2026-04-13T10:23:31.958Z</time></trkpt><trkpt lat="44.1714048" lon="10.3889138"><ele>608.25</ele><time>2026-04-13T10:23:32.96Z</time></trkpt><trkpt lat="44.1713277" lon="10.388784"><ele>610.0</ele><time>2026-04-13T10:23:33.974Z</time></trkpt><trkpt lat="44.1712335" lon="10.3886755"><ele>604.0</ele><time>2026-04-13T10:23:34.968Z</time></trkpt><trkpt lat="44.1711221" lon="10.3886007"><ele>598.0</ele><time>2026-04-13T10:23:35.978Z</time></trkpt><trkpt lat="44.1709995" lon="10.3885655"><ele>592.0</ele><time>2026-04-13T10:23:36.972Z</time></trkpt><trkpt lat="44.1708748" lon="10.3885759"><ele>586.0</ele><time>2026-04-13T10:23:37.964Z</time></trkpt><trkpt lat="44.1707507" lon="10.3886083"><ele>583.0</ele><time>2026-04-13T10:23:38.974Z</time></trkpt><trkpt lat="44.1706278" lon="10.3886473"><ele>580.0</ele><time>2026-04-13T10:23:39.976Z</time></trkpt><trkpt lat="44.1705015" lon="10.3886839"><ele>577.0</ele><time>2026-04-13T10:23:40.979Z</time></trkpt><trkpt lat="44.1703712" lon="10.3887201"><ele>574.0</ele><time>2026-04-13T10:23:41.975Z</time></trkpt><trkpt lat="44.170255" lon="10.3887736"><ele>574.0</ele><time>2026-04-13T10:23:42.97Z</time></trkpt><trkpt lat="44.1701418" lon="10.3888357"><ele>574.0</ele><time>2026-04-13T10:23:43.975Z</time></trkpt><trkpt lat="44.1700199" lon="10.3888901"><ele>574.0</ele><time>2026-04-13T10:23:44.978Z</time></trkpt><trkpt lat="44.1699026" lon="10.3889517"><ele>574.0</ele><time>2026-04-13T10:23:45.972Z</time></trkpt><trkpt lat="44.1697852" lon="10.3890115"><ele>574.75</ele><time>2026-04-13T10:23:46.972Z</time></trkpt><trkpt lat="44.1696659" lon="10.3890734"><ele>575.5</ele><time>2026-04-13T10:23:47.986Z</time></trkpt><trkpt lat="44.1695441" lon="10.3891411"><ele>576.25</ele><time>2026-04-13T10:23:48.974Z</time></trkpt><trkpt lat="44.1694302" lon="10.389209"><ele>577.0</ele><time>2026-04-13T10:23:49.972Z</time></trkpt><trkpt lat="44.1693232" lon="10.3892948"><ele>577.0</ele><time>2026-04-13T10:23:50.98Z</time></trkpt><trkpt lat="44.1692251" lon="10.3893881"><ele>577.0</ele><time>2026-04-13T10:23:51.964Z</time></trkpt><trkpt lat="44.1691386" lon="10.3894831"><ele>577.0</ele><time>2026-04-13T10:23:52.968Z</time></trkpt><trkpt lat="44.1690553" lon="10.3895835"><ele>577.0</ele><time>2026-04-13T10:23:53.974Z</time></trkpt><trkpt lat="44.1689881" lon="10.3896767"><ele>577.0</ele><time>2026-04-13T10:23:54.971Z</time></trkpt><trkpt lat="44.1689301" lon="10.3897641"><ele>577.3333333333334</ele><time>2026-04-13T10:23:55.976Z</time></trkpt><trkpt lat="44.1688764" lon="10.3898521"><ele>577.6666666666667</ele><time>2026-04-13T10:23:56.971Z</time></trkpt><trkpt lat="44.1688183" lon="10.3899398"><ele>578.0</ele><time>2026-04-13T10:23:57.976Z</time></trkpt><trkpt lat="44.1687508" lon="10.3900133"><ele>578.3333333333334</ele><time>2026-04-13T10:23:58.965Z</time></trkpt><trkpt lat="44.168673" lon="10.3900672"><ele>578.6666666666666</ele><time>2026-04-13T10:23:59.958Z</time></trkpt><trkpt lat="44.1685967" lon="10.3901183"><ele>579.0</ele><time>2026-04-13T10:24:00.964Z</time></trkpt><trkpt lat="44.1685127" lon="10.3901588"><ele>579.0</ele><time>2026-04-13T10:24:01.968Z</time></trkpt><trkpt lat="44.168423" lon="10.3901933"><ele>579.0</ele><time>2026-04-13T10:24:02.978Z</time></trkpt><trkpt lat="44.1683297" lon="10.3902298"><ele>579.0</ele><time>2026-04-13T10:24:03.983Z</time></trkpt><trkpt lat="44.1682335" lon="10.3902611"><ele>579.0</ele><time>2026-04-13T10:24:04.97Z</time></trkpt><trkpt lat="44.1681387" lon="10.3902983"><ele>579.0</ele><time>2026-04-13T10:24:05.977Z</time></trkpt><trkpt lat="44.1680429" lon="10.3903331"><ele>578.8</ele><time>2026-04-13T10:24:06.969Z</time></trkpt><trkpt lat="44.1679382" lon="10.3903654"><ele>578.5999999999999</ele><time>2026-04-13T10:24:07.976Z</time></trkpt><trkpt lat="44.1678301" lon="10.3904"><ele>578.4</ele><time>2026-04-13T10:24:08.978Z</time></trkpt><trkpt lat="44.1677199" lon="10.3904341"><ele>578.1999999999999</ele><time>2026-04-13T10:24:09.983Z</time></trkpt><trkpt lat="44.1676057" lon="10.3904664"><ele>578.0</ele><time>2026-04-13T10:24:10.98Z</time></trkpt><trkpt lat="44.1674926" lon="10.3905116"><ele>578.0</ele><time>2026-04-13T10:24:11.968Z</time></trkpt><trkpt lat="44.1673857" lon="10.3905888"><ele>578.0</ele><time>2026-04-13T10:24:12.979Z</time></trkpt><trkpt lat="44.1672989" lon="10.3906944"><ele>578.0</ele><time>2026-04-13T10:24:13.974Z</time></trkpt><trkpt lat="44.1672312" lon="10.3908265"><ele>578.0</ele><time>2026-04-13T10:24:14.985Z</time></trkpt><trkpt lat="44.1671792" lon="10.3909719"><ele>575.25</ele><time>2026-04-13T10:24:15.97Z</time></trkpt><trkpt lat="44.1671331" lon="10.3911169"><ele>572.5</ele><time>2026-04-13T10:24:16.972Z</time></trkpt><trkpt lat="44.1670786" lon="10.3912578"><ele>569.75</ele><time>2026-04-13T10:24:17.971Z</time></trkpt><trkpt lat="44.1670245" lon="10.3914008"><ele>567.0</ele><time>2026-04-13T10:24:18.966Z</time></trkpt><trkpt lat="44.1669717" lon="10.3915441"><ele>567.0</ele><time>2026-04-13T10:24:19.979Z</time></trkpt><trkpt lat="44.166919" lon="10.3916859"><ele>567.0</ele><time>2026-04-13T10:24:20.972Z</time></trkpt><trkpt lat="44.1668645" lon="10.3918276"><ele>567.0</ele><time>2026-04-13T10:24:21.973Z</time></trkpt><trkpt lat="44.1668114" lon="10.3919658"><ele>567.0</ele><time>2026-04-13T10:24:22.963Z</time></trkpt><trkpt lat="44.1667553" lon="10.3920977"><ele>566.8000000000001</ele><time>2026-04-13T10:24:23.969Z</time></trkpt><trkpt lat="44.1666798" lon="10.3922245"><ele>566.6</ele><time>2026-04-13T10:24:24.969Z</time></trkpt><trkpt lat="44.1666068" lon="10.392322"><ele>566.4000000000001</ele><time>2026-04-13T10:24:25.971Z</time></trkpt><trkpt lat="44.1665193" lon="10.3924026"><ele>566.2</ele><time>2026-04-13T10:24:26.968Z</time></trkpt><trkpt lat="44.1664226" lon="10.3924525"><ele>566.0</ele><time>2026-04-13T10:24:27.975Z</time></trkpt><trkpt lat="44.1663258" lon="10.3925005"><ele>566.0</ele><time>2026-04-13T10:24:28.975Z</time></trkpt><trkpt lat="44.1662296" lon="10.392541"><ele>566.0</ele><time>2026-04-13T10:24:29.97Z</time></trkpt><trkpt lat="44.1661332" lon="10.3925815"><ele>566.0</ele><time>2026-04-13T10:24:30.976Z</time></trkpt><trkpt lat="44.1660379" lon="10.3926262"><ele>566.0</ele><time>2026-04-13T10:24:31.963Z</time></trkpt><trkpt lat="44.1659451" lon="10.3926797"><ele>566.0</ele><time>2026-04-13T10:24:32.972Z</time></trkpt><trkpt lat="44.1658533" lon="10.3927252"><ele>566.0</ele><time>2026-04-13T10:24:33.955Z</time></trkpt><trkpt lat="44.1657605" lon="10.3927475"><ele>566.0</ele><time>2026-04-13T10:24:34.975Z</time></trkpt><trkpt lat="44.1656685" lon="10.3927328"><ele>566.0</ele><time>2026-04-13T10:24:35.965Z</time></trkpt><trkpt lat="44.1655798" lon="10.3926802"><ele>566.0</ele><time>2026-04-13T10:24:36.975Z</time></trkpt><trkpt lat="44.1655068" lon="10.3925922"><ele>566.0</ele><time>2026-04-13T10:24:37.972Z</time></trkpt><trkpt lat="44.1654489" lon="10.3924994"><ele>567.3333333333333</ele><time>2026-04-13T10:24:38.981Z</time></trkpt><trkpt lat="44.165393" lon="10.3924011"><ele>568.6666666666666</ele><time>2026-04-13T10:24:39.965Z</time></trkpt><trkpt lat="44.1653367" lon="10.3923024"><ele>570.0</ele><time>2026-04-13T10:24:40.979Z</time></trkpt><trkpt lat="44.1652669" lon="10.3922293"><ele>571.3333333333334</ele><time>2026-04-13T10:24:41.966Z</time></trkpt><trkpt lat="44.1651915" lon="10.3921809"><ele>572.6666666666667</ele><time>2026-04-13T10:24:42.976Z</time></trkpt><trkpt lat="44.1651048" lon="10.3921626"><ele>574.0</ele><time>2026-04-13T10:24:43.975Z</time></trkpt><trkpt lat="44.1650164" lon="10.3921661"><ele>574.0</ele><time>2026-04-13T10:24:44.966Z</time></trkpt><trkpt lat="44.1649248" lon="10.3921744"><ele>574.0</ele><time>2026-04-13T10:24:45.976Z</time></trkpt><trkpt lat="44.1648319" lon="10.3921814"><ele>574.0</ele><time>2026-04-13T10:24:46.974Z</time></trkpt><trkpt lat="44.1647369" lon="10.392191"><ele>574.0</ele><time>2026-04-13T10:24:47.979Z</time></trkpt><trkpt lat="44.1646404" lon="10.392196"><ele>574.0</ele><time>2026-04-13T10:24:48.973Z</time></trkpt><trkpt lat="44.1645429" lon="10.3921999"><ele>572.8</ele><time>2026-04-13T10:24:49.972Z</time></trkpt><trkpt lat="44.1644443" lon="10.3922064"><ele>571.5999999999999</ele><time>2026-04-13T10:24:50.978Z</time></trkpt><trkpt lat="44.1643442" lon="10.392216"><ele>570.4</ele><time>2026-04-13T10:24:51.973Z</time></trkpt><trkpt lat="44.1642445" lon="10.3922253"><ele>569.1999999999999</ele><time>2026-04-13T10:24:52.981Z</time></trkpt><trkpt lat="44.1641424" lon="10.3922079"><ele>568.0</ele><time>2026-04-13T10:24:53.971Z</time></trkpt><trkpt lat="44.1640481" lon="10.3921517"><ele>565.6</ele><time>2026-04-13T10:24:54.966Z</time></trkpt><trkpt lat="44.1639698" lon="10.3920655"><ele>563.1999999999999</ele><time>2026-04-13T10:24:55.981Z</time></trkpt><trkpt lat="44.1639078" lon="10.3919519"><ele>560.8</ele><time>2026-04-13T10:24:56.963Z</time></trkpt><trkpt lat="44.1638574" lon="10.3918282"><ele>558.4</ele><time>2026-04-13T10:24:57.972Z</time></trkpt><trkpt lat="44.1638066" lon="10.3917008"><ele>556.0</ele><time>2026-04-13T10:24:58.968Z</time></trkpt><trkpt lat="44.1637491" lon="10.3915859"><ele>556.0</ele><time>2026-04-13T10:24:59.975Z</time></trkpt><trkpt lat="44.1636865" lon="10.3914784"><ele>556.0</ele><time>2026-04-13T10:25:00.974Z</time></trkpt><trkpt lat="44.1636076" lon="10.3913855"><ele>556.0</ele><time>2026-04-13T10:25:01.973Z</time></trkpt><trkpt lat="44.1635116" lon="10.3913216"><ele>556.0</ele><time>2026-04-13T10:25:02.976Z</time></trkpt><trkpt lat="44.1634088" lon="10.3912734"><ele>556.0</ele><time>2026-04-13T10:25:03.97Z</time></trkpt><trkpt lat="44.1633025" lon="10.3912189"><ele>554.5</ele><time>2026-04-13T10:25:04.975Z</time></trkpt><trkpt lat="44.1632028" lon="10.3911411"><ele>553.0</ele><time>2026-04-13T10:25:05.97Z</time></trkpt><trkpt lat="44.163109" lon="10.3910553"><ele>551.5</ele><time>2026-04-13T10:25:06.972Z</time></trkpt><trkpt lat="44.1630177" lon="10.3909528"><ele>550.0</ele><time>2026-04-13T10:25:07.962Z</time></trkpt><trkpt lat="44.1629362" lon="10.390826"><ele>550.0</ele><time>2026-04-13T10:25:08.967Z</time></trkpt><trkpt lat="44.1628636" lon="10.3906952"><ele>550.0</ele><time>2026-04-13T10:25:09.969Z</time></trkpt><trkpt lat="44.1627961" lon="10.3905574"><ele>550.0</ele><time>2026-04-13T10:25:10.973Z</time></trkpt><trkpt lat="44.1627289" lon="10.3904245"><ele>550.0</ele><time>2026-04-13T10:25:11.974Z</time></trkpt><trkpt lat="44.1626512" lon="10.3902987"><ele>549.2</ele><time>2026-04-13T10:25:12.973Z</time></trkpt><trkpt lat="44.1625727" lon="10.3901839"><ele>548.4</ele><time>2026-04-13T10:25:13.989Z</time></trkpt><trkpt lat="44.162498" lon="10.3900747"><ele>547.6</ele><time>2026-04-13T10:25:14.974Z</time></trkpt><trkpt lat="44.1624314" lon="10.3899751"><ele>546.8</ele><time>2026-04-13T10:25:15.975Z</time></trkpt><trkpt lat="44.1623646" lon="10.3898899"><ele>546.0</ele><time>2026-04-13T10:25:16.972Z</time></trkpt><trkpt lat="44.1622937" lon="10.3898081"><ele>545.0</ele><time>2026-04-13T10:25:17.981Z</time></trkpt><trkpt lat="44.16222" lon="10.3897589"><ele>544.0</ele><time>2026-04-13T10:25:18.973Z</time></trkpt><trkpt lat="44.1621386" lon="10.3897298"><ele>543.0</ele><time>2026-04-13T10:25:19.981Z</time></trkpt><trkpt lat="44.1620562" lon="10.3897223"><ele>542.0</ele><time>2026-04-13T10:25:20.981Z</time></trkpt><trkpt lat="44.1619769" lon="10.3897555"><ele>541.0</ele><time>2026-04-13T10:25:21.963Z</time></trkpt><trkpt lat="44.1619034" lon="10.3898138"><ele>540.0</ele><time>2026-04-13T10:25:22.963Z</time></trkpt><trkpt lat="44.1618342" lon="10.3898856"><ele>540.0</ele><time>2026-04-13T10:25:23.973Z</time></trkpt><trkpt lat="44.1617668" lon="10.3899576"><ele>540.0</ele><time>2026-04-13T10:25:24.972Z</time></trkpt><trkpt lat="44.1616999" lon="10.3900344"><ele>540.0</ele><time>2026-04-13T10:25:25.957Z</time></trkpt><trkpt lat="44.1616326" lon="10.390113"><ele>540.0</ele><time>2026-04-13T10:25:26.975Z</time></trkpt><trkpt lat="44.1615622" lon="10.3901928"><ele>540.0</ele><time>2026-04-13T10:25:27.964Z</time></trkpt><trkpt lat="44.1614929" lon="10.3902733"><ele>540.0</ele><time>2026-04-13T10:25:28.967Z</time></trkpt><trkpt lat="44.1614254" lon="10.3903577"><ele>538.2</ele><time>2026-04-13T10:25:29.97Z</time></trkpt><trkpt lat="44.1613618" lon="10.39045"><ele>536.4</ele><time>2026-04-13T10:25:30.97Z</time></trkpt><trkpt lat="44.1613075" lon="10.3905465"><ele>534.6</ele><time>2026-04-13T10:25:31.977Z</time></trkpt><trkpt lat="44.1612626" lon="10.3906586"><ele>532.8</ele><time>2026-04-13T10:25:32.977Z</time></trkpt><trkpt lat="44.1612295" lon="10.3907748"><ele>531.0</ele><time>2026-04-13T10:25:33.975Z</time></trkpt><trkpt lat="44.1612076" lon="10.3908949"><ele>530.8333333333334</ele><time>2026-04-13T10:25:34.972Z</time></trkpt><trkpt lat="44.1611965" lon="10.3910189"><ele>530.6666666666666</ele><time>2026-04-13T10:25:35.974Z</time></trkpt><trkpt lat="44.1611939" lon="10.3911436"><ele>530.5</ele><time>2026-04-13T10:25:36.975Z</time></trkpt><trkpt lat="44.1611974" lon="10.3912687"><ele>530.3333333333333</ele><time>2026-04-13T10:25:37.971Z</time></trkpt><trkpt lat="44.1612037" lon="10.3913954"><ele>530.1666666666666</ele><time>2026-04-13T10:25:38.98Z</time></trkpt><trkpt lat="44.1612062" lon="10.3915173"><ele>530.0</ele><time>2026-04-13T10:25:39.968Z</time></trkpt><trkpt lat="44.1612073" lon="10.3916353"><ele>529.8333333333333</ele><time>2026-04-13T10:25:40.975Z</time></trkpt><trkpt lat="44.1612081" lon="10.3917359"><ele>529.6666666666666</ele><time>2026-04-13T10:25:41.962Z</time></trkpt><trkpt lat="44.1612081" lon="10.3918297"><ele>529.5</ele><time>2026-04-13T10:25:42.971Z</time></trkpt><trkpt lat="44.1612059" lon="10.3919177"><ele>529.3333333333334</ele><time>2026-04-13T10:25:43.978Z</time></trkpt><trkpt lat="44.1611919" lon="10.3920729"><ele>529.1666666666667</ele><time>2026-04-13T10:25:45.978Z</time></trkpt><trkpt lat="44.1611679" lon="10.3921622"><ele>529.0</ele><time>2026-04-13T10:25:47.964Z</time></trkpt><trkpt lat="44.1611376" lon="10.3922564"><ele>529.0</ele><time>2026-04-13T10:25:52.978Z</time></trkpt><trkpt lat="44.1611517" lon="10.3923536"><ele>529.0</ele><time>2026-04-13T10:25:55.981Z</time></trkpt><trkpt lat="44.1611731" lon="10.392467"><ele>529.0</ele><time>2026-04-13T10:25:58.97Z</time></trkpt><trkpt lat="44.161203" lon="10.3925868"><ele>529.0</ele><time>2026-04-13T10:26:01.969Z</time></trkpt><trkpt lat="44.1612334" lon="10.3927035"><ele>529.0</ele><time>2026-04-13T10:26:04.974Z</time></trkpt><trkpt lat="44.1612657" lon="10.3928178"><ele>529.0</ele><time>2026-04-13T10:26:07.974Z</time></trkpt><trkpt lat="44.1612983" lon="10.3929378"><ele>528.1428571428571</ele><time>2026-04-13T10:26:10.968Z</time></trkpt><trkpt lat="44.1613188" lon="10.393025"><ele>527.2857142857142</ele><time>2026-04-13T10:26:12.974Z</time></trkpt><trkpt lat="44.1613428" lon="10.3931118"><ele>526.4285714285713</ele><time>2026-04-13T10:26:14.969Z</time></trkpt><trkpt lat="44.1613672" lon="10.3932027"><ele>525.5714285714286</ele><time>2026-04-13T10:26:16.97Z</time></trkpt><trkpt lat="44.1613913" lon="10.3932883"><ele>524.7142857142857</ele><time>2026-04-13T10:26:18.981Z</time></trkpt><trkpt lat="44.1614162" lon="10.3933735"><ele>523.8571428571428</ele><time>2026-04-13T10:26:20.983Z</time></trkpt><trkpt lat="44.1614405" lon="10.393461"><ele>523.0</ele><time>2026-04-13T10:26:22.975Z</time></trkpt><trkpt lat="44.1614628" lon="10.3935507"><ele>522.9999999999999</ele><time>2026-04-13T10:26:24.967Z</time></trkpt><trkpt lat="44.1614814" lon="10.3936435"><ele>523.0</ele><time>2026-04-13T10:26:26.966Z</time></trkpt><trkpt lat="44.1615003" lon="10.3937368"><ele>523.0</ele><time>2026-04-13T10:26:28.966Z</time></trkpt><trkpt lat="44.1615232" lon="10.3938243"><ele>523.0</ele><time>2026-04-13T10:26:30.96Z</time></trkpt><trkpt lat="44.1615442" lon="10.3939098"><ele>523.0</ele><time>2026-04-13T10:26:32.967Z</time></trkpt><trkpt lat="44.1615626" lon="10.3940002"><ele>522.9999999999999</ele><time>2026-04-13T10:26:34.972Z</time></trkpt><trkpt lat="44.1615837" lon="10.3940868"><ele>523.0</ele><time>2026-04-13T10:26:36.974Z</time></trkpt><trkpt lat="44.1616074" lon="10.3941721"><ele>525.0</ele><time>2026-04-13T10:26:38.972Z</time></trkpt><trkpt lat="44.1616326" lon="10.3942619"><ele>527.0</ele><time>2026-04-13T10:26:40.975Z</time></trkpt><trkpt lat="44.1616552" lon="10.3943501"><ele>529.0</ele><time>2026-04-13T10:26:42.983Z</time></trkpt><trkpt lat="44.1616815" lon="10.3944738"><ele>531.0</ele><time>2026-04-13T10:26:45.972Z</time></trkpt><trkpt lat="44.1617048" lon="10.3945593"><ele>533.0</ele><time>2026-04-13T10:26:47.987Z</time></trkpt><trkpt lat="44.1617307" lon="10.3946423"><ele>535.0</ele><time>2026-04-13T10:26:49.979Z</time></trkpt><trkpt lat="44.1617644" lon="10.3947632"><ele>535.0</ele><time>2026-04-13T10:26:52.974Z</time></trkpt><trkpt lat="44.161783" lon="10.3948495"><ele>535.0</ele><time>2026-04-13T10:26:54.963Z</time></trkpt><trkpt lat="44.1618047" lon="10.3949364"><ele>535.0</ele><time>2026-04-13T10:26:56.963Z</time></trkpt><trkpt lat="44.1618259" lon="10.3950233"><ele>535.0</ele><time>2026-04-13T10:26:58.963Z</time></trkpt><trkpt lat="44.1618476" lon="10.3951107"><ele>535.0</ele><time>2026-04-13T10:27:00.96Z</time></trkpt><trkpt lat="44.1618692" lon="10.3952024"><ele>535.0</ele><time>2026-04-13T10:27:02.974Z</time></trkpt><trkpt lat="44.1618862" lon="10.3953017"><ele>535.0</ele><time>2026-04-13T10:27:04.976Z</time></trkpt><trkpt lat="44.1618985" lon="10.3954086"><ele>534.8333333333334</ele><time>2026-04-13T10:27:06.973Z</time></trkpt><trkpt lat="44.1618917" lon="10.3955174"><ele>534.6666666666667</ele><time>2026-04-13T10:27:08.976Z</time></trkpt><trkpt lat="44.1618602" lon="10.3956188"><ele>534.5</ele><time>2026-04-13T10:27:10.971Z</time></trkpt><trkpt lat="44.1618055" lon="10.3956961"><ele>534.3333333333334</ele><time>2026-04-13T10:27:12.972Z</time></trkpt><trkpt lat="44.1617409" lon="10.395744"><ele>534.1666666666666</ele><time>2026-04-13T10:27:14.967Z</time></trkpt><trkpt lat="44.1616665" lon="10.3957756"><ele>534.0</ele><time>2026-04-13T10:27:16.971Z</time></trkpt><trkpt lat="44.1615905" lon="10.3958045"><ele>534.6666666666666</ele><time>2026-04-13T10:27:18.965Z</time></trkpt><trkpt lat="44.1615177" lon="10.3958268"><ele>535.3333333333334</ele><time>2026-04-13T10:27:20.977Z</time></trkpt><trkpt lat="44.1614444" lon="10.3958272"><ele>536.0</ele><time>2026-04-13T10:27:22.967Z</time></trkpt><trkpt lat="44.1613599" lon="10.3958097"><ele>536.6666666666667</ele><time>2026-04-13T10:27:25.971Z</time></trkpt><trkpt lat="44.1612826" lon="10.3957663"><ele>537.3333333333334</ele><time>2026-04-13T10:27:28.97Z</time></trkpt><trkpt lat="44.1612004" lon="10.3957184"><ele>538.0</ele><time>2026-04-13T10:27:31.984Z</time></trkpt><trkpt lat="44.1611205" lon="10.3956718"><ele>538.0</ele><time>2026-04-13T10:27:34.961Z</time></trkpt><trkpt lat="44.16104" lon="10.3956314"><ele>538.0</ele><time>2026-04-13T10:27:37.97Z</time></trkpt><trkpt lat="44.16096" lon="10.3955921"><ele>538.0</ele><time>2026-04-13T10:27:40.963Z</time></trkpt><trkpt lat="44.1608765" lon="10.3955504"><ele>538.0</ele><time>2026-04-13T10:27:43.973Z</time></trkpt><trkpt lat="44.1607927" lon="10.3955067"><ele>538.0</ele><time>2026-04-13T10:27:46.983Z</time></trkpt><trkpt lat="44.160708" lon="10.3954624"><ele>538.0</ele><time>2026-04-13T10:27:49.959Z</time></trkpt><trkpt lat="44.1606226" lon="10.3954246"><ele>538.0</ele><time>2026-04-13T10:27:52.962Z</time></trkpt><trkpt lat="44.1605395" lon="10.3954079"><ele>538.0</ele><time>2026-04-13T10:27:55.983Z</time></trkpt><trkpt lat="44.1604535" lon="10.3954137"><ele>538.0</ele><time>2026-04-13T10:27:58.964Z</time></trkpt><trkpt lat="44.1603733" lon="10.395455"><ele>538.0</ele><time>2026-04-13T10:28:01.964Z</time></trkpt><trkpt lat="44.1603074" lon="10.3954974"><ele>538.0</ele><time>2026-04-13T10:28:04.961Z</time></trkpt><trkpt lat="44.160256" lon="10.3955577"><ele>538.0</ele><time>2026-04-13T10:28:07.961Z</time></trkpt><trkpt lat="44.1602154" lon="10.395636"><ele>538.0</ele><time>2026-04-13T10:28:10.989Z</time></trkpt><trkpt lat="44.1601766" lon="10.3957169"><ele>538.0</ele><time>2026-04-13T10:28:13.968Z</time></trkpt><trkpt lat="44.160138" lon="10.3957986"><ele>538.0</ele><time>2026-04-13T10:28:16.971Z</time></trkpt><trkpt lat="44.1601048" lon="10.3958855"><ele>538.0</ele><time>2026-04-13T10:28:19.973Z</time></trkpt><trkpt lat="44.1600706" lon="10.3959718"><ele>538.0</ele><time>2026-04-13T10:28:22.969Z</time></trkpt><trkpt lat="44.1600398" lon="10.3960606"><ele>538.0</ele><time>2026-04-13T10:28:25.977Z</time></trkpt><trkpt lat="44.1600051" lon="10.3961527"><ele>538.0</ele><time>2026-04-13T10:28:28.975Z</time></trkpt><trkpt lat="44.1599765" lon="10.3962396"><ele>538.0</ele><time>2026-04-13T10:28:31.971Z</time></trkpt><trkpt lat="44.1599452" lon="10.3963331"><ele>538.0</ele><time>2026-04-13T10:28:34.969Z</time></trkpt><trkpt lat="44.1599123" lon="10.3964234"><ele>538.0</ele><time>2026-04-13T10:28:37.979Z</time></trkpt><trkpt lat="44.1598802" lon="10.3965334"><ele>538.0</ele><time>2026-04-13T10:28:41.968Z</time></trkpt><trkpt lat="44.1598511" lon="10.3966231"><ele>538.0</ele><time>2026-04-13T10:28:44.971Z</time></trkpt><trkpt lat="44.1598159" lon="10.3967157"><ele>538.0</ele><time>2026-04-13T10:28:47.966Z</time></trkpt><trkpt lat="44.1597763" lon="10.3968059"><ele>538.5714285714286</ele><time>2026-04-13T10:28:50.97Z</time></trkpt><trkpt lat="44.1597358" lon="10.3968873"><ele>539.1428571428572</ele><time>2026-04-13T10:28:53.97Z</time></trkpt><trkpt lat="44.1597028" lon="10.3969742"><ele>539.7142857142858</ele><time>2026-04-13T10:28:56.971Z</time></trkpt><trkpt lat="44.1596781" lon="10.3970581"><ele>540.2857142857143</ele><time>2026-04-13T10:28:59.973Z</time></trkpt><trkpt lat="44.159653" lon="10.3971431"><ele>540.8571428571429</ele><time>2026-04-13T10:29:02.971Z</time></trkpt><trkpt lat="44.1596251" lon="10.3972271"><ele>541.4285714285714</ele><time>2026-04-13T10:29:05.969Z</time></trkpt><trkpt lat="44.1596001" lon="10.3973191"><ele>542.0</ele><time>2026-04-13T10:29:08.973Z</time></trkpt><trkpt lat="44.1595754" lon="10.3974064"><ele>542.4285714285714</ele><time>2026-04-13T10:29:11.977Z</time></trkpt><trkpt lat="44.1595485" lon="10.3974882"><ele>542.8571428571429</ele><time>2026-04-13T10:29:14.967Z</time></trkpt><trkpt lat="44.1595306" lon="10.3975808"><ele>543.2857142857143</ele><time>2026-04-13T10:29:18.971Z</time></trkpt><trkpt lat="44.1595253" lon="10.3976695"><ele>543.7142857142858</ele><time>2026-04-13T10:29:21.986Z</time></trkpt><trkpt lat="44.1595227" lon="10.397774"><ele>544.1428571428572</ele><time>2026-04-13T10:29:24.972Z</time></trkpt><trkpt lat="44.1595289" lon="10.3978782"><ele>544.5714285714286</ele><time>2026-04-13T10:29:27.978Z</time></trkpt><trkpt lat="44.1595394" lon="10.3979775"><ele>545.0</ele><time>2026-04-13T10:29:30.964Z</time></trkpt><trkpt lat="44.1595541" lon="10.3980728"><ele>545.1666666666666</ele><time>2026-04-13T10:29:33.974Z</time></trkpt><trkpt lat="44.1595639" lon="10.3981845"><ele>545.3333333333333</ele><time>2026-04-13T10:29:36.977Z</time></trkpt><trkpt lat="44.1595723" lon="10.3983012"><ele>545.5</ele><time>2026-04-13T10:29:39.978Z</time></trkpt><trkpt lat="44.1595905" lon="10.3984237"><ele>545.6666666666666</ele><time>2026-04-13T10:29:42.972Z</time></trkpt><trkpt lat="44.1596361" lon="10.3985371"><ele>545.8333333333334</ele><time>2026-04-13T10:29:45.962Z</time></trkpt><trkpt lat="44.1596756" lon="10.3986117"><ele>546.0</ele><time>2026-04-13T10:29:47.974Z</time></trkpt><trkpt lat="44.1597169" lon="10.3986959"><ele>546.0</ele><time>2026-04-13T10:29:49.982Z</time></trkpt><trkpt lat="44.1597598" lon="10.3987783"><ele>546.0</ele><time>2026-04-13T10:29:51.966Z</time></trkpt><trkpt lat="44.1597999" lon="10.3988632"><ele>546.0</ele><time>2026-04-13T10:29:53.972Z</time></trkpt><trkpt lat="44.159838" lon="10.3989468"><ele>546.0</ele><time>2026-04-13T10:29:55.969Z</time></trkpt><trkpt lat="44.1598769" lon="10.3990255"><ele>546.0</ele><time>2026-04-13T10:29:57.968Z</time></trkpt><trkpt lat="44.1599193" lon="10.3991053"><ele>546.0</ele><time>2026-04-13T10:29:59.964Z</time></trkpt><trkpt lat="44.1599617" lon="10.399186"><ele>546.0</ele><time>2026-04-13T10:30:01.966Z</time></trkpt><trkpt lat="44.1600031" lon="10.3992649"><ele>546.0</ele><time>2026-04-13T10:30:03.973Z</time></trkpt><trkpt lat="44.1600485" lon="10.3993424"><ele>546.0</ele><time>2026-04-13T10:30:05.967Z</time></trkpt><trkpt lat="44.1600947" lon="10.3994169"><ele>546.0</ele><time>2026-04-13T10:30:07.975Z</time></trkpt><trkpt lat="44.1601494" lon="10.3994831"><ele>546.0</ele><time>2026-04-13T10:30:09.971Z</time></trkpt><trkpt lat="44.1602137" lon="10.3995282"><ele>546.0</ele><time>2026-04-13T10:30:11.965Z</time></trkpt><trkpt lat="44.1602817" lon="10.3995562"><ele>546.0</ele><time>2026-04-13T10:30:13.958Z</time></trkpt><trkpt lat="44.160349" lon="10.3995833"><ele>546.0</ele><time>2026-04-13T10:30:15.978Z</time></trkpt><trkpt lat="44.1604172" lon="10.3996126"><ele>546.0</ele><time>2026-04-13T10:30:17.973Z</time></trkpt><trkpt lat="44.1604826" lon="10.3996512"><ele>546.0</ele><time>2026-04-13T10:30:19.97Z</time></trkpt><trkpt lat="44.1605488" lon="10.3996745"><ele>546.0</ele><time>2026-04-13T10:30:21.967Z</time></trkpt><trkpt lat="44.1606154" lon="10.3996945"><ele>546.0</ele><time>2026-04-13T10:30:23.976Z</time></trkpt><trkpt lat="44.1606827" lon="10.3997023"><ele>546.0</ele><time>2026-04-13T10:30:25.963Z</time></trkpt><trkpt lat="44.1607546" lon="10.3996975"><ele>546.0</ele><time>2026-04-13T10:30:27.967Z</time></trkpt><trkpt lat="44.1608289" lon="10.3996907"><ele>546.0</ele><time>2026-04-13T10:30:29.965Z</time></trkpt><trkpt lat="44.1609012" lon="10.3996811"><ele>546.3333333333334</ele><time>2026-04-13T10:30:31.963Z</time></trkpt><trkpt lat="44.1609762" lon="10.3996716"><ele>546.6666666666666</ele><time>2026-04-13T10:30:33.985Z</time></trkpt><trkpt lat="44.1610524" lon="10.3996602"><ele>547.0</ele><time>2026-04-13T10:30:35.974Z</time></trkpt><trkpt lat="44.1611192" lon="10.3996447"><ele>547.3333333333333</ele><time>2026-04-13T10:30:37.973Z</time></trkpt><trkpt lat="44.1611939" lon="10.3996219"><ele>547.6666666666666</ele><time>2026-04-13T10:30:39.966Z</time></trkpt><trkpt lat="44.1612716" lon="10.3996019"><ele>548.0</ele><time>2026-04-13T10:30:41.974Z</time></trkpt><trkpt lat="44.1613485" lon="10.3995803"><ele>549.6666666666666</ele><time>2026-04-13T10:30:43.979Z</time></trkpt><trkpt lat="44.1614248" lon="10.3995598"><ele>551.3333333333333</ele><time>2026-04-13T10:30:45.975Z</time></trkpt><trkpt lat="44.1615002" lon="10.3995406"><ele>553.0</ele><time>2026-04-13T10:30:47.972Z</time></trkpt><trkpt lat="44.1615777" lon="10.3995172"><ele>554.6666666666666</ele><time>2026-04-13T10:30:49.975Z</time></trkpt><trkpt lat="44.1616526" lon="10.3995065"><ele>556.3333333333334</ele><time>2026-04-13T10:30:51.97Z</time></trkpt><trkpt lat="44.1617378" lon="10.399521"><ele>558.0</ele><time>2026-04-13T10:30:53.962Z</time></trkpt><trkpt lat="44.1618174" lon="10.3995561"><ele>559.0</ele><time>2026-04-13T10:30:55.974Z</time></trkpt><trkpt lat="44.161889" lon="10.3996113"><ele>560.0</ele><time>2026-04-13T10:30:57.968Z</time></trkpt><trkpt lat="44.1619514" lon="10.3996886"><ele>561.0</ele><time>2026-04-13T10:30:59.971Z</time></trkpt><trkpt lat="44.1620118" lon="10.3997701"><ele>562.0</ele><time>2026-04-13T10:31:01.967Z</time></trkpt><trkpt lat="44.162065" lon="10.3998498"><ele>563.0</ele><time>2026-04-13T10:31:03.975Z</time></trkpt><trkpt lat="44.162121" lon="10.3999346"><ele>564.0</ele><time>2026-04-13T10:31:05.98Z</time></trkpt><trkpt lat="44.1621787" lon="10.4000086"><ele>565.1666666666666</ele><time>2026-04-13T10:31:07.972Z</time></trkpt><trkpt lat="44.162237" lon="10.400081"><ele>566.3333333333334</ele><time>2026-04-13T10:31:09.974Z</time></trkpt><trkpt lat="44.162292" lon="10.4001574"><ele>567.5</ele><time>2026-04-13T10:31:11.974Z</time></trkpt><trkpt lat="44.1623446" lon="10.4002387"><ele>568.6666666666667</ele><time>2026-04-13T10:31:13.98Z</time></trkpt><trkpt lat="44.162377" lon="10.4003359"><ele>569.8333333333334</ele><time>2026-04-13T10:31:15.977Z</time></trkpt><trkpt lat="44.162384" lon="10.4004469"><ele>571.0</ele><time>2026-04-13T10:31:17.976Z</time></trkpt><trkpt lat="44.1623644" lon="10.4005496"><ele>568.3333333333334</ele><time>2026-04-13T10:31:19.972Z</time></trkpt><trkpt lat="44.1623205" lon="10.4006471"><ele>565.6666666666667</ele><time>2026-04-13T10:31:21.982Z</time></trkpt><trkpt lat="44.1622501" lon="10.4007216"><ele>563.0</ele><time>2026-04-13T10:31:23.979Z</time></trkpt><trkpt lat="44.1621682" lon="10.4007591"><ele>560.3333333333334</ele><time>2026-04-13T10:31:25.986Z</time></trkpt><trkpt lat="44.1620877" lon="10.4007994"><ele>557.6666666666666</ele><time>2026-04-13T10:31:27.978Z</time></trkpt><trkpt lat="44.1620056" lon="10.400841"><ele>555.0</ele><time>2026-04-13T10:31:29.971Z</time></trkpt><trkpt lat="44.1619247" lon="10.4008813"><ele>555.0</ele><time>2026-04-13T10:31:31.97Z</time></trkpt><trkpt lat="44.1618483" lon="10.4009266"><ele>555.0</ele><time>2026-04-13T10:31:33.965Z</time></trkpt><trkpt lat="44.1617774" lon="10.4009867"><ele>555.0</ele><time>2026-04-13T10:31:35.975Z</time></trkpt><trkpt lat="44.1617165" lon="10.4010655"><ele>555.0</ele><time>2026-04-13T10:31:37.971Z</time></trkpt><trkpt lat="44.1616645" lon="10.4011567"><ele>555.0</ele><time>2026-04-13T10:31:39.975Z</time></trkpt><trkpt lat="44.161621" lon="10.4012537"><ele>555.0</ele><time>2026-04-13T10:31:41.98Z</time></trkpt><trkpt lat="44.1615872" lon="10.4013551"><ele>553.8333333333334</ele><time>2026-04-13T10:31:43.969Z</time></trkpt><trkpt lat="44.1615562" lon="10.4014574"><ele>552.6666666666666</ele><time>2026-04-13T10:31:45.971Z</time></trkpt><trkpt lat="44.1615242" lon="10.4015638"><ele>551.5</ele><time>2026-04-13T10:31:47.974Z</time></trkpt><trkpt lat="44.161488" lon="10.4016684"><ele>550.3333333333333</ele><time>2026-04-13T10:31:49.977Z</time></trkpt><trkpt lat="44.1614436" lon="10.4017615"><ele>549.1666666666666</ele><time>2026-04-13T10:31:51.958Z</time></trkpt><trkpt lat="44.1613971" lon="10.4018543"><ele>548.0</ele><time>2026-04-13T10:31:53.968Z</time></trkpt><trkpt lat="44.1613466" lon="10.4019405"><ele>548.0</ele><time>2026-04-13T10:31:55.964Z</time></trkpt><trkpt lat="44.1612866" lon="10.4020218"><ele>548.0</ele><time>2026-04-13T10:31:57.974Z</time></trkpt><trkpt lat="44.1612273" lon="10.4021032"><ele>548.0</ele><time>2026-04-13T10:31:59.979Z</time></trkpt><trkpt lat="44.1611661" lon="10.4021807"><ele>548.0</ele><time>2026-04-13T10:32:01.971Z</time></trkpt><trkpt lat="44.1611059" lon="10.4022585"><ele>548.0</ele><time>2026-04-13T10:32:03.971Z</time></trkpt><trkpt lat="44.1610414" lon="10.402331"><ele>548.0</ele><time>2026-04-13T10:32:05.999Z</time></trkpt><trkpt lat="44.1609786" lon="10.4024069"><ele>547.5</ele><time>2026-04-13T10:32:07.97Z</time></trkpt><trkpt lat="44.160917" lon="10.4024816"><ele>547.0</ele><time>2026-04-13T10:32:09.968Z</time></trkpt><trkpt lat="44.1608558" lon="10.4025531"><ele>546.5</ele><time>2026-04-13T10:32:11.968Z</time></trkpt><trkpt lat="44.1607939" lon="10.4026224"><ele>546.0</ele><time>2026-04-13T10:32:13.969Z</time></trkpt><trkpt lat="44.1607329" lon="10.4026947"><ele>545.5</ele><time>2026-04-13T10:32:15.978Z</time></trkpt><trkpt lat="44.1606739" lon="10.4027696"><ele>545.0</ele><time>2026-04-13T10:32:17.97Z</time></trkpt><trkpt lat="44.1606213" lon="10.4028503"><ele>545.0</ele><time>2026-04-13T10:32:19.976Z</time></trkpt><trkpt lat="44.1605699" lon="10.4029361"><ele>545.0</ele><time>2026-04-13T10:32:21.985Z</time></trkpt><trkpt lat="44.1605196" lon="10.4030211"><ele>545.0</ele><time>2026-04-13T10:32:23.97Z</time></trkpt><trkpt lat="44.1604659" lon="10.4031087"><ele>545.0</ele><time>2026-04-13T10:32:25.973Z</time></trkpt><trkpt lat="44.1604122" lon="10.4031914"><ele>545.0</ele><time>2026-04-13T10:32:27.973Z</time></trkpt><trkpt lat="44.1603554" lon="10.4032623"><ele>545.0</ele><time>2026-04-13T10:32:29.976Z</time></trkpt><trkpt lat="44.1602833" lon="10.4033203"><ele>545.8333333333333</ele><time>2026-04-13T10:32:31.965Z</time></trkpt><trkpt lat="44.1602101" lon="10.4033562"><ele>546.6666666666666</ele><time>2026-04-13T10:32:33.971Z</time></trkpt><trkpt lat="44.1601321" lon="10.4033795"><ele>547.5</ele><time>2026-04-13T10:32:35.97Z</time></trkpt><trkpt lat="44.1600521" lon="10.4033957"><ele>548.3333333333334</ele><time>2026-04-13T10:32:37.975Z</time></trkpt><trkpt lat="44.1599773" lon="10.4034133"><ele>549.1666666666667</ele><time>2026-04-13T10:32:39.966Z</time></trkpt><trkpt lat="44.1599014" lon="10.4034389"><ele>550.0</ele><time>2026-04-13T10:32:41.968Z</time></trkpt><trkpt lat="44.1598243" lon="10.4034553"><ele>550.0</ele><time>2026-04-13T10:32:43.975Z</time></trkpt><trkpt lat="44.1597459" lon="10.4034695"><ele>550.0</ele><time>2026-04-13T10:32:45.967Z</time></trkpt><trkpt lat="44.1596691" lon="10.4034844"><ele>550.0</ele><time>2026-04-13T10:32:47.98Z</time></trkpt><trkpt lat="44.1596009" lon="10.4035098"><ele>550.0</ele><time>2026-04-13T10:32:49.972Z</time></trkpt><trkpt lat="44.1595368" lon="10.4035383"><ele>550.0</ele><time>2026-04-13T10:32:51.976Z</time></trkpt><trkpt lat="44.1594696" lon="10.4035875"><ele>550.0</ele><time>2026-04-13T10:32:53.975Z</time></trkpt><trkpt lat="44.1594085" lon="10.4036511"><ele>550.0</ele><time>2026-04-13T10:32:55.973Z</time></trkpt><trkpt lat="44.1593486" lon="10.4037212"><ele>550.0</ele><time>2026-04-13T10:32:57.968Z</time></trkpt><trkpt lat="44.1592966" lon="10.4037958"><ele>550.0</ele><time>2026-04-13T10:32:59.979Z</time></trkpt><trkpt lat="44.1592463" lon="10.4038787"><ele>550.0</ele><time>2026-04-13T10:33:01.972Z</time></trkpt><trkpt lat="44.1592029" lon="10.4039651"><ele>550.0</ele><time>2026-04-13T10:33:03.977Z</time></trkpt><trkpt lat="44.1591535" lon="10.4040482"><ele>550.0</ele><time>2026-04-13T10:33:05.955Z</time></trkpt><trkpt lat="44.159111" lon="10.4041315"><ele>550.0</ele><time>2026-04-13T10:33:07.957Z</time></trkpt><trkpt lat="44.1590612" lon="10.4042137"><ele>550.0</ele><time>2026-04-13T10:33:09.954Z</time></trkpt><trkpt lat="44.1590119" lon="10.4043001"><ele>550.0</ele><time>2026-04-13T10:33:11.957Z</time></trkpt><trkpt lat="44.1589619" lon="10.4043935"><ele>550.0</ele><time>2026-04-13T10:33:13.963Z</time></trkpt><trkpt lat="44.1589074" lon="10.4044804"><ele>550.0</ele><time>2026-04-13T10:33:15.956Z</time></trkpt><trkpt lat="44.1588578" lon="10.4045653"><ele>550.0</ele><time>2026-04-13T10:33:17.956Z</time></trkpt><trkpt lat="44.1588106" lon="10.4046555"><ele>550.0</ele><time>2026-04-13T10:33:19.958Z</time></trkpt><trkpt lat="44.1587627" lon="10.4047447"><ele>550.5</ele><time>2026-04-13T10:33:21.954Z</time></trkpt><trkpt lat="44.1587131" lon="10.4048245"><ele>551.0</ele><time>2026-04-13T10:33:23.962Z</time></trkpt><trkpt lat="44.1586678" lon="10.4049073"><ele>551.5</ele><time>2026-04-13T10:33:25.961Z</time></trkpt><trkpt lat="44.1586232" lon="10.4049902"><ele>552.0</ele><time>2026-04-13T10:33:27.965Z</time></trkpt><trkpt lat="44.1585748" lon="10.4050707"><ele>552.5</ele><time>2026-04-13T10:33:29.953Z</time></trkpt><trkpt lat="44.1585305" lon="10.4051541"><ele>553.0</ele><time>2026-04-13T10:33:31.962Z</time></trkpt><trkpt lat="44.1584819" lon="10.4052395"><ele>553.0</ele><time>2026-04-13T10:33:33.969Z</time></trkpt><trkpt lat="44.1584354" lon="10.4053297"><ele>553.0</ele><time>2026-04-13T10:33:35.961Z</time></trkpt><trkpt lat="44.158396" lon="10.405427"><ele>553.0</ele><time>2026-04-13T10:33:37.97Z</time></trkpt><trkpt lat="44.1583703" lon="10.4055182"><ele>553.0</ele><time>2026-04-13T10:33:39.966Z</time></trkpt><trkpt lat="44.1583522" lon="10.4056148"><ele>553.0</ele><time>2026-04-13T10:33:41.964Z</time></trkpt><trkpt lat="44.1583355" lon="10.4057254"><ele>553.0</ele><time>2026-04-13T10:33:43.966Z</time></trkpt><trkpt lat="44.1583272" lon="10.4058338"><ele>553.2857142857143</ele><time>2026-04-13T10:33:45.959Z</time></trkpt><trkpt lat="44.1583278" lon="10.4059413"><ele>553.5714285714286</ele><time>2026-04-13T10:33:47.962Z</time></trkpt><trkpt lat="44.1583395" lon="10.4060372"><ele>553.8571428571429</ele><time>2026-04-13T10:33:49.974Z</time></trkpt><trkpt lat="44.1583539" lon="10.4061316"><ele>554.1428571428571</ele><time>2026-04-13T10:33:51.959Z</time></trkpt><trkpt lat="44.1583833" lon="10.4062316"><ele>554.4285714285714</ele><time>2026-04-13T10:33:53.973Z</time></trkpt><trkpt lat="44.1584158" lon="10.4063205"><ele>554.7142857142858</ele><time>2026-04-13T10:33:55.99Z</time></trkpt><trkpt lat="44.1584537" lon="10.4064172"><ele>555.0</ele><time>2026-04-13T10:33:57.968Z</time></trkpt><trkpt lat="44.1584882" lon="10.4065186"><ele>555.0000000000001</ele><time>2026-04-13T10:33:59.976Z</time></trkpt><trkpt lat="44.1585181" lon="10.4066076"><ele>555.0</ele><time>2026-04-13T10:34:01.972Z</time></trkpt><trkpt lat="44.1585549" lon="10.4067018"><ele>555.0</ele><time>2026-04-13T10:34:03.957Z</time></trkpt><trkpt lat="44.158588" lon="10.4067842"><ele>555.0</ele><time>2026-04-13T10:34:05.957Z</time></trkpt><trkpt lat="44.1586193" lon="10.4068743"><ele>555.0</ele><time>2026-04-13T10:34:07.962Z</time></trkpt><trkpt lat="44.1586556" lon="10.4069608"><ele>555.0000000000001</ele><time>2026-04-13T10:34:09.967Z</time></trkpt><trkpt lat="44.1586949" lon="10.4070502"><ele>555.0</ele><time>2026-04-13T10:34:11.966Z</time></trkpt><trkpt lat="44.1587347" lon="10.4071399"><ele>554.0000000000001</ele><time>2026-04-13T10:34:13.975Z</time></trkpt><trkpt lat="44.1587718" lon="10.4072277"><ele>553.0</ele><time>2026-04-13T10:34:15.97Z</time></trkpt><trkpt lat="44.1588066" lon="10.4073182"><ele>552.0</ele><time>2026-04-13T10:34:17.962Z</time></trkpt><trkpt lat="44.158843" lon="10.407405"><ele>551.0</ele><time>2026-04-13T10:34:19.969Z</time></trkpt><trkpt lat="44.158883" lon="10.407491"><ele>550.0</ele><time>2026-04-13T10:34:21.972Z</time></trkpt><trkpt lat="44.1589248" lon="10.4075711"><ele>549.0000000000001</ele><time>2026-04-13T10:34:23.972Z</time></trkpt><trkpt lat="44.1589675" lon="10.4076592"><ele>548.0</ele><time>2026-04-13T10:34:25.969Z</time></trkpt><trkpt lat="44.1590145" lon="10.4077408"><ele>551.3333333333333</ele><time>2026-04-13T10:34:27.964Z</time></trkpt><trkpt lat="44.159062" lon="10.4078206"><ele>554.6666666666666</ele><time>2026-04-13T10:34:29.971Z</time></trkpt><trkpt lat="44.1591109" lon="10.4078966"><ele>558.0</ele><time>2026-04-13T10:34:31.969Z</time></trkpt><trkpt lat="44.1591651" lon="10.4079683"><ele>561.3333333333334</ele><time>2026-04-13T10:34:33.977Z</time></trkpt><trkpt lat="44.1592217" lon="10.4080357"><ele>564.6666666666667</ele><time>2026-04-13T10:34:35.961Z</time></trkpt><trkpt lat="44.1592795" lon="10.4081044"><ele>568.0</ele><time>2026-04-13T10:34:37.96Z</time></trkpt><trkpt lat="44.1593479" lon="10.4081926"><ele>568.0</ele><time>2026-04-13T10:34:39.98Z</time></trkpt><trkpt lat="44.1593957" lon="10.4082692"><ele>568.0</ele><time>2026-04-13T10:34:41.968Z</time></trkpt><trkpt lat="44.1594282" lon="10.4083568"><ele>568.0</ele><time>2026-04-13T10:34:43.965Z</time></trkpt><trkpt lat="44.159452" lon="10.4084504"><ele>568.0</ele><time>2026-04-13T10:34:45.956Z</time></trkpt><trkpt lat="44.1594446" lon="10.4085493"><ele>568.0</ele><time>2026-04-13T10:34:47.889Z</time></trkpt><trkpt lat="44.15939" lon="10.408625"><ele>568.0</ele><time>2026-04-13T10:34:49.963Z</time></trkpt><trkpt lat="44.1593126" lon="10.4086847"><ele>568.0</ele><time>2026-04-13T10:34:52.966Z</time></trkpt><trkpt lat="44.1592437" lon="10.4087229"><ele>568.0</ele><time>2026-04-13T10:34:55.976Z</time></trkpt><trkpt lat="44.1591553" lon="10.4087318"><ele>568.0</ele><time>2026-04-13T10:34:58.973Z</time></trkpt><trkpt lat="44.1590716" lon="10.4087188"><ele>568.0</ele><time>2026-04-13T10:35:01.959Z</time></trkpt><trkpt lat="44.158993" lon="10.4087199"><ele>568.0</ele><time>2026-04-13T10:35:04.98Z</time></trkpt><trkpt lat="44.1589159" lon="10.4087065"><ele>568.0</ele><time>2026-04-13T10:35:07.963Z</time></trkpt><trkpt lat="44.1588376" lon="10.4086913"><ele>568.0</ele><time>2026-04-13T10:35:10.965Z</time></trkpt><trkpt lat="44.1587584" lon="10.408673"><ele>568.0</ele><time>2026-04-13T10:35:13.975Z</time></trkpt><trkpt lat="44.1586786" lon="10.4086522"><ele>568.0</ele><time>2026-04-13T10:35:16.974Z</time></trkpt><trkpt lat="44.158607" lon="10.4086138"><ele>568.0</ele><time>2026-04-13T10:35:19.977Z</time></trkpt><trkpt lat="44.1585335" lon="10.4085821"><ele>568.0</ele><time>2026-04-13T10:35:23.966Z</time></trkpt><trkpt lat="44.1584681" lon="10.4085367"><ele>568.0</ele><time>2026-04-13T10:35:27.963Z</time></trkpt><trkpt lat="44.1584006" lon="10.4085001"><ele>568.0</ele><time>2026-04-13T10:35:31.973Z</time></trkpt><trkpt lat="44.158336" lon="10.4084651"><ele>568.0</ele><time>2026-04-13T10:35:35.965Z</time></trkpt><trkpt lat="44.1582675" lon="10.4084236"><ele>568.0</ele><time>2026-04-13T10:35:39.973Z</time></trkpt><trkpt lat="44.1581984" lon="10.4083872"><ele>568.0</ele><time>2026-04-13T10:35:43.977Z</time></trkpt><trkpt lat="44.1581222" lon="10.4083519"><ele>568.0</ele><time>2026-04-13T10:35:47.972Z</time></trkpt><trkpt lat="44.1580509" lon="10.4083411"><ele>568.0</ele><time>2026-04-13T10:35:51.976Z</time></trkpt><trkpt lat="44.1579749" lon="10.4083346"><ele>568.0</ele><time>2026-04-13T10:35:55.969Z</time></trkpt><trkpt lat="44.1579025" lon="10.4083408"><ele>566.5</ele><time>2026-04-13T10:35:59.969Z</time></trkpt><trkpt lat="44.1578251" lon="10.4083534"><ele>565.0</ele><time>2026-04-13T10:36:03.977Z</time></trkpt><trkpt lat="44.1577468" lon="10.4083942"><ele>563.5</ele><time>2026-04-13T10:36:07.988Z</time></trkpt><trkpt lat="44.1576775" lon="10.4084472"><ele>562.0</ele><time>2026-04-13T10:36:11.969Z</time></trkpt><trkpt lat="44.1576183" lon="10.4085129"><ele>560.5</ele><time>2026-04-13T10:36:15.972Z</time></trkpt><trkpt lat="44.1575575" lon="10.4085821"><ele>559.0</ele><time>2026-04-13T10:36:19.966Z</time></trkpt><trkpt lat="44.1575112" lon="10.4086734"><ele>559.0</ele><time>2026-04-13T10:36:23.977Z</time></trkpt><trkpt lat="44.1574739" lon="10.4087708"><ele>559.0</ele><time>2026-04-13T10:36:27.968Z</time></trkpt><trkpt lat="44.1574434" lon="10.4088656"><ele>559.0</ele><time>2026-04-13T10:36:31.958Z</time></trkpt><trkpt lat="44.1574197" lon="10.4089616"><ele>559.0</ele><time>2026-04-13T10:36:35.976Z</time></trkpt><trkpt lat="44.1573997" lon="10.4090632"><ele>559.0</ele><time>2026-04-13T10:36:39.976Z</time></trkpt><trkpt lat="44.1573768" lon="10.4091651"><ele>559.0</ele><time>2026-04-13T10:36:43.973Z</time></trkpt><trkpt lat="44.1573524" lon="10.4092682"><ele>558.8571428571429</ele><time>2026-04-13T10:36:47.959Z</time></trkpt><trkpt lat="44.1573336" lon="10.4093738"><ele>558.7142857142858</ele><time>2026-04-13T10:36:51.972Z</time></trkpt><trkpt lat="44.1572997" lon="10.4094658"><ele>558.5714285714286</ele><time>2026-04-13T10:36:55.975Z</time></trkpt><trkpt lat="44.1572756" lon="10.409563"><ele>558.4285714285714</ele><time>2026-04-13T10:36:59.96Z</time></trkpt><trkpt lat="44.1572526" lon="10.4096588"><ele>558.2857142857142</ele><time>2026-04-13T10:37:03.978Z</time></trkpt><trkpt lat="44.1572315" lon="10.409755"><ele>558.1428571428571</ele><time>2026-04-13T10:37:07.97Z</time></trkpt><trkpt lat="44.1572091" lon="10.409852"><ele>558.0</ele><time>2026-04-13T10:37:11.971Z</time></trkpt><trkpt lat="44.1571824" lon="10.4099469"><ele>559.9999999999999</ele><time>2026-04-13T10:37:15.963Z</time></trkpt><trkpt lat="44.1571599" lon="10.4100423"><ele>562.0</ele><time>2026-04-13T10:37:19.973Z</time></trkpt><trkpt lat="44.1571318" lon="10.410139"><ele>564.0</ele><time>2026-04-13T10:37:23.976Z</time></trkpt><trkpt lat="44.1571" lon="10.4102222"><ele>566.0</ele><time>2026-04-13T10:37:27.973Z</time></trkpt><trkpt lat="44.1570587" lon="10.4103062"><ele>568.0</ele><time>2026-04-13T10:37:31.971Z</time></trkpt><trkpt lat="44.1570124" lon="10.4103831"><ele>569.9999999999999</ele><time>2026-04-13T10:37:35.972Z</time></trkpt><trkpt lat="44.1569628" lon="10.4104569"><ele>572.0</ele><time>2026-04-13T10:37:39.971Z</time></trkpt><trkpt lat="44.1569026" lon="10.4105243"><ele>574.1666666666666</ele><time>2026-04-13T10:37:43.962Z</time></trkpt><trkpt lat="44.1568556" lon="10.4106104"><ele>576.3333333333333</ele><time>2026-04-13T10:37:47.966Z</time></trkpt><trkpt lat="44.15685" lon="10.4107196"><ele>578.5</ele><time>2026-04-13T10:37:51.973Z</time></trkpt><trkpt lat="44.1568126" lon="10.4108162"><ele>580.6666666666666</ele><time>2026-04-13T10:37:55.971Z</time></trkpt><trkpt lat="44.1567552" lon="10.4108903"><ele>582.8333333333334</ele><time>2026-04-13T10:37:59.976Z</time></trkpt><trkpt lat="44.1566985" lon="10.4109642"><ele>585.0</ele><time>2026-04-13T10:38:03.974Z</time></trkpt><trkpt lat="44.1566464" lon="10.4110321"><ele>585.0</ele><time>2026-04-13T10:38:07.979Z</time></trkpt><trkpt lat="44.1565893" lon="10.4110967"><ele>585.0</ele><time>2026-04-13T10:38:11.96Z</time></trkpt><trkpt lat="44.1565297" lon="10.4111676"><ele>585.0</ele><time>2026-04-13T10:38:15.966Z</time></trkpt><trkpt lat="44.1564783" lon="10.4112453"><ele>585.0</ele><time>2026-04-13T10:38:19.975Z</time></trkpt><trkpt lat="44.1564274" lon="10.4113225"><ele>585.0</ele><time>2026-04-13T10:38:23.971Z</time></trkpt><trkpt lat="44.1563714" lon="10.4114039"><ele>585.0</ele><time>2026-04-13T10:38:27.976Z</time></trkpt><trkpt lat="44.1563104" lon="10.4114728"><ele>587.5</ele><time>2026-04-13T10:38:31.969Z</time></trkpt><trkpt lat="44.1562484" lon="10.4115466"><ele>590.0</ele><time>2026-04-13T10:38:35.966Z</time></trkpt><trkpt lat="44.1561901" lon="10.411625"><ele>592.5</ele><time>2026-04-13T10:38:39.97Z</time></trkpt><trkpt lat="44.1561396" lon="10.4116882"><ele>595.0</ele><time>2026-04-13T10:38:42.968Z</time></trkpt><trkpt lat="44.1562186" lon="10.4116703"><ele>597.5</ele><time>2026-04-13T10:38:53.975Z</time></trkpt><trkpt lat="44.1562713" lon="10.4115985"><ele>600.0</ele><time>2026-04-13T10:38:55.961Z</time></trkpt><trkpt lat="44.1563426" lon="10.4115078"><ele>600.0</ele><time>2026-04-13T10:38:57.977Z</time></trkpt><trkpt lat="44.1564164" lon="10.4113966"><ele>600.0</ele><time>2026-04-13T10:38:59.973Z</time></trkpt><trkpt lat="44.1565092" lon="10.411281"><ele>600.0</ele><time>2026-04-13T10:39:01.98Z</time></trkpt><trkpt lat="44.1565625" lon="10.411221"><ele>600.0</ele><time>2026-04-13T10:39:02.973Z</time></trkpt><trkpt lat="44.156614" lon="10.4111514"><ele>600.0</ele><time>2026-04-13T10:39:03.966Z</time></trkpt><trkpt lat="44.1566679" lon="10.4110813"><ele>600.0</ele><time>2026-04-13T10:39:04.968Z</time></trkpt><trkpt lat="44.156721" lon="10.4110056"><ele>597.5</ele><time>2026-04-13T10:39:05.967Z</time></trkpt><trkpt lat="44.1567749" lon="10.4109318"><ele>595.0</ele><time>2026-04-13T10:39:06.978Z</time></trkpt><trkpt lat="44.156827" lon="10.4108678"><ele>592.5</ele><time>2026-04-13T10:39:07.975Z</time></trkpt><trkpt lat="44.1568732" lon="10.4108013"><ele>590.0</ele><time>2026-04-13T10:39:08.977Z</time></trkpt><trkpt lat="44.1569005" lon="10.4106586"><ele>587.5</ele><time>2026-04-13T10:39:10.971Z</time></trkpt><trkpt lat="44.1568175" lon="10.4105637"><ele>585.0</ele><time>2026-04-13T10:39:12.971Z</time></trkpt><trkpt lat="44.1566861" lon="10.4105557"><ele>585.0</ele><time>2026-04-13T10:39:14.962Z</time></trkpt><trkpt lat="44.1566164" lon="10.4105766"><ele>585.0</ele><time>2026-04-13T10:39:15.97Z</time></trkpt><trkpt lat="44.1565431" lon="10.4106045"><ele>585.0</ele><time>2026-04-13T10:39:16.967Z</time></trkpt><trkpt lat="44.1564657" lon="10.4106413"><ele>585.0</ele><time>2026-04-13T10:39:17.966Z</time></trkpt><trkpt lat="44.1563844" lon="10.4106845"><ele>585.0</ele><time>2026-04-13T10:39:18.963Z</time></trkpt><trkpt lat="44.1563013" lon="10.4107288"><ele>585.0</ele><time>2026-04-13T10:39:19.968Z</time></trkpt><trkpt lat="44.1562143" lon="10.410768"><ele>582.8</ele><time>2026-04-13T10:39:20.972Z</time></trkpt><trkpt lat="44.1561228" lon="10.4108034"><ele>580.6</ele><time>2026-04-13T10:39:21.976Z</time></trkpt><trkpt lat="44.156027" lon="10.41083"><ele>578.4</ele><time>2026-04-13T10:39:22.977Z</time></trkpt><trkpt lat="44.1559294" lon="10.4108527"><ele>576.2</ele><time>2026-04-13T10:39:23.981Z</time></trkpt><trkpt lat="44.1558275" lon="10.4108842"><ele>574.0</ele><time>2026-04-13T10:39:24.977Z</time></trkpt><trkpt lat="44.1557242" lon="10.410919"><ele>572.6</ele><time>2026-04-13T10:39:25.984Z</time></trkpt><trkpt lat="44.1556187" lon="10.4109499"><ele>571.2</ele><time>2026-04-13T10:39:26.973Z</time></trkpt><trkpt lat="44.1555092" lon="10.4109786"><ele>569.8000000000001</ele><time>2026-04-13T10:39:27.983Z</time></trkpt><trkpt lat="44.1553983" lon="10.4110078"><ele>568.4</ele><time>2026-04-13T10:39:28.984Z</time></trkpt><trkpt lat="44.1552835" lon="10.4110291"><ele>567.0</ele><time>2026-04-13T10:39:29.98Z</time></trkpt><trkpt lat="44.155168" lon="10.4110381"><ele>567.0</ele><time>2026-04-13T10:39:30.97Z</time></trkpt><trkpt lat="44.1550514" lon="10.4110497"><ele>567.0</ele><time>2026-04-13T10:39:31.983Z</time></trkpt><trkpt lat="44.1549327" lon="10.411056"><ele>567.0</ele><time>2026-04-13T10:39:32.979Z</time></trkpt><trkpt lat="44.1548132" lon="10.4110658"><ele>567.0</ele><time>2026-04-13T10:39:33.983Z</time></trkpt><trkpt lat="44.1546917" lon="10.4110712"><ele>565.75</ele><time>2026-04-13T10:39:34.957Z</time></trkpt><trkpt lat="44.154572" lon="10.4110817"><ele>564.5</ele><time>2026-04-13T10:39:35.96Z</time></trkpt><trkpt lat="44.1544488" lon="10.4110904"><ele>563.25</ele><time>2026-04-13T10:39:36.977Z</time></trkpt><trkpt lat="44.1543305" lon="10.4111101"><ele>562.0</ele><time>2026-04-13T10:39:37.974Z</time></trkpt><trkpt lat="44.1542117" lon="10.4111386"><ele>562.0</ele><time>2026-04-13T10:39:38.978Z</time></trkpt><trkpt lat="44.1540922" lon="10.4111689"><ele>562.0</ele><time>2026-04-13T10:39:39.972Z</time></trkpt><trkpt lat="44.1539742" lon="10.4111957"><ele>562.0</ele><time>2026-04-13T10:39:40.958Z</time></trkpt><trkpt lat="44.1538539" lon="10.4112209"><ele>562.0</ele><time>2026-04-13T10:39:41.962Z</time></trkpt><trkpt lat="44.1537314" lon="10.4112495"><ele>558.75</ele><time>2026-04-13T10:39:42.961Z</time></trkpt><trkpt lat="44.1536063" lon="10.4112569"><ele>555.5</ele><time>2026-04-13T10:39:43.965Z</time></trkpt><trkpt lat="44.153482" lon="10.41124"><ele>552.25</ele><time>2026-04-13T10:39:44.98Z</time></trkpt><trkpt lat="44.1533578" lon="10.4112069"><ele>549.0</ele><time>2026-04-13T10:39:45.98Z</time></trkpt><trkpt lat="44.1532443" lon="10.4111694"><ele>547.4</ele><time>2026-04-13T10:39:46.96Z</time></trkpt><trkpt lat="44.1531319" lon="10.4111245"><ele>545.8</ele><time>2026-04-13T10:39:47.974Z</time></trkpt><trkpt lat="44.1530244" lon="10.4110658"><ele>544.2</ele><time>2026-04-13T10:39:48.973Z</time></trkpt><trkpt lat="44.1529301" lon="10.4110165"><ele>542.6</ele><time>2026-04-13T10:39:49.976Z</time></trkpt><trkpt lat="44.1528408" lon="10.4109803"><ele>541.0</ele><time>2026-04-13T10:39:50.958Z</time></trkpt><trkpt lat="44.1527504" lon="10.4109684"><ele>541.0</ele><time>2026-04-13T10:39:51.97Z</time></trkpt><trkpt lat="44.1526566" lon="10.4109764"><ele>541.0</ele><time>2026-04-13T10:39:52.972Z</time></trkpt><trkpt lat="44.1525629" lon="10.4110169"><ele>541.0</ele><time>2026-04-13T10:39:53.961Z</time></trkpt><trkpt lat="44.1524723" lon="10.4110722"><ele>541.0</ele><time>2026-04-13T10:39:54.963Z</time></trkpt><trkpt lat="44.1523773" lon="10.4111313"><ele>541.0</ele><time>2026-04-13T10:39:55.965Z</time></trkpt><trkpt lat="44.15228" lon="10.4111911"><ele>540.8</ele><time>2026-04-13T10:39:56.975Z</time></trkpt><trkpt lat="44.1521825" lon="10.4112565"><ele>540.6</ele><time>2026-04-13T10:39:57.973Z</time></trkpt><trkpt lat="44.152085" lon="10.4113267"><ele>540.4</ele><time>2026-04-13T10:39:58.98Z</time></trkpt><trkpt lat="44.1519845" lon="10.4113938"><ele>540.2</ele><time>2026-04-13T10:39:59.975Z</time></trkpt><trkpt lat="44.1518797" lon="10.4114675"><ele>540.0</ele><time>2026-04-13T10:40:00.975Z</time></trkpt><trkpt lat="44.1517689" lon="10.411529"><ele>540.0</ele><time>2026-04-13T10:40:01.98Z</time></trkpt><trkpt lat="44.1516533" lon="10.411579"><ele>540.0</ele><time>2026-04-13T10:40:02.979Z</time></trkpt><trkpt lat="44.1515488" lon="10.4115939"><ele>540.0</ele><time>2026-04-13T10:40:03.958Z</time></trkpt><trkpt lat="44.1514478" lon="10.4116145"><ele>540.0</ele><time>2026-04-13T10:40:04.965Z</time></trkpt><trkpt lat="44.1513629" lon="10.4116256"><ele>540.0</ele><time>2026-04-13T10:40:05.97Z</time></trkpt><trkpt lat="44.1512922" lon="10.4116359"><ele>538.5</ele><time>2026-04-13T10:40:06.972Z</time></trkpt><trkpt lat="44.1511755" lon="10.4116484"><ele>537.0</ele><time>2026-04-13T10:40:08.978Z</time></trkpt><trkpt lat="44.1510924" lon="10.4116658"><ele>535.5</ele><time>2026-04-13T10:40:10.973Z</time></trkpt><trkpt lat="44.1510148" lon="10.4116856"><ele>534.0</ele><time>2026-04-13T10:40:13.964Z</time></trkpt><trkpt lat="44.1509511" lon="10.4116842"><ele>532.5</ele><time>2026-04-13T10:40:16.968Z</time></trkpt><trkpt lat="44.1509025" lon="10.4117532"><ele>531.0</ele><time>2026-04-13T10:40:19.961Z</time></trkpt><trkpt lat="44.1509357" lon="10.4118472"><ele>531.0</ele><time>2026-04-13T10:40:23.979Z</time></trkpt><trkpt lat="44.1510084" lon="10.4118797"><ele>531.0</ele><time>2026-04-13T10:40:27.969Z</time></trkpt><trkpt lat="44.151085" lon="10.411909"><ele>531.0</ele><time>2026-04-13T10:40:32.975Z</time></trkpt><trkpt lat="44.1510585" lon="10.4120062"><ele>531.0</ele><time>2026-04-13T10:40:37.97Z</time></trkpt><trkpt lat="44.1510033" lon="10.4120504"><ele>531.0</ele><time>2026-04-13T10:40:42.966Z</time></trkpt><trkpt lat="44.150943" lon="10.4120959"><ele>531.0</ele><time>2026-04-13T10:40:49.963Z</time></trkpt><trkpt lat="44.1508685" lon="10.4121042"><ele>531.0</ele><time>2026-04-13T10:40:54.974Z</time></trkpt><trkpt lat="44.1508402" lon="10.4121832"><ele>546.0</ele><time>2026-04-13T10:40:59.968Z</time></trkpt><trkpt lat="44.1508202" lon="10.4122747"><ele>546.0</ele><time>2026-04-13T10:41:04.964Z</time></trkpt><trkpt lat="44.1508038" lon="10.4123715"><ele>546.0</ele><time>2026-04-13T10:41:09.975Z</time></trkpt><trkpt lat="44.1507808" lon="10.4124663"><ele>546.0</ele><time>2026-04-13T10:41:14.972Z</time></trkpt><trkpt lat="44.150799" lon="10.4125525"><ele>546.0</ele><time>2026-04-13T10:42:07.96Z</time></trkpt></trkseg></trk></gpx>